<?xml version="1.0" encoding="UTF-8" standalone="no" ?>
<gpx xmlns="http://www.topografix.com/GPX/1/1" xmlns:xsi="http://www.w3.org/2001/XMLSchema-instance" xsi:schemaLocation="http://www.topografix.com/GPX/1/1 http://www.topografix.com/GPX/1/1/gpx.xsd" version="1.1" creator="VisuGPX - https://www.visugpx.com">
  <metadata>
    <name>ski st martin de Belleville - J6</name>
    <desc><![CDATA[Ski st martin de belleville  3 vallees
J6 (31/01/2014). Dernier jour
Itineraires: 
Le rafort
Le col du fruit (cote sus), mont vallon (cote ouest)]]></desc>
  </metadata>
  <trk>
    <name><![CDATA[2014-01-31 08:46]]></name>
    <desc><![CDATA[<h1>OruxMaps</h1><br /><hr align="center" width="480" style="height: 2px; width: 517px"/><h2>Nom: 2014-01-31 08:46</h2><br /><p>Temps de départ: 01/31/2014 08:46</p><p>Temps d'arrivée: 01/31/2014 17:12</p><p>Distance: 90,4 km (08:19)</p><p>Temps déplacement: 05:21</p><p>Vitesse moyenne: 10,9 km/h</p><p>Vitesse moyenne: 16,9 km/h</p><p>Vitess Max.: 109,9 km/h</p><p>Altitude minimale: 1320 m</p><p>Altitude maximale: 2938 m</p><p>Vitesse d'élévation: 2774,4 m/h</p><p>Vitesse de descente: -2188,2 m/h</p><p>Gain Altitude: 10030 m</p><p>Perte Altitude: -9316 m</p><p>Temps d'élévation: 03:36</p><p>Temps de descente: 04:15</p><hr align="center" width="480" style="height: 2px; width: 517px"/>]]></desc>
    <trkseg>
      <trkpt lat="45.37786" lon="6.5043">
        <ele>1418.12</ele>
        <time>2014-01-31T07:46:42Z</time>
      </trkpt>
      <trkpt lat="45.37766" lon="6.50475">
        <ele>1425.27</ele>
        <time>2014-01-31T07:48:03Z</time>
      </trkpt>
      <trkpt lat="45.37758" lon="6.50444">
        <ele>1421.6</ele>
        <time>2014-01-31T07:52:59Z</time>
      </trkpt>
      <trkpt lat="45.37759" lon="6.50488">
        <ele>1426.66</ele>
        <time>2014-01-31T07:56:49Z</time>
      </trkpt>
      <trkpt lat="45.37752" lon="6.50457">
        <ele>1423.33</ele>
        <time>2014-01-31T07:57:26Z</time>
      </trkpt>
      <trkpt lat="45.37745" lon="6.50425">
        <ele>1420.57</ele>
        <time>2014-01-31T07:58:39Z</time>
      </trkpt>
      <trkpt lat="45.37759" lon="6.50441">
        <ele>1421.26</ele>
        <time>2014-01-31T07:58:54Z</time>
      </trkpt>
      <trkpt lat="45.37748" lon="6.50461">
        <ele>1424.02</ele>
        <time>2014-01-31T08:00:04Z</time>
      </trkpt>
      <trkpt lat="45.37729" lon="6.5046">
        <ele>1426.28</ele>
        <time>2014-01-31T08:00:21Z</time>
      </trkpt>
      <trkpt lat="45.37719" lon="6.50439">
        <ele>1425.4</ele>
        <time>2014-01-31T08:00:31Z</time>
      </trkpt>
      <trkpt lat="45.37736" lon="6.50424">
        <ele>1421.85</ele>
        <time>2014-01-31T08:00:36Z</time>
      </trkpt>
      <trkpt lat="45.37748" lon="6.50442">
        <ele>1422.03</ele>
        <time>2014-01-31T08:02:14Z</time>
      </trkpt>
      <trkpt lat="45.37742" lon="6.50418">
        <ele>1420.38</ele>
        <time>2014-01-31T08:04:21Z</time>
      </trkpt>
      <trkpt lat="45.37729" lon="6.504">
        <ele>1420.66</ele>
        <time>2014-01-31T08:04:41Z</time>
      </trkpt>
      <trkpt lat="45.37719" lon="6.50422">
        <ele>1423.62</ele>
        <time>2014-01-31T08:05:01Z</time>
      </trkpt>
      <trkpt lat="45.37701" lon="6.50429">
        <ele>1424.29</ele>
        <time>2014-01-31T08:05:20Z</time>
      </trkpt>
      <trkpt lat="45.37683" lon="6.50435">
        <ele>1424.48</ele>
        <time>2014-01-31T08:05:46Z</time>
      </trkpt>
      <trkpt lat="45.37674" lon="6.50458">
        <ele>1427.1</ele>
        <time>2014-01-31T08:07:41Z</time>
      </trkpt>
      <trkpt lat="45.37672" lon="6.50484">
        <ele>1430.6</ele>
        <time>2014-01-31T08:07:46Z</time>
      </trkpt>
      <trkpt lat="45.37667" lon="6.50509">
        <ele>1434.23</ele>
        <time>2014-01-31T08:07:50Z</time>
      </trkpt>
      <trkpt lat="45.37665" lon="6.50539">
        <ele>1439.2</ele>
        <time>2014-01-31T08:07:55Z</time>
      </trkpt>
      <trkpt lat="45.37662" lon="6.50566">
        <ele>1444.76</ele>
        <time>2014-01-31T08:08:00Z</time>
      </trkpt>
      <trkpt lat="45.37658" lon="6.50592">
        <ele>1449.79</ele>
        <time>2014-01-31T08:08:05Z</time>
      </trkpt>
      <trkpt lat="45.37654" lon="6.50619">
        <ele>1454.18</ele>
        <time>2014-01-31T08:08:11Z</time>
      </trkpt>
      <trkpt lat="45.37651" lon="6.50647">
        <ele>1459.99</ele>
        <time>2014-01-31T08:08:16Z</time>
      </trkpt>
      <trkpt lat="45.37644" lon="6.50676">
        <ele>1469.71</ele>
        <time>2014-01-31T08:08:22Z</time>
      </trkpt>
      <trkpt lat="45.3764" lon="6.50705">
        <ele>1477.33</ele>
        <time>2014-01-31T08:08:27Z</time>
      </trkpt>
      <trkpt lat="45.37636" lon="6.50731">
        <ele>1483.3</ele>
        <time>2014-01-31T08:08:32Z</time>
      </trkpt>
      <trkpt lat="45.37631" lon="6.50759">
        <ele>1488.24</ele>
        <time>2014-01-31T08:08:37Z</time>
      </trkpt>
      <trkpt lat="45.37626" lon="6.50785">
        <ele>1490.05</ele>
        <time>2014-01-31T08:08:42Z</time>
      </trkpt>
      <trkpt lat="45.37623" lon="6.50811">
        <ele>1492.81</ele>
        <time>2014-01-31T08:08:47Z</time>
      </trkpt>
      <trkpt lat="45.37619" lon="6.50837">
        <ele>1496.27</ele>
        <time>2014-01-31T08:08:52Z</time>
      </trkpt>
      <trkpt lat="45.37616" lon="6.50865">
        <ele>1501.81</ele>
        <time>2014-01-31T08:08:57Z</time>
      </trkpt>
      <trkpt lat="45.37615" lon="6.50894">
        <ele>1507.7</ele>
        <time>2014-01-31T08:09:02Z</time>
      </trkpt>
      <trkpt lat="45.37612" lon="6.5092">
        <ele>1512.31</ele>
        <time>2014-01-31T08:09:07Z</time>
      </trkpt>
      <trkpt lat="45.37608" lon="6.50947">
        <ele>1517.05</ele>
        <time>2014-01-31T08:09:12Z</time>
      </trkpt>
      <trkpt lat="45.37602" lon="6.50972">
        <ele>1521.91</ele>
        <time>2014-01-31T08:09:17Z</time>
      </trkpt>
      <trkpt lat="45.37594" lon="6.50995">
        <ele>1529.7</ele>
        <time>2014-01-31T08:09:22Z</time>
      </trkpt>
      <trkpt lat="45.37592" lon="6.51021">
        <ele>1536.69</ele>
        <time>2014-01-31T08:09:27Z</time>
      </trkpt>
      <trkpt lat="45.37591" lon="6.51046">
        <ele>1541.35</ele>
        <time>2014-01-31T08:09:32Z</time>
      </trkpt>
      <trkpt lat="45.37587" lon="6.51075">
        <ele>1545.79</ele>
        <time>2014-01-31T08:09:38Z</time>
      </trkpt>
      <trkpt lat="45.37584" lon="6.51101">
        <ele>1549.58</ele>
        <time>2014-01-31T08:09:43Z</time>
      </trkpt>
      <trkpt lat="45.3758" lon="6.5113">
        <ele>1559.98</ele>
        <time>2014-01-31T08:09:48Z</time>
      </trkpt>
      <trkpt lat="45.37575" lon="6.51156">
        <ele>1569.38</ele>
        <time>2014-01-31T08:09:53Z</time>
      </trkpt>
      <trkpt lat="45.37571" lon="6.51183">
        <ele>1576.12</ele>
        <time>2014-01-31T08:10:00Z</time>
      </trkpt>
      <trkpt lat="45.37568" lon="6.51213">
        <ele>1580.38</ele>
        <time>2014-01-31T08:10:06Z</time>
      </trkpt>
      <trkpt lat="45.37564" lon="6.51238">
        <ele>1582.62</ele>
        <time>2014-01-31T08:10:09Z</time>
      </trkpt>
      <trkpt lat="45.37559" lon="6.51265">
        <ele>1584.78</ele>
        <time>2014-01-31T08:10:13Z</time>
      </trkpt>
      <trkpt lat="45.37553" lon="6.5129">
        <ele>1587.18</ele>
        <time>2014-01-31T08:10:17Z</time>
      </trkpt>
      <trkpt lat="45.37548" lon="6.5132">
        <ele>1590.27</ele>
        <time>2014-01-31T08:10:22Z</time>
      </trkpt>
      <trkpt lat="45.37543" lon="6.51346">
        <ele>1592.72</ele>
        <time>2014-01-31T08:10:26Z</time>
      </trkpt>
      <trkpt lat="45.37538" lon="6.51371">
        <ele>1594.63</ele>
        <time>2014-01-31T08:10:30Z</time>
      </trkpt>
      <trkpt lat="45.37534" lon="6.51397">
        <ele>1596.35</ele>
        <time>2014-01-31T08:10:34Z</time>
      </trkpt>
      <trkpt lat="45.37531" lon="6.51423">
        <ele>1597.91</ele>
        <time>2014-01-31T08:10:38Z</time>
      </trkpt>
      <trkpt lat="45.37527" lon="6.51454">
        <ele>1600.67</ele>
        <time>2014-01-31T08:10:43Z</time>
      </trkpt>
      <trkpt lat="45.37525" lon="6.51484">
        <ele>1606.13</ele>
        <time>2014-01-31T08:10:48Z</time>
      </trkpt>
      <trkpt lat="45.3752" lon="6.51514">
        <ele>1611.41</ele>
        <time>2014-01-31T08:10:54Z</time>
      </trkpt>
      <trkpt lat="45.37514" lon="6.51538">
        <ele>1614.68</ele>
        <time>2014-01-31T08:10:59Z</time>
      </trkpt>
      <trkpt lat="45.37507" lon="6.51565">
        <ele>1616.84</ele>
        <time>2014-01-31T08:11:05Z</time>
      </trkpt>
      <trkpt lat="45.37498" lon="6.51592">
        <ele>1617.06</ele>
        <time>2014-01-31T08:11:12Z</time>
      </trkpt>
      <trkpt lat="45.37494" lon="6.5162">
        <ele>1617.31</ele>
        <time>2014-01-31T08:11:17Z</time>
      </trkpt>
      <trkpt lat="45.3749" lon="6.51649">
        <ele>1617.38</ele>
        <time>2014-01-31T08:11:22Z</time>
      </trkpt>
      <trkpt lat="45.37485" lon="6.51678">
        <ele>1617.04</ele>
        <time>2014-01-31T08:11:28Z</time>
      </trkpt>
      <trkpt lat="45.37483" lon="6.51704">
        <ele>1617.13</ele>
        <time>2014-01-31T08:11:33Z</time>
      </trkpt>
      <trkpt lat="45.3748" lon="6.51733">
        <ele>1617.46</ele>
        <time>2014-01-31T08:11:38Z</time>
      </trkpt>
      <trkpt lat="45.37476" lon="6.51762">
        <ele>1616.86</ele>
        <time>2014-01-31T08:11:43Z</time>
      </trkpt>
      <trkpt lat="45.37471" lon="6.5179">
        <ele>1616.68</ele>
        <time>2014-01-31T08:11:48Z</time>
      </trkpt>
      <trkpt lat="45.37468" lon="6.51818">
        <ele>1617.67</ele>
        <time>2014-01-31T08:11:53Z</time>
      </trkpt>
      <trkpt lat="45.37464" lon="6.51846">
        <ele>1619.84</ele>
        <time>2014-01-31T08:11:58Z</time>
      </trkpt>
      <trkpt lat="45.37459" lon="6.51875">
        <ele>1623.53</ele>
        <time>2014-01-31T08:12:03Z</time>
      </trkpt>
      <trkpt lat="45.37455" lon="6.51904">
        <ele>1627.89</ele>
        <time>2014-01-31T08:12:08Z</time>
      </trkpt>
      <trkpt lat="45.37452" lon="6.51934">
        <ele>1635.77</ele>
        <time>2014-01-31T08:12:13Z</time>
      </trkpt>
      <trkpt lat="45.37448" lon="6.51963">
        <ele>1646.79</ele>
        <time>2014-01-31T08:12:18Z</time>
      </trkpt>
      <trkpt lat="45.37443" lon="6.51991">
        <ele>1653.98</ele>
        <time>2014-01-31T08:12:23Z</time>
      </trkpt>
      <trkpt lat="45.37438" lon="6.52021">
        <ele>1660.56</ele>
        <time>2014-01-31T08:12:29Z</time>
      </trkpt>
      <trkpt lat="45.37435" lon="6.52051">
        <ele>1669.71</ele>
        <time>2014-01-31T08:12:35Z</time>
      </trkpt>
      <trkpt lat="45.3743" lon="6.52077">
        <ele>1680.71</ele>
        <time>2014-01-31T08:12:40Z</time>
      </trkpt>
      <trkpt lat="45.37426" lon="6.52106">
        <ele>1690.2</ele>
        <time>2014-01-31T08:12:45Z</time>
      </trkpt>
      <trkpt lat="45.37423" lon="6.52136">
        <ele>1699.22</ele>
        <time>2014-01-31T08:12:50Z</time>
      </trkpt>
      <trkpt lat="45.37419" lon="6.52167">
        <ele>1706.18</ele>
        <time>2014-01-31T08:12:55Z</time>
      </trkpt>
      <trkpt lat="45.37414" lon="6.52196">
        <ele>1712.29</ele>
        <time>2014-01-31T08:13:00Z</time>
      </trkpt>
      <trkpt lat="45.3741" lon="6.52224">
        <ele>1718.52</ele>
        <time>2014-01-31T08:13:05Z</time>
      </trkpt>
      <trkpt lat="45.37405" lon="6.52252">
        <ele>1725.62</ele>
        <time>2014-01-31T08:13:11Z</time>
      </trkpt>
      <trkpt lat="45.37402" lon="6.52282">
        <ele>1734.35</ele>
        <time>2014-01-31T08:13:17Z</time>
      </trkpt>
      <trkpt lat="45.37399" lon="6.52308">
        <ele>1741.64</ele>
        <time>2014-01-31T08:13:22Z</time>
      </trkpt>
      <trkpt lat="45.37394" lon="6.52336">
        <ele>1749.32</ele>
        <time>2014-01-31T08:13:27Z</time>
      </trkpt>
      <trkpt lat="45.3739" lon="6.52364">
        <ele>1754.58</ele>
        <time>2014-01-31T08:13:32Z</time>
      </trkpt>
      <trkpt lat="45.37382" lon="6.52393">
        <ele>1759.61</ele>
        <time>2014-01-31T08:13:38Z</time>
      </trkpt>
      <trkpt lat="45.37376" lon="6.5242">
        <ele>1765.66</ele>
        <time>2014-01-31T08:13:43Z</time>
      </trkpt>
      <trkpt lat="45.37371" lon="6.5245">
        <ele>1773.66</ele>
        <time>2014-01-31T08:13:48Z</time>
      </trkpt>
      <trkpt lat="45.37365" lon="6.52479">
        <ele>1781.87</ele>
        <time>2014-01-31T08:13:53Z</time>
      </trkpt>
      <trkpt lat="45.3736" lon="6.52506">
        <ele>1784.14</ele>
        <time>2014-01-31T08:13:58Z</time>
      </trkpt>
      <trkpt lat="45.37356" lon="6.52534">
        <ele>1781.51</ele>
        <time>2014-01-31T08:14:03Z</time>
      </trkpt>
      <trkpt lat="45.37353" lon="6.5256">
        <ele>1779.23</ele>
        <time>2014-01-31T08:14:08Z</time>
      </trkpt>
      <trkpt lat="45.37353" lon="6.52589">
        <ele>1778.84</ele>
        <time>2014-01-31T08:14:16Z</time>
      </trkpt>
      <trkpt lat="45.3735" lon="6.52619">
        <ele>1778.87</ele>
        <time>2014-01-31T08:14:23Z</time>
      </trkpt>
      <trkpt lat="45.37348" lon="6.52645">
        <ele>1779.13</ele>
        <time>2014-01-31T08:14:28Z</time>
      </trkpt>
      <trkpt lat="45.37345" lon="6.52672">
        <ele>1780.3</ele>
        <time>2014-01-31T08:14:33Z</time>
      </trkpt>
      <trkpt lat="45.37342" lon="6.527">
        <ele>1784.75</ele>
        <time>2014-01-31T08:14:38Z</time>
      </trkpt>
      <trkpt lat="45.37339" lon="6.52726">
        <ele>1787.74</ele>
        <time>2014-01-31T08:14:43Z</time>
      </trkpt>
      <trkpt lat="45.37335" lon="6.52751">
        <ele>1789.89</ele>
        <time>2014-01-31T08:14:48Z</time>
      </trkpt>
      <trkpt lat="45.3733" lon="6.52778">
        <ele>1789.22</ele>
        <time>2014-01-31T08:14:53Z</time>
      </trkpt>
      <trkpt lat="45.37327" lon="6.52805">
        <ele>1791.22</ele>
        <time>2014-01-31T08:14:58Z</time>
      </trkpt>
      <trkpt lat="45.37323" lon="6.52832">
        <ele>1793.56</ele>
        <time>2014-01-31T08:15:03Z</time>
      </trkpt>
      <trkpt lat="45.3732" lon="6.52859">
        <ele>1796.24</ele>
        <time>2014-01-31T08:15:08Z</time>
      </trkpt>
      <trkpt lat="45.37309" lon="6.52881">
        <ele>1797.55</ele>
        <time>2014-01-31T08:16:39Z</time>
      </trkpt>
      <trkpt lat="45.3729" lon="6.52876">
        <ele>1794.55</ele>
        <time>2014-01-31T08:16:46Z</time>
      </trkpt>
      <trkpt lat="45.37272" lon="6.52865">
        <ele>1790.83</ele>
        <time>2014-01-31T08:16:55Z</time>
      </trkpt>
      <trkpt lat="45.3726" lon="6.52885">
        <ele>1789.78</ele>
        <time>2014-01-31T08:17:50Z</time>
      </trkpt>
      <trkpt lat="45.37252" lon="6.52914">
        <ele>1792.84</ele>
        <time>2014-01-31T08:18:04Z</time>
      </trkpt>
      <trkpt lat="45.37247" lon="6.52943">
        <ele>1798.71</ele>
        <time>2014-01-31T08:18:09Z</time>
      </trkpt>
      <trkpt lat="45.37243" lon="6.52968">
        <ele>1803.15</ele>
        <time>2014-01-31T08:18:13Z</time>
      </trkpt>
      <trkpt lat="45.37237" lon="6.52994">
        <ele>1807.06</ele>
        <time>2014-01-31T08:18:18Z</time>
      </trkpt>
      <trkpt lat="45.3723" lon="6.53022">
        <ele>1810.44</ele>
        <time>2014-01-31T08:18:24Z</time>
      </trkpt>
      <trkpt lat="45.37227" lon="6.53052">
        <ele>1814.5</ele>
        <time>2014-01-31T08:18:29Z</time>
      </trkpt>
      <trkpt lat="45.37226" lon="6.5308">
        <ele>1817.69</ele>
        <time>2014-01-31T08:18:34Z</time>
      </trkpt>
      <trkpt lat="45.37227" lon="6.53108">
        <ele>1822.4</ele>
        <time>2014-01-31T08:18:38Z</time>
      </trkpt>
      <trkpt lat="45.37223" lon="6.5314">
        <ele>1829.29</ele>
        <time>2014-01-31T08:18:42Z</time>
      </trkpt>
      <trkpt lat="45.37221" lon="6.5317">
        <ele>1834.82</ele>
        <time>2014-01-31T08:18:46Z</time>
      </trkpt>
      <trkpt lat="45.37217" lon="6.532">
        <ele>1842.13</ele>
        <time>2014-01-31T08:18:51Z</time>
      </trkpt>
      <trkpt lat="45.37215" lon="6.53229">
        <ele>1849.92</ele>
        <time>2014-01-31T08:18:56Z</time>
      </trkpt>
      <trkpt lat="45.37205" lon="6.53255">
        <ele>1856.23</ele>
        <time>2014-01-31T08:19:02Z</time>
      </trkpt>
      <trkpt lat="45.37186" lon="6.53265">
        <ele>1862.95</ele>
        <time>2014-01-31T08:19:05Z</time>
      </trkpt>
      <trkpt lat="45.37169" lon="6.5328">
        <ele>1873.42</ele>
        <time>2014-01-31T08:19:08Z</time>
      </trkpt>
      <trkpt lat="45.37152" lon="6.53298">
        <ele>1877.57</ele>
        <time>2014-01-31T08:19:12Z</time>
      </trkpt>
      <trkpt lat="45.37143" lon="6.5332">
        <ele>1880.44</ele>
        <time>2014-01-31T08:19:16Z</time>
      </trkpt>
      <trkpt lat="45.37134" lon="6.53343">
        <ele>1883.41</ele>
        <time>2014-01-31T08:19:21Z</time>
      </trkpt>
      <trkpt lat="45.37128" lon="6.53374">
        <ele>1886.78</ele>
        <time>2014-01-31T08:19:27Z</time>
      </trkpt>
      <trkpt lat="45.37124" lon="6.53405">
        <ele>1890.62</ele>
        <time>2014-01-31T08:19:32Z</time>
      </trkpt>
      <trkpt lat="45.37122" lon="6.53431">
        <ele>1895.2</ele>
        <time>2014-01-31T08:19:37Z</time>
      </trkpt>
      <trkpt lat="45.37109" lon="6.5345">
        <ele>1899.94</ele>
        <time>2014-01-31T08:20:27Z</time>
      </trkpt>
      <trkpt lat="45.37099" lon="6.53472">
        <ele>1903.4</ele>
        <time>2014-01-31T08:20:41Z</time>
      </trkpt>
      <trkpt lat="45.37093" lon="6.53496">
        <ele>1906.53</ele>
        <time>2014-01-31T08:20:49Z</time>
      </trkpt>
      <trkpt lat="45.37087" lon="6.53521">
        <ele>1910.2</ele>
        <time>2014-01-31T08:20:54Z</time>
      </trkpt>
      <trkpt lat="45.37082" lon="6.53551">
        <ele>1916.07</ele>
        <time>2014-01-31T08:20:59Z</time>
      </trkpt>
      <trkpt lat="45.37078" lon="6.53577">
        <ele>1921.57</ele>
        <time>2014-01-31T08:21:03Z</time>
      </trkpt>
      <trkpt lat="45.37073" lon="6.53604">
        <ele>1928.3</ele>
        <time>2014-01-31T08:21:07Z</time>
      </trkpt>
      <trkpt lat="45.3707" lon="6.53634">
        <ele>1938.39</ele>
        <time>2014-01-31T08:21:11Z</time>
      </trkpt>
      <trkpt lat="45.37066" lon="6.53661">
        <ele>1945.26</ele>
        <time>2014-01-31T08:21:15Z</time>
      </trkpt>
      <trkpt lat="45.37061" lon="6.53686">
        <ele>1949.37</ele>
        <time>2014-01-31T08:21:19Z</time>
      </trkpt>
      <trkpt lat="45.37054" lon="6.53714">
        <ele>1956.31</ele>
        <time>2014-01-31T08:21:24Z</time>
      </trkpt>
      <trkpt lat="45.37047" lon="6.53744">
        <ele>1965.82</ele>
        <time>2014-01-31T08:21:29Z</time>
      </trkpt>
      <trkpt lat="45.37041" lon="6.53773">
        <ele>1971.33</ele>
        <time>2014-01-31T08:21:34Z</time>
      </trkpt>
      <trkpt lat="45.37037" lon="6.53798">
        <ele>1974.93</ele>
        <time>2014-01-31T08:21:38Z</time>
      </trkpt>
      <trkpt lat="45.37032" lon="6.53829">
        <ele>1978.53</ele>
        <time>2014-01-31T08:21:43Z</time>
      </trkpt>
      <trkpt lat="45.3703" lon="6.5386">
        <ele>1984.79</ele>
        <time>2014-01-31T08:21:48Z</time>
      </trkpt>
      <trkpt lat="45.37027" lon="6.53891">
        <ele>1991.01</ele>
        <time>2014-01-31T08:21:53Z</time>
      </trkpt>
      <trkpt lat="45.37026" lon="6.53918">
        <ele>2000.43</ele>
        <time>2014-01-31T08:21:57Z</time>
      </trkpt>
      <trkpt lat="45.3702" lon="6.53946">
        <ele>2005.17</ele>
        <time>2014-01-31T08:22:02Z</time>
      </trkpt>
      <trkpt lat="45.37006" lon="6.53969">
        <ele>2007.88</ele>
        <time>2014-01-31T08:22:07Z</time>
      </trkpt>
      <trkpt lat="45.36993" lon="6.53988">
        <ele>2010.71</ele>
        <time>2014-01-31T08:22:11Z</time>
      </trkpt>
      <trkpt lat="45.36979" lon="6.5401">
        <ele>2012.89</ele>
        <time>2014-01-31T08:22:16Z</time>
      </trkpt>
      <trkpt lat="45.36967" lon="6.54035">
        <ele>2016.06</ele>
        <time>2014-01-31T08:22:21Z</time>
      </trkpt>
      <trkpt lat="45.36956" lon="6.54061">
        <ele>2020.4</ele>
        <time>2014-01-31T08:22:26Z</time>
      </trkpt>
      <trkpt lat="45.36945" lon="6.54087">
        <ele>2027.41</ele>
        <time>2014-01-31T08:22:31Z</time>
      </trkpt>
      <trkpt lat="45.36938" lon="6.54113">
        <ele>2040.67</ele>
        <time>2014-01-31T08:22:36Z</time>
      </trkpt>
      <trkpt lat="45.36932" lon="6.5414">
        <ele>2055.98</ele>
        <time>2014-01-31T08:22:41Z</time>
      </trkpt>
      <trkpt lat="45.36928" lon="6.54168">
        <ele>2066.58</ele>
        <time>2014-01-31T08:22:46Z</time>
      </trkpt>
      <trkpt lat="45.36925" lon="6.54196">
        <ele>2076.63</ele>
        <time>2014-01-31T08:22:51Z</time>
      </trkpt>
      <trkpt lat="45.3692" lon="6.54222">
        <ele>2083.15</ele>
        <time>2014-01-31T08:22:56Z</time>
      </trkpt>
      <trkpt lat="45.36915" lon="6.54251">
        <ele>2088.2</ele>
        <time>2014-01-31T08:23:01Z</time>
      </trkpt>
      <trkpt lat="45.36909" lon="6.54279">
        <ele>2099.79</ele>
        <time>2014-01-31T08:23:06Z</time>
      </trkpt>
      <trkpt lat="45.36901" lon="6.54308">
        <ele>2106.96</ele>
        <time>2014-01-31T08:23:12Z</time>
      </trkpt>
      <trkpt lat="45.36892" lon="6.54335">
        <ele>2111.55</ele>
        <time>2014-01-31T08:23:17Z</time>
      </trkpt>
      <trkpt lat="45.36879" lon="6.54356">
        <ele>2109.01</ele>
        <time>2014-01-31T08:23:21Z</time>
      </trkpt>
      <trkpt lat="45.36865" lon="6.54381">
        <ele>2108.86</ele>
        <time>2014-01-31T08:23:26Z</time>
      </trkpt>
      <trkpt lat="45.36856" lon="6.54403">
        <ele>2111.84</ele>
        <time>2014-01-31T08:23:30Z</time>
      </trkpt>
      <trkpt lat="45.36846" lon="6.5443">
        <ele>2112.74</ele>
        <time>2014-01-31T08:23:35Z</time>
      </trkpt>
      <trkpt lat="45.36839" lon="6.54459">
        <ele>2115.79</ele>
        <time>2014-01-31T08:23:40Z</time>
      </trkpt>
      <trkpt lat="45.36831" lon="6.54484">
        <ele>2122.47</ele>
        <time>2014-01-31T08:23:45Z</time>
      </trkpt>
      <trkpt lat="45.36825" lon="6.54511">
        <ele>2131.3</ele>
        <time>2014-01-31T08:23:50Z</time>
      </trkpt>
      <trkpt lat="45.36817" lon="6.5454">
        <ele>2136.45</ele>
        <time>2014-01-31T08:23:55Z</time>
      </trkpt>
      <trkpt lat="45.36808" lon="6.54569">
        <ele>2138.32</ele>
        <time>2014-01-31T08:24:00Z</time>
      </trkpt>
      <trkpt lat="45.368" lon="6.54598">
        <ele>2140.65</ele>
        <time>2014-01-31T08:24:05Z</time>
      </trkpt>
      <trkpt lat="45.36793" lon="6.54627">
        <ele>2143.05</ele>
        <time>2014-01-31T08:24:10Z</time>
      </trkpt>
      <trkpt lat="45.36786" lon="6.54657">
        <ele>2149.21</ele>
        <time>2014-01-31T08:24:15Z</time>
      </trkpt>
      <trkpt lat="45.3678" lon="6.54686">
        <ele>2155.28</ele>
        <time>2014-01-31T08:24:20Z</time>
      </trkpt>
      <trkpt lat="45.36775" lon="6.54713">
        <ele>2161.87</ele>
        <time>2014-01-31T08:24:25Z</time>
      </trkpt>
      <trkpt lat="45.36771" lon="6.54741">
        <ele>2180.26</ele>
        <time>2014-01-31T08:24:30Z</time>
      </trkpt>
      <trkpt lat="45.36762" lon="6.54769">
        <ele>2197.05</ele>
        <time>2014-01-31T08:24:36Z</time>
      </trkpt>
      <trkpt lat="45.36751" lon="6.54796">
        <ele>2201.56</ele>
        <time>2014-01-31T08:24:41Z</time>
      </trkpt>
      <trkpt lat="45.36737" lon="6.54816">
        <ele>2196.18</ele>
        <time>2014-01-31T08:24:45Z</time>
      </trkpt>
      <trkpt lat="45.36726" lon="6.54837">
        <ele>2194.34</ele>
        <time>2014-01-31T08:24:49Z</time>
      </trkpt>
      <trkpt lat="45.36715" lon="6.54865">
        <ele>2197.02</ele>
        <time>2014-01-31T08:24:54Z</time>
      </trkpt>
      <trkpt lat="45.36708" lon="6.54889">
        <ele>2197.95</ele>
        <time>2014-01-31T08:24:58Z</time>
      </trkpt>
      <trkpt lat="45.36699" lon="6.54916">
        <ele>2201.63</ele>
        <time>2014-01-31T08:25:03Z</time>
      </trkpt>
      <trkpt lat="45.36691" lon="6.54945">
        <ele>2196.04</ele>
        <time>2014-01-31T08:25:08Z</time>
      </trkpt>
      <trkpt lat="45.36682" lon="6.54973">
        <ele>2195.91</ele>
        <time>2014-01-31T08:25:13Z</time>
      </trkpt>
      <trkpt lat="45.36675" lon="6.55002">
        <ele>2200.64</ele>
        <time>2014-01-31T08:25:18Z</time>
      </trkpt>
      <trkpt lat="45.36668" lon="6.55031">
        <ele>2207.39</ele>
        <time>2014-01-31T08:25:23Z</time>
      </trkpt>
      <trkpt lat="45.36662" lon="6.55061">
        <ele>2216.07</ele>
        <time>2014-01-31T08:25:28Z</time>
      </trkpt>
      <trkpt lat="45.36658" lon="6.55091">
        <ele>2224.13</ele>
        <time>2014-01-31T08:25:33Z</time>
      </trkpt>
      <trkpt lat="45.36653" lon="6.55121">
        <ele>2232.45</ele>
        <time>2014-01-31T08:25:38Z</time>
      </trkpt>
      <trkpt lat="45.36651" lon="6.55152">
        <ele>2241.87</ele>
        <time>2014-01-31T08:25:43Z</time>
      </trkpt>
      <trkpt lat="45.36648" lon="6.55178">
        <ele>2247.96</ele>
        <time>2014-01-31T08:25:47Z</time>
      </trkpt>
      <trkpt lat="45.36644" lon="6.55203">
        <ele>2252.24</ele>
        <time>2014-01-31T08:25:51Z</time>
      </trkpt>
      <trkpt lat="45.36637" lon="6.55233">
        <ele>2256.84</ele>
        <time>2014-01-31T08:25:56Z</time>
      </trkpt>
      <trkpt lat="45.36631" lon="6.55262">
        <ele>2261.53</ele>
        <time>2014-01-31T08:26:01Z</time>
      </trkpt>
      <trkpt lat="45.36626" lon="6.55293">
        <ele>2268.18</ele>
        <time>2014-01-31T08:26:06Z</time>
      </trkpt>
      <trkpt lat="45.3662" lon="6.55321">
        <ele>2275.93</ele>
        <time>2014-01-31T08:26:11Z</time>
      </trkpt>
      <trkpt lat="45.36614" lon="6.55349">
        <ele>2280.88</ele>
        <time>2014-01-31T08:26:16Z</time>
      </trkpt>
      <trkpt lat="45.36607" lon="6.55372">
        <ele>2282.65</ele>
        <time>2014-01-31T08:26:20Z</time>
      </trkpt>
      <trkpt lat="45.36594" lon="6.55398">
        <ele>2284.75</ele>
        <time>2014-01-31T08:26:25Z</time>
      </trkpt>
      <trkpt lat="45.36578" lon="6.55421">
        <ele>2287.29</ele>
        <time>2014-01-31T08:26:30Z</time>
      </trkpt>
      <trkpt lat="45.36565" lon="6.55439">
        <ele>2291.69</ele>
        <time>2014-01-31T08:26:34Z</time>
      </trkpt>
      <trkpt lat="45.36555" lon="6.55465">
        <ele>2295.96</ele>
        <time>2014-01-31T08:26:39Z</time>
      </trkpt>
      <trkpt lat="45.36547" lon="6.55492">
        <ele>2299.98</ele>
        <time>2014-01-31T08:26:44Z</time>
      </trkpt>
      <trkpt lat="45.3654" lon="6.55518">
        <ele>2307.63</ele>
        <time>2014-01-31T08:26:49Z</time>
      </trkpt>
      <trkpt lat="45.36536" lon="6.55545">
        <ele>2315.92</ele>
        <time>2014-01-31T08:26:54Z</time>
      </trkpt>
      <trkpt lat="45.36534" lon="6.55575">
        <ele>2324.89</ele>
        <time>2014-01-31T08:26:59Z</time>
      </trkpt>
      <trkpt lat="45.36533" lon="6.55604">
        <ele>2337.8</ele>
        <time>2014-01-31T08:27:04Z</time>
      </trkpt>
      <trkpt lat="45.36531" lon="6.55633">
        <ele>2355.37</ele>
        <time>2014-01-31T08:27:09Z</time>
      </trkpt>
      <trkpt lat="45.3653" lon="6.55661">
        <ele>2370.19</ele>
        <time>2014-01-31T08:27:14Z</time>
      </trkpt>
      <trkpt lat="45.36522" lon="6.55688">
        <ele>2387.16</ele>
        <time>2014-01-31T08:27:20Z</time>
      </trkpt>
      <trkpt lat="45.36514" lon="6.55712">
        <ele>2398.59</ele>
        <time>2014-01-31T08:27:25Z</time>
      </trkpt>
      <trkpt lat="45.36504" lon="6.55738">
        <ele>2404.14</ele>
        <time>2014-01-31T08:27:30Z</time>
      </trkpt>
      <trkpt lat="45.36485" lon="6.55744">
        <ele>2401.68</ele>
        <time>2014-01-31T08:27:37Z</time>
      </trkpt>
      <trkpt lat="45.36504" lon="6.55726">
        <ele>2402.29</ele>
        <time>2014-01-31T08:27:48Z</time>
      </trkpt>
      <trkpt lat="45.36523" lon="6.55716">
        <ele>2401.79</ele>
        <time>2014-01-31T08:27:52Z</time>
      </trkpt>
      <trkpt lat="45.36542" lon="6.55707">
        <ele>2402.52</ele>
        <time>2014-01-31T08:27:56Z</time>
      </trkpt>
      <trkpt lat="45.3656" lon="6.55695">
        <ele>2409.11</ele>
        <time>2014-01-31T08:28:00Z</time>
      </trkpt>
      <trkpt lat="45.36577" lon="6.55674">
        <ele>2393.86</ele>
        <time>2014-01-31T08:28:04Z</time>
      </trkpt>
      <trkpt lat="45.36595" lon="6.55669">
        <ele>2390.94</ele>
        <time>2014-01-31T08:28:07Z</time>
      </trkpt>
      <trkpt lat="45.36613" lon="6.5565">
        <ele>2380.82</ele>
        <time>2014-01-31T08:28:10Z</time>
      </trkpt>
      <trkpt lat="45.36633" lon="6.55636">
        <ele>2376.01</ele>
        <time>2014-01-31T08:28:12Z</time>
      </trkpt>
      <trkpt lat="45.36652" lon="6.55629">
        <ele>2370.46</ele>
        <time>2014-01-31T08:28:14Z</time>
      </trkpt>
      <trkpt lat="45.36673" lon="6.55606">
        <ele>2358.34</ele>
        <time>2014-01-31T08:28:17Z</time>
      </trkpt>
      <trkpt lat="45.3669" lon="6.5559">
        <ele>2354.96</ele>
        <time>2014-01-31T08:28:19Z</time>
      </trkpt>
      <trkpt lat="45.36704" lon="6.55571">
        <ele>2352.33</ele>
        <time>2014-01-31T08:28:21Z</time>
      </trkpt>
      <trkpt lat="45.36716" lon="6.55553">
        <ele>2348.69</ele>
        <time>2014-01-31T08:28:23Z</time>
      </trkpt>
      <trkpt lat="45.3673" lon="6.55529">
        <ele>2345.23</ele>
        <time>2014-01-31T08:28:25Z</time>
      </trkpt>
      <trkpt lat="45.36736" lon="6.55498">
        <ele>2339.97</ele>
        <time>2014-01-31T08:28:27Z</time>
      </trkpt>
      <trkpt lat="45.36747" lon="6.55465">
        <ele>2340.04</ele>
        <time>2014-01-31T08:28:30Z</time>
      </trkpt>
      <trkpt lat="45.36755" lon="6.55433">
        <ele>2338.16</ele>
        <time>2014-01-31T08:28:33Z</time>
      </trkpt>
      <trkpt lat="45.36766" lon="6.55408">
        <ele>2335.82</ele>
        <time>2014-01-31T08:28:36Z</time>
      </trkpt>
      <trkpt lat="45.36775" lon="6.55381">
        <ele>2332.35</ele>
        <time>2014-01-31T08:28:39Z</time>
      </trkpt>
      <trkpt lat="45.36795" lon="6.55354">
        <ele>2326.9</ele>
        <time>2014-01-31T08:28:42Z</time>
      </trkpt>
      <trkpt lat="45.36814" lon="6.55335">
        <ele>2317.44</ele>
        <time>2014-01-31T08:28:44Z</time>
      </trkpt>
      <trkpt lat="45.36828" lon="6.55316">
        <ele>2309.91</ele>
        <time>2014-01-31T08:28:46Z</time>
      </trkpt>
      <trkpt lat="45.36843" lon="6.55286">
        <ele>2306.1</ele>
        <time>2014-01-31T08:28:49Z</time>
      </trkpt>
      <trkpt lat="45.3685" lon="6.55251">
        <ele>2304.87</ele>
        <time>2014-01-31T08:28:52Z</time>
      </trkpt>
      <trkpt lat="45.36855" lon="6.55223">
        <ele>2304.99</ele>
        <time>2014-01-31T08:28:55Z</time>
      </trkpt>
      <trkpt lat="45.36866" lon="6.55199">
        <ele>2304.5</ele>
        <time>2014-01-31T08:28:58Z</time>
      </trkpt>
      <trkpt lat="45.36884" lon="6.55188">
        <ele>2306.66</ele>
        <time>2014-01-31T08:29:01Z</time>
      </trkpt>
      <trkpt lat="45.36905" lon="6.55174">
        <ele>2304.5</ele>
        <time>2014-01-31T08:29:04Z</time>
      </trkpt>
      <trkpt lat="45.36922" lon="6.55156">
        <ele>2300.25</ele>
        <time>2014-01-31T08:29:07Z</time>
      </trkpt>
      <trkpt lat="45.36938" lon="6.55139">
        <ele>2299.69</ele>
        <time>2014-01-31T08:29:10Z</time>
      </trkpt>
      <trkpt lat="45.36955" lon="6.55119">
        <ele>2297.43</ele>
        <time>2014-01-31T08:29:13Z</time>
      </trkpt>
      <trkpt lat="45.36971" lon="6.55096">
        <ele>2295.16</ele>
        <time>2014-01-31T08:29:16Z</time>
      </trkpt>
      <trkpt lat="45.36986" lon="6.55074">
        <ele>2294.18</ele>
        <time>2014-01-31T08:29:19Z</time>
      </trkpt>
      <trkpt lat="45.37" lon="6.55054">
        <ele>2293.7</ele>
        <time>2014-01-31T08:29:22Z</time>
      </trkpt>
      <trkpt lat="45.37015" lon="6.55033">
        <ele>2291.99</ele>
        <time>2014-01-31T08:29:25Z</time>
      </trkpt>
      <trkpt lat="45.3703" lon="6.55019">
        <ele>2291.37</ele>
        <time>2014-01-31T08:29:31Z</time>
      </trkpt>
      <trkpt lat="45.37046" lon="6.55004">
        <ele>2289.26</ele>
        <time>2014-01-31T08:29:58Z</time>
      </trkpt>
      <trkpt lat="45.3706" lon="6.54983">
        <ele>2285.18</ele>
        <time>2014-01-31T08:30:02Z</time>
      </trkpt>
      <trkpt lat="45.37075" lon="6.54964">
        <ele>2281.28</ele>
        <time>2014-01-31T08:30:05Z</time>
      </trkpt>
      <trkpt lat="45.37087" lon="6.54942">
        <ele>2277.94</ele>
        <time>2014-01-31T08:30:11Z</time>
      </trkpt>
      <trkpt lat="45.371" lon="6.5492">
        <ele>2274.07</ele>
        <time>2014-01-31T08:30:23Z</time>
      </trkpt>
      <trkpt lat="45.37112" lon="6.54901">
        <ele>2269.28</ele>
        <time>2014-01-31T08:30:29Z</time>
      </trkpt>
      <trkpt lat="45.37119" lon="6.54876">
        <ele>2261.94</ele>
        <time>2014-01-31T08:30:34Z</time>
      </trkpt>
      <trkpt lat="45.37101" lon="6.54863">
        <ele>2257.33</ele>
        <time>2014-01-31T08:30:40Z</time>
      </trkpt>
      <trkpt lat="45.37099" lon="6.54836">
        <ele>2248.11</ele>
        <time>2014-01-31T08:30:46Z</time>
      </trkpt>
      <trkpt lat="45.37112" lon="6.54819">
        <ele>2242.96</ele>
        <time>2014-01-31T08:30:51Z</time>
      </trkpt>
      <trkpt lat="45.37093" lon="6.54819">
        <ele>2241.36</ele>
        <time>2014-01-31T08:30:55Z</time>
      </trkpt>
      <trkpt lat="45.37102" lon="6.54794">
        <ele>2233.01</ele>
        <time>2014-01-31T08:31:02Z</time>
      </trkpt>
      <trkpt lat="45.37119" lon="6.54783">
        <ele>2230.37</ele>
        <time>2014-01-31T08:31:05Z</time>
      </trkpt>
      <trkpt lat="45.37137" lon="6.54768">
        <ele>2226.61</ele>
        <time>2014-01-31T08:31:09Z</time>
      </trkpt>
      <trkpt lat="45.37152" lon="6.54748">
        <ele>2224.19</ele>
        <time>2014-01-31T08:31:14Z</time>
      </trkpt>
      <trkpt lat="45.37168" lon="6.54729">
        <ele>2222.32</ele>
        <time>2014-01-31T08:31:19Z</time>
      </trkpt>
      <trkpt lat="45.37154" lon="6.54711">
        <ele>2213.55</ele>
        <time>2014-01-31T08:31:40Z</time>
      </trkpt>
      <trkpt lat="45.37154" lon="6.54685">
        <ele>2204.51</ele>
        <time>2014-01-31T08:31:49Z</time>
      </trkpt>
      <trkpt lat="45.37152" lon="6.54658">
        <ele>2193.61</ele>
        <time>2014-01-31T08:32:02Z</time>
      </trkpt>
      <trkpt lat="45.37165" lon="6.5464">
        <ele>2188.3</ele>
        <time>2014-01-31T08:32:07Z</time>
      </trkpt>
      <trkpt lat="45.37171" lon="6.54614">
        <ele>2181.29</ele>
        <time>2014-01-31T08:32:25Z</time>
      </trkpt>
      <trkpt lat="45.37188" lon="6.54602">
        <ele>2177.81</ele>
        <time>2014-01-31T08:32:30Z</time>
      </trkpt>
      <trkpt lat="45.37207" lon="6.54593">
        <ele>2174.85</ele>
        <time>2014-01-31T08:32:37Z</time>
      </trkpt>
      <trkpt lat="45.37194" lon="6.54572">
        <ele>2166.25</ele>
        <time>2014-01-31T08:32:50Z</time>
      </trkpt>
      <trkpt lat="45.37204" lon="6.54548">
        <ele>2158.34</ele>
        <time>2014-01-31T08:33:00Z</time>
      </trkpt>
      <trkpt lat="45.37222" lon="6.54532">
        <ele>2152.5</ele>
        <time>2014-01-31T08:33:05Z</time>
      </trkpt>
      <trkpt lat="45.37203" lon="6.54523">
        <ele>2150.11</ele>
        <time>2014-01-31T08:33:13Z</time>
      </trkpt>
      <trkpt lat="45.37187" lon="6.54508">
        <ele>2144.49</ele>
        <time>2014-01-31T08:33:20Z</time>
      </trkpt>
      <trkpt lat="45.37202" lon="6.54488">
        <ele>2137.86</ele>
        <time>2014-01-31T08:33:27Z</time>
      </trkpt>
      <trkpt lat="45.37221" lon="6.54475">
        <ele>2132.16</ele>
        <time>2014-01-31T08:33:32Z</time>
      </trkpt>
      <trkpt lat="45.37219" lon="6.54449">
        <ele>2122.86</ele>
        <time>2014-01-31T08:33:39Z</time>
      </trkpt>
      <trkpt lat="45.37237" lon="6.54438">
        <ele>2119.58</ele>
        <time>2014-01-31T08:33:43Z</time>
      </trkpt>
      <trkpt lat="45.37251" lon="6.54421">
        <ele>2114.31</ele>
        <time>2014-01-31T08:33:47Z</time>
      </trkpt>
      <trkpt lat="45.37261" lon="6.54395">
        <ele>2106.71</ele>
        <time>2014-01-31T08:33:51Z</time>
      </trkpt>
      <trkpt lat="45.37272" lon="6.5437">
        <ele>2100</ele>
        <time>2014-01-31T08:33:57Z</time>
      </trkpt>
      <trkpt lat="45.37286" lon="6.54352">
        <ele>2095.58</ele>
        <time>2014-01-31T08:34:02Z</time>
      </trkpt>
      <trkpt lat="45.37287" lon="6.54324">
        <ele>2088.36</ele>
        <time>2014-01-31T08:34:09Z</time>
      </trkpt>
      <trkpt lat="45.37303" lon="6.54303">
        <ele>2084.33</ele>
        <time>2014-01-31T08:34:15Z</time>
      </trkpt>
      <trkpt lat="45.37321" lon="6.54298">
        <ele>2083.33</ele>
        <time>2014-01-31T08:34:19Z</time>
      </trkpt>
      <trkpt lat="45.37339" lon="6.54289">
        <ele>2080.9</ele>
        <time>2014-01-31T08:34:24Z</time>
      </trkpt>
      <trkpt lat="45.37357" lon="6.54278">
        <ele>2074.05</ele>
        <time>2014-01-31T08:34:30Z</time>
      </trkpt>
      <trkpt lat="45.37359" lon="6.5425">
        <ele>2066.28</ele>
        <time>2014-01-31T08:34:39Z</time>
      </trkpt>
      <trkpt lat="45.37363" lon="6.54222">
        <ele>2061.83</ele>
        <time>2014-01-31T08:34:42Z</time>
      </trkpt>
      <trkpt lat="45.37375" lon="6.542">
        <ele>2053.7</ele>
        <time>2014-01-31T08:34:55Z</time>
      </trkpt>
      <trkpt lat="45.37397" lon="6.54196">
        <ele>2049.69</ele>
        <time>2014-01-31T08:35:00Z</time>
      </trkpt>
      <trkpt lat="45.37417" lon="6.5419">
        <ele>2044.92</ele>
        <time>2014-01-31T08:35:04Z</time>
      </trkpt>
      <trkpt lat="45.37432" lon="6.54177">
        <ele>2036.86</ele>
        <time>2014-01-31T08:35:07Z</time>
      </trkpt>
      <trkpt lat="45.3745" lon="6.54165">
        <ele>2031.59</ele>
        <time>2014-01-31T08:35:11Z</time>
      </trkpt>
      <trkpt lat="45.37436" lon="6.54149">
        <ele>2026.57</ele>
        <time>2014-01-31T08:35:16Z</time>
      </trkpt>
      <trkpt lat="45.37421" lon="6.54135">
        <ele>2022.47</ele>
        <time>2014-01-31T08:35:20Z</time>
      </trkpt>
      <trkpt lat="45.37433" lon="6.54108">
        <ele>2013.17</ele>
        <time>2014-01-31T08:35:25Z</time>
      </trkpt>
      <trkpt lat="45.37446" lon="6.54088">
        <ele>2009.04</ele>
        <time>2014-01-31T08:35:28Z</time>
      </trkpt>
      <trkpt lat="45.37456" lon="6.54066">
        <ele>2006.61</ele>
        <time>2014-01-31T08:35:31Z</time>
      </trkpt>
      <trkpt lat="45.37453" lon="6.54036">
        <ele>2002.8</ele>
        <time>2014-01-31T08:35:34Z</time>
      </trkpt>
      <trkpt lat="45.3744" lon="6.54009">
        <ele>1998.48</ele>
        <time>2014-01-31T08:35:37Z</time>
      </trkpt>
      <trkpt lat="45.37431" lon="6.53982">
        <ele>1994.92</ele>
        <time>2014-01-31T08:35:41Z</time>
      </trkpt>
      <trkpt lat="45.37436" lon="6.53955">
        <ele>1992.75</ele>
        <time>2014-01-31T08:36:01Z</time>
      </trkpt>
      <trkpt lat="45.37445" lon="6.53929">
        <ele>1989.71</ele>
        <time>2014-01-31T08:36:06Z</time>
      </trkpt>
      <trkpt lat="45.3745" lon="6.53903">
        <ele>1984.42</ele>
        <time>2014-01-31T08:36:11Z</time>
      </trkpt>
      <trkpt lat="45.37457" lon="6.53872">
        <ele>1977.72</ele>
        <time>2014-01-31T08:36:16Z</time>
      </trkpt>
      <trkpt lat="45.37466" lon="6.53841">
        <ele>1970.45</ele>
        <time>2014-01-31T08:36:20Z</time>
      </trkpt>
      <trkpt lat="45.3747" lon="6.53808">
        <ele>1964.44</ele>
        <time>2014-01-31T08:36:24Z</time>
      </trkpt>
      <trkpt lat="45.37466" lon="6.53782">
        <ele>1959.59</ele>
        <time>2014-01-31T08:36:28Z</time>
      </trkpt>
      <trkpt lat="45.37461" lon="6.53753">
        <ele>1954.69</ele>
        <time>2014-01-31T08:36:36Z</time>
      </trkpt>
      <trkpt lat="45.37457" lon="6.53728">
        <ele>1950.3</ele>
        <time>2014-01-31T08:36:40Z</time>
      </trkpt>
      <trkpt lat="45.37454" lon="6.53702">
        <ele>1946.84</ele>
        <time>2014-01-31T08:36:45Z</time>
      </trkpt>
      <trkpt lat="45.37446" lon="6.53675">
        <ele>1943.75</ele>
        <time>2014-01-31T08:36:49Z</time>
      </trkpt>
      <trkpt lat="45.37435" lon="6.53647">
        <ele>1937.94</ele>
        <time>2014-01-31T08:36:53Z</time>
      </trkpt>
      <trkpt lat="45.37419" lon="6.53626">
        <ele>1931.88</ele>
        <time>2014-01-31T08:36:56Z</time>
      </trkpt>
      <trkpt lat="45.37411" lon="6.536">
        <ele>1928.11</ele>
        <time>2014-01-31T08:37:01Z</time>
      </trkpt>
      <trkpt lat="45.37408" lon="6.53572">
        <ele>1925.37</ele>
        <time>2014-01-31T08:37:05Z</time>
      </trkpt>
      <trkpt lat="45.37405" lon="6.53543">
        <ele>1923.14</ele>
        <time>2014-01-31T08:37:08Z</time>
      </trkpt>
      <trkpt lat="45.37401" lon="6.53512">
        <ele>1922.69</ele>
        <time>2014-01-31T08:37:15Z</time>
      </trkpt>
      <trkpt lat="45.37392" lon="6.53485">
        <ele>1921.32</ele>
        <time>2014-01-31T08:37:19Z</time>
      </trkpt>
      <trkpt lat="45.37383" lon="6.53456">
        <ele>1919.83</ele>
        <time>2014-01-31T08:37:24Z</time>
      </trkpt>
      <trkpt lat="45.37373" lon="6.53433">
        <ele>1915.43</ele>
        <time>2014-01-31T08:37:28Z</time>
      </trkpt>
      <trkpt lat="45.37365" lon="6.53404">
        <ele>1906.51</ele>
        <time>2014-01-31T08:37:33Z</time>
      </trkpt>
      <trkpt lat="45.37364" lon="6.53378">
        <ele>1900.64</ele>
        <time>2014-01-31T08:37:37Z</time>
      </trkpt>
      <trkpt lat="45.37361" lon="6.53344">
        <ele>1895.26</ele>
        <time>2014-01-31T08:37:42Z</time>
      </trkpt>
      <trkpt lat="45.37359" lon="6.53313">
        <ele>1893.05</ele>
        <time>2014-01-31T08:37:47Z</time>
      </trkpt>
      <trkpt lat="45.3734" lon="6.53306">
        <ele>1884.27</ele>
        <time>2014-01-31T08:37:56Z</time>
      </trkpt>
      <trkpt lat="45.37323" lon="6.53326">
        <ele>1883.51</ele>
        <time>2014-01-31T08:38:17Z</time>
      </trkpt>
      <trkpt lat="45.37302" lon="6.53329">
        <ele>1881.36</ele>
        <time>2014-01-31T08:38:22Z</time>
      </trkpt>
      <trkpt lat="45.37286" lon="6.53312">
        <ele>1874.88</ele>
        <time>2014-01-31T08:38:26Z</time>
      </trkpt>
      <trkpt lat="45.37268" lon="6.53306">
        <ele>1870.03</ele>
        <time>2014-01-31T08:38:30Z</time>
      </trkpt>
      <trkpt lat="45.37253" lon="6.53287">
        <ele>1862.13</ele>
        <time>2014-01-31T08:38:39Z</time>
      </trkpt>
      <trkpt lat="45.3726" lon="6.53257">
        <ele>1856.91</ele>
        <time>2014-01-31T08:38:45Z</time>
      </trkpt>
      <trkpt lat="45.37247" lon="6.53239">
        <ele>1850.52</ele>
        <time>2014-01-31T08:38:56Z</time>
      </trkpt>
      <trkpt lat="45.37235" lon="6.53218">
        <ele>1845.91</ele>
        <time>2014-01-31T08:39:03Z</time>
      </trkpt>
      <trkpt lat="45.3722" lon="6.53204">
        <ele>1842.46</ele>
        <time>2014-01-31T08:39:06Z</time>
      </trkpt>
      <trkpt lat="45.37199" lon="6.53181">
        <ele>1841.41</ele>
        <time>2014-01-31T08:39:10Z</time>
      </trkpt>
      <trkpt lat="45.37182" lon="6.53167">
        <ele>1842.89</ele>
        <time>2014-01-31T08:39:13Z</time>
      </trkpt>
      <trkpt lat="45.3719" lon="6.53128">
        <ele>1828.66</ele>
        <time>2014-01-31T08:39:18Z</time>
      </trkpt>
      <trkpt lat="45.37208" lon="6.53097">
        <ele>1821.06</ele>
        <time>2014-01-31T08:39:20Z</time>
      </trkpt>
      <trkpt lat="45.3722" lon="6.53068">
        <ele>1816.31</ele>
        <time>2014-01-31T08:39:22Z</time>
      </trkpt>
      <trkpt lat="45.37229" lon="6.53039">
        <ele>1812.76</ele>
        <time>2014-01-31T08:39:24Z</time>
      </trkpt>
      <trkpt lat="45.37248" lon="6.53003">
        <ele>1809.21</ele>
        <time>2014-01-31T08:39:26Z</time>
      </trkpt>
      <trkpt lat="45.37264" lon="6.52969">
        <ele>1803.54</ele>
        <time>2014-01-31T08:39:28Z</time>
      </trkpt>
      <trkpt lat="45.37278" lon="6.52945">
        <ele>1800.17</ele>
        <time>2014-01-31T08:39:30Z</time>
      </trkpt>
      <trkpt lat="45.37287" lon="6.5292">
        <ele>1798.69</ele>
        <time>2014-01-31T08:39:33Z</time>
      </trkpt>
      <trkpt lat="45.37286" lon="6.52886">
        <ele>1794.98</ele>
        <time>2014-01-31T08:39:37Z</time>
      </trkpt>
      <trkpt lat="45.37275" lon="6.52862">
        <ele>1791.46</ele>
        <time>2014-01-31T08:39:41Z</time>
      </trkpt>
      <trkpt lat="45.37261" lon="6.52885">
        <ele>1789.99</ele>
        <time>2014-01-31T08:40:16Z</time>
      </trkpt>
      <trkpt lat="45.37254" lon="6.52915">
        <ele>1793.43</ele>
        <time>2014-01-31T08:40:20Z</time>
      </trkpt>
      <trkpt lat="45.37246" lon="6.52941">
        <ele>1798.42</ele>
        <time>2014-01-31T08:40:25Z</time>
      </trkpt>
      <trkpt lat="45.37239" lon="6.52971">
        <ele>1803.43</ele>
        <time>2014-01-31T08:40:30Z</time>
      </trkpt>
      <trkpt lat="45.37233" lon="6.52996">
        <ele>1807.1</ele>
        <time>2014-01-31T08:40:34Z</time>
      </trkpt>
      <trkpt lat="45.37227" lon="6.53024">
        <ele>1810.62</ele>
        <time>2014-01-31T08:40:39Z</time>
      </trkpt>
      <trkpt lat="45.37221" lon="6.53053">
        <ele>1814.51</ele>
        <time>2014-01-31T08:40:44Z</time>
      </trkpt>
      <trkpt lat="45.37213" lon="6.5308">
        <ele>1817.91</ele>
        <time>2014-01-31T08:40:49Z</time>
      </trkpt>
      <trkpt lat="45.37206" lon="6.5311">
        <ele>1823.39</ele>
        <time>2014-01-31T08:40:54Z</time>
      </trkpt>
      <trkpt lat="45.372" lon="6.53136">
        <ele>1829.14</ele>
        <time>2014-01-31T08:40:58Z</time>
      </trkpt>
      <trkpt lat="45.37194" lon="6.53161">
        <ele>1835.52</ele>
        <time>2014-01-31T08:41:02Z</time>
      </trkpt>
      <trkpt lat="45.37187" lon="6.53187">
        <ele>1847.01</ele>
        <time>2014-01-31T08:41:07Z</time>
      </trkpt>
      <trkpt lat="45.37181" lon="6.53214">
        <ele>1856.02</ele>
        <time>2014-01-31T08:41:12Z</time>
      </trkpt>
      <trkpt lat="45.37176" lon="6.53243">
        <ele>1864.32</ele>
        <time>2014-01-31T08:41:17Z</time>
      </trkpt>
      <trkpt lat="45.37173" lon="6.53271">
        <ele>1870.33</ele>
        <time>2014-01-31T08:41:22Z</time>
      </trkpt>
      <trkpt lat="45.37167" lon="6.53301">
        <ele>1877.25</ele>
        <time>2014-01-31T08:41:27Z</time>
      </trkpt>
      <trkpt lat="45.37162" lon="6.5333">
        <ele>1880.78</ele>
        <time>2014-01-31T08:41:32Z</time>
      </trkpt>
      <trkpt lat="45.37156" lon="6.53359">
        <ele>1883.77</ele>
        <time>2014-01-31T08:41:37Z</time>
      </trkpt>
      <trkpt lat="45.3715" lon="6.53388">
        <ele>1886.52</ele>
        <time>2014-01-31T08:41:42Z</time>
      </trkpt>
      <trkpt lat="45.37142" lon="6.53416">
        <ele>1889.85</ele>
        <time>2014-01-31T08:41:47Z</time>
      </trkpt>
      <trkpt lat="45.37134" lon="6.53444">
        <ele>1896.48</ele>
        <time>2014-01-31T08:41:52Z</time>
      </trkpt>
      <trkpt lat="45.37123" lon="6.53472">
        <ele>1904.22</ele>
        <time>2014-01-31T08:41:57Z</time>
      </trkpt>
      <trkpt lat="45.37111" lon="6.53491">
        <ele>1905.68</ele>
        <time>2014-01-31T08:42:01Z</time>
      </trkpt>
      <trkpt lat="45.37099" lon="6.5351">
        <ele>1908.9</ele>
        <time>2014-01-31T08:42:05Z</time>
      </trkpt>
      <trkpt lat="45.37088" lon="6.53537">
        <ele>1913.42</ele>
        <time>2014-01-31T08:42:10Z</time>
      </trkpt>
      <trkpt lat="45.37081" lon="6.53564">
        <ele>1918.85</ele>
        <time>2014-01-31T08:42:15Z</time>
      </trkpt>
      <trkpt lat="45.37076" lon="6.53593">
        <ele>1925.44</ele>
        <time>2014-01-31T08:42:20Z</time>
      </trkpt>
      <trkpt lat="45.37072" lon="6.53622">
        <ele>1934.05</ele>
        <time>2014-01-31T08:42:25Z</time>
      </trkpt>
      <trkpt lat="45.3707" lon="6.53652">
        <ele>1943.2</ele>
        <time>2014-01-31T08:42:30Z</time>
      </trkpt>
      <trkpt lat="45.37066" lon="6.53682">
        <ele>1949.53</ele>
        <time>2014-01-31T08:42:35Z</time>
      </trkpt>
      <trkpt lat="45.37061" lon="6.53712">
        <ele>1956.31</ele>
        <time>2014-01-31T08:42:40Z</time>
      </trkpt>
      <trkpt lat="45.37056" lon="6.53741">
        <ele>1965</ele>
        <time>2014-01-31T08:42:45Z</time>
      </trkpt>
      <trkpt lat="45.37051" lon="6.53769">
        <ele>1970.78</ele>
        <time>2014-01-31T08:42:50Z</time>
      </trkpt>
      <trkpt lat="45.37042" lon="6.53797">
        <ele>1974.83</ele>
        <time>2014-01-31T08:42:55Z</time>
      </trkpt>
      <trkpt lat="45.37031" lon="6.53819">
        <ele>1977.46</ele>
        <time>2014-01-31T08:42:59Z</time>
      </trkpt>
      <trkpt lat="45.37019" lon="6.53845">
        <ele>1982.69</ele>
        <time>2014-01-31T08:43:04Z</time>
      </trkpt>
      <trkpt lat="45.37009" lon="6.53868">
        <ele>1991.35</ele>
        <time>2014-01-31T08:43:08Z</time>
      </trkpt>
      <trkpt lat="45.36999" lon="6.53892">
        <ele>1999.95</ele>
        <time>2014-01-31T08:43:13Z</time>
      </trkpt>
      <trkpt lat="45.36989" lon="6.53919">
        <ele>2001.18</ele>
        <time>2014-01-31T08:43:18Z</time>
      </trkpt>
      <trkpt lat="45.36977" lon="6.53942">
        <ele>2002.29</ele>
        <time>2014-01-31T08:43:23Z</time>
      </trkpt>
      <trkpt lat="45.36968" lon="6.53969">
        <ele>2004.17</ele>
        <time>2014-01-31T08:43:28Z</time>
      </trkpt>
      <trkpt lat="45.36959" lon="6.53997">
        <ele>2007.59</ele>
        <time>2014-01-31T08:43:33Z</time>
      </trkpt>
      <trkpt lat="45.36954" lon="6.54025">
        <ele>2012.59</ele>
        <time>2014-01-31T08:43:38Z</time>
      </trkpt>
      <trkpt lat="45.36948" lon="6.54052">
        <ele>2016.34</ele>
        <time>2014-01-31T08:43:43Z</time>
      </trkpt>
      <trkpt lat="45.36942" lon="6.54079">
        <ele>2023.17</ele>
        <time>2014-01-31T08:43:48Z</time>
      </trkpt>
      <trkpt lat="45.36933" lon="6.54105">
        <ele>2035.08</ele>
        <time>2014-01-31T08:43:53Z</time>
      </trkpt>
      <trkpt lat="45.36926" lon="6.54132">
        <ele>2049.04</ele>
        <time>2014-01-31T08:43:58Z</time>
      </trkpt>
      <trkpt lat="45.36918" lon="6.54158">
        <ele>2060.21</ele>
        <time>2014-01-31T08:44:03Z</time>
      </trkpt>
      <trkpt lat="45.36912" lon="6.54187">
        <ele>2071.58</ele>
        <time>2014-01-31T08:44:08Z</time>
      </trkpt>
      <trkpt lat="45.36905" lon="6.54216">
        <ele>2079.75</ele>
        <time>2014-01-31T08:44:13Z</time>
      </trkpt>
      <trkpt lat="45.36895" lon="6.54244">
        <ele>2085.74</ele>
        <time>2014-01-31T08:44:18Z</time>
      </trkpt>
      <trkpt lat="45.36887" lon="6.54271">
        <ele>2094.47</ele>
        <time>2014-01-31T08:44:23Z</time>
      </trkpt>
      <trkpt lat="45.36879" lon="6.54298">
        <ele>2100.2</ele>
        <time>2014-01-31T08:44:28Z</time>
      </trkpt>
      <trkpt lat="45.36873" lon="6.54327">
        <ele>2104.38</ele>
        <time>2014-01-31T08:44:33Z</time>
      </trkpt>
      <trkpt lat="45.36867" lon="6.54351">
        <ele>2103.49</ele>
        <time>2014-01-31T08:44:37Z</time>
      </trkpt>
      <trkpt lat="45.36859" lon="6.54379">
        <ele>2105.36</ele>
        <time>2014-01-31T08:44:42Z</time>
      </trkpt>
      <trkpt lat="45.36852" lon="6.54408">
        <ele>2111.54</ele>
        <time>2014-01-31T08:44:47Z</time>
      </trkpt>
      <trkpt lat="45.36844" lon="6.54435">
        <ele>2112.75</ele>
        <time>2014-01-31T08:44:52Z</time>
      </trkpt>
      <trkpt lat="45.36838" lon="6.54464">
        <ele>2116.76</ele>
        <time>2014-01-31T08:44:57Z</time>
      </trkpt>
      <trkpt lat="45.36828" lon="6.5449">
        <ele>2124.26</ele>
        <time>2014-01-31T08:45:02Z</time>
      </trkpt>
      <trkpt lat="45.36817" lon="6.54515">
        <ele>2129.18</ele>
        <time>2014-01-31T08:45:07Z</time>
      </trkpt>
      <trkpt lat="45.36807" lon="6.54538">
        <ele>2130.5</ele>
        <time>2014-01-31T08:45:11Z</time>
      </trkpt>
      <trkpt lat="45.36797" lon="6.5456">
        <ele>2131.25</ele>
        <time>2014-01-31T08:45:15Z</time>
      </trkpt>
      <trkpt lat="45.36786" lon="6.54586">
        <ele>2130.96</ele>
        <time>2014-01-31T08:45:20Z</time>
      </trkpt>
      <trkpt lat="45.36778" lon="6.54615">
        <ele>2131.83</ele>
        <time>2014-01-31T08:45:25Z</time>
      </trkpt>
      <trkpt lat="45.3677" lon="6.54642">
        <ele>2136.07</ele>
        <time>2014-01-31T08:45:30Z</time>
      </trkpt>
      <trkpt lat="45.36765" lon="6.54671">
        <ele>2144.34</ele>
        <time>2014-01-31T08:45:35Z</time>
      </trkpt>
      <trkpt lat="45.36763" lon="6.54701">
        <ele>2153.23</ele>
        <time>2014-01-31T08:45:40Z</time>
      </trkpt>
      <trkpt lat="45.36757" lon="6.54727">
        <ele>2165.61</ele>
        <time>2014-01-31T08:45:45Z</time>
      </trkpt>
      <trkpt lat="45.36754" lon="6.54754">
        <ele>2189.21</ele>
        <time>2014-01-31T08:45:50Z</time>
      </trkpt>
      <trkpt lat="45.36752" lon="6.54781">
        <ele>2200.62</ele>
        <time>2014-01-31T08:45:55Z</time>
      </trkpt>
      <trkpt lat="45.36747" lon="6.54806">
        <ele>2200.28</ele>
        <time>2014-01-31T08:45:59Z</time>
      </trkpt>
      <trkpt lat="45.36738" lon="6.5483">
        <ele>2198.39</ele>
        <time>2014-01-31T08:46:03Z</time>
      </trkpt>
      <trkpt lat="45.36727" lon="6.54857">
        <ele>2198.74</ele>
        <time>2014-01-31T08:46:08Z</time>
      </trkpt>
      <trkpt lat="45.36716" lon="6.5488">
        <ele>2198.07</ele>
        <time>2014-01-31T08:46:13Z</time>
      </trkpt>
      <trkpt lat="45.36706" lon="6.54903">
        <ele>2200.2</ele>
        <time>2014-01-31T08:46:17Z</time>
      </trkpt>
      <trkpt lat="45.36695" lon="6.54924">
        <ele>2199.99</ele>
        <time>2014-01-31T08:46:21Z</time>
      </trkpt>
      <trkpt lat="45.36686" lon="6.54948">
        <ele>2194.98</ele>
        <time>2014-01-31T08:46:26Z</time>
      </trkpt>
      <trkpt lat="45.36677" lon="6.54977">
        <ele>2195.78</ele>
        <time>2014-01-31T08:46:31Z</time>
      </trkpt>
      <trkpt lat="45.3667" lon="6.55003">
        <ele>2200.65</ele>
        <time>2014-01-31T08:46:35Z</time>
      </trkpt>
      <trkpt lat="45.36663" lon="6.55029">
        <ele>2204.88</ele>
        <time>2014-01-31T08:46:40Z</time>
      </trkpt>
      <trkpt lat="45.36658" lon="6.55058">
        <ele>2213.41</ele>
        <time>2014-01-31T08:46:45Z</time>
      </trkpt>
      <trkpt lat="45.36653" lon="6.55084">
        <ele>2220.74</ele>
        <time>2014-01-31T08:46:49Z</time>
      </trkpt>
      <trkpt lat="45.36649" lon="6.55111">
        <ele>2228.33</ele>
        <time>2014-01-31T08:46:54Z</time>
      </trkpt>
      <trkpt lat="45.36641" lon="6.55134">
        <ele>2234.83</ele>
        <time>2014-01-31T08:46:59Z</time>
      </trkpt>
      <trkpt lat="45.3663" lon="6.55161">
        <ele>2241.31</ele>
        <time>2014-01-31T08:47:04Z</time>
      </trkpt>
      <trkpt lat="45.36619" lon="6.55189">
        <ele>2247.29</ele>
        <time>2014-01-31T08:47:09Z</time>
      </trkpt>
      <trkpt lat="45.36613" lon="6.55214">
        <ele>2251.01</ele>
        <time>2014-01-31T08:47:13Z</time>
      </trkpt>
      <trkpt lat="45.36606" lon="6.55243">
        <ele>2256.01</ele>
        <time>2014-01-31T08:47:18Z</time>
      </trkpt>
      <trkpt lat="45.36599" lon="6.55271">
        <ele>2260.56</ele>
        <time>2014-01-31T08:47:23Z</time>
      </trkpt>
      <trkpt lat="45.36592" lon="6.55301">
        <ele>2265.17</ele>
        <time>2014-01-31T08:47:28Z</time>
      </trkpt>
      <trkpt lat="45.36585" lon="6.55327">
        <ele>2267.69</ele>
        <time>2014-01-31T08:47:33Z</time>
      </trkpt>
      <trkpt lat="45.36576" lon="6.55353">
        <ele>2271.46</ele>
        <time>2014-01-31T08:47:38Z</time>
      </trkpt>
      <trkpt lat="45.36567" lon="6.5538">
        <ele>2278.47</ele>
        <time>2014-01-31T08:47:43Z</time>
      </trkpt>
      <trkpt lat="45.36558" lon="6.55408">
        <ele>2285.76</ele>
        <time>2014-01-31T08:47:48Z</time>
      </trkpt>
      <trkpt lat="45.36551" lon="6.55432">
        <ele>2290.21</ele>
        <time>2014-01-31T08:47:52Z</time>
      </trkpt>
      <trkpt lat="45.36543" lon="6.55458">
        <ele>2293.71</ele>
        <time>2014-01-31T08:47:57Z</time>
      </trkpt>
      <trkpt lat="45.36537" lon="6.55489">
        <ele>2298.16</ele>
        <time>2014-01-31T08:48:02Z</time>
      </trkpt>
      <trkpt lat="45.36534" lon="6.55516">
        <ele>2306.02</ele>
        <time>2014-01-31T08:48:07Z</time>
      </trkpt>
      <trkpt lat="45.36531" lon="6.55545">
        <ele>2314.96</ele>
        <time>2014-01-31T08:48:12Z</time>
      </trkpt>
      <trkpt lat="45.36527" lon="6.55574">
        <ele>2322.85</ele>
        <time>2014-01-31T08:48:17Z</time>
      </trkpt>
      <trkpt lat="45.36522" lon="6.55602">
        <ele>2334.87</ele>
        <time>2014-01-31T08:48:22Z</time>
      </trkpt>
      <trkpt lat="45.36514" lon="6.55626">
        <ele>2348.95</ele>
        <time>2014-01-31T08:48:27Z</time>
      </trkpt>
      <trkpt lat="45.36507" lon="6.55651">
        <ele>2365.99</ele>
        <time>2014-01-31T08:48:32Z</time>
      </trkpt>
      <trkpt lat="45.365" lon="6.55676">
        <ele>2379.14</ele>
        <time>2014-01-31T08:48:37Z</time>
      </trkpt>
      <trkpt lat="45.36495" lon="6.55701">
        <ele>2389.61</ele>
        <time>2014-01-31T08:48:42Z</time>
      </trkpt>
      <trkpt lat="45.36488" lon="6.55726">
        <ele>2397.88</ele>
        <time>2014-01-31T08:48:47Z</time>
      </trkpt>
      <trkpt lat="45.3648" lon="6.55751">
        <ele>2402.06</ele>
        <time>2014-01-31T08:48:54Z</time>
      </trkpt>
      <trkpt lat="45.36462" lon="6.55755">
        <ele>2399.77</ele>
        <time>2014-01-31T08:49:08Z</time>
      </trkpt>
      <trkpt lat="45.36443" lon="6.55758">
        <ele>2398.95</ele>
        <time>2014-01-31T08:49:17Z</time>
      </trkpt>
      <trkpt lat="45.36424" lon="6.55754">
        <ele>2394.52</ele>
        <time>2014-01-31T08:49:24Z</time>
      </trkpt>
      <trkpt lat="45.36404" lon="6.5575">
        <ele>2391.93</ele>
        <time>2014-01-31T08:49:29Z</time>
      </trkpt>
      <trkpt lat="45.36384" lon="6.55742">
        <ele>2389.8</ele>
        <time>2014-01-31T08:49:32Z</time>
      </trkpt>
      <trkpt lat="45.36362" lon="6.55733">
        <ele>2387.23</ele>
        <time>2014-01-31T08:49:35Z</time>
      </trkpt>
      <trkpt lat="45.36339" lon="6.55718">
        <ele>2381.78</ele>
        <time>2014-01-31T08:49:38Z</time>
      </trkpt>
      <trkpt lat="45.36317" lon="6.55711">
        <ele>2377.63</ele>
        <time>2014-01-31T08:49:41Z</time>
      </trkpt>
      <trkpt lat="45.36297" lon="6.55702">
        <ele>2374.62</ele>
        <time>2014-01-31T08:49:44Z</time>
      </trkpt>
      <trkpt lat="45.3628" lon="6.55693">
        <ele>2372.35</ele>
        <time>2014-01-31T08:49:48Z</time>
      </trkpt>
      <trkpt lat="45.36263" lon="6.55674">
        <ele>2364.47</ele>
        <time>2014-01-31T08:49:54Z</time>
      </trkpt>
      <trkpt lat="45.36245" lon="6.55662">
        <ele>2360.04</ele>
        <time>2014-01-31T08:49:59Z</time>
      </trkpt>
      <trkpt lat="45.36232" lon="6.55642">
        <ele>2354.36</ele>
        <time>2014-01-31T08:50:04Z</time>
      </trkpt>
      <trkpt lat="45.36236" lon="6.55613">
        <ele>2346.61</ele>
        <time>2014-01-31T08:50:16Z</time>
      </trkpt>
      <trkpt lat="45.36221" lon="6.5559">
        <ele>2339.19</ele>
        <time>2014-01-31T08:50:19Z</time>
      </trkpt>
      <trkpt lat="45.36202" lon="6.55583">
        <ele>2335.4</ele>
        <time>2014-01-31T08:50:35Z</time>
      </trkpt>
      <trkpt lat="45.36182" lon="6.55568">
        <ele>2326.35</ele>
        <time>2014-01-31T08:50:39Z</time>
      </trkpt>
      <trkpt lat="45.36165" lon="6.55558">
        <ele>2320.2</ele>
        <time>2014-01-31T08:50:43Z</time>
      </trkpt>
      <trkpt lat="45.36168" lon="6.5553">
        <ele>2311.83</ele>
        <time>2014-01-31T08:51:03Z</time>
      </trkpt>
      <trkpt lat="45.36162" lon="6.55504">
        <ele>2305.64</ele>
        <time>2014-01-31T08:51:07Z</time>
      </trkpt>
      <trkpt lat="45.36149" lon="6.55485">
        <ele>2301.39</ele>
        <time>2014-01-31T08:51:10Z</time>
      </trkpt>
      <trkpt lat="45.36133" lon="6.5547">
        <ele>2295.91</ele>
        <time>2014-01-31T08:51:14Z</time>
      </trkpt>
      <trkpt lat="45.36124" lon="6.55444">
        <ele>2287.17</ele>
        <time>2014-01-31T08:51:23Z</time>
      </trkpt>
      <trkpt lat="45.36103" lon="6.5543">
        <ele>2282.68</ele>
        <time>2014-01-31T08:51:27Z</time>
      </trkpt>
      <trkpt lat="45.36099" lon="6.55405">
        <ele>2274.81</ele>
        <time>2014-01-31T08:51:36Z</time>
      </trkpt>
      <trkpt lat="45.36088" lon="6.55384">
        <ele>2267.57</ele>
        <time>2014-01-31T08:51:42Z</time>
      </trkpt>
      <trkpt lat="45.36106" lon="6.5537">
        <ele>2263.69</ele>
        <time>2014-01-31T08:51:46Z</time>
      </trkpt>
      <trkpt lat="45.36113" lon="6.55346">
        <ele>2257.39</ele>
        <time>2014-01-31T08:51:49Z</time>
      </trkpt>
      <trkpt lat="45.36124" lon="6.55319">
        <ele>2251.83</ele>
        <time>2014-01-31T08:51:53Z</time>
      </trkpt>
      <trkpt lat="45.36112" lon="6.55299">
        <ele>2244.05</ele>
        <time>2014-01-31T08:52:00Z</time>
      </trkpt>
      <trkpt lat="45.36127" lon="6.55284">
        <ele>2241.15</ele>
        <time>2014-01-31T08:52:04Z</time>
      </trkpt>
      <trkpt lat="45.36113" lon="6.55264">
        <ele>2232.49</ele>
        <time>2014-01-31T08:52:10Z</time>
      </trkpt>
      <trkpt lat="45.36124" lon="6.55243">
        <ele>2227.27</ele>
        <time>2014-01-31T08:52:16Z</time>
      </trkpt>
      <trkpt lat="45.36143" lon="6.55228">
        <ele>2224.75</ele>
        <time>2014-01-31T08:52:21Z</time>
      </trkpt>
      <trkpt lat="45.36145" lon="6.552">
        <ele>2218.2</ele>
        <time>2014-01-31T08:52:25Z</time>
      </trkpt>
      <trkpt lat="45.36128" lon="6.55181">
        <ele>2216.41</ele>
        <time>2014-01-31T08:52:29Z</time>
      </trkpt>
      <trkpt lat="45.36131" lon="6.55154">
        <ele>2213.42</ele>
        <time>2014-01-31T08:52:32Z</time>
      </trkpt>
      <trkpt lat="45.36148" lon="6.55134">
        <ele>2210.26</ele>
        <time>2014-01-31T08:52:34Z</time>
      </trkpt>
      <trkpt lat="45.36166" lon="6.5511">
        <ele>2210</ele>
        <time>2014-01-31T08:52:37Z</time>
      </trkpt>
      <trkpt lat="45.3618" lon="6.55091">
        <ele>2207.74</ele>
        <time>2014-01-31T08:52:40Z</time>
      </trkpt>
      <trkpt lat="45.36196" lon="6.5507">
        <ele>2203.83</ele>
        <time>2014-01-31T08:52:44Z</time>
      </trkpt>
      <trkpt lat="45.36212" lon="6.55055">
        <ele>2199.85</ele>
        <time>2014-01-31T08:52:47Z</time>
      </trkpt>
      <trkpt lat="45.36229" lon="6.55039">
        <ele>2195.19</ele>
        <time>2014-01-31T08:52:51Z</time>
      </trkpt>
      <trkpt lat="45.36244" lon="6.55021">
        <ele>2191.31</ele>
        <time>2014-01-31T08:52:56Z</time>
      </trkpt>
      <trkpt lat="45.36256" lon="6.55002">
        <ele>2186.95</ele>
        <time>2014-01-31T08:53:06Z</time>
      </trkpt>
      <trkpt lat="45.36276" lon="6.54999">
        <ele>2184.71</ele>
        <time>2014-01-31T08:53:13Z</time>
      </trkpt>
      <trkpt lat="45.36294" lon="6.54994">
        <ele>2180.42</ele>
        <time>2014-01-31T08:53:18Z</time>
      </trkpt>
      <trkpt lat="45.36304" lon="6.54972">
        <ele>2171.05</ele>
        <time>2014-01-31T08:53:24Z</time>
      </trkpt>
      <trkpt lat="45.3631" lon="6.54947">
        <ele>2166.95</ele>
        <time>2014-01-31T08:53:30Z</time>
      </trkpt>
      <trkpt lat="45.36315" lon="6.54918">
        <ele>2162.68</ele>
        <time>2014-01-31T08:53:34Z</time>
      </trkpt>
      <trkpt lat="45.36307" lon="6.54885">
        <ele>2159.39</ele>
        <time>2014-01-31T08:53:37Z</time>
      </trkpt>
      <trkpt lat="45.36293" lon="6.54868">
        <ele>2157.73</ele>
        <time>2014-01-31T08:53:39Z</time>
      </trkpt>
      <trkpt lat="45.36279" lon="6.54851">
        <ele>2153.72</ele>
        <time>2014-01-31T08:53:41Z</time>
      </trkpt>
      <trkpt lat="45.36264" lon="6.5483">
        <ele>2147.31</ele>
        <time>2014-01-31T08:53:45Z</time>
      </trkpt>
      <trkpt lat="45.36259" lon="6.54801">
        <ele>2141.06</ele>
        <time>2014-01-31T08:53:50Z</time>
      </trkpt>
      <trkpt lat="45.3627" lon="6.54776">
        <ele>2138.39</ele>
        <time>2014-01-31T08:53:55Z</time>
      </trkpt>
      <trkpt lat="45.36284" lon="6.54758">
        <ele>2134.98</ele>
        <time>2014-01-31T08:53:59Z</time>
      </trkpt>
      <trkpt lat="45.36301" lon="6.54739">
        <ele>2132.95</ele>
        <time>2014-01-31T08:54:04Z</time>
      </trkpt>
      <trkpt lat="45.36311" lon="6.54717">
        <ele>2129.1</ele>
        <time>2014-01-31T08:54:07Z</time>
      </trkpt>
      <trkpt lat="45.36323" lon="6.54693">
        <ele>2125.17</ele>
        <time>2014-01-31T08:54:10Z</time>
      </trkpt>
      <trkpt lat="45.36325" lon="6.5466">
        <ele>2119.83</ele>
        <time>2014-01-31T08:54:13Z</time>
      </trkpt>
      <trkpt lat="45.36328" lon="6.54631">
        <ele>2115.85</ele>
        <time>2014-01-31T08:54:16Z</time>
      </trkpt>
      <trkpt lat="45.36333" lon="6.54602">
        <ele>2112.71</ele>
        <time>2014-01-31T08:54:20Z</time>
      </trkpt>
      <trkpt lat="45.36347" lon="6.54576">
        <ele>2109.21</ele>
        <time>2014-01-31T08:54:25Z</time>
      </trkpt>
      <trkpt lat="45.36356" lon="6.5455">
        <ele>2102.33</ele>
        <time>2014-01-31T08:54:29Z</time>
      </trkpt>
      <trkpt lat="45.36368" lon="6.54521">
        <ele>2097.99</ele>
        <time>2014-01-31T08:54:33Z</time>
      </trkpt>
      <trkpt lat="45.36367" lon="6.54491">
        <ele>2093.73</ele>
        <time>2014-01-31T08:54:37Z</time>
      </trkpt>
      <trkpt lat="45.36361" lon="6.54459">
        <ele>2090.53</ele>
        <time>2014-01-31T08:54:40Z</time>
      </trkpt>
      <trkpt lat="45.36359" lon="6.54432">
        <ele>2087.05</ele>
        <time>2014-01-31T08:54:43Z</time>
      </trkpt>
      <trkpt lat="45.36351" lon="6.54403">
        <ele>2080.32</ele>
        <time>2014-01-31T08:54:48Z</time>
      </trkpt>
      <trkpt lat="45.36356" lon="6.54377">
        <ele>2076.47</ele>
        <time>2014-01-31T08:54:52Z</time>
      </trkpt>
      <trkpt lat="45.3636" lon="6.5435">
        <ele>2071.9</ele>
        <time>2014-01-31T08:54:55Z</time>
      </trkpt>
      <trkpt lat="45.3636" lon="6.54323">
        <ele>2067.32</ele>
        <time>2014-01-31T08:54:58Z</time>
      </trkpt>
      <trkpt lat="45.36346" lon="6.54293">
        <ele>2061.33</ele>
        <time>2014-01-31T08:55:02Z</time>
      </trkpt>
      <trkpt lat="45.36347" lon="6.54261">
        <ele>2055.6</ele>
        <time>2014-01-31T08:55:06Z</time>
      </trkpt>
      <trkpt lat="45.36348" lon="6.5423">
        <ele>2050.26</ele>
        <time>2014-01-31T08:55:09Z</time>
      </trkpt>
      <trkpt lat="45.36366" lon="6.54213">
        <ele>2047.73</ele>
        <time>2014-01-31T08:55:12Z</time>
      </trkpt>
      <trkpt lat="45.36377" lon="6.54188">
        <ele>2044.05</ele>
        <time>2014-01-31T08:55:15Z</time>
      </trkpt>
      <trkpt lat="45.36384" lon="6.54161">
        <ele>2039.92</ele>
        <time>2014-01-31T08:55:18Z</time>
      </trkpt>
      <trkpt lat="45.36391" lon="6.54138">
        <ele>2036.89</ele>
        <time>2014-01-31T08:55:22Z</time>
      </trkpt>
      <trkpt lat="45.36407" lon="6.54124">
        <ele>2034.86</ele>
        <time>2014-01-31T08:55:26Z</time>
      </trkpt>
      <trkpt lat="45.36421" lon="6.54106">
        <ele>2030.89</ele>
        <time>2014-01-31T08:55:29Z</time>
      </trkpt>
      <trkpt lat="45.36438" lon="6.54087">
        <ele>2027.53</ele>
        <time>2014-01-31T08:55:32Z</time>
      </trkpt>
      <trkpt lat="45.36454" lon="6.5407">
        <ele>2024.49</ele>
        <time>2014-01-31T08:55:36Z</time>
      </trkpt>
      <trkpt lat="45.3647" lon="6.54056">
        <ele>2020.39</ele>
        <time>2014-01-31T08:55:41Z</time>
      </trkpt>
      <trkpt lat="45.36482" lon="6.54028">
        <ele>2016.09</ele>
        <time>2014-01-31T08:55:45Z</time>
      </trkpt>
      <trkpt lat="45.36498" lon="6.54004">
        <ele>2012.57</ele>
        <time>2014-01-31T08:55:49Z</time>
      </trkpt>
      <trkpt lat="45.36516" lon="6.53986">
        <ele>2011.15</ele>
        <time>2014-01-31T08:55:53Z</time>
      </trkpt>
      <trkpt lat="45.36536" lon="6.53974">
        <ele>2010.3</ele>
        <time>2014-01-31T08:55:57Z</time>
      </trkpt>
      <trkpt lat="45.36557" lon="6.53964">
        <ele>2010.67</ele>
        <time>2014-01-31T08:56:01Z</time>
      </trkpt>
      <trkpt lat="45.36576" lon="6.53956">
        <ele>2007.47</ele>
        <time>2014-01-31T08:56:04Z</time>
      </trkpt>
      <trkpt lat="45.36594" lon="6.53947">
        <ele>2004.77</ele>
        <time>2014-01-31T08:56:07Z</time>
      </trkpt>
      <trkpt lat="45.36613" lon="6.5393">
        <ele>2003</ele>
        <time>2014-01-31T08:56:10Z</time>
      </trkpt>
      <trkpt lat="45.36628" lon="6.53913">
        <ele>2001.67</ele>
        <time>2014-01-31T08:56:13Z</time>
      </trkpt>
      <trkpt lat="45.36644" lon="6.53895">
        <ele>2001.69</ele>
        <time>2014-01-31T08:56:16Z</time>
      </trkpt>
      <trkpt lat="45.36658" lon="6.53878">
        <ele>1999.76</ele>
        <time>2014-01-31T08:56:19Z</time>
      </trkpt>
      <trkpt lat="45.36675" lon="6.53866">
        <ele>1997.71</ele>
        <time>2014-01-31T08:56:23Z</time>
      </trkpt>
      <trkpt lat="45.36696" lon="6.53858">
        <ele>1994.65</ele>
        <time>2014-01-31T08:56:27Z</time>
      </trkpt>
      <trkpt lat="45.36719" lon="6.53855">
        <ele>1997.28</ele>
        <time>2014-01-31T08:56:31Z</time>
      </trkpt>
      <trkpt lat="45.36737" lon="6.53856">
        <ele>1995.41</ele>
        <time>2014-01-31T08:56:34Z</time>
      </trkpt>
      <trkpt lat="45.36757" lon="6.53861">
        <ele>1995.01</ele>
        <time>2014-01-31T08:56:37Z</time>
      </trkpt>
      <trkpt lat="45.36779" lon="6.53867">
        <ele>1994.24</ele>
        <time>2014-01-31T08:56:40Z</time>
      </trkpt>
      <trkpt lat="45.36803" lon="6.5387">
        <ele>1993.27</ele>
        <time>2014-01-31T08:56:43Z</time>
      </trkpt>
      <trkpt lat="45.36828" lon="6.53875">
        <ele>1989.96</ele>
        <time>2014-01-31T08:56:46Z</time>
      </trkpt>
      <trkpt lat="45.36853" lon="6.53876">
        <ele>1988.09</ele>
        <time>2014-01-31T08:56:49Z</time>
      </trkpt>
      <trkpt lat="45.36875" lon="6.53867">
        <ele>1984.38</ele>
        <time>2014-01-31T08:56:52Z</time>
      </trkpt>
      <trkpt lat="45.36894" lon="6.53839">
        <ele>1978.21</ele>
        <time>2014-01-31T08:56:55Z</time>
      </trkpt>
      <trkpt lat="45.36908" lon="6.53815">
        <ele>1972.86</ele>
        <time>2014-01-31T08:56:57Z</time>
      </trkpt>
      <trkpt lat="45.36917" lon="6.53788">
        <ele>1966.12</ele>
        <time>2014-01-31T08:56:59Z</time>
      </trkpt>
      <trkpt lat="45.36928" lon="6.53754">
        <ele>1959.12</ele>
        <time>2014-01-31T08:57:01Z</time>
      </trkpt>
      <trkpt lat="45.36941" lon="6.53718">
        <ele>1956.04</ele>
        <time>2014-01-31T08:57:03Z</time>
      </trkpt>
      <trkpt lat="45.36949" lon="6.53682">
        <ele>1948.93</ele>
        <time>2014-01-31T08:57:05Z</time>
      </trkpt>
      <trkpt lat="45.36955" lon="6.53644">
        <ele>1941.13</ele>
        <time>2014-01-31T08:57:07Z</time>
      </trkpt>
      <trkpt lat="45.36966" lon="6.53602">
        <ele>1933.38</ele>
        <time>2014-01-31T08:57:09Z</time>
      </trkpt>
      <trkpt lat="45.36976" lon="6.53576">
        <ele>1928.27</ele>
        <time>2014-01-31T08:57:11Z</time>
      </trkpt>
      <trkpt lat="45.36974" lon="6.53544">
        <ele>1922.28</ele>
        <time>2014-01-31T08:57:14Z</time>
      </trkpt>
      <trkpt lat="45.36977" lon="6.53513">
        <ele>1916.29</ele>
        <time>2014-01-31T08:57:16Z</time>
      </trkpt>
      <trkpt lat="45.36985" lon="6.53479">
        <ele>1912.34</ele>
        <time>2014-01-31T08:57:18Z</time>
      </trkpt>
      <trkpt lat="45.36992" lon="6.53442">
        <ele>1911.29</ele>
        <time>2014-01-31T08:57:20Z</time>
      </trkpt>
      <trkpt lat="45.37002" lon="6.53412">
        <ele>1908.77</ele>
        <time>2014-01-31T08:57:22Z</time>
      </trkpt>
      <trkpt lat="45.37016" lon="6.53386">
        <ele>1905.97</ele>
        <time>2014-01-31T08:57:24Z</time>
      </trkpt>
      <trkpt lat="45.37032" lon="6.53366">
        <ele>1901.62</ele>
        <time>2014-01-31T08:57:26Z</time>
      </trkpt>
      <trkpt lat="45.37047" lon="6.53349">
        <ele>1896.91</ele>
        <time>2014-01-31T08:57:28Z</time>
      </trkpt>
      <trkpt lat="45.37065" lon="6.53335">
        <ele>1892.21</ele>
        <time>2014-01-31T08:57:31Z</time>
      </trkpt>
      <trkpt lat="45.37084" lon="6.53313">
        <ele>1890.35</ele>
        <time>2014-01-31T08:57:34Z</time>
      </trkpt>
      <trkpt lat="45.3709" lon="6.53277">
        <ele>1884.15</ele>
        <time>2014-01-31T08:57:37Z</time>
      </trkpt>
      <trkpt lat="45.37094" lon="6.53248">
        <ele>1880.14</ele>
        <time>2014-01-31T08:57:39Z</time>
      </trkpt>
      <trkpt lat="45.37092" lon="6.53219">
        <ele>1874.32</ele>
        <time>2014-01-31T08:57:41Z</time>
      </trkpt>
      <trkpt lat="45.37084" lon="6.53194">
        <ele>1868.87</ele>
        <time>2014-01-31T08:57:43Z</time>
      </trkpt>
      <trkpt lat="45.37064" lon="6.5317">
        <ele>1869.06</ele>
        <time>2014-01-31T08:57:46Z</time>
      </trkpt>
      <trkpt lat="45.37054" lon="6.53145">
        <ele>1867.55</ele>
        <time>2014-01-31T08:57:48Z</time>
      </trkpt>
      <trkpt lat="45.3704" lon="6.5312">
        <ele>1867.43</ele>
        <time>2014-01-31T08:57:51Z</time>
      </trkpt>
      <trkpt lat="45.37062" lon="6.53107">
        <ele>1854.84</ele>
        <time>2014-01-31T08:57:57Z</time>
      </trkpt>
      <trkpt lat="45.37089" lon="6.53117">
        <ele>1851.21</ele>
        <time>2014-01-31T08:57:59Z</time>
      </trkpt>
      <trkpt lat="45.37116" lon="6.53123">
        <ele>1845.08</ele>
        <time>2014-01-31T08:58:01Z</time>
      </trkpt>
      <trkpt lat="45.37147" lon="6.53121">
        <ele>1836.15</ele>
        <time>2014-01-31T08:58:03Z</time>
      </trkpt>
      <trkpt lat="45.37174" lon="6.531">
        <ele>1824.83</ele>
        <time>2014-01-31T08:58:05Z</time>
      </trkpt>
      <trkpt lat="45.37196" lon="6.53082">
        <ele>1818.68</ele>
        <time>2014-01-31T08:58:07Z</time>
      </trkpt>
      <trkpt lat="45.37217" lon="6.53065">
        <ele>1815.96</ele>
        <time>2014-01-31T08:58:09Z</time>
      </trkpt>
      <trkpt lat="45.37232" lon="6.53045">
        <ele>1813.6</ele>
        <time>2014-01-31T08:58:11Z</time>
      </trkpt>
      <trkpt lat="45.37244" lon="6.53012">
        <ele>1809.95</ele>
        <time>2014-01-31T08:58:13Z</time>
      </trkpt>
      <trkpt lat="45.37258" lon="6.52978">
        <ele>1804.89</ele>
        <time>2014-01-31T08:58:15Z</time>
      </trkpt>
      <trkpt lat="45.3727" lon="6.52954">
        <ele>1801.17</ele>
        <time>2014-01-31T08:58:17Z</time>
      </trkpt>
      <trkpt lat="45.37278" lon="6.52922">
        <ele>1797.63</ele>
        <time>2014-01-31T08:58:20Z</time>
      </trkpt>
      <trkpt lat="45.37276" lon="6.52891">
        <ele>1793.89</ele>
        <time>2014-01-31T08:58:24Z</time>
      </trkpt>
      <trkpt lat="45.37274" lon="6.52865">
        <ele>1791.27</ele>
        <time>2014-01-31T08:58:28Z</time>
      </trkpt>
      <trkpt lat="45.37257" lon="6.52885">
        <ele>1789.07</ele>
        <time>2014-01-31T08:59:27Z</time>
      </trkpt>
      <trkpt lat="45.3725" lon="6.5291">
        <ele>1791.78</ele>
        <time>2014-01-31T08:59:32Z</time>
      </trkpt>
      <trkpt lat="45.37246" lon="6.52934">
        <ele>1797.02</ele>
        <time>2014-01-31T08:59:36Z</time>
      </trkpt>
      <trkpt lat="45.37241" lon="6.52961">
        <ele>1801.84</ele>
        <time>2014-01-31T08:59:40Z</time>
      </trkpt>
      <trkpt lat="45.37235" lon="6.52986">
        <ele>1805.72</ele>
        <time>2014-01-31T08:59:44Z</time>
      </trkpt>
      <trkpt lat="45.3723" lon="6.53012">
        <ele>1809.16</ele>
        <time>2014-01-31T08:59:48Z</time>
      </trkpt>
      <trkpt lat="45.37223" lon="6.53036">
        <ele>1812.17</ele>
        <time>2014-01-31T08:59:53Z</time>
      </trkpt>
      <trkpt lat="45.37216" lon="6.53063">
        <ele>1815.73</ele>
        <time>2014-01-31T08:59:58Z</time>
      </trkpt>
      <trkpt lat="45.37209" lon="6.53091">
        <ele>1819.83</ele>
        <time>2014-01-31T09:00:03Z</time>
      </trkpt>
      <trkpt lat="45.37201" lon="6.53118">
        <ele>1825.3</ele>
        <time>2014-01-31T09:00:08Z</time>
      </trkpt>
      <trkpt lat="45.37194" lon="6.53143">
        <ele>1831.15</ele>
        <time>2014-01-31T09:00:12Z</time>
      </trkpt>
      <trkpt lat="45.37185" lon="6.5317">
        <ele>1842.58</ele>
        <time>2014-01-31T09:00:17Z</time>
      </trkpt>
      <trkpt lat="45.37178" lon="6.53198">
        <ele>1853.06</ele>
        <time>2014-01-31T09:00:22Z</time>
      </trkpt>
      <trkpt lat="45.37171" lon="6.53224">
        <ele>1861.72</ele>
        <time>2014-01-31T09:00:27Z</time>
      </trkpt>
      <trkpt lat="45.37163" lon="6.5325">
        <ele>1870.43</ele>
        <time>2014-01-31T09:00:32Z</time>
      </trkpt>
      <trkpt lat="45.37157" lon="6.53276">
        <ele>1874.51</ele>
        <time>2014-01-31T09:00:36Z</time>
      </trkpt>
      <trkpt lat="45.37149" lon="6.53305">
        <ele>1878.6</ele>
        <time>2014-01-31T09:00:41Z</time>
      </trkpt>
      <trkpt lat="45.37142" lon="6.53331">
        <ele>1881.64</ele>
        <time>2014-01-31T09:00:46Z</time>
      </trkpt>
      <trkpt lat="45.37133" lon="6.53354">
        <ele>1884.26</ele>
        <time>2014-01-31T09:00:50Z</time>
      </trkpt>
      <trkpt lat="45.37124" lon="6.5338">
        <ele>1887.82</ele>
        <time>2014-01-31T09:00:55Z</time>
      </trkpt>
      <trkpt lat="45.37115" lon="6.53407">
        <ele>1892.01</ele>
        <time>2014-01-31T09:01:00Z</time>
      </trkpt>
      <trkpt lat="45.37107" lon="6.53433">
        <ele>1897.36</ele>
        <time>2014-01-31T09:01:05Z</time>
      </trkpt>
      <trkpt lat="45.37102" lon="6.53463">
        <ele>1902.07</ele>
        <time>2014-01-31T09:01:10Z</time>
      </trkpt>
      <trkpt lat="45.37094" lon="6.53492">
        <ele>1905.97</ele>
        <time>2014-01-31T09:01:15Z</time>
      </trkpt>
      <trkpt lat="45.37085" lon="6.53518">
        <ele>1909.73</ele>
        <time>2014-01-31T09:01:20Z</time>
      </trkpt>
      <trkpt lat="45.37077" lon="6.53547">
        <ele>1914.99</ele>
        <time>2014-01-31T09:01:25Z</time>
      </trkpt>
      <trkpt lat="45.3707" lon="6.53575">
        <ele>1921.14</ele>
        <time>2014-01-31T09:01:30Z</time>
      </trkpt>
      <trkpt lat="45.37063" lon="6.53602">
        <ele>1927.75</ele>
        <time>2014-01-31T09:01:35Z</time>
      </trkpt>
      <trkpt lat="45.37057" lon="6.5363">
        <ele>1936.92</ele>
        <time>2014-01-31T09:01:40Z</time>
      </trkpt>
      <trkpt lat="45.37052" lon="6.53661">
        <ele>1943.15</ele>
        <time>2014-01-31T09:01:45Z</time>
      </trkpt>
      <trkpt lat="45.37046" lon="6.5369">
        <ele>1947.57</ele>
        <time>2014-01-31T09:01:50Z</time>
      </trkpt>
      <trkpt lat="45.37038" lon="6.53716">
        <ele>1955.58</ele>
        <time>2014-01-31T09:01:55Z</time>
      </trkpt>
      <trkpt lat="45.3703" lon="6.53744">
        <ele>1965.52</ele>
        <time>2014-01-31T09:02:00Z</time>
      </trkpt>
      <trkpt lat="45.37021" lon="6.53771">
        <ele>1970.28</ele>
        <time>2014-01-31T09:02:05Z</time>
      </trkpt>
      <trkpt lat="45.37011" lon="6.53796">
        <ele>1973.88</ele>
        <time>2014-01-31T09:02:10Z</time>
      </trkpt>
      <trkpt lat="45.37003" lon="6.53826">
        <ele>1979.24</ele>
        <time>2014-01-31T09:02:15Z</time>
      </trkpt>
      <trkpt lat="45.36995" lon="6.53853">
        <ele>1988.28</ele>
        <time>2014-01-31T09:02:20Z</time>
      </trkpt>
      <trkpt lat="45.36988" lon="6.53881">
        <ele>1994.3</ele>
        <time>2014-01-31T09:02:25Z</time>
      </trkpt>
      <trkpt lat="45.36981" lon="6.53908">
        <ele>1997.81</ele>
        <time>2014-01-31T09:02:30Z</time>
      </trkpt>
      <trkpt lat="45.36973" lon="6.53933">
        <ele>2000.42</ele>
        <time>2014-01-31T09:02:34Z</time>
      </trkpt>
      <trkpt lat="45.36965" lon="6.53962">
        <ele>2002.79</ele>
        <time>2014-01-31T09:02:39Z</time>
      </trkpt>
      <trkpt lat="45.36957" lon="6.5399">
        <ele>2006.2</ele>
        <time>2014-01-31T09:02:44Z</time>
      </trkpt>
      <trkpt lat="45.36951" lon="6.54017">
        <ele>2010.62</ele>
        <time>2014-01-31T09:02:49Z</time>
      </trkpt>
      <trkpt lat="45.36942" lon="6.54042">
        <ele>2013.63</ele>
        <time>2014-01-31T09:02:54Z</time>
      </trkpt>
      <trkpt lat="45.36933" lon="6.54068">
        <ele>2018.42</ele>
        <time>2014-01-31T09:02:59Z</time>
      </trkpt>
      <trkpt lat="45.36927" lon="6.54096">
        <ele>2028.97</ele>
        <time>2014-01-31T09:03:04Z</time>
      </trkpt>
      <trkpt lat="45.36922" lon="6.54121">
        <ele>2041.45</ele>
        <time>2014-01-31T09:03:09Z</time>
      </trkpt>
      <trkpt lat="45.3692" lon="6.54151">
        <ele>2056.91</ele>
        <time>2014-01-31T09:03:15Z</time>
      </trkpt>
      <trkpt lat="45.36918" lon="6.54177">
        <ele>2068.77</ele>
        <time>2014-01-31T09:03:19Z</time>
      </trkpt>
      <trkpt lat="45.36912" lon="6.54202">
        <ele>2076.94</ele>
        <time>2014-01-31T09:03:23Z</time>
      </trkpt>
      <trkpt lat="45.36903" lon="6.54225">
        <ele>2082.15</ele>
        <time>2014-01-31T09:03:27Z</time>
      </trkpt>
      <trkpt lat="45.36892" lon="6.54253">
        <ele>2088.18</ele>
        <time>2014-01-31T09:03:32Z</time>
      </trkpt>
      <trkpt lat="45.36882" lon="6.54276">
        <ele>2094.59</ele>
        <time>2014-01-31T09:03:37Z</time>
      </trkpt>
      <trkpt lat="45.36872" lon="6.54304">
        <ele>2099.44</ele>
        <time>2014-01-31T09:03:42Z</time>
      </trkpt>
      <trkpt lat="45.36865" lon="6.54332">
        <ele>2103.13</ele>
        <time>2014-01-31T09:03:47Z</time>
      </trkpt>
      <trkpt lat="45.36857" lon="6.54356">
        <ele>2098.4</ele>
        <time>2014-01-31T09:03:51Z</time>
      </trkpt>
      <trkpt lat="45.36846" lon="6.54382">
        <ele>2100.18</ele>
        <time>2014-01-31T09:03:56Z</time>
      </trkpt>
      <trkpt lat="45.36838" lon="6.54411">
        <ele>2104.53</ele>
        <time>2014-01-31T09:04:01Z</time>
      </trkpt>
      <trkpt lat="45.36833" lon="6.5444">
        <ele>2107.29</ele>
        <time>2014-01-31T09:04:06Z</time>
      </trkpt>
      <trkpt lat="45.36827" lon="6.54465">
        <ele>2113.47</ele>
        <time>2014-01-31T09:04:10Z</time>
      </trkpt>
      <trkpt lat="45.36822" lon="6.54492">
        <ele>2122.59</ele>
        <time>2014-01-31T09:04:15Z</time>
      </trkpt>
      <trkpt lat="45.36817" lon="6.54521">
        <ele>2131.03</ele>
        <time>2014-01-31T09:04:20Z</time>
      </trkpt>
      <trkpt lat="45.3681" lon="6.54544">
        <ele>2133.59</ele>
        <time>2014-01-31T09:04:24Z</time>
      </trkpt>
      <trkpt lat="45.36802" lon="6.54574">
        <ele>2136.13</ele>
        <time>2014-01-31T09:04:29Z</time>
      </trkpt>
      <trkpt lat="45.36793" lon="6.54602">
        <ele>2137.9</ele>
        <time>2014-01-31T09:04:34Z</time>
      </trkpt>
      <trkpt lat="45.36785" lon="6.5463">
        <ele>2139.47</ele>
        <time>2014-01-31T09:04:39Z</time>
      </trkpt>
      <trkpt lat="45.36778" lon="6.54658">
        <ele>2147.09</ele>
        <time>2014-01-31T09:04:44Z</time>
      </trkpt>
      <trkpt lat="45.36774" lon="6.54687">
        <ele>2153.01</ele>
        <time>2014-01-31T09:04:49Z</time>
      </trkpt>
      <trkpt lat="45.36769" lon="6.54714">
        <ele>2160.82</ele>
        <time>2014-01-31T09:04:54Z</time>
      </trkpt>
      <trkpt lat="45.36762" lon="6.5474">
        <ele>2178.69</ele>
        <time>2014-01-31T09:04:59Z</time>
      </trkpt>
      <trkpt lat="45.36759" lon="6.54767">
        <ele>2195.9</ele>
        <time>2014-01-31T09:05:04Z</time>
      </trkpt>
      <trkpt lat="45.3675" lon="6.54796">
        <ele>2201.09</ele>
        <time>2014-01-31T09:05:09Z</time>
      </trkpt>
      <trkpt lat="45.36739" lon="6.54818">
        <ele>2197.34</ele>
        <time>2014-01-31T09:05:13Z</time>
      </trkpt>
      <trkpt lat="45.36728" lon="6.54839">
        <ele>2195.45</ele>
        <time>2014-01-31T09:05:17Z</time>
      </trkpt>
      <trkpt lat="45.36716" lon="6.5486">
        <ele>2196.82</ele>
        <time>2014-01-31T09:05:21Z</time>
      </trkpt>
      <trkpt lat="45.36706" lon="6.54882">
        <ele>2197.16</ele>
        <time>2014-01-31T09:05:25Z</time>
      </trkpt>
      <trkpt lat="45.36695" lon="6.54908">
        <ele>2199.88</ele>
        <time>2014-01-31T09:05:30Z</time>
      </trkpt>
      <trkpt lat="45.36686" lon="6.54935">
        <ele>2196.05</ele>
        <time>2014-01-31T09:05:35Z</time>
      </trkpt>
      <trkpt lat="45.36677" lon="6.54962">
        <ele>2193.99</ele>
        <time>2014-01-31T09:05:40Z</time>
      </trkpt>
      <trkpt lat="45.36668" lon="6.5499">
        <ele>2197.65</ele>
        <time>2014-01-31T09:05:45Z</time>
      </trkpt>
      <trkpt lat="45.36662" lon="6.55015">
        <ele>2201.63</ele>
        <time>2014-01-31T09:05:49Z</time>
      </trkpt>
      <trkpt lat="45.36658" lon="6.55042">
        <ele>2207.8</ele>
        <time>2014-01-31T09:05:54Z</time>
      </trkpt>
      <trkpt lat="45.36648" lon="6.55063">
        <ele>2212.01</ele>
        <time>2014-01-31T09:07:47Z</time>
      </trkpt>
      <trkpt lat="45.36644" lon="6.55089">
        <ele>2220.4</ele>
        <time>2014-01-31T09:08:04Z</time>
      </trkpt>
      <trkpt lat="45.36641" lon="6.55115">
        <ele>2228.75</ele>
        <time>2014-01-31T09:08:11Z</time>
      </trkpt>
      <trkpt lat="45.36632" lon="6.55143">
        <ele>2236.27</ele>
        <time>2014-01-31T09:08:18Z</time>
      </trkpt>
      <trkpt lat="45.36623" lon="6.55171">
        <ele>2243.2</ele>
        <time>2014-01-31T09:08:23Z</time>
      </trkpt>
      <trkpt lat="45.36616" lon="6.55199">
        <ele>2248.96</ele>
        <time>2014-01-31T09:08:28Z</time>
      </trkpt>
      <trkpt lat="45.36609" lon="6.55228">
        <ele>2253.21</ele>
        <time>2014-01-31T09:08:33Z</time>
      </trkpt>
      <trkpt lat="45.36603" lon="6.55256">
        <ele>2258.33</ele>
        <time>2014-01-31T09:08:38Z</time>
      </trkpt>
      <trkpt lat="45.36598" lon="6.55285">
        <ele>2262.73</ele>
        <time>2014-01-31T09:08:43Z</time>
      </trkpt>
      <trkpt lat="45.36591" lon="6.55313">
        <ele>2267.01</ele>
        <time>2014-01-31T09:08:48Z</time>
      </trkpt>
      <trkpt lat="45.36586" lon="6.55337">
        <ele>2269.58</ele>
        <time>2014-01-31T09:08:52Z</time>
      </trkpt>
      <trkpt lat="45.36576" lon="6.55364">
        <ele>2274.79</ele>
        <time>2014-01-31T09:08:57Z</time>
      </trkpt>
      <trkpt lat="45.36566" lon="6.55392">
        <ele>2281.71</ele>
        <time>2014-01-31T09:09:02Z</time>
      </trkpt>
      <trkpt lat="45.36559" lon="6.55421">
        <ele>2288.59</ele>
        <time>2014-01-31T09:09:07Z</time>
      </trkpt>
      <trkpt lat="45.36551" lon="6.5545">
        <ele>2293.3</ele>
        <time>2014-01-31T09:09:12Z</time>
      </trkpt>
      <trkpt lat="45.36544" lon="6.55478">
        <ele>2296.86</ele>
        <time>2014-01-31T09:09:17Z</time>
      </trkpt>
      <trkpt lat="45.36537" lon="6.55506">
        <ele>2302.56</ele>
        <time>2014-01-31T09:09:22Z</time>
      </trkpt>
      <trkpt lat="45.36532" lon="6.55533">
        <ele>2311.75</ele>
        <time>2014-01-31T09:09:27Z</time>
      </trkpt>
      <trkpt lat="45.36526" lon="6.55559">
        <ele>2318</ele>
        <time>2014-01-31T09:09:32Z</time>
      </trkpt>
      <trkpt lat="45.36519" lon="6.55584">
        <ele>2325.63</ele>
        <time>2014-01-31T09:09:37Z</time>
      </trkpt>
      <trkpt lat="45.36512" lon="6.55609">
        <ele>2336.85</ele>
        <time>2014-01-31T09:09:43Z</time>
      </trkpt>
      <trkpt lat="45.36503" lon="6.55635">
        <ele>2356.86</ele>
        <time>2014-01-31T09:09:50Z</time>
      </trkpt>
      <trkpt lat="45.365" lon="6.55663">
        <ele>2373.19</ele>
        <time>2014-01-31T09:09:56Z</time>
      </trkpt>
      <trkpt lat="45.36494" lon="6.55692">
        <ele>2384.99</ele>
        <time>2014-01-31T09:10:02Z</time>
      </trkpt>
      <trkpt lat="45.36486" lon="6.55716">
        <ele>2393.6</ele>
        <time>2014-01-31T09:10:09Z</time>
      </trkpt>
      <trkpt lat="45.36507" lon="6.55718">
        <ele>2400.12</ele>
        <time>2014-01-31T09:11:03Z</time>
      </trkpt>
      <trkpt lat="45.36526" lon="6.5571">
        <ele>2399.45</ele>
        <time>2014-01-31T09:11:08Z</time>
      </trkpt>
      <trkpt lat="45.36544" lon="6.55703">
        <ele>2402.77</ele>
        <time>2014-01-31T09:11:12Z</time>
      </trkpt>
      <trkpt lat="45.36563" lon="6.55692">
        <ele>2406.47</ele>
        <time>2014-01-31T09:11:17Z</time>
      </trkpt>
      <trkpt lat="45.36578" lon="6.5567">
        <ele>2391.42</ele>
        <time>2014-01-31T09:11:22Z</time>
      </trkpt>
      <trkpt lat="45.36597" lon="6.55658">
        <ele>2383.99</ele>
        <time>2014-01-31T09:11:25Z</time>
      </trkpt>
      <trkpt lat="45.36624" lon="6.55645">
        <ele>2378.61</ele>
        <time>2014-01-31T09:11:28Z</time>
      </trkpt>
      <trkpt lat="45.36645" lon="6.55632">
        <ele>2373.4</ele>
        <time>2014-01-31T09:11:30Z</time>
      </trkpt>
      <trkpt lat="45.36666" lon="6.55614">
        <ele>2361.35</ele>
        <time>2014-01-31T09:11:32Z</time>
      </trkpt>
      <trkpt lat="45.36685" lon="6.55595">
        <ele>2355.89</ele>
        <time>2014-01-31T09:11:34Z</time>
      </trkpt>
      <trkpt lat="45.36703" lon="6.55576">
        <ele>2353.64</ele>
        <time>2014-01-31T09:11:36Z</time>
      </trkpt>
      <trkpt lat="45.36714" lon="6.55549">
        <ele>2347.51</ele>
        <time>2014-01-31T09:11:38Z</time>
      </trkpt>
      <trkpt lat="45.36729" lon="6.55518">
        <ele>2342.67</ele>
        <time>2014-01-31T09:11:40Z</time>
      </trkpt>
      <trkpt lat="45.36736" lon="6.55488">
        <ele>2338.39</ele>
        <time>2014-01-31T09:11:42Z</time>
      </trkpt>
      <trkpt lat="45.36744" lon="6.55458">
        <ele>2338.35</ele>
        <time>2014-01-31T09:11:44Z</time>
      </trkpt>
      <trkpt lat="45.36755" lon="6.55432">
        <ele>2338.04</ele>
        <time>2014-01-31T09:11:46Z</time>
      </trkpt>
      <trkpt lat="45.36766" lon="6.55411">
        <ele>2336.5</ele>
        <time>2014-01-31T09:11:48Z</time>
      </trkpt>
      <trkpt lat="45.36777" lon="6.5539">
        <ele>2334.16</ele>
        <time>2014-01-31T09:11:50Z</time>
      </trkpt>
      <trkpt lat="45.36787" lon="6.55368">
        <ele>2330.35</ele>
        <time>2014-01-31T09:11:52Z</time>
      </trkpt>
      <trkpt lat="45.36807" lon="6.55343">
        <ele>2321.81</ele>
        <time>2014-01-31T09:11:54Z</time>
      </trkpt>
      <trkpt lat="45.36825" lon="6.55317">
        <ele>2310.23</ele>
        <time>2014-01-31T09:11:56Z</time>
      </trkpt>
      <trkpt lat="45.3684" lon="6.55291">
        <ele>2305.76</ele>
        <time>2014-01-31T09:11:58Z</time>
      </trkpt>
      <trkpt lat="45.36849" lon="6.55264">
        <ele>2305.62</ele>
        <time>2014-01-31T09:12:00Z</time>
      </trkpt>
      <trkpt lat="45.36854" lon="6.55237">
        <ele>2305.5</ele>
        <time>2014-01-31T09:12:02Z</time>
      </trkpt>
      <trkpt lat="45.36862" lon="6.55203">
        <ele>2304.49</ele>
        <time>2014-01-31T09:12:05Z</time>
      </trkpt>
      <trkpt lat="45.36883" lon="6.55186">
        <ele>2305.6</ele>
        <time>2014-01-31T09:12:08Z</time>
      </trkpt>
      <trkpt lat="45.36907" lon="6.5517">
        <ele>2303.6</ele>
        <time>2014-01-31T09:12:11Z</time>
      </trkpt>
      <trkpt lat="45.36928" lon="6.5515">
        <ele>2299.93</ele>
        <time>2014-01-31T09:12:14Z</time>
      </trkpt>
      <trkpt lat="45.36947" lon="6.55128">
        <ele>2298.52</ele>
        <time>2014-01-31T09:12:17Z</time>
      </trkpt>
      <trkpt lat="45.36963" lon="6.55103">
        <ele>2295.15</ele>
        <time>2014-01-31T09:12:20Z</time>
      </trkpt>
      <trkpt lat="45.36978" lon="6.55079">
        <ele>2292.97</ele>
        <time>2014-01-31T09:12:23Z</time>
      </trkpt>
      <trkpt lat="45.36996" lon="6.55055">
        <ele>2292.52</ele>
        <time>2014-01-31T09:12:26Z</time>
      </trkpt>
      <trkpt lat="45.37014" lon="6.55031">
        <ele>2291.31</ele>
        <time>2014-01-31T09:12:29Z</time>
      </trkpt>
      <trkpt lat="45.37036" lon="6.55017">
        <ele>2291.59</ele>
        <time>2014-01-31T09:12:32Z</time>
      </trkpt>
      <trkpt lat="45.37062" lon="6.55013">
        <ele>2291.95</ele>
        <time>2014-01-31T09:12:35Z</time>
      </trkpt>
      <trkpt lat="45.37081" lon="6.55011">
        <ele>2290.82</ele>
        <time>2014-01-31T09:12:37Z</time>
      </trkpt>
      <trkpt lat="45.37099" lon="6.55009">
        <ele>2289.88</ele>
        <time>2014-01-31T09:12:39Z</time>
      </trkpt>
      <trkpt lat="45.37123" lon="6.55004">
        <ele>2287.87</ele>
        <time>2014-01-31T09:12:42Z</time>
      </trkpt>
      <trkpt lat="45.37146" lon="6.54995">
        <ele>2285.02</ele>
        <time>2014-01-31T09:12:45Z</time>
      </trkpt>
      <trkpt lat="45.37168" lon="6.54987">
        <ele>2282.76</ele>
        <time>2014-01-31T09:12:48Z</time>
      </trkpt>
      <trkpt lat="45.37191" lon="6.5499">
        <ele>2284</ele>
        <time>2014-01-31T09:12:51Z</time>
      </trkpt>
      <trkpt lat="45.37213" lon="6.54998">
        <ele>2282.86</ele>
        <time>2014-01-31T09:12:54Z</time>
      </trkpt>
      <trkpt lat="45.37237" lon="6.5501">
        <ele>2280.23</ele>
        <time>2014-01-31T09:12:57Z</time>
      </trkpt>
      <trkpt lat="45.37255" lon="6.5502">
        <ele>2278.43</ele>
        <time>2014-01-31T09:13:45Z</time>
      </trkpt>
      <trkpt lat="45.37272" lon="6.55031">
        <ele>2276.77</ele>
        <time>2014-01-31T09:13:49Z</time>
      </trkpt>
      <trkpt lat="45.37295" lon="6.55037">
        <ele>2273.7</ele>
        <time>2014-01-31T09:13:53Z</time>
      </trkpt>
      <trkpt lat="45.37317" lon="6.55041">
        <ele>2269.9</ele>
        <time>2014-01-31T09:13:56Z</time>
      </trkpt>
      <trkpt lat="45.37336" lon="6.55044">
        <ele>2265.97</ele>
        <time>2014-01-31T09:13:58Z</time>
      </trkpt>
      <trkpt lat="45.37357" lon="6.55046">
        <ele>2261.05</ele>
        <time>2014-01-31T09:14:00Z</time>
      </trkpt>
      <trkpt lat="45.37376" lon="6.55047">
        <ele>2258.96</ele>
        <time>2014-01-31T09:14:02Z</time>
      </trkpt>
      <trkpt lat="45.37395" lon="6.55045">
        <ele>2257.74</ele>
        <time>2014-01-31T09:14:04Z</time>
      </trkpt>
      <trkpt lat="45.37413" lon="6.55044">
        <ele>2257</ele>
        <time>2014-01-31T09:14:06Z</time>
      </trkpt>
      <trkpt lat="45.37437" lon="6.55039">
        <ele>2256.38</ele>
        <time>2014-01-31T09:14:09Z</time>
      </trkpt>
      <trkpt lat="45.37458" lon="6.55038">
        <ele>2255.54</ele>
        <time>2014-01-31T09:14:12Z</time>
      </trkpt>
      <trkpt lat="45.37484" lon="6.55038">
        <ele>2253.03</ele>
        <time>2014-01-31T09:14:15Z</time>
      </trkpt>
      <trkpt lat="45.37504" lon="6.55044">
        <ele>2250.06</ele>
        <time>2014-01-31T09:14:17Z</time>
      </trkpt>
      <trkpt lat="45.3753" lon="6.5505">
        <ele>2243.5</ele>
        <time>2014-01-31T09:14:19Z</time>
      </trkpt>
      <trkpt lat="45.37558" lon="6.55056">
        <ele>2236.38</ele>
        <time>2014-01-31T09:14:21Z</time>
      </trkpt>
      <trkpt lat="45.37584" lon="6.55061">
        <ele>2230.19</ele>
        <time>2014-01-31T09:14:23Z</time>
      </trkpt>
      <trkpt lat="45.37604" lon="6.55058">
        <ele>2230.02</ele>
        <time>2014-01-31T09:14:25Z</time>
      </trkpt>
      <trkpt lat="45.37629" lon="6.55048">
        <ele>2230</ele>
        <time>2014-01-31T09:14:28Z</time>
      </trkpt>
      <trkpt lat="45.3765" lon="6.55037">
        <ele>2230</ele>
        <time>2014-01-31T09:14:31Z</time>
      </trkpt>
      <trkpt lat="45.37666" lon="6.55018">
        <ele>2230</ele>
        <time>2014-01-31T09:14:35Z</time>
      </trkpt>
      <trkpt lat="45.3768" lon="6.55">
        <ele>2228.58</ele>
        <time>2014-01-31T09:14:58Z</time>
      </trkpt>
      <trkpt lat="45.37703" lon="6.54991">
        <ele>2223.38</ele>
        <time>2014-01-31T09:15:01Z</time>
      </trkpt>
      <trkpt lat="45.37723" lon="6.54981">
        <ele>2217.11</ele>
        <time>2014-01-31T09:15:03Z</time>
      </trkpt>
      <trkpt lat="45.37742" lon="6.54973">
        <ele>2211.7</ele>
        <time>2014-01-31T09:15:05Z</time>
      </trkpt>
      <trkpt lat="45.37762" lon="6.54965">
        <ele>2207.06</ele>
        <time>2014-01-31T09:15:07Z</time>
      </trkpt>
      <trkpt lat="45.3778" lon="6.54951">
        <ele>2202.35</ele>
        <time>2014-01-31T09:15:09Z</time>
      </trkpt>
      <trkpt lat="45.37802" lon="6.54941">
        <ele>2194.59</ele>
        <time>2014-01-31T09:15:11Z</time>
      </trkpt>
      <trkpt lat="45.37827" lon="6.54922">
        <ele>2187.53</ele>
        <time>2014-01-31T09:15:13Z</time>
      </trkpt>
      <trkpt lat="45.37847" lon="6.54908">
        <ele>2182.99</ele>
        <time>2014-01-31T09:15:15Z</time>
      </trkpt>
      <trkpt lat="45.37869" lon="6.54903">
        <ele>2179.9</ele>
        <time>2014-01-31T09:15:17Z</time>
      </trkpt>
      <trkpt lat="45.37889" lon="6.54898">
        <ele>2175.57</ele>
        <time>2014-01-31T09:15:19Z</time>
      </trkpt>
      <trkpt lat="45.37904" lon="6.54879">
        <ele>2170.86</ele>
        <time>2014-01-31T09:15:21Z</time>
      </trkpt>
      <trkpt lat="45.37921" lon="6.54863">
        <ele>2167.12</ele>
        <time>2014-01-31T09:15:23Z</time>
      </trkpt>
      <trkpt lat="45.37943" lon="6.54858">
        <ele>2163.22</ele>
        <time>2014-01-31T09:15:25Z</time>
      </trkpt>
      <trkpt lat="45.37965" lon="6.54848">
        <ele>2159.72</ele>
        <time>2014-01-31T09:15:27Z</time>
      </trkpt>
      <trkpt lat="45.37982" lon="6.54837">
        <ele>2157.12</ele>
        <time>2014-01-31T09:15:29Z</time>
      </trkpt>
      <trkpt lat="45.38006" lon="6.5483">
        <ele>2152.37</ele>
        <time>2014-01-31T09:15:32Z</time>
      </trkpt>
      <trkpt lat="45.38032" lon="6.54831">
        <ele>2144.2</ele>
        <time>2014-01-31T09:15:35Z</time>
      </trkpt>
      <trkpt lat="45.38052" lon="6.54836">
        <ele>2135.94</ele>
        <time>2014-01-31T09:15:37Z</time>
      </trkpt>
      <trkpt lat="45.38071" lon="6.5483">
        <ele>2130.27</ele>
        <time>2014-01-31T09:15:39Z</time>
      </trkpt>
      <trkpt lat="45.38091" lon="6.54829">
        <ele>2123.95</ele>
        <time>2014-01-31T09:15:41Z</time>
      </trkpt>
      <trkpt lat="45.38109" lon="6.54838">
        <ele>2118.53</ele>
        <time>2014-01-31T09:15:43Z</time>
      </trkpt>
      <trkpt lat="45.3813" lon="6.54834">
        <ele>2112.67</ele>
        <time>2014-01-31T09:15:45Z</time>
      </trkpt>
      <trkpt lat="45.38149" lon="6.54831">
        <ele>2107.23</ele>
        <time>2014-01-31T09:15:47Z</time>
      </trkpt>
      <trkpt lat="45.38169" lon="6.54844">
        <ele>2100.79</ele>
        <time>2014-01-31T09:15:50Z</time>
      </trkpt>
      <trkpt lat="45.38192" lon="6.54854">
        <ele>2095.84</ele>
        <time>2014-01-31T09:15:53Z</time>
      </trkpt>
      <trkpt lat="45.38214" lon="6.54865">
        <ele>2089.16</ele>
        <time>2014-01-31T09:15:56Z</time>
      </trkpt>
      <trkpt lat="45.38236" lon="6.54883">
        <ele>2080.82</ele>
        <time>2014-01-31T09:15:59Z</time>
      </trkpt>
      <trkpt lat="45.38258" lon="6.54896">
        <ele>2070.96</ele>
        <time>2014-01-31T09:16:02Z</time>
      </trkpt>
      <trkpt lat="45.38272" lon="6.54913">
        <ele>2063.22</ele>
        <time>2014-01-31T09:16:04Z</time>
      </trkpt>
      <trkpt lat="45.38291" lon="6.54915">
        <ele>2055.99</ele>
        <time>2014-01-31T09:16:06Z</time>
      </trkpt>
      <trkpt lat="45.38311" lon="6.54922">
        <ele>2047.6</ele>
        <time>2014-01-31T09:16:09Z</time>
      </trkpt>
      <trkpt lat="45.38327" lon="6.54952">
        <ele>2037.03</ele>
        <time>2014-01-31T09:16:12Z</time>
      </trkpt>
      <trkpt lat="45.38346" lon="6.54957">
        <ele>2030.06</ele>
        <time>2014-01-31T09:16:14Z</time>
      </trkpt>
      <trkpt lat="45.38369" lon="6.54976">
        <ele>2018.18</ele>
        <time>2014-01-31T09:16:17Z</time>
      </trkpt>
      <trkpt lat="45.38374" lon="6.55015">
        <ele>2008.24</ele>
        <time>2014-01-31T09:16:19Z</time>
      </trkpt>
      <trkpt lat="45.3838" lon="6.55047">
        <ele>2000.93</ele>
        <time>2014-01-31T09:16:21Z</time>
      </trkpt>
      <trkpt lat="45.38395" lon="6.55075">
        <ele>1994.19</ele>
        <time>2014-01-31T09:16:23Z</time>
      </trkpt>
      <trkpt lat="45.38409" lon="6.55107">
        <ele>1988.4</ele>
        <time>2014-01-31T09:16:25Z</time>
      </trkpt>
      <trkpt lat="45.38414" lon="6.55137">
        <ele>1985.36</ele>
        <time>2014-01-31T09:16:27Z</time>
      </trkpt>
      <trkpt lat="45.38416" lon="6.55163">
        <ele>1983.29</ele>
        <time>2014-01-31T09:16:29Z</time>
      </trkpt>
      <trkpt lat="45.38435" lon="6.55187">
        <ele>1975.63</ele>
        <time>2014-01-31T09:16:32Z</time>
      </trkpt>
      <trkpt lat="45.38447" lon="6.55209">
        <ele>1969.91</ele>
        <time>2014-01-31T09:16:34Z</time>
      </trkpt>
      <trkpt lat="45.38451" lon="6.55243">
        <ele>1962.63</ele>
        <time>2014-01-31T09:16:37Z</time>
      </trkpt>
      <trkpt lat="45.38457" lon="6.55269">
        <ele>1959.38</ele>
        <time>2014-01-31T09:16:40Z</time>
      </trkpt>
      <trkpt lat="45.38464" lon="6.55296">
        <ele>1956.99</ele>
        <time>2014-01-31T09:16:44Z</time>
      </trkpt>
      <trkpt lat="45.38477" lon="6.55323">
        <ele>1953.7</ele>
        <time>2014-01-31T09:17:25Z</time>
      </trkpt>
      <trkpt lat="45.38496" lon="6.55327">
        <ele>1951.35</ele>
        <time>2014-01-31T09:17:28Z</time>
      </trkpt>
      <trkpt lat="45.38517" lon="6.55313">
        <ele>1950.38</ele>
        <time>2014-01-31T09:17:33Z</time>
      </trkpt>
      <trkpt lat="45.38535" lon="6.55305">
        <ele>1948.07</ele>
        <time>2014-01-31T09:17:38Z</time>
      </trkpt>
      <trkpt lat="45.38552" lon="6.5524">
        <ele>1953.37</ele>
        <time>2014-01-31T09:17:51Z</time>
      </trkpt>
      <trkpt lat="45.38572" lon="6.55237">
        <ele>1949.62</ele>
        <time>2014-01-31T09:17:52Z</time>
      </trkpt>
      <trkpt lat="45.38593" lon="6.55239">
        <ele>1944.72</ele>
        <time>2014-01-31T09:17:56Z</time>
      </trkpt>
      <trkpt lat="45.38612" lon="6.55242">
        <ele>1939.92</ele>
        <time>2014-01-31T09:17:59Z</time>
      </trkpt>
      <trkpt lat="45.38633" lon="6.55242">
        <ele>1937.98</ele>
        <time>2014-01-31T09:18:02Z</time>
      </trkpt>
      <trkpt lat="45.38657" lon="6.55246">
        <ele>1930.34</ele>
        <time>2014-01-31T09:18:05Z</time>
      </trkpt>
      <trkpt lat="45.38676" lon="6.55255">
        <ele>1922.7</ele>
        <time>2014-01-31T09:18:08Z</time>
      </trkpt>
      <trkpt lat="45.38694" lon="6.55265">
        <ele>1915.23</ele>
        <time>2014-01-31T09:18:11Z</time>
      </trkpt>
      <trkpt lat="45.38716" lon="6.55277">
        <ele>1908.22</ele>
        <time>2014-01-31T09:18:14Z</time>
      </trkpt>
      <trkpt lat="45.38742" lon="6.55288">
        <ele>1901.53</ele>
        <time>2014-01-31T09:18:17Z</time>
      </trkpt>
      <trkpt lat="45.38762" lon="6.55308">
        <ele>1892.59</ele>
        <time>2014-01-31T09:18:20Z</time>
      </trkpt>
      <trkpt lat="45.38784" lon="6.55295">
        <ele>1888.87</ele>
        <time>2014-01-31T09:18:23Z</time>
      </trkpt>
      <trkpt lat="45.38802" lon="6.55288">
        <ele>1886.38</ele>
        <time>2014-01-31T09:18:25Z</time>
      </trkpt>
      <trkpt lat="45.38821" lon="6.55282">
        <ele>1881.71</ele>
        <time>2014-01-31T09:18:27Z</time>
      </trkpt>
      <trkpt lat="45.38834" lon="6.55259">
        <ele>1882.98</ele>
        <time>2014-01-31T09:18:29Z</time>
      </trkpt>
      <trkpt lat="45.38847" lon="6.55239">
        <ele>1881.33</ele>
        <time>2014-01-31T09:18:31Z</time>
      </trkpt>
      <trkpt lat="45.38868" lon="6.55234">
        <ele>1870.91</ele>
        <time>2014-01-31T09:18:33Z</time>
      </trkpt>
      <trkpt lat="45.38886" lon="6.55223">
        <ele>1864.38</ele>
        <time>2014-01-31T09:18:35Z</time>
      </trkpt>
      <trkpt lat="45.38897" lon="6.552">
        <ele>1861.18</ele>
        <time>2014-01-31T09:18:37Z</time>
      </trkpt>
      <trkpt lat="45.38917" lon="6.5518">
        <ele>1851.55</ele>
        <time>2014-01-31T09:18:40Z</time>
      </trkpt>
      <trkpt lat="45.3894" lon="6.55164">
        <ele>1843.38</ele>
        <time>2014-01-31T09:18:43Z</time>
      </trkpt>
      <trkpt lat="45.38956" lon="6.55145">
        <ele>1840.84</ele>
        <time>2014-01-31T09:18:45Z</time>
      </trkpt>
      <trkpt lat="45.38974" lon="6.55138">
        <ele>1834.43</ele>
        <time>2014-01-31T09:18:47Z</time>
      </trkpt>
      <trkpt lat="45.38994" lon="6.55147">
        <ele>1825.79</ele>
        <time>2014-01-31T09:18:49Z</time>
      </trkpt>
      <trkpt lat="45.39013" lon="6.55146">
        <ele>1821.4</ele>
        <time>2014-01-31T09:18:51Z</time>
      </trkpt>
      <trkpt lat="45.39034" lon="6.55139">
        <ele>1817.27</ele>
        <time>2014-01-31T09:18:54Z</time>
      </trkpt>
      <trkpt lat="45.39048" lon="6.55157">
        <ele>1811.19</ele>
        <time>2014-01-31T09:18:57Z</time>
      </trkpt>
      <trkpt lat="45.39059" lon="6.5518">
        <ele>1806.13</ele>
        <time>2014-01-31T09:19:00Z</time>
      </trkpt>
      <trkpt lat="45.3905" lon="6.5521">
        <ele>1804.92</ele>
        <time>2014-01-31T09:19:04Z</time>
      </trkpt>
      <trkpt lat="45.39054" lon="6.55239">
        <ele>1799.43</ele>
        <time>2014-01-31T09:19:08Z</time>
      </trkpt>
      <trkpt lat="45.39057" lon="6.55265">
        <ele>1793.26</ele>
        <time>2014-01-31T09:19:16Z</time>
      </trkpt>
      <trkpt lat="45.39069" lon="6.55242">
        <ele>1796.7</ele>
        <time>2014-01-31T09:21:10Z</time>
      </trkpt>
      <trkpt lat="45.3907" lon="6.55216">
        <ele>1800.16</ele>
        <time>2014-01-31T09:21:15Z</time>
      </trkpt>
      <trkpt lat="45.39072" lon="6.55186">
        <ele>1803.75</ele>
        <time>2014-01-31T09:21:21Z</time>
      </trkpt>
      <trkpt lat="45.39075" lon="6.55157">
        <ele>1807.26</ele>
        <time>2014-01-31T09:21:27Z</time>
      </trkpt>
      <trkpt lat="45.39078" lon="6.55129">
        <ele>1810.89</ele>
        <time>2014-01-31T09:21:33Z</time>
      </trkpt>
      <trkpt lat="45.39082" lon="6.551">
        <ele>1815.13</ele>
        <time>2014-01-31T09:21:39Z</time>
      </trkpt>
      <trkpt lat="45.39086" lon="6.5507">
        <ele>1821.38</ele>
        <time>2014-01-31T09:21:45Z</time>
      </trkpt>
      <trkpt lat="45.39091" lon="6.55042">
        <ele>1829.04</ele>
        <time>2014-01-31T09:21:51Z</time>
      </trkpt>
      <trkpt lat="45.39095" lon="6.55016">
        <ele>1836.33</ele>
        <time>2014-01-31T09:21:56Z</time>
      </trkpt>
      <trkpt lat="45.39097" lon="6.5499">
        <ele>1842.49</ele>
        <time>2014-01-31T09:22:02Z</time>
      </trkpt>
      <trkpt lat="45.391" lon="6.54963">
        <ele>1848.47</ele>
        <time>2014-01-31T09:22:06Z</time>
      </trkpt>
      <trkpt lat="45.39102" lon="6.54936">
        <ele>1857.05</ele>
        <time>2014-01-31T09:22:12Z</time>
      </trkpt>
      <trkpt lat="45.39104" lon="6.5491">
        <ele>1868.33</ele>
        <time>2014-01-31T09:22:18Z</time>
      </trkpt>
      <trkpt lat="45.39108" lon="6.54881">
        <ele>1880.94</ele>
        <time>2014-01-31T09:22:25Z</time>
      </trkpt>
      <trkpt lat="45.39111" lon="6.54852">
        <ele>1885.44</ele>
        <time>2014-01-31T09:22:31Z</time>
      </trkpt>
      <trkpt lat="45.39113" lon="6.54824">
        <ele>1889.88</ele>
        <time>2014-01-31T09:22:38Z</time>
      </trkpt>
      <trkpt lat="45.39117" lon="6.54792">
        <ele>1895.82</ele>
        <time>2014-01-31T09:22:44Z</time>
      </trkpt>
      <trkpt lat="45.3912" lon="6.54763">
        <ele>1902.04</ele>
        <time>2014-01-31T09:22:48Z</time>
      </trkpt>
      <trkpt lat="45.39125" lon="6.54734">
        <ele>1909.33</ele>
        <time>2014-01-31T09:22:54Z</time>
      </trkpt>
      <trkpt lat="45.39128" lon="6.54709">
        <ele>1915.96</ele>
        <time>2014-01-31T09:22:59Z</time>
      </trkpt>
      <trkpt lat="45.39133" lon="6.54683">
        <ele>1921.61</ele>
        <time>2014-01-31T09:23:04Z</time>
      </trkpt>
      <trkpt lat="45.39136" lon="6.54655">
        <ele>1928.71</ele>
        <time>2014-01-31T09:23:11Z</time>
      </trkpt>
      <trkpt lat="45.39138" lon="6.54627">
        <ele>1937.58</ele>
        <time>2014-01-31T09:23:18Z</time>
      </trkpt>
      <trkpt lat="45.3914" lon="6.54598">
        <ele>1947.16</ele>
        <time>2014-01-31T09:23:25Z</time>
      </trkpt>
      <trkpt lat="45.39143" lon="6.54571">
        <ele>1955.88</ele>
        <time>2014-01-31T09:23:30Z</time>
      </trkpt>
      <trkpt lat="45.39147" lon="6.54544">
        <ele>1963.19</ele>
        <time>2014-01-31T09:23:34Z</time>
      </trkpt>
      <trkpt lat="45.39152" lon="6.54516">
        <ele>1968.89</ele>
        <time>2014-01-31T09:23:39Z</time>
      </trkpt>
      <trkpt lat="45.39156" lon="6.54489">
        <ele>1975.43</ele>
        <time>2014-01-31T09:23:44Z</time>
      </trkpt>
      <trkpt lat="45.39159" lon="6.54463">
        <ele>1981.87</ele>
        <time>2014-01-31T09:23:51Z</time>
      </trkpt>
      <trkpt lat="45.39162" lon="6.54436">
        <ele>1987.25</ele>
        <time>2014-01-31T09:23:57Z</time>
      </trkpt>
      <trkpt lat="45.39165" lon="6.5441">
        <ele>1991.01</ele>
        <time>2014-01-31T09:24:03Z</time>
      </trkpt>
      <trkpt lat="45.39168" lon="6.5438">
        <ele>1993.9</ele>
        <time>2014-01-31T09:24:09Z</time>
      </trkpt>
      <trkpt lat="45.39171" lon="6.54353">
        <ele>1996.96</ele>
        <time>2014-01-31T09:24:14Z</time>
      </trkpt>
      <trkpt lat="45.39176" lon="6.54326">
        <ele>2000.07</ele>
        <time>2014-01-31T09:24:19Z</time>
      </trkpt>
      <trkpt lat="45.39182" lon="6.543">
        <ele>2003.83</ele>
        <time>2014-01-31T09:24:24Z</time>
      </trkpt>
      <trkpt lat="45.39184" lon="6.54274">
        <ele>2012.44</ele>
        <time>2014-01-31T09:24:30Z</time>
      </trkpt>
      <trkpt lat="45.39187" lon="6.54246">
        <ele>2030.14</ele>
        <time>2014-01-31T09:24:36Z</time>
      </trkpt>
      <trkpt lat="45.3919" lon="6.54219">
        <ele>2044.92</ele>
        <time>2014-01-31T09:24:43Z</time>
      </trkpt>
      <trkpt lat="45.39192" lon="6.54192">
        <ele>2061.29</ele>
        <time>2014-01-31T09:24:50Z</time>
      </trkpt>
      <trkpt lat="45.39194" lon="6.54166">
        <ele>2076.59</ele>
        <time>2014-01-31T09:24:58Z</time>
      </trkpt>
      <trkpt lat="45.39197" lon="6.54139">
        <ele>2090.42</ele>
        <time>2014-01-31T09:25:04Z</time>
      </trkpt>
      <trkpt lat="45.39201" lon="6.54113">
        <ele>2104.06</ele>
        <time>2014-01-31T09:25:10Z</time>
      </trkpt>
      <trkpt lat="45.39205" lon="6.54086">
        <ele>2117.65</ele>
        <time>2014-01-31T09:25:17Z</time>
      </trkpt>
      <trkpt lat="45.39208" lon="6.54056">
        <ele>2134.95</ele>
        <time>2014-01-31T09:25:23Z</time>
      </trkpt>
      <trkpt lat="45.39209" lon="6.54028">
        <ele>2147.34</ele>
        <time>2014-01-31T09:25:30Z</time>
      </trkpt>
      <trkpt lat="45.39211" lon="6.53998">
        <ele>2162.32</ele>
        <time>2014-01-31T09:25:37Z</time>
      </trkpt>
      <trkpt lat="45.39217" lon="6.53973">
        <ele>2179.6</ele>
        <time>2014-01-31T09:25:42Z</time>
      </trkpt>
      <trkpt lat="45.39223" lon="6.53942">
        <ele>2195.44</ele>
        <time>2014-01-31T09:25:48Z</time>
      </trkpt>
      <trkpt lat="45.39227" lon="6.53914">
        <ele>2203.17</ele>
        <time>2014-01-31T09:25:56Z</time>
      </trkpt>
      <trkpt lat="45.39229" lon="6.53885">
        <ele>2204.83</ele>
        <time>2014-01-31T09:26:02Z</time>
      </trkpt>
      <trkpt lat="45.39232" lon="6.53856">
        <ele>2206.54</ele>
        <time>2014-01-31T09:26:09Z</time>
      </trkpt>
      <trkpt lat="45.39234" lon="6.53829">
        <ele>2210.72</ele>
        <time>2014-01-31T09:26:15Z</time>
      </trkpt>
      <trkpt lat="45.39236" lon="6.53801">
        <ele>2218.72</ele>
        <time>2014-01-31T09:26:21Z</time>
      </trkpt>
      <trkpt lat="45.39239" lon="6.53773">
        <ele>2229.18</ele>
        <time>2014-01-31T09:26:27Z</time>
      </trkpt>
      <trkpt lat="45.39244" lon="6.53747">
        <ele>2240.38</ele>
        <time>2014-01-31T09:26:32Z</time>
      </trkpt>
      <trkpt lat="45.39249" lon="6.53718">
        <ele>2253.46</ele>
        <time>2014-01-31T09:26:38Z</time>
      </trkpt>
      <trkpt lat="45.39249" lon="6.53688">
        <ele>2267.1</ele>
        <time>2014-01-31T09:26:44Z</time>
      </trkpt>
      <trkpt lat="45.39249" lon="6.53661">
        <ele>2276.73</ele>
        <time>2014-01-31T09:26:51Z</time>
      </trkpt>
      <trkpt lat="45.39251" lon="6.53635">
        <ele>2286.32</ele>
        <time>2014-01-31T09:26:58Z</time>
      </trkpt>
      <trkpt lat="45.39254" lon="6.53608">
        <ele>2287.6</ele>
        <time>2014-01-31T09:27:06Z</time>
      </trkpt>
      <trkpt lat="45.39269" lon="6.53594">
        <ele>2285.51</ele>
        <time>2014-01-31T09:27:32Z</time>
      </trkpt>
      <trkpt lat="45.3929" lon="6.53604">
        <ele>2286.96</ele>
        <time>2014-01-31T09:27:57Z</time>
      </trkpt>
      <trkpt lat="45.39312" lon="6.53612">
        <ele>2286.58</ele>
        <time>2014-01-31T09:28:01Z</time>
      </trkpt>
      <trkpt lat="45.39334" lon="6.53615">
        <ele>2285.35</ele>
        <time>2014-01-31T09:28:05Z</time>
      </trkpt>
      <trkpt lat="45.39356" lon="6.53616">
        <ele>2283.11</ele>
        <time>2014-01-31T09:28:09Z</time>
      </trkpt>
      <trkpt lat="45.39377" lon="6.53618">
        <ele>2281.9</ele>
        <time>2014-01-31T09:28:14Z</time>
      </trkpt>
      <trkpt lat="45.39395" lon="6.53619">
        <ele>2280.81</ele>
        <time>2014-01-31T09:28:19Z</time>
      </trkpt>
      <trkpt lat="45.39413" lon="6.53619">
        <ele>2279.38</ele>
        <time>2014-01-31T09:28:26Z</time>
      </trkpt>
      <trkpt lat="45.39431" lon="6.53611">
        <ele>2280</ele>
        <time>2014-01-31T09:28:48Z</time>
      </trkpt>
      <trkpt lat="45.39447" lon="6.53598">
        <ele>2280</ele>
        <time>2014-01-31T09:28:55Z</time>
      </trkpt>
      <trkpt lat="45.39463" lon="6.53586">
        <ele>2280</ele>
        <time>2014-01-31T09:29:03Z</time>
      </trkpt>
      <trkpt lat="45.39481" lon="6.53578">
        <ele>2277.89</ele>
        <time>2014-01-31T09:29:13Z</time>
      </trkpt>
      <trkpt lat="45.39501" lon="6.53568">
        <ele>2274.12</ele>
        <time>2014-01-31T09:31:26Z</time>
      </trkpt>
      <trkpt lat="45.39519" lon="6.53565">
        <ele>2271.45</ele>
        <time>2014-01-31T09:31:29Z</time>
      </trkpt>
      <trkpt lat="45.3954" lon="6.53554">
        <ele>2269.85</ele>
        <time>2014-01-31T09:31:33Z</time>
      </trkpt>
      <trkpt lat="45.3956" lon="6.53547">
        <ele>2267.49</ele>
        <time>2014-01-31T09:31:37Z</time>
      </trkpt>
      <trkpt lat="45.39578" lon="6.53544">
        <ele>2262.43</ele>
        <time>2014-01-31T09:31:42Z</time>
      </trkpt>
      <trkpt lat="45.39601" lon="6.53542">
        <ele>2256.31</ele>
        <time>2014-01-31T09:31:51Z</time>
      </trkpt>
      <trkpt lat="45.39626" lon="6.5353">
        <ele>2248.04</ele>
        <time>2014-01-31T09:31:54Z</time>
      </trkpt>
      <trkpt lat="45.39644" lon="6.53519">
        <ele>2241.23</ele>
        <time>2014-01-31T09:31:56Z</time>
      </trkpt>
      <trkpt lat="45.39662" lon="6.53512">
        <ele>2235.33</ele>
        <time>2014-01-31T09:31:58Z</time>
      </trkpt>
      <trkpt lat="45.39686" lon="6.53501">
        <ele>2231.59</ele>
        <time>2014-01-31T09:32:01Z</time>
      </trkpt>
      <trkpt lat="45.39704" lon="6.5349">
        <ele>2228.12</ele>
        <time>2014-01-31T09:32:04Z</time>
      </trkpt>
      <trkpt lat="45.39725" lon="6.53479">
        <ele>2225.23</ele>
        <time>2014-01-31T09:32:08Z</time>
      </trkpt>
      <trkpt lat="45.39743" lon="6.53471">
        <ele>2223.38</ele>
        <time>2014-01-31T09:32:11Z</time>
      </trkpt>
      <trkpt lat="45.39761" lon="6.53467">
        <ele>2221.04</ele>
        <time>2014-01-31T09:32:13Z</time>
      </trkpt>
      <trkpt lat="45.39781" lon="6.53464">
        <ele>2218.09</ele>
        <time>2014-01-31T09:32:15Z</time>
      </trkpt>
      <trkpt lat="45.39805" lon="6.53458">
        <ele>2213.89</ele>
        <time>2014-01-31T09:32:18Z</time>
      </trkpt>
      <trkpt lat="45.39823" lon="6.53444">
        <ele>2209.29</ele>
        <time>2014-01-31T09:32:22Z</time>
      </trkpt>
      <trkpt lat="45.39839" lon="6.53428">
        <ele>2203.69</ele>
        <time>2014-01-31T09:32:27Z</time>
      </trkpt>
      <trkpt lat="45.39862" lon="6.53419">
        <ele>2200.99</ele>
        <time>2014-01-31T09:32:31Z</time>
      </trkpt>
      <trkpt lat="45.39888" lon="6.53419">
        <ele>2200.8</ele>
        <time>2014-01-31T09:32:34Z</time>
      </trkpt>
      <trkpt lat="45.39915" lon="6.5342">
        <ele>2197.63</ele>
        <time>2014-01-31T09:32:37Z</time>
      </trkpt>
      <trkpt lat="45.39934" lon="6.5342">
        <ele>2196.37</ele>
        <time>2014-01-31T09:32:40Z</time>
      </trkpt>
      <trkpt lat="45.39954" lon="6.53421">
        <ele>2196.53</ele>
        <time>2014-01-31T09:32:45Z</time>
      </trkpt>
      <trkpt lat="45.39973" lon="6.5342">
        <ele>2197.3</ele>
        <time>2014-01-31T09:32:49Z</time>
      </trkpt>
      <trkpt lat="45.39994" lon="6.53417">
        <ele>2192.41</ele>
        <time>2014-01-31T09:32:53Z</time>
      </trkpt>
      <trkpt lat="45.40016" lon="6.5341">
        <ele>2189.59</ele>
        <time>2014-01-31T09:32:57Z</time>
      </trkpt>
      <trkpt lat="45.40035" lon="6.53405">
        <ele>2186.85</ele>
        <time>2014-01-31T09:33:02Z</time>
      </trkpt>
      <trkpt lat="45.40056" lon="6.53408">
        <ele>2184.06</ele>
        <time>2014-01-31T09:33:07Z</time>
      </trkpt>
      <trkpt lat="45.40076" lon="6.53415">
        <ele>2181.93</ele>
        <time>2014-01-31T09:33:11Z</time>
      </trkpt>
      <trkpt lat="45.40097" lon="6.53419">
        <ele>2175.2</ele>
        <time>2014-01-31T09:33:15Z</time>
      </trkpt>
      <trkpt lat="45.40117" lon="6.53411">
        <ele>2169.37</ele>
        <time>2014-01-31T09:33:20Z</time>
      </trkpt>
      <trkpt lat="45.40136" lon="6.53405">
        <ele>2167.68</ele>
        <time>2014-01-31T09:33:24Z</time>
      </trkpt>
      <trkpt lat="45.40155" lon="6.53399">
        <ele>2164.8</ele>
        <time>2014-01-31T09:33:28Z</time>
      </trkpt>
      <trkpt lat="45.40173" lon="6.53391">
        <ele>2162.5</ele>
        <time>2014-01-31T09:33:54Z</time>
      </trkpt>
      <trkpt lat="45.40191" lon="6.53387">
        <ele>2159.64</ele>
        <time>2014-01-31T09:34:02Z</time>
      </trkpt>
      <trkpt lat="45.40211" lon="6.53377">
        <ele>2150.5</ele>
        <time>2014-01-31T09:34:12Z</time>
      </trkpt>
      <trkpt lat="45.40229" lon="6.53366">
        <ele>2140.35</ele>
        <time>2014-01-31T09:34:29Z</time>
      </trkpt>
      <trkpt lat="45.40247" lon="6.53361">
        <ele>2133.81</ele>
        <time>2014-01-31T09:34:35Z</time>
      </trkpt>
      <trkpt lat="45.40267" lon="6.5336">
        <ele>2125.23</ele>
        <time>2014-01-31T09:34:38Z</time>
      </trkpt>
      <trkpt lat="45.40288" lon="6.53365">
        <ele>2119.81</ele>
        <time>2014-01-31T09:34:43Z</time>
      </trkpt>
      <trkpt lat="45.40308" lon="6.53371">
        <ele>2117.35</ele>
        <time>2014-01-31T09:34:47Z</time>
      </trkpt>
      <trkpt lat="45.40326" lon="6.53373">
        <ele>2112.71</ele>
        <time>2014-01-31T09:34:52Z</time>
      </trkpt>
      <trkpt lat="45.40345" lon="6.53371">
        <ele>2110.6</ele>
        <time>2014-01-31T09:34:56Z</time>
      </trkpt>
      <trkpt lat="45.40365" lon="6.53365">
        <ele>2109.04</ele>
        <time>2014-01-31T09:37:19Z</time>
      </trkpt>
      <trkpt lat="45.40384" lon="6.53363">
        <ele>2105.55</ele>
        <time>2014-01-31T09:37:24Z</time>
      </trkpt>
      <trkpt lat="45.40402" lon="6.5337">
        <ele>2099.69</ele>
        <time>2014-01-31T09:37:28Z</time>
      </trkpt>
      <trkpt lat="45.40423" lon="6.53376">
        <ele>2093.26</ele>
        <time>2014-01-31T09:37:33Z</time>
      </trkpt>
      <trkpt lat="45.40443" lon="6.53381">
        <ele>2089.73</ele>
        <time>2014-01-31T09:37:43Z</time>
      </trkpt>
      <trkpt lat="45.40442" lon="6.53409">
        <ele>2078.02</ele>
        <time>2014-01-31T09:37:55Z</time>
      </trkpt>
      <trkpt lat="45.4046" lon="6.5342">
        <ele>2070.4</ele>
        <time>2014-01-31T09:38:02Z</time>
      </trkpt>
      <trkpt lat="45.40477" lon="6.53431">
        <ele>2064.03</ele>
        <time>2014-01-31T09:38:09Z</time>
      </trkpt>
      <trkpt lat="45.40497" lon="6.53438">
        <ele>2060.15</ele>
        <time>2014-01-31T09:38:15Z</time>
      </trkpt>
      <trkpt lat="45.40515" lon="6.53449">
        <ele>2055.35</ele>
        <time>2014-01-31T09:38:20Z</time>
      </trkpt>
      <trkpt lat="45.40534" lon="6.53469">
        <ele>2045.28</ele>
        <time>2014-01-31T09:38:25Z</time>
      </trkpt>
      <trkpt lat="45.4055" lon="6.53482">
        <ele>2039.81</ele>
        <time>2014-01-31T09:38:30Z</time>
      </trkpt>
      <trkpt lat="45.40567" lon="6.53502">
        <ele>2032.45</ele>
        <time>2014-01-31T09:38:35Z</time>
      </trkpt>
      <trkpt lat="45.40584" lon="6.53518">
        <ele>2026.76</ele>
        <time>2014-01-31T09:38:41Z</time>
      </trkpt>
      <trkpt lat="45.40566" lon="6.53532">
        <ele>2017.11</ele>
        <time>2014-01-31T09:38:51Z</time>
      </trkpt>
      <trkpt lat="45.40557" lon="6.53561">
        <ele>2004.51</ele>
        <time>2014-01-31T09:38:57Z</time>
      </trkpt>
      <trkpt lat="45.40565" lon="6.53585">
        <ele>1998.83</ele>
        <time>2014-01-31T09:39:50Z</time>
      </trkpt>
      <trkpt lat="45.40573" lon="6.5361">
        <ele>1990.96</ele>
        <time>2014-01-31T09:41:03Z</time>
      </trkpt>
      <trkpt lat="45.40585" lon="6.5363">
        <ele>1985.07</ele>
        <time>2014-01-31T09:41:07Z</time>
      </trkpt>
      <trkpt lat="45.406" lon="6.53651">
        <ele>1979.16</ele>
        <time>2014-01-31T09:41:13Z</time>
      </trkpt>
      <trkpt lat="45.406" lon="6.53681">
        <ele>1966.14</ele>
        <time>2014-01-31T09:41:23Z</time>
      </trkpt>
      <trkpt lat="45.40582" lon="6.53696">
        <ele>1955.05</ele>
        <time>2014-01-31T09:41:29Z</time>
      </trkpt>
      <trkpt lat="45.40576" lon="6.5372">
        <ele>1942.15</ele>
        <time>2014-01-31T09:41:47Z</time>
      </trkpt>
      <trkpt lat="45.40558" lon="6.53709">
        <ele>1940.99</ele>
        <time>2014-01-31T09:42:03Z</time>
      </trkpt>
      <trkpt lat="45.40538" lon="6.53716">
        <ele>1933.73</ele>
        <time>2014-01-31T09:42:13Z</time>
      </trkpt>
      <trkpt lat="45.40525" lon="6.53733">
        <ele>1923.03</ele>
        <time>2014-01-31T09:42:20Z</time>
      </trkpt>
      <trkpt lat="45.40528" lon="6.53759">
        <ele>1912.65</ele>
        <time>2014-01-31T09:42:27Z</time>
      </trkpt>
      <trkpt lat="45.40533" lon="6.53784">
        <ele>1905.07</ele>
        <time>2014-01-31T09:42:32Z</time>
      </trkpt>
      <trkpt lat="45.4054" lon="6.5381">
        <ele>1900.04</ele>
        <time>2014-01-31T09:42:38Z</time>
      </trkpt>
      <trkpt lat="45.40522" lon="6.53814">
        <ele>1892.61</ele>
        <time>2014-01-31T09:42:52Z</time>
      </trkpt>
      <trkpt lat="45.40521" lon="6.53849">
        <ele>1885.02</ele>
        <time>2014-01-31T09:43:00Z</time>
      </trkpt>
      <trkpt lat="45.40525" lon="6.53877">
        <ele>1880.52</ele>
        <time>2014-01-31T09:43:04Z</time>
      </trkpt>
      <trkpt lat="45.40526" lon="6.53906">
        <ele>1873.46</ele>
        <time>2014-01-31T09:43:09Z</time>
      </trkpt>
      <trkpt lat="45.40507" lon="6.53909">
        <ele>1867.68</ele>
        <time>2014-01-31T09:43:18Z</time>
      </trkpt>
      <trkpt lat="45.40503" lon="6.53934">
        <ele>1856.35</ele>
        <time>2014-01-31T09:43:42Z</time>
      </trkpt>
      <trkpt lat="45.40503" lon="6.53963">
        <ele>1847.81</ele>
        <time>2014-01-31T09:43:46Z</time>
      </trkpt>
      <trkpt lat="45.40491" lon="6.53985">
        <ele>1838.64</ele>
        <time>2014-01-31T09:44:13Z</time>
      </trkpt>
      <trkpt lat="45.40474" lon="6.53973">
        <ele>1836.37</ele>
        <time>2014-01-31T09:44:24Z</time>
      </trkpt>
      <trkpt lat="45.40458" lon="6.53986">
        <ele>1827.62</ele>
        <time>2014-01-31T09:44:32Z</time>
      </trkpt>
      <trkpt lat="45.40437" lon="6.53986">
        <ele>1821.07</ele>
        <time>2014-01-31T09:44:44Z</time>
      </trkpt>
      <trkpt lat="45.40429" lon="6.5401">
        <ele>1813.81</ele>
        <time>2014-01-31T09:44:51Z</time>
      </trkpt>
      <trkpt lat="45.40433" lon="6.54037">
        <ele>1809.45</ele>
        <time>2014-01-31T09:44:56Z</time>
      </trkpt>
      <trkpt lat="45.40414" lon="6.54034">
        <ele>1806.26</ele>
        <time>2014-01-31T09:45:01Z</time>
      </trkpt>
      <trkpt lat="45.40395" lon="6.54032">
        <ele>1802.49</ele>
        <time>2014-01-31T09:45:06Z</time>
      </trkpt>
      <trkpt lat="45.40386" lon="6.54054">
        <ele>1797.49</ele>
        <time>2014-01-31T09:45:17Z</time>
      </trkpt>
      <trkpt lat="45.40369" lon="6.54074">
        <ele>1794.25</ele>
        <time>2014-01-31T09:46:03Z</time>
      </trkpt>
      <trkpt lat="45.40374" lon="6.541">
        <ele>1788.31</ele>
        <time>2014-01-31T09:46:16Z</time>
      </trkpt>
      <trkpt lat="45.40379" lon="6.54127">
        <ele>1782.52</ele>
        <time>2014-01-31T09:46:42Z</time>
      </trkpt>
      <trkpt lat="45.40368" lon="6.54151">
        <ele>1775.87</ele>
        <time>2014-01-31T09:46:52Z</time>
      </trkpt>
      <trkpt lat="45.40376" lon="6.54177">
        <ele>1768.75</ele>
        <time>2014-01-31T09:46:57Z</time>
      </trkpt>
      <trkpt lat="45.40355" lon="6.54183">
        <ele>1764.41</ele>
        <time>2014-01-31T09:47:06Z</time>
      </trkpt>
      <trkpt lat="45.40362" lon="6.54209">
        <ele>1758.03</ele>
        <time>2014-01-31T09:47:12Z</time>
      </trkpt>
      <trkpt lat="45.40369" lon="6.54233">
        <ele>1753.85</ele>
        <time>2014-01-31T09:47:16Z</time>
      </trkpt>
      <trkpt lat="45.40382" lon="6.54251">
        <ele>1750.26</ele>
        <time>2014-01-31T09:47:27Z</time>
      </trkpt>
      <trkpt lat="45.40378" lon="6.54277">
        <ele>1743.37</ele>
        <time>2014-01-31T09:47:48Z</time>
      </trkpt>
      <trkpt lat="45.40362" lon="6.54293">
        <ele>1738.33</ele>
        <time>2014-01-31T09:47:52Z</time>
      </trkpt>
      <trkpt lat="45.40369" lon="6.5432">
        <ele>1732.46</ele>
        <time>2014-01-31T09:47:56Z</time>
      </trkpt>
      <trkpt lat="45.40361" lon="6.54347">
        <ele>1724.99</ele>
        <time>2014-01-31T09:48:02Z</time>
      </trkpt>
      <trkpt lat="45.40367" lon="6.54371">
        <ele>1721.69</ele>
        <time>2014-01-31T09:48:06Z</time>
      </trkpt>
      <trkpt lat="45.4036" lon="6.54396">
        <ele>1717.17</ele>
        <time>2014-01-31T09:50:08Z</time>
      </trkpt>
      <trkpt lat="45.40343" lon="6.54419">
        <ele>1714.17</ele>
        <time>2014-01-31T09:50:13Z</time>
      </trkpt>
      <trkpt lat="45.40333" lon="6.54445">
        <ele>1711.82</ele>
        <time>2014-01-31T09:50:18Z</time>
      </trkpt>
      <trkpt lat="45.40327" lon="6.54471">
        <ele>1707.09</ele>
        <time>2014-01-31T09:50:23Z</time>
      </trkpt>
      <trkpt lat="45.40328" lon="6.545">
        <ele>1700.93</ele>
        <time>2014-01-31T09:50:30Z</time>
      </trkpt>
      <trkpt lat="45.40331" lon="6.54526">
        <ele>1694.67</ele>
        <time>2014-01-31T09:50:34Z</time>
      </trkpt>
      <trkpt lat="45.40339" lon="6.54549">
        <ele>1687.61</ele>
        <time>2014-01-31T09:50:43Z</time>
      </trkpt>
      <trkpt lat="45.40339" lon="6.54577">
        <ele>1679.67</ele>
        <time>2014-01-31T09:50:52Z</time>
      </trkpt>
      <trkpt lat="45.40349" lon="6.546">
        <ele>1673.84</ele>
        <time>2014-01-31T09:51:01Z</time>
      </trkpt>
      <trkpt lat="45.40341" lon="6.54627">
        <ele>1667.35</ele>
        <time>2014-01-31T09:51:08Z</time>
      </trkpt>
      <trkpt lat="45.40342" lon="6.54652">
        <ele>1659.12</ele>
        <time>2014-01-31T09:51:13Z</time>
      </trkpt>
      <trkpt lat="45.4036" lon="6.54662">
        <ele>1653.69</ele>
        <time>2014-01-31T09:51:19Z</time>
      </trkpt>
      <trkpt lat="45.40358" lon="6.54689">
        <ele>1645.58</ele>
        <time>2014-01-31T09:51:27Z</time>
      </trkpt>
      <trkpt lat="45.40357" lon="6.54718">
        <ele>1636.32</ele>
        <time>2014-01-31T09:51:34Z</time>
      </trkpt>
      <trkpt lat="45.40344" lon="6.54738">
        <ele>1630.7</ele>
        <time>2014-01-31T09:51:39Z</time>
      </trkpt>
      <trkpt lat="45.40357" lon="6.5476">
        <ele>1624.24</ele>
        <time>2014-01-31T09:51:46Z</time>
      </trkpt>
      <trkpt lat="45.40376" lon="6.54777">
        <ele>1617.18</ele>
        <time>2014-01-31T09:51:51Z</time>
      </trkpt>
      <trkpt lat="45.40393" lon="6.5479">
        <ele>1610.85</ele>
        <time>2014-01-31T09:51:57Z</time>
      </trkpt>
      <trkpt lat="45.40409" lon="6.54804">
        <ele>1604.46</ele>
        <time>2014-01-31T09:52:02Z</time>
      </trkpt>
      <trkpt lat="45.40419" lon="6.54827">
        <ele>1597.53</ele>
        <time>2014-01-31T09:52:17Z</time>
      </trkpt>
      <trkpt lat="45.40432" lon="6.54844">
        <ele>1591.79</ele>
        <time>2014-01-31T09:56:13Z</time>
      </trkpt>
      <trkpt lat="45.40429" lon="6.5487">
        <ele>1584.83</ele>
        <time>2014-01-31T09:56:19Z</time>
      </trkpt>
      <trkpt lat="45.40435" lon="6.54894">
        <ele>1576.5</ele>
        <time>2014-01-31T09:56:31Z</time>
      </trkpt>
      <trkpt lat="45.40433" lon="6.54921">
        <ele>1570.13</ele>
        <time>2014-01-31T09:56:39Z</time>
      </trkpt>
      <trkpt lat="45.40422" lon="6.5495">
        <ele>1566.67</ele>
        <time>2014-01-31T09:56:43Z</time>
      </trkpt>
      <trkpt lat="45.4043" lon="6.54974">
        <ele>1558.73</ele>
        <time>2014-01-31T09:57:02Z</time>
      </trkpt>
      <trkpt lat="45.40418" lon="6.54994">
        <ele>1556.48</ele>
        <time>2014-01-31T09:57:12Z</time>
      </trkpt>
      <trkpt lat="45.40404" lon="6.55011">
        <ele>1554.51</ele>
        <time>2014-01-31T09:57:16Z</time>
      </trkpt>
      <trkpt lat="45.40388" lon="6.55029">
        <ele>1552.07</ele>
        <time>2014-01-31T09:57:20Z</time>
      </trkpt>
      <trkpt lat="45.40376" lon="6.55053">
        <ele>1550.75</ele>
        <time>2014-01-31T09:57:24Z</time>
      </trkpt>
      <trkpt lat="45.40363" lon="6.55072">
        <ele>1550.57</ele>
        <time>2014-01-31T09:57:29Z</time>
      </trkpt>
      <trkpt lat="45.40353" lon="6.55094">
        <ele>1550.41</ele>
        <time>2014-01-31T09:57:34Z</time>
      </trkpt>
      <trkpt lat="45.40343" lon="6.55122">
        <ele>1548.85</ele>
        <time>2014-01-31T09:57:39Z</time>
      </trkpt>
      <trkpt lat="45.40341" lon="6.55151">
        <ele>1544.47</ele>
        <time>2014-01-31T09:57:43Z</time>
      </trkpt>
      <trkpt lat="45.40344" lon="6.55184">
        <ele>1539.05</ele>
        <time>2014-01-31T09:57:46Z</time>
      </trkpt>
      <trkpt lat="45.40342" lon="6.55217">
        <ele>1535.87</ele>
        <time>2014-01-31T09:57:49Z</time>
      </trkpt>
      <trkpt lat="45.40342" lon="6.55252">
        <ele>1530.35</ele>
        <time>2014-01-31T09:57:52Z</time>
      </trkpt>
      <trkpt lat="45.40337" lon="6.55283">
        <ele>1526.05</ele>
        <time>2014-01-31T09:57:55Z</time>
      </trkpt>
      <trkpt lat="45.40331" lon="6.55307">
        <ele>1520.39</ele>
        <time>2014-01-31T09:57:58Z</time>
      </trkpt>
      <trkpt lat="45.40338" lon="6.55331">
        <ele>1514.64</ele>
        <time>2014-01-31T09:58:03Z</time>
      </trkpt>
      <trkpt lat="45.40341" lon="6.55364">
        <ele>1508.44</ele>
        <time>2014-01-31T09:58:08Z</time>
      </trkpt>
      <trkpt lat="45.40345" lon="6.55389">
        <ele>1504.1</ele>
        <time>2014-01-31T09:58:11Z</time>
      </trkpt>
      <trkpt lat="45.40343" lon="6.55421">
        <ele>1499.03</ele>
        <time>2014-01-31T09:58:14Z</time>
      </trkpt>
      <trkpt lat="45.40336" lon="6.55447">
        <ele>1493.41</ele>
        <time>2014-01-31T09:58:18Z</time>
      </trkpt>
      <trkpt lat="45.4033" lon="6.5548">
        <ele>1486.69</ele>
        <time>2014-01-31T09:58:26Z</time>
      </trkpt>
      <trkpt lat="45.40329" lon="6.55509">
        <ele>1479.74</ele>
        <time>2014-01-31T09:58:30Z</time>
      </trkpt>
      <trkpt lat="45.40332" lon="6.55537">
        <ele>1473.47</ele>
        <time>2014-01-31T09:58:33Z</time>
      </trkpt>
      <trkpt lat="45.4034" lon="6.55561">
        <ele>1469.84</ele>
        <time>2014-01-31T09:58:39Z</time>
      </trkpt>
      <trkpt lat="45.40343" lon="6.55591">
        <ele>1465.58</ele>
        <time>2014-01-31T09:58:46Z</time>
      </trkpt>
      <trkpt lat="45.40357" lon="6.55615">
        <ele>1460.69</ele>
        <time>2014-01-31T09:58:50Z</time>
      </trkpt>
      <trkpt lat="45.40372" lon="6.55633">
        <ele>1455.51</ele>
        <time>2014-01-31T09:58:54Z</time>
      </trkpt>
      <trkpt lat="45.40385" lon="6.55652">
        <ele>1451.07</ele>
        <time>2014-01-31T09:58:59Z</time>
      </trkpt>
      <trkpt lat="45.40379" lon="6.55677">
        <ele>1447.58</ele>
        <time>2014-01-31T09:59:06Z</time>
      </trkpt>
      <trkpt lat="45.404" lon="6.55682">
        <ele>1445.12</ele>
        <time>2014-01-31T09:59:14Z</time>
      </trkpt>
      <trkpt lat="45.40424" lon="6.5568">
        <ele>1443</ele>
        <time>2014-01-31T09:59:18Z</time>
      </trkpt>
      <trkpt lat="45.40442" lon="6.55676">
        <ele>1440.16</ele>
        <time>2014-01-31T09:59:21Z</time>
      </trkpt>
      <trkpt lat="45.40465" lon="6.55672">
        <ele>1435.64</ele>
        <time>2014-01-31T09:59:25Z</time>
      </trkpt>
      <trkpt lat="45.40468" lon="6.557">
        <ele>1430.22</ele>
        <time>2014-01-31T09:59:31Z</time>
      </trkpt>
      <trkpt lat="45.40473" lon="6.55731">
        <ele>1424.26</ele>
        <time>2014-01-31T09:59:38Z</time>
      </trkpt>
      <trkpt lat="45.40493" lon="6.55733">
        <ele>1417.51</ele>
        <time>2014-01-31T09:59:43Z</time>
      </trkpt>
      <trkpt lat="45.40516" lon="6.55736">
        <ele>1410.75</ele>
        <time>2014-01-31T09:59:48Z</time>
      </trkpt>
      <trkpt lat="45.40535" lon="6.55747">
        <ele>1404.47</ele>
        <time>2014-01-31T09:59:51Z</time>
      </trkpt>
      <trkpt lat="45.40556" lon="6.55757">
        <ele>1398.77</ele>
        <time>2014-01-31T09:59:54Z</time>
      </trkpt>
      <trkpt lat="45.40571" lon="6.55782">
        <ele>1396.1</ele>
        <time>2014-01-31T09:59:57Z</time>
      </trkpt>
      <trkpt lat="45.40571" lon="6.5581">
        <ele>1394.63</ele>
        <time>2014-01-31T10:00:02Z</time>
      </trkpt>
      <trkpt lat="45.40579" lon="6.55836">
        <ele>1392.08</ele>
        <time>2014-01-31T10:00:11Z</time>
      </trkpt>
      <trkpt lat="45.40594" lon="6.55859">
        <ele>1388.47</ele>
        <time>2014-01-31T10:00:19Z</time>
      </trkpt>
      <trkpt lat="45.40616" lon="6.55839">
        <ele>1388.89</ele>
        <time>2014-01-31T10:00:25Z</time>
      </trkpt>
      <trkpt lat="45.40638" lon="6.55818">
        <ele>1385.94</ele>
        <time>2014-01-31T10:00:28Z</time>
      </trkpt>
      <trkpt lat="45.40661" lon="6.55821">
        <ele>1378.36</ele>
        <time>2014-01-31T10:00:38Z</time>
      </trkpt>
      <trkpt lat="45.40681" lon="6.55822">
        <ele>1370.58</ele>
        <time>2014-01-31T10:00:41Z</time>
      </trkpt>
      <trkpt lat="45.407" lon="6.55823">
        <ele>1363.67</ele>
        <time>2014-01-31T10:00:44Z</time>
      </trkpt>
      <trkpt lat="45.40721" lon="6.55826">
        <ele>1360.08</ele>
        <time>2014-01-31T10:00:47Z</time>
      </trkpt>
      <trkpt lat="45.40727" lon="6.55852">
        <ele>1355.67</ele>
        <time>2014-01-31T10:00:50Z</time>
      </trkpt>
      <trkpt lat="45.40737" lon="6.55875">
        <ele>1351.28</ele>
        <time>2014-01-31T10:00:54Z</time>
      </trkpt>
      <trkpt lat="45.4075" lon="6.55895">
        <ele>1347.63</ele>
        <time>2014-01-31T10:01:00Z</time>
      </trkpt>
      <trkpt lat="45.40762" lon="6.55923">
        <ele>1344.92</ele>
        <time>2014-01-31T10:01:08Z</time>
      </trkpt>
      <trkpt lat="45.40763" lon="6.55952">
        <ele>1343.62</ele>
        <time>2014-01-31T10:01:11Z</time>
      </trkpt>
      <trkpt lat="45.40757" lon="6.55977">
        <ele>1342.56</ele>
        <time>2014-01-31T10:01:15Z</time>
      </trkpt>
      <trkpt lat="45.4075" lon="6.56003">
        <ele>1341.75</ele>
        <time>2014-01-31T10:01:25Z</time>
      </trkpt>
      <trkpt lat="45.40769" lon="6.5601">
        <ele>1339.84</ele>
        <time>2014-01-31T10:01:30Z</time>
      </trkpt>
      <trkpt lat="45.40784" lon="6.56026">
        <ele>1335.16</ele>
        <time>2014-01-31T10:01:38Z</time>
      </trkpt>
      <trkpt lat="45.40792" lon="6.5605">
        <ele>1328.18</ele>
        <time>2014-01-31T10:03:19Z</time>
      </trkpt>
      <trkpt lat="45.40802" lon="6.56074">
        <ele>1321.42</ele>
        <time>2014-01-31T10:05:56Z</time>
      </trkpt>
      <trkpt lat="45.40788" lon="6.56091">
        <ele>1320.9</ele>
        <time>2014-01-31T10:07:11Z</time>
      </trkpt>
      <trkpt lat="45.40769" lon="6.561">
        <ele>1321.46</ele>
        <time>2014-01-31T10:07:14Z</time>
      </trkpt>
      <trkpt lat="45.4075" lon="6.56106">
        <ele>1321.99</ele>
        <time>2014-01-31T10:07:17Z</time>
      </trkpt>
      <trkpt lat="45.40729" lon="6.56114">
        <ele>1323.29</ele>
        <time>2014-01-31T10:07:21Z</time>
      </trkpt>
      <trkpt lat="45.40708" lon="6.56122">
        <ele>1326.5</ele>
        <time>2014-01-31T10:07:25Z</time>
      </trkpt>
      <trkpt lat="45.40689" lon="6.56129">
        <ele>1328.7</ele>
        <time>2014-01-31T10:07:29Z</time>
      </trkpt>
      <trkpt lat="45.40671" lon="6.56135">
        <ele>1328.73</ele>
        <time>2014-01-31T10:07:33Z</time>
      </trkpt>
      <trkpt lat="45.40653" lon="6.5614">
        <ele>1328.52</ele>
        <time>2014-01-31T10:07:37Z</time>
      </trkpt>
      <trkpt lat="45.40635" lon="6.56146">
        <ele>1329.69</ele>
        <time>2014-01-31T10:07:41Z</time>
      </trkpt>
      <trkpt lat="45.40616" lon="6.56152">
        <ele>1331.64</ele>
        <time>2014-01-31T10:07:45Z</time>
      </trkpt>
      <trkpt lat="45.40599" lon="6.56157">
        <ele>1332.44</ele>
        <time>2014-01-31T10:07:49Z</time>
      </trkpt>
      <trkpt lat="45.40577" lon="6.56164">
        <ele>1333.96</ele>
        <time>2014-01-31T10:07:54Z</time>
      </trkpt>
      <trkpt lat="45.40559" lon="6.5617">
        <ele>1338.03</ele>
        <time>2014-01-31T10:07:58Z</time>
      </trkpt>
      <trkpt lat="45.40541" lon="6.56177">
        <ele>1342.66</ele>
        <time>2014-01-31T10:08:02Z</time>
      </trkpt>
      <trkpt lat="45.40519" lon="6.56184">
        <ele>1348.19</ele>
        <time>2014-01-31T10:08:07Z</time>
      </trkpt>
      <trkpt lat="45.40497" lon="6.56191">
        <ele>1351.35</ele>
        <time>2014-01-31T10:08:12Z</time>
      </trkpt>
      <trkpt lat="45.40479" lon="6.56197">
        <ele>1351.48</ele>
        <time>2014-01-31T10:08:16Z</time>
      </trkpt>
      <trkpt lat="45.40458" lon="6.56204">
        <ele>1353.49</ele>
        <time>2014-01-31T10:08:21Z</time>
      </trkpt>
      <trkpt lat="45.40438" lon="6.56211">
        <ele>1355.59</ele>
        <time>2014-01-31T10:08:26Z</time>
      </trkpt>
      <trkpt lat="45.40417" lon="6.56219">
        <ele>1357.76</ele>
        <time>2014-01-31T10:08:31Z</time>
      </trkpt>
      <trkpt lat="45.40399" lon="6.56225">
        <ele>1358.46</ele>
        <time>2014-01-31T10:08:35Z</time>
      </trkpt>
      <trkpt lat="45.4038" lon="6.56231">
        <ele>1360.11</ele>
        <time>2014-01-31T10:08:39Z</time>
      </trkpt>
      <trkpt lat="45.40361" lon="6.56239">
        <ele>1361.75</ele>
        <time>2014-01-31T10:08:44Z</time>
      </trkpt>
      <trkpt lat="45.40338" lon="6.56246">
        <ele>1365.95</ele>
        <time>2014-01-31T10:08:49Z</time>
      </trkpt>
      <trkpt lat="45.4032" lon="6.56251">
        <ele>1367.53</ele>
        <time>2014-01-31T10:08:53Z</time>
      </trkpt>
      <trkpt lat="45.40299" lon="6.56259">
        <ele>1370.92</ele>
        <time>2014-01-31T10:08:58Z</time>
      </trkpt>
      <trkpt lat="45.40281" lon="6.56266">
        <ele>1380.06</ele>
        <time>2014-01-31T10:09:02Z</time>
      </trkpt>
      <trkpt lat="45.4026" lon="6.56274">
        <ele>1383.65</ele>
        <time>2014-01-31T10:09:07Z</time>
      </trkpt>
      <trkpt lat="45.40241" lon="6.5628">
        <ele>1385.45</ele>
        <time>2014-01-31T10:09:11Z</time>
      </trkpt>
      <trkpt lat="45.40223" lon="6.56287">
        <ele>1388.84</ele>
        <time>2014-01-31T10:09:15Z</time>
      </trkpt>
      <trkpt lat="45.40202" lon="6.56293">
        <ele>1391.95</ele>
        <time>2014-01-31T10:09:20Z</time>
      </trkpt>
      <trkpt lat="45.40183" lon="6.56299">
        <ele>1394.12</ele>
        <time>2014-01-31T10:09:24Z</time>
      </trkpt>
      <trkpt lat="45.40163" lon="6.56306">
        <ele>1395.47</ele>
        <time>2014-01-31T10:09:29Z</time>
      </trkpt>
      <trkpt lat="45.40145" lon="6.56313">
        <ele>1395.08</ele>
        <time>2014-01-31T10:09:33Z</time>
      </trkpt>
      <trkpt lat="45.40124" lon="6.56322">
        <ele>1394.71</ele>
        <time>2014-01-31T10:09:39Z</time>
      </trkpt>
      <trkpt lat="45.40103" lon="6.5633">
        <ele>1392.52</ele>
        <time>2014-01-31T10:09:44Z</time>
      </trkpt>
      <trkpt lat="45.40085" lon="6.56335">
        <ele>1390.71</ele>
        <time>2014-01-31T10:09:48Z</time>
      </trkpt>
      <trkpt lat="45.40064" lon="6.56344">
        <ele>1390.58</ele>
        <time>2014-01-31T10:09:53Z</time>
      </trkpt>
      <trkpt lat="45.40044" lon="6.56351">
        <ele>1390</ele>
        <time>2014-01-31T10:09:58Z</time>
      </trkpt>
      <trkpt lat="45.40026" lon="6.56357">
        <ele>1390</ele>
        <time>2014-01-31T10:10:02Z</time>
      </trkpt>
      <trkpt lat="45.40004" lon="6.56364">
        <ele>1390</ele>
        <time>2014-01-31T10:10:07Z</time>
      </trkpt>
      <trkpt lat="45.39983" lon="6.56372">
        <ele>1390.71</ele>
        <time>2014-01-31T10:10:12Z</time>
      </trkpt>
      <trkpt lat="45.39965" lon="6.56378">
        <ele>1393.32</ele>
        <time>2014-01-31T10:10:16Z</time>
      </trkpt>
      <trkpt lat="45.39947" lon="6.56384">
        <ele>1397.19</ele>
        <time>2014-01-31T10:10:20Z</time>
      </trkpt>
      <trkpt lat="45.39929" lon="6.5639">
        <ele>1398.58</ele>
        <time>2014-01-31T10:10:24Z</time>
      </trkpt>
      <trkpt lat="45.39911" lon="6.56394">
        <ele>1402.84</ele>
        <time>2014-01-31T10:10:28Z</time>
      </trkpt>
      <trkpt lat="45.3989" lon="6.56402">
        <ele>1413.08</ele>
        <time>2014-01-31T10:10:33Z</time>
      </trkpt>
      <trkpt lat="45.39872" lon="6.56409">
        <ele>1417.72</ele>
        <time>2014-01-31T10:10:37Z</time>
      </trkpt>
      <trkpt lat="45.39851" lon="6.56416">
        <ele>1421.6</ele>
        <time>2014-01-31T10:10:42Z</time>
      </trkpt>
      <trkpt lat="45.39833" lon="6.56423">
        <ele>1421.03</ele>
        <time>2014-01-31T10:10:46Z</time>
      </trkpt>
      <trkpt lat="45.39816" lon="6.56429">
        <ele>1423.5</ele>
        <time>2014-01-31T10:10:50Z</time>
      </trkpt>
      <trkpt lat="45.39797" lon="6.56435">
        <ele>1426.38</ele>
        <time>2014-01-31T10:10:54Z</time>
      </trkpt>
      <trkpt lat="45.3978" lon="6.56442">
        <ele>1429.06</ele>
        <time>2014-01-31T10:10:58Z</time>
      </trkpt>
      <trkpt lat="45.39758" lon="6.56448">
        <ele>1434.92</ele>
        <time>2014-01-31T10:11:03Z</time>
      </trkpt>
      <trkpt lat="45.3974" lon="6.56454">
        <ele>1439.17</ele>
        <time>2014-01-31T10:11:07Z</time>
      </trkpt>
      <trkpt lat="45.39721" lon="6.56461">
        <ele>1442.09</ele>
        <time>2014-01-31T10:11:12Z</time>
      </trkpt>
      <trkpt lat="45.39703" lon="6.56467">
        <ele>1442.18</ele>
        <time>2014-01-31T10:11:16Z</time>
      </trkpt>
      <trkpt lat="45.39684" lon="6.56473">
        <ele>1441.86</ele>
        <time>2014-01-31T10:11:21Z</time>
      </trkpt>
      <trkpt lat="45.39663" lon="6.5648">
        <ele>1441.38</ele>
        <time>2014-01-31T10:11:26Z</time>
      </trkpt>
      <trkpt lat="45.39642" lon="6.56486">
        <ele>1444.83</ele>
        <time>2014-01-31T10:11:31Z</time>
      </trkpt>
      <trkpt lat="45.39621" lon="6.56494">
        <ele>1445.57</ele>
        <time>2014-01-31T10:11:36Z</time>
      </trkpt>
      <trkpt lat="45.39601" lon="6.56502">
        <ele>1446.18</ele>
        <time>2014-01-31T10:11:41Z</time>
      </trkpt>
      <trkpt lat="45.3958" lon="6.5651">
        <ele>1446.46</ele>
        <time>2014-01-31T10:11:47Z</time>
      </trkpt>
      <trkpt lat="45.39559" lon="6.56518">
        <ele>1446.72</ele>
        <time>2014-01-31T10:11:52Z</time>
      </trkpt>
      <trkpt lat="45.39539" lon="6.56525">
        <ele>1448.28</ele>
        <time>2014-01-31T10:11:57Z</time>
      </trkpt>
      <trkpt lat="45.3952" lon="6.5653">
        <ele>1449.38</ele>
        <time>2014-01-31T10:12:02Z</time>
      </trkpt>
      <trkpt lat="45.39502" lon="6.56537">
        <ele>1447.99</ele>
        <time>2014-01-31T10:12:06Z</time>
      </trkpt>
      <trkpt lat="45.39485" lon="6.56543">
        <ele>1444.42</ele>
        <time>2014-01-31T10:12:10Z</time>
      </trkpt>
      <trkpt lat="45.39464" lon="6.5655">
        <ele>1441.07</ele>
        <time>2014-01-31T10:12:15Z</time>
      </trkpt>
      <trkpt lat="45.39442" lon="6.56533">
        <ele>1444.93</ele>
        <time>2014-01-31T10:12:59Z</time>
      </trkpt>
      <trkpt lat="45.39424" lon="6.56521">
        <ele>1449.95</ele>
        <time>2014-01-31T10:13:10Z</time>
      </trkpt>
      <trkpt lat="45.39406" lon="6.56518">
        <ele>1453.05</ele>
        <time>2014-01-31T10:13:26Z</time>
      </trkpt>
      <trkpt lat="45.39386" lon="6.56519">
        <ele>1455.36</ele>
        <time>2014-01-31T10:14:46Z</time>
      </trkpt>
      <trkpt lat="45.39368" lon="6.5653">
        <ele>1457.45</ele>
        <time>2014-01-31T10:14:56Z</time>
      </trkpt>
      <trkpt lat="45.39353" lon="6.56546">
        <ele>1457.15</ele>
        <time>2014-01-31T10:15:07Z</time>
      </trkpt>
      <trkpt lat="45.39338" lon="6.56561">
        <ele>1456.27</ele>
        <time>2014-01-31T10:15:17Z</time>
      </trkpt>
      <trkpt lat="45.39321" lon="6.56573">
        <ele>1455.01</ele>
        <time>2014-01-31T10:15:27Z</time>
      </trkpt>
      <trkpt lat="45.39303" lon="6.56588">
        <ele>1452.35</ele>
        <time>2014-01-31T10:15:36Z</time>
      </trkpt>
      <trkpt lat="45.39286" lon="6.56603">
        <ele>1447.43</ele>
        <time>2014-01-31T10:15:41Z</time>
      </trkpt>
      <trkpt lat="45.39269" lon="6.56614">
        <ele>1443.17</ele>
        <time>2014-01-31T10:15:45Z</time>
      </trkpt>
      <trkpt lat="45.39251" lon="6.56628">
        <ele>1438.42</ele>
        <time>2014-01-31T10:15:50Z</time>
      </trkpt>
      <trkpt lat="45.39237" lon="6.56651">
        <ele>1435.91</ele>
        <time>2014-01-31T10:15:55Z</time>
      </trkpt>
      <trkpt lat="45.39227" lon="6.56672">
        <ele>1437.52</ele>
        <time>2014-01-31T10:15:58Z</time>
      </trkpt>
      <trkpt lat="45.39217" lon="6.56694">
        <ele>1438.2</ele>
        <time>2014-01-31T10:16:01Z</time>
      </trkpt>
      <trkpt lat="45.39204" lon="6.56718">
        <ele>1438.66</ele>
        <time>2014-01-31T10:16:06Z</time>
      </trkpt>
      <trkpt lat="45.39192" lon="6.56742">
        <ele>1439</ele>
        <time>2014-01-31T10:16:17Z</time>
      </trkpt>
      <trkpt lat="45.39176" lon="6.56757">
        <ele>1439</ele>
        <time>2014-01-31T10:16:34Z</time>
      </trkpt>
      <trkpt lat="45.39158" lon="6.56759">
        <ele>1439</ele>
        <time>2014-01-31T10:16:49Z</time>
      </trkpt>
      <trkpt lat="45.39148" lon="6.56729">
        <ele>1439</ele>
        <time>2014-01-31T10:18:52Z</time>
      </trkpt>
      <trkpt lat="45.39156" lon="6.56701">
        <ele>1439</ele>
        <time>2014-01-31T10:20:41Z</time>
      </trkpt>
      <trkpt lat="45.39141" lon="6.5673">
        <ele>1439</ele>
        <time>2014-01-31T10:23:38Z</time>
      </trkpt>
      <trkpt lat="45.39138" lon="6.56759">
        <ele>1439</ele>
        <time>2014-01-31T10:23:40Z</time>
      </trkpt>
      <trkpt lat="45.39138" lon="6.56789">
        <ele>1439</ele>
        <time>2014-01-31T10:23:42Z</time>
      </trkpt>
      <trkpt lat="45.39136" lon="6.56818">
        <ele>1439</ele>
        <time>2014-01-31T10:23:45Z</time>
      </trkpt>
      <trkpt lat="45.39134" lon="6.56846">
        <ele>1440.89</ele>
        <time>2014-01-31T10:23:48Z</time>
      </trkpt>
      <trkpt lat="45.39131" lon="6.56872">
        <ele>1444.65</ele>
        <time>2014-01-31T10:23:51Z</time>
      </trkpt>
      <trkpt lat="45.39128" lon="6.56903">
        <ele>1450.38</ele>
        <time>2014-01-31T10:23:55Z</time>
      </trkpt>
      <trkpt lat="45.39125" lon="6.5693">
        <ele>1456.67</ele>
        <time>2014-01-31T10:23:59Z</time>
      </trkpt>
      <trkpt lat="45.39122" lon="6.56958">
        <ele>1464.32</ele>
        <time>2014-01-31T10:24:03Z</time>
      </trkpt>
      <trkpt lat="45.39119" lon="6.56987">
        <ele>1473.11</ele>
        <time>2014-01-31T10:24:07Z</time>
      </trkpt>
      <trkpt lat="45.39117" lon="6.57013">
        <ele>1481.66</ele>
        <time>2014-01-31T10:24:11Z</time>
      </trkpt>
      <trkpt lat="45.39114" lon="6.57043">
        <ele>1492.56</ele>
        <time>2014-01-31T10:24:15Z</time>
      </trkpt>
      <trkpt lat="45.39112" lon="6.5707">
        <ele>1504.19</ele>
        <time>2014-01-31T10:24:19Z</time>
      </trkpt>
      <trkpt lat="45.39109" lon="6.57096">
        <ele>1516.75</ele>
        <time>2014-01-31T10:24:23Z</time>
      </trkpt>
      <trkpt lat="45.39107" lon="6.57127">
        <ele>1531.34</ele>
        <time>2014-01-31T10:24:28Z</time>
      </trkpt>
      <trkpt lat="45.39103" lon="6.57153">
        <ele>1542.31</ele>
        <time>2014-01-31T10:24:32Z</time>
      </trkpt>
      <trkpt lat="45.391" lon="6.57181">
        <ele>1555.32</ele>
        <time>2014-01-31T10:24:36Z</time>
      </trkpt>
      <trkpt lat="45.391" lon="6.57208">
        <ele>1570.16</ele>
        <time>2014-01-31T10:24:40Z</time>
      </trkpt>
      <trkpt lat="45.39101" lon="6.57239">
        <ele>1584.66</ele>
        <time>2014-01-31T10:24:45Z</time>
      </trkpt>
      <trkpt lat="45.39102" lon="6.5727">
        <ele>1598.78</ele>
        <time>2014-01-31T10:24:49Z</time>
      </trkpt>
      <trkpt lat="45.39103" lon="6.57296">
        <ele>1611.7</ele>
        <time>2014-01-31T10:24:53Z</time>
      </trkpt>
      <trkpt lat="45.39102" lon="6.57326">
        <ele>1624.66</ele>
        <time>2014-01-31T10:24:58Z</time>
      </trkpt>
      <trkpt lat="45.39096" lon="6.57353">
        <ele>1631.26</ele>
        <time>2014-01-31T10:25:03Z</time>
      </trkpt>
      <trkpt lat="45.39088" lon="6.57381">
        <ele>1634.73</ele>
        <time>2014-01-31T10:25:08Z</time>
      </trkpt>
      <trkpt lat="45.39084" lon="6.57409">
        <ele>1649.32</ele>
        <time>2014-01-31T10:25:13Z</time>
      </trkpt>
      <trkpt lat="45.39079" lon="6.57439">
        <ele>1668.44</ele>
        <time>2014-01-31T10:25:18Z</time>
      </trkpt>
      <trkpt lat="45.39074" lon="6.5747">
        <ele>1683.4</ele>
        <time>2014-01-31T10:25:23Z</time>
      </trkpt>
      <trkpt lat="45.39069" lon="6.57498">
        <ele>1696.59</ele>
        <time>2014-01-31T10:25:27Z</time>
      </trkpt>
      <trkpt lat="45.39065" lon="6.57527">
        <ele>1696</ele>
        <time>2014-01-31T10:25:31Z</time>
      </trkpt>
      <trkpt lat="45.3906" lon="6.57558">
        <ele>1696.86</ele>
        <time>2014-01-31T10:25:35Z</time>
      </trkpt>
      <trkpt lat="45.39057" lon="6.5759">
        <ele>1696.96</ele>
        <time>2014-01-31T10:25:39Z</time>
      </trkpt>
      <trkpt lat="45.39054" lon="6.57619">
        <ele>1698.22</ele>
        <time>2014-01-31T10:25:43Z</time>
      </trkpt>
      <trkpt lat="45.39051" lon="6.57649">
        <ele>1702.44</ele>
        <time>2014-01-31T10:25:47Z</time>
      </trkpt>
      <trkpt lat="45.39049" lon="6.57677">
        <ele>1711</ele>
        <time>2014-01-31T10:25:51Z</time>
      </trkpt>
      <trkpt lat="45.39046" lon="6.57705">
        <ele>1720.98</ele>
        <time>2014-01-31T10:25:55Z</time>
      </trkpt>
      <trkpt lat="45.39045" lon="6.57732">
        <ele>1731.29</ele>
        <time>2014-01-31T10:25:59Z</time>
      </trkpt>
      <trkpt lat="45.39045" lon="6.57766">
        <ele>1742.12</ele>
        <time>2014-01-31T10:26:03Z</time>
      </trkpt>
      <trkpt lat="45.39043" lon="6.57792">
        <ele>1748.48</ele>
        <time>2014-01-31T10:26:07Z</time>
      </trkpt>
      <trkpt lat="45.3904" lon="6.5782">
        <ele>1756.45</ele>
        <time>2014-01-31T10:26:11Z</time>
      </trkpt>
      <trkpt lat="45.39037" lon="6.57849">
        <ele>1765.4</ele>
        <time>2014-01-31T10:26:15Z</time>
      </trkpt>
      <trkpt lat="45.39037" lon="6.57881">
        <ele>1778.41</ele>
        <time>2014-01-31T10:26:19Z</time>
      </trkpt>
      <trkpt lat="45.39037" lon="6.57915">
        <ele>1793.32</ele>
        <time>2014-01-31T10:26:23Z</time>
      </trkpt>
      <trkpt lat="45.39036" lon="6.57945">
        <ele>1806.94</ele>
        <time>2014-01-31T10:26:27Z</time>
      </trkpt>
      <trkpt lat="45.39035" lon="6.57974">
        <ele>1819.64</ele>
        <time>2014-01-31T10:26:31Z</time>
      </trkpt>
      <trkpt lat="45.39035" lon="6.58003">
        <ele>1831.78</ele>
        <time>2014-01-31T10:26:35Z</time>
      </trkpt>
      <trkpt lat="45.39035" lon="6.58032">
        <ele>1844.82</ele>
        <time>2014-01-31T10:26:39Z</time>
      </trkpt>
      <trkpt lat="45.39036" lon="6.58062">
        <ele>1855.83</ele>
        <time>2014-01-31T10:26:43Z</time>
      </trkpt>
      <trkpt lat="45.39032" lon="6.58089">
        <ele>1863.84</ele>
        <time>2014-01-31T10:26:47Z</time>
      </trkpt>
      <trkpt lat="45.39027" lon="6.58118">
        <ele>1871.84</ele>
        <time>2014-01-31T10:26:51Z</time>
      </trkpt>
      <trkpt lat="45.39022" lon="6.58145">
        <ele>1875.66</ele>
        <time>2014-01-31T10:26:55Z</time>
      </trkpt>
      <trkpt lat="45.39008" lon="6.58164">
        <ele>1879.11</ele>
        <time>2014-01-31T10:27:02Z</time>
      </trkpt>
      <trkpt lat="45.39" lon="6.58192">
        <ele>1886.39</ele>
        <time>2014-01-31T10:27:06Z</time>
      </trkpt>
      <trkpt lat="45.38998" lon="6.58219">
        <ele>1894.98</ele>
        <time>2014-01-31T10:27:10Z</time>
      </trkpt>
      <trkpt lat="45.38993" lon="6.58246">
        <ele>1900.78</ele>
        <time>2014-01-31T10:27:14Z</time>
      </trkpt>
      <trkpt lat="45.38988" lon="6.58273">
        <ele>1906.98</ele>
        <time>2014-01-31T10:27:18Z</time>
      </trkpt>
      <trkpt lat="45.38986" lon="6.58302">
        <ele>1913.16</ele>
        <time>2014-01-31T10:27:22Z</time>
      </trkpt>
      <trkpt lat="45.38984" lon="6.58331">
        <ele>1919.2</ele>
        <time>2014-01-31T10:27:26Z</time>
      </trkpt>
      <trkpt lat="45.38981" lon="6.58363">
        <ele>1926.12</ele>
        <time>2014-01-31T10:27:30Z</time>
      </trkpt>
      <trkpt lat="45.38978" lon="6.58391">
        <ele>1934.87</ele>
        <time>2014-01-31T10:27:35Z</time>
      </trkpt>
      <trkpt lat="45.38974" lon="6.58417">
        <ele>1945.8</ele>
        <time>2014-01-31T10:27:39Z</time>
      </trkpt>
      <trkpt lat="45.3897" lon="6.58445">
        <ele>1957.48</ele>
        <time>2014-01-31T10:27:43Z</time>
      </trkpt>
      <trkpt lat="45.38967" lon="6.58472">
        <ele>1968.89</ele>
        <time>2014-01-31T10:27:47Z</time>
      </trkpt>
      <trkpt lat="45.38964" lon="6.58498">
        <ele>1984.5</ele>
        <time>2014-01-31T10:27:51Z</time>
      </trkpt>
      <trkpt lat="45.38962" lon="6.58524">
        <ele>1995.76</ele>
        <time>2014-01-31T10:27:55Z</time>
      </trkpt>
      <trkpt lat="45.38959" lon="6.5855">
        <ele>2005.55</ele>
        <time>2014-01-31T10:27:59Z</time>
      </trkpt>
      <trkpt lat="45.38954" lon="6.58577">
        <ele>2015.48</ele>
        <time>2014-01-31T10:28:03Z</time>
      </trkpt>
      <trkpt lat="45.38952" lon="6.58605">
        <ele>2023.5</ele>
        <time>2014-01-31T10:28:07Z</time>
      </trkpt>
      <trkpt lat="45.3895" lon="6.58632">
        <ele>2030.8</ele>
        <time>2014-01-31T10:28:11Z</time>
      </trkpt>
      <trkpt lat="45.38947" lon="6.58659">
        <ele>2037.91</ele>
        <time>2014-01-31T10:28:15Z</time>
      </trkpt>
      <trkpt lat="45.38945" lon="6.58685">
        <ele>2043.22</ele>
        <time>2014-01-31T10:28:19Z</time>
      </trkpt>
      <trkpt lat="45.38941" lon="6.58712">
        <ele>2048.96</ele>
        <time>2014-01-31T10:28:23Z</time>
      </trkpt>
      <trkpt lat="45.38937" lon="6.58739">
        <ele>2055.26</ele>
        <time>2014-01-31T10:28:27Z</time>
      </trkpt>
      <trkpt lat="45.38934" lon="6.58765">
        <ele>2061.09</ele>
        <time>2014-01-31T10:28:31Z</time>
      </trkpt>
      <trkpt lat="45.38931" lon="6.58792">
        <ele>2066.72</ele>
        <time>2014-01-31T10:28:35Z</time>
      </trkpt>
      <trkpt lat="45.38927" lon="6.5882">
        <ele>2072.09</ele>
        <time>2014-01-31T10:28:40Z</time>
      </trkpt>
      <trkpt lat="45.38927" lon="6.58847">
        <ele>2076.88</ele>
        <time>2014-01-31T10:29:35Z</time>
      </trkpt>
      <trkpt lat="45.38921" lon="6.58873">
        <ele>2083.24</ele>
        <time>2014-01-31T10:29:38Z</time>
      </trkpt>
      <trkpt lat="45.38914" lon="6.58898">
        <ele>2089.28</ele>
        <time>2014-01-31T10:29:41Z</time>
      </trkpt>
      <trkpt lat="45.38907" lon="6.58929">
        <ele>2095.88</ele>
        <time>2014-01-31T10:29:45Z</time>
      </trkpt>
      <trkpt lat="45.38902" lon="6.58958">
        <ele>2102.07</ele>
        <time>2014-01-31T10:29:49Z</time>
      </trkpt>
      <trkpt lat="45.38898" lon="6.5899">
        <ele>2110.25</ele>
        <time>2014-01-31T10:29:53Z</time>
      </trkpt>
      <trkpt lat="45.38892" lon="6.59023">
        <ele>2120.1</ele>
        <time>2014-01-31T10:29:57Z</time>
      </trkpt>
      <trkpt lat="45.38889" lon="6.59049">
        <ele>2125.73</ele>
        <time>2014-01-31T10:30:00Z</time>
      </trkpt>
      <trkpt lat="45.38884" lon="6.5908">
        <ele>2132.69</ele>
        <time>2014-01-31T10:30:04Z</time>
      </trkpt>
      <trkpt lat="45.3888" lon="6.59112">
        <ele>2140.13</ele>
        <time>2014-01-31T10:30:08Z</time>
      </trkpt>
      <trkpt lat="45.38876" lon="6.59139">
        <ele>2148.05</ele>
        <time>2014-01-31T10:30:12Z</time>
      </trkpt>
      <trkpt lat="45.38866" lon="6.59165">
        <ele>2155.48</ele>
        <time>2014-01-31T10:30:16Z</time>
      </trkpt>
      <trkpt lat="45.38852" lon="6.59182">
        <ele>2159.66</ele>
        <time>2014-01-31T10:30:20Z</time>
      </trkpt>
      <trkpt lat="45.38838" lon="6.59205">
        <ele>2164.66</ele>
        <time>2014-01-31T10:30:25Z</time>
      </trkpt>
      <trkpt lat="45.38826" lon="6.59228">
        <ele>2168.97</ele>
        <time>2014-01-31T10:30:29Z</time>
      </trkpt>
      <trkpt lat="45.38817" lon="6.59257">
        <ele>2175.21</ele>
        <time>2014-01-31T10:30:34Z</time>
      </trkpt>
      <trkpt lat="45.38807" lon="6.59281">
        <ele>2181.21</ele>
        <time>2014-01-31T10:30:38Z</time>
      </trkpt>
      <trkpt lat="45.38798" lon="6.59305">
        <ele>2183.97</ele>
        <time>2014-01-31T10:30:42Z</time>
      </trkpt>
      <trkpt lat="45.3879" lon="6.59331">
        <ele>2187.1</ele>
        <time>2014-01-31T10:30:46Z</time>
      </trkpt>
      <trkpt lat="45.38782" lon="6.59358">
        <ele>2190.79</ele>
        <time>2014-01-31T10:30:50Z</time>
      </trkpt>
      <trkpt lat="45.38773" lon="6.59387">
        <ele>2195.13</ele>
        <time>2014-01-31T10:30:54Z</time>
      </trkpt>
      <trkpt lat="45.38764" lon="6.59413">
        <ele>2198.06</ele>
        <time>2014-01-31T10:30:58Z</time>
      </trkpt>
      <trkpt lat="45.38756" lon="6.59439">
        <ele>2202.95</ele>
        <time>2014-01-31T10:31:02Z</time>
      </trkpt>
      <trkpt lat="45.38746" lon="6.59466">
        <ele>2206.94</ele>
        <time>2014-01-31T10:31:06Z</time>
      </trkpt>
      <trkpt lat="45.38737" lon="6.59493">
        <ele>2210.81</ele>
        <time>2014-01-31T10:31:10Z</time>
      </trkpt>
      <trkpt lat="45.3873" lon="6.5952">
        <ele>2214.54</ele>
        <time>2014-01-31T10:31:14Z</time>
      </trkpt>
      <trkpt lat="45.38723" lon="6.59546">
        <ele>2218.88</ele>
        <time>2014-01-31T10:31:18Z</time>
      </trkpt>
      <trkpt lat="45.38715" lon="6.59575">
        <ele>2228.28</ele>
        <time>2014-01-31T10:31:22Z</time>
      </trkpt>
      <trkpt lat="45.38707" lon="6.59604">
        <ele>2237.05</ele>
        <time>2014-01-31T10:31:26Z</time>
      </trkpt>
      <trkpt lat="45.38701" lon="6.59631">
        <ele>2242.81</ele>
        <time>2014-01-31T10:31:30Z</time>
      </trkpt>
      <trkpt lat="45.38693" lon="6.59658">
        <ele>2246.84</ele>
        <time>2014-01-31T10:31:34Z</time>
      </trkpt>
      <trkpt lat="45.38685" lon="6.59685">
        <ele>2250.09</ele>
        <time>2014-01-31T10:31:38Z</time>
      </trkpt>
      <trkpt lat="45.38679" lon="6.59716">
        <ele>2255.71</ele>
        <time>2014-01-31T10:31:42Z</time>
      </trkpt>
      <trkpt lat="45.38672" lon="6.59746">
        <ele>2262.58</ele>
        <time>2014-01-31T10:31:46Z</time>
      </trkpt>
      <trkpt lat="45.38666" lon="6.59773">
        <ele>2268.63</ele>
        <time>2014-01-31T10:31:50Z</time>
      </trkpt>
      <trkpt lat="45.3866" lon="6.59804">
        <ele>2273.81</ele>
        <time>2014-01-31T10:31:55Z</time>
      </trkpt>
      <trkpt lat="45.38654" lon="6.59831">
        <ele>2282.15</ele>
        <time>2014-01-31T10:31:59Z</time>
      </trkpt>
      <trkpt lat="45.38647" lon="6.5986">
        <ele>2293.09</ele>
        <time>2014-01-31T10:32:03Z</time>
      </trkpt>
      <trkpt lat="45.38641" lon="6.59889">
        <ele>2296.31</ele>
        <time>2014-01-31T10:32:07Z</time>
      </trkpt>
      <trkpt lat="45.38634" lon="6.59919">
        <ele>2297.82</ele>
        <time>2014-01-31T10:32:11Z</time>
      </trkpt>
      <trkpt lat="45.38628" lon="6.5995">
        <ele>2300.58</ele>
        <time>2014-01-31T10:32:15Z</time>
      </trkpt>
      <trkpt lat="45.38622" lon="6.59977">
        <ele>2304.56</ele>
        <time>2014-01-31T10:32:19Z</time>
      </trkpt>
      <trkpt lat="45.38615" lon="6.60003">
        <ele>2308.19</ele>
        <time>2014-01-31T10:32:23Z</time>
      </trkpt>
      <trkpt lat="45.38609" lon="6.6003">
        <ele>2314.34</ele>
        <time>2014-01-31T10:32:27Z</time>
      </trkpt>
      <trkpt lat="45.38602" lon="6.60055">
        <ele>2320.08</ele>
        <time>2014-01-31T10:32:31Z</time>
      </trkpt>
      <trkpt lat="45.38594" lon="6.60081">
        <ele>2326.59</ele>
        <time>2014-01-31T10:32:35Z</time>
      </trkpt>
      <trkpt lat="45.38586" lon="6.60107">
        <ele>2335.62</ele>
        <time>2014-01-31T10:32:39Z</time>
      </trkpt>
      <trkpt lat="45.38577" lon="6.60134">
        <ele>2342.14</ele>
        <time>2014-01-31T10:32:43Z</time>
      </trkpt>
      <trkpt lat="45.38569" lon="6.60161">
        <ele>2348.53</ele>
        <time>2014-01-31T10:32:47Z</time>
      </trkpt>
      <trkpt lat="45.38563" lon="6.60188">
        <ele>2355.32</ele>
        <time>2014-01-31T10:32:51Z</time>
      </trkpt>
      <trkpt lat="45.38558" lon="6.60215">
        <ele>2362.08</ele>
        <time>2014-01-31T10:32:55Z</time>
      </trkpt>
      <trkpt lat="45.38553" lon="6.60241">
        <ele>2367.98</ele>
        <time>2014-01-31T10:32:59Z</time>
      </trkpt>
      <trkpt lat="45.38547" lon="6.60269">
        <ele>2373.04</ele>
        <time>2014-01-31T10:33:03Z</time>
      </trkpt>
      <trkpt lat="45.38541" lon="6.603">
        <ele>2379.36</ele>
        <time>2014-01-31T10:33:07Z</time>
      </trkpt>
      <trkpt lat="45.38535" lon="6.60326">
        <ele>2383.63</ele>
        <time>2014-01-31T10:33:11Z</time>
      </trkpt>
      <trkpt lat="45.38528" lon="6.60351">
        <ele>2387.59</ele>
        <time>2014-01-31T10:33:15Z</time>
      </trkpt>
      <trkpt lat="45.38521" lon="6.60376">
        <ele>2390.9</ele>
        <time>2014-01-31T10:33:19Z</time>
      </trkpt>
      <trkpt lat="45.38514" lon="6.60408">
        <ele>2394.9</ele>
        <time>2014-01-31T10:33:23Z</time>
      </trkpt>
      <trkpt lat="45.3851" lon="6.60439">
        <ele>2398.68</ele>
        <time>2014-01-31T10:33:27Z</time>
      </trkpt>
      <trkpt lat="45.38506" lon="6.60468">
        <ele>2404.69</ele>
        <time>2014-01-31T10:33:31Z</time>
      </trkpt>
      <trkpt lat="45.38503" lon="6.60495">
        <ele>2412.91</ele>
        <time>2014-01-31T10:33:35Z</time>
      </trkpt>
      <trkpt lat="45.385" lon="6.60526">
        <ele>2423.26</ele>
        <time>2014-01-31T10:33:39Z</time>
      </trkpt>
      <trkpt lat="45.38495" lon="6.60555">
        <ele>2434.76</ele>
        <time>2014-01-31T10:33:43Z</time>
      </trkpt>
      <trkpt lat="45.38492" lon="6.6058">
        <ele>2445.82</ele>
        <time>2014-01-31T10:33:47Z</time>
      </trkpt>
      <trkpt lat="45.38488" lon="6.60612">
        <ele>2461.67</ele>
        <time>2014-01-31T10:33:52Z</time>
      </trkpt>
      <trkpt lat="45.38486" lon="6.60638">
        <ele>2476.18</ele>
        <time>2014-01-31T10:33:56Z</time>
      </trkpt>
      <trkpt lat="45.38483" lon="6.60665">
        <ele>2487.65</ele>
        <time>2014-01-31T10:33:59Z</time>
      </trkpt>
      <trkpt lat="45.3848" lon="6.60696">
        <ele>2502.48</ele>
        <time>2014-01-31T10:34:03Z</time>
      </trkpt>
      <trkpt lat="45.38478" lon="6.60724">
        <ele>2515.7</ele>
        <time>2014-01-31T10:34:07Z</time>
      </trkpt>
      <trkpt lat="45.38467" lon="6.60746">
        <ele>2528.77</ele>
        <time>2014-01-31T10:34:11Z</time>
      </trkpt>
      <trkpt lat="45.38447" lon="6.60764">
        <ele>2538.6</ele>
        <time>2014-01-31T10:34:14Z</time>
      </trkpt>
      <trkpt lat="45.38432" lon="6.6078">
        <ele>2553.18</ele>
        <time>2014-01-31T10:34:17Z</time>
      </trkpt>
      <trkpt lat="45.38417" lon="6.60798">
        <ele>2567.19</ele>
        <time>2014-01-31T10:34:22Z</time>
      </trkpt>
      <trkpt lat="45.38403" lon="6.60818">
        <ele>2580.81</ele>
        <time>2014-01-31T10:34:26Z</time>
      </trkpt>
      <trkpt lat="45.38391" lon="6.6084">
        <ele>2600.39</ele>
        <time>2014-01-31T10:34:30Z</time>
      </trkpt>
      <trkpt lat="45.38382" lon="6.60865">
        <ele>2614.74</ele>
        <time>2014-01-31T10:34:35Z</time>
      </trkpt>
      <trkpt lat="45.3837" lon="6.60886">
        <ele>2631.14</ele>
        <time>2014-01-31T10:34:40Z</time>
      </trkpt>
      <trkpt lat="45.38358" lon="6.60909">
        <ele>2655.66</ele>
        <time>2014-01-31T10:34:46Z</time>
      </trkpt>
      <trkpt lat="45.38351" lon="6.60936">
        <ele>2677.41</ele>
        <time>2014-01-31T10:34:51Z</time>
      </trkpt>
      <trkpt lat="45.38342" lon="6.60959">
        <ele>2698.27</ele>
        <time>2014-01-31T10:34:56Z</time>
      </trkpt>
      <trkpt lat="45.3833" lon="6.60986">
        <ele>2715.55</ele>
        <time>2014-01-31T10:35:01Z</time>
      </trkpt>
      <trkpt lat="45.3832" lon="6.61008">
        <ele>2715.55</ele>
        <time>2014-01-31T10:35:05Z</time>
      </trkpt>
      <trkpt lat="45.38319" lon="6.61041">
        <ele>2703.88</ele>
        <time>2014-01-31T10:35:47Z</time>
      </trkpt>
      <trkpt lat="45.38307" lon="6.61061">
        <ele>2691.2</ele>
        <time>2014-01-31T10:38:12Z</time>
      </trkpt>
      <trkpt lat="45.38289" lon="6.61063">
        <ele>2682.74</ele>
        <time>2014-01-31T10:38:18Z</time>
      </trkpt>
      <trkpt lat="45.3827" lon="6.61056">
        <ele>2678.01</ele>
        <time>2014-01-31T10:38:23Z</time>
      </trkpt>
      <trkpt lat="45.38247" lon="6.61043">
        <ele>2674.7</ele>
        <time>2014-01-31T10:38:27Z</time>
      </trkpt>
      <trkpt lat="45.38229" lon="6.61032">
        <ele>2675.79</ele>
        <time>2014-01-31T10:38:30Z</time>
      </trkpt>
      <trkpt lat="45.38211" lon="6.61022">
        <ele>2678.31</ele>
        <time>2014-01-31T10:38:33Z</time>
      </trkpt>
      <trkpt lat="45.3819" lon="6.61016">
        <ele>2680.1</ele>
        <time>2014-01-31T10:38:36Z</time>
      </trkpt>
      <trkpt lat="45.3817" lon="6.61014">
        <ele>2681.42</ele>
        <time>2014-01-31T10:38:39Z</time>
      </trkpt>
      <trkpt lat="45.38151" lon="6.61016">
        <ele>2679.45</ele>
        <time>2014-01-31T10:38:42Z</time>
      </trkpt>
      <trkpt lat="45.38132" lon="6.61012">
        <ele>2676.13</ele>
        <time>2014-01-31T10:38:46Z</time>
      </trkpt>
      <trkpt lat="45.38113" lon="6.61015">
        <ele>2667.94</ele>
        <time>2014-01-31T10:38:51Z</time>
      </trkpt>
      <trkpt lat="45.38095" lon="6.61005">
        <ele>2664.79</ele>
        <time>2014-01-31T10:38:56Z</time>
      </trkpt>
      <trkpt lat="45.38082" lon="6.60986">
        <ele>2663.04</ele>
        <time>2014-01-31T10:39:00Z</time>
      </trkpt>
      <trkpt lat="45.38061" lon="6.60981">
        <ele>2652.62</ele>
        <time>2014-01-31T10:39:06Z</time>
      </trkpt>
      <trkpt lat="45.38043" lon="6.6097">
        <ele>2646.07</ele>
        <time>2014-01-31T10:39:10Z</time>
      </trkpt>
      <trkpt lat="45.38025" lon="6.60977">
        <ele>2637.76</ele>
        <time>2014-01-31T10:39:14Z</time>
      </trkpt>
      <trkpt lat="45.38005" lon="6.60968">
        <ele>2631.39</ele>
        <time>2014-01-31T10:39:18Z</time>
      </trkpt>
      <trkpt lat="45.37988" lon="6.60975">
        <ele>2626.2</ele>
        <time>2014-01-31T10:39:21Z</time>
      </trkpt>
      <trkpt lat="45.37968" lon="6.60971">
        <ele>2623.45</ele>
        <time>2014-01-31T10:39:24Z</time>
      </trkpt>
      <trkpt lat="45.37948" lon="6.60982">
        <ele>2613.37</ele>
        <time>2014-01-31T10:39:28Z</time>
      </trkpt>
      <trkpt lat="45.37925" lon="6.60989">
        <ele>2607.4</ele>
        <time>2014-01-31T10:39:33Z</time>
      </trkpt>
      <trkpt lat="45.37907" lon="6.60996">
        <ele>2603.45</ele>
        <time>2014-01-31T10:39:36Z</time>
      </trkpt>
      <trkpt lat="45.37895" lon="6.61018">
        <ele>2598.99</ele>
        <time>2014-01-31T10:40:20Z</time>
      </trkpt>
      <trkpt lat="45.37882" lon="6.61045">
        <ele>2595.93</ele>
        <time>2014-01-31T10:40:25Z</time>
      </trkpt>
      <trkpt lat="45.37876" lon="6.61075">
        <ele>2594.27</ele>
        <time>2014-01-31T10:40:27Z</time>
      </trkpt>
      <trkpt lat="45.37877" lon="6.61103">
        <ele>2587.56</ele>
        <time>2014-01-31T10:40:29Z</time>
      </trkpt>
      <trkpt lat="45.37887" lon="6.61127">
        <ele>2577.77</ele>
        <time>2014-01-31T10:40:31Z</time>
      </trkpt>
      <trkpt lat="45.37886" lon="6.61154">
        <ele>2567.98</ele>
        <time>2014-01-31T10:40:34Z</time>
      </trkpt>
      <trkpt lat="45.3789" lon="6.61181">
        <ele>2559.54</ele>
        <time>2014-01-31T10:40:37Z</time>
      </trkpt>
      <trkpt lat="45.37876" lon="6.61202">
        <ele>2559.03</ele>
        <time>2014-01-31T10:40:41Z</time>
      </trkpt>
      <trkpt lat="45.37881" lon="6.61232">
        <ele>2552.69</ele>
        <time>2014-01-31T10:40:45Z</time>
      </trkpt>
      <trkpt lat="45.37875" lon="6.6126">
        <ele>2547.4</ele>
        <time>2014-01-31T10:40:49Z</time>
      </trkpt>
      <trkpt lat="45.37869" lon="6.61288">
        <ele>2537.86</ele>
        <time>2014-01-31T10:40:52Z</time>
      </trkpt>
      <trkpt lat="45.37868" lon="6.61318">
        <ele>2526.13</ele>
        <time>2014-01-31T10:40:55Z</time>
      </trkpt>
      <trkpt lat="45.37878" lon="6.61349">
        <ele>2516.87</ele>
        <time>2014-01-31T10:40:58Z</time>
      </trkpt>
      <trkpt lat="45.37871" lon="6.61374">
        <ele>2509.52</ele>
        <time>2014-01-31T10:41:01Z</time>
      </trkpt>
      <trkpt lat="45.37858" lon="6.61393">
        <ele>2503.59</ele>
        <time>2014-01-31T10:41:04Z</time>
      </trkpt>
      <trkpt lat="45.37839" lon="6.61407">
        <ele>2496.8</ele>
        <time>2014-01-31T10:41:09Z</time>
      </trkpt>
      <trkpt lat="45.37826" lon="6.61428">
        <ele>2490.31</ele>
        <time>2014-01-31T10:41:12Z</time>
      </trkpt>
      <trkpt lat="45.3781" lon="6.61441">
        <ele>2477.14</ele>
        <time>2014-01-31T10:41:15Z</time>
      </trkpt>
      <trkpt lat="45.3781" lon="6.61469">
        <ele>2467.84</ele>
        <time>2014-01-31T10:41:18Z</time>
      </trkpt>
      <trkpt lat="45.37801" lon="6.61493">
        <ele>2459.83</ele>
        <time>2014-01-31T10:41:21Z</time>
      </trkpt>
      <trkpt lat="45.37787" lon="6.61514">
        <ele>2454.98</ele>
        <time>2014-01-31T10:41:24Z</time>
      </trkpt>
      <trkpt lat="45.37794" lon="6.6154">
        <ele>2450.1</ele>
        <time>2014-01-31T10:41:27Z</time>
      </trkpt>
      <trkpt lat="45.37778" lon="6.61553">
        <ele>2447.49</ele>
        <time>2014-01-31T10:41:30Z</time>
      </trkpt>
      <trkpt lat="45.37767" lon="6.61582">
        <ele>2441.27</ele>
        <time>2014-01-31T10:41:34Z</time>
      </trkpt>
      <trkpt lat="45.37767" lon="6.61616">
        <ele>2434.61</ele>
        <time>2014-01-31T10:41:37Z</time>
      </trkpt>
      <trkpt lat="45.37756" lon="6.61642">
        <ele>2429.21</ele>
        <time>2014-01-31T10:41:40Z</time>
      </trkpt>
      <trkpt lat="45.37756" lon="6.61676">
        <ele>2418.8</ele>
        <time>2014-01-31T10:41:43Z</time>
      </trkpt>
      <trkpt lat="45.37738" lon="6.61701">
        <ele>2414.4</ele>
        <time>2014-01-31T10:41:46Z</time>
      </trkpt>
      <trkpt lat="45.37742" lon="6.61733">
        <ele>2403.41</ele>
        <time>2014-01-31T10:41:49Z</time>
      </trkpt>
      <trkpt lat="45.37743" lon="6.61761">
        <ele>2396.25</ele>
        <time>2014-01-31T10:41:52Z</time>
      </trkpt>
      <trkpt lat="45.37724" lon="6.61775">
        <ele>2393.68</ele>
        <time>2014-01-31T10:41:55Z</time>
      </trkpt>
      <trkpt lat="45.37723" lon="6.61803">
        <ele>2385.96</ele>
        <time>2014-01-31T10:41:59Z</time>
      </trkpt>
      <trkpt lat="45.37706" lon="6.61822">
        <ele>2387.84</ele>
        <time>2014-01-31T10:42:02Z</time>
      </trkpt>
      <trkpt lat="45.37713" lon="6.61854">
        <ele>2372.48</ele>
        <time>2014-01-31T10:42:05Z</time>
      </trkpt>
      <trkpt lat="45.37717" lon="6.61884">
        <ele>2361.07</ele>
        <time>2014-01-31T10:42:08Z</time>
      </trkpt>
      <trkpt lat="45.37704" lon="6.61904">
        <ele>2358.45</ele>
        <time>2014-01-31T10:42:11Z</time>
      </trkpt>
      <trkpt lat="45.37708" lon="6.61933">
        <ele>2349.79</ele>
        <time>2014-01-31T10:42:14Z</time>
      </trkpt>
      <trkpt lat="45.37699" lon="6.61958">
        <ele>2341.5</ele>
        <time>2014-01-31T10:42:17Z</time>
      </trkpt>
      <trkpt lat="45.37682" lon="6.61983">
        <ele>2335.27</ele>
        <time>2014-01-31T10:42:20Z</time>
      </trkpt>
      <trkpt lat="45.37686" lon="6.62008">
        <ele>2330.7</ele>
        <time>2014-01-31T10:42:22Z</time>
      </trkpt>
      <trkpt lat="45.37693" lon="6.62038">
        <ele>2326.42</ele>
        <time>2014-01-31T10:42:24Z</time>
      </trkpt>
      <trkpt lat="45.37699" lon="6.6207">
        <ele>2322.6</ele>
        <time>2014-01-31T10:42:26Z</time>
      </trkpt>
      <trkpt lat="45.37698" lon="6.62104">
        <ele>2319.77</ele>
        <time>2014-01-31T10:42:28Z</time>
      </trkpt>
      <trkpt lat="45.37691" lon="6.62134">
        <ele>2316.41</ele>
        <time>2014-01-31T10:42:30Z</time>
      </trkpt>
      <trkpt lat="45.37689" lon="6.62163">
        <ele>2314.15</ele>
        <time>2014-01-31T10:42:33Z</time>
      </trkpt>
      <trkpt lat="45.37689" lon="6.6219">
        <ele>2313.08</ele>
        <time>2014-01-31T10:42:45Z</time>
      </trkpt>
      <trkpt lat="45.37684" lon="6.62217">
        <ele>2311.26</ele>
        <time>2014-01-31T10:42:52Z</time>
      </trkpt>
      <trkpt lat="45.37674" lon="6.62242">
        <ele>2309.39</ele>
        <time>2014-01-31T10:42:57Z</time>
      </trkpt>
      <trkpt lat="45.37669" lon="6.62267">
        <ele>2307.78</ele>
        <time>2014-01-31T10:43:00Z</time>
      </trkpt>
      <trkpt lat="45.37669" lon="6.62301">
        <ele>2305.7</ele>
        <time>2014-01-31T10:43:04Z</time>
      </trkpt>
      <trkpt lat="45.37662" lon="6.62337">
        <ele>2302.28</ele>
        <time>2014-01-31T10:43:07Z</time>
      </trkpt>
      <trkpt lat="45.37659" lon="6.62372">
        <ele>2299.72</ele>
        <time>2014-01-31T10:43:10Z</time>
      </trkpt>
      <trkpt lat="45.37649" lon="6.62397">
        <ele>2297.95</ele>
        <time>2014-01-31T10:43:13Z</time>
      </trkpt>
      <trkpt lat="45.37633" lon="6.62415">
        <ele>2295.53</ele>
        <time>2014-01-31T10:43:18Z</time>
      </trkpt>
      <trkpt lat="45.3762" lon="6.62394">
        <ele>2294.44</ele>
        <time>2014-01-31T10:44:20Z</time>
      </trkpt>
      <trkpt lat="45.37609" lon="6.6237">
        <ele>2294.8</ele>
        <time>2014-01-31T10:44:27Z</time>
      </trkpt>
      <trkpt lat="45.376" lon="6.62347">
        <ele>2294.74</ele>
        <time>2014-01-31T10:44:36Z</time>
      </trkpt>
      <trkpt lat="45.3759" lon="6.62322">
        <ele>2292.54</ele>
        <time>2014-01-31T10:44:46Z</time>
      </trkpt>
      <trkpt lat="45.37583" lon="6.62296">
        <ele>2289.98</ele>
        <time>2014-01-31T10:44:55Z</time>
      </trkpt>
      <trkpt lat="45.37576" lon="6.62271">
        <ele>2289.84</ele>
        <time>2014-01-31T10:45:04Z</time>
      </trkpt>
      <trkpt lat="45.37568" lon="6.62245">
        <ele>2290.08</ele>
        <time>2014-01-31T10:45:14Z</time>
      </trkpt>
      <trkpt lat="45.3756" lon="6.62221">
        <ele>2290.03</ele>
        <time>2014-01-31T10:45:23Z</time>
      </trkpt>
      <trkpt lat="45.37553" lon="6.62196">
        <ele>2292.69</ele>
        <time>2014-01-31T10:45:32Z</time>
      </trkpt>
      <trkpt lat="45.37546" lon="6.6217">
        <ele>2299.45</ele>
        <time>2014-01-31T10:45:42Z</time>
      </trkpt>
      <trkpt lat="45.37538" lon="6.62145">
        <ele>2307.56</ele>
        <time>2014-01-31T10:45:52Z</time>
      </trkpt>
      <trkpt lat="45.37531" lon="6.62119">
        <ele>2315.51</ele>
        <time>2014-01-31T10:46:03Z</time>
      </trkpt>
      <trkpt lat="45.37524" lon="6.62094">
        <ele>2322.48</ele>
        <time>2014-01-31T10:46:13Z</time>
      </trkpt>
      <trkpt lat="45.37515" lon="6.62071">
        <ele>2330.07</ele>
        <time>2014-01-31T10:46:22Z</time>
      </trkpt>
      <trkpt lat="45.37507" lon="6.62048">
        <ele>2339.38</ele>
        <time>2014-01-31T10:46:32Z</time>
      </trkpt>
      <trkpt lat="45.37501" lon="6.62022">
        <ele>2351.66</ele>
        <time>2014-01-31T10:46:43Z</time>
      </trkpt>
      <trkpt lat="45.37493" lon="6.61998">
        <ele>2362.46</ele>
        <time>2014-01-31T10:46:55Z</time>
      </trkpt>
      <trkpt lat="45.37486" lon="6.61973">
        <ele>2374.76</ele>
        <time>2014-01-31T10:47:06Z</time>
      </trkpt>
      <trkpt lat="45.37478" lon="6.61948">
        <ele>2389.68</ele>
        <time>2014-01-31T10:47:18Z</time>
      </trkpt>
      <trkpt lat="45.37471" lon="6.61922">
        <ele>2408.45</ele>
        <time>2014-01-31T10:47:30Z</time>
      </trkpt>
      <trkpt lat="45.37463" lon="6.61899">
        <ele>2427.57</ele>
        <time>2014-01-31T10:47:42Z</time>
      </trkpt>
      <trkpt lat="45.37452" lon="6.61875">
        <ele>2447.33</ele>
        <time>2014-01-31T10:47:59Z</time>
      </trkpt>
      <trkpt lat="45.37447" lon="6.61847">
        <ele>2467.11</ele>
        <time>2014-01-31T10:48:09Z</time>
      </trkpt>
      <trkpt lat="45.37439" lon="6.61821">
        <ele>2484.87</ele>
        <time>2014-01-31T10:48:23Z</time>
      </trkpt>
      <trkpt lat="45.37432" lon="6.61795">
        <ele>2501.33</ele>
        <time>2014-01-31T10:48:35Z</time>
      </trkpt>
      <trkpt lat="45.37424" lon="6.61769">
        <ele>2515.79</ele>
        <time>2014-01-31T10:48:45Z</time>
      </trkpt>
      <trkpt lat="45.37419" lon="6.61744">
        <ele>2525.7</ele>
        <time>2014-01-31T10:48:54Z</time>
      </trkpt>
      <trkpt lat="45.37412" lon="6.61719">
        <ele>2536.99</ele>
        <time>2014-01-31T10:49:05Z</time>
      </trkpt>
      <trkpt lat="45.37404" lon="6.61695">
        <ele>2550.72</ele>
        <time>2014-01-31T10:49:16Z</time>
      </trkpt>
      <trkpt lat="45.37397" lon="6.6167">
        <ele>2559.54</ele>
        <time>2014-01-31T10:49:28Z</time>
      </trkpt>
      <trkpt lat="45.37389" lon="6.61647">
        <ele>2565.81</ele>
        <time>2014-01-31T10:49:38Z</time>
      </trkpt>
      <trkpt lat="45.3738" lon="6.61623">
        <ele>2575.45</ele>
        <time>2014-01-31T10:49:48Z</time>
      </trkpt>
      <trkpt lat="45.37373" lon="6.616">
        <ele>2586.52</ele>
        <time>2014-01-31T10:49:58Z</time>
      </trkpt>
      <trkpt lat="45.37369" lon="6.61573">
        <ele>2598.1</ele>
        <time>2014-01-31T10:50:10Z</time>
      </trkpt>
      <trkpt lat="45.37362" lon="6.61548">
        <ele>2612.21</ele>
        <time>2014-01-31T10:50:21Z</time>
      </trkpt>
      <trkpt lat="45.37354" lon="6.61524">
        <ele>2622.91</ele>
        <time>2014-01-31T10:50:32Z</time>
      </trkpt>
      <trkpt lat="45.37341" lon="6.61507">
        <ele>2626.96</ele>
        <time>2014-01-31T10:50:44Z</time>
      </trkpt>
      <trkpt lat="45.37332" lon="6.61482">
        <ele>2635.53</ele>
        <time>2014-01-31T10:50:55Z</time>
      </trkpt>
      <trkpt lat="45.37328" lon="6.61456">
        <ele>2646.68</ele>
        <time>2014-01-31T10:51:07Z</time>
      </trkpt>
      <trkpt lat="45.37321" lon="6.61429">
        <ele>2649.2</ele>
        <time>2014-01-31T10:51:18Z</time>
      </trkpt>
      <trkpt lat="45.37314" lon="6.61405">
        <ele>2654.57</ele>
        <time>2014-01-31T10:51:27Z</time>
      </trkpt>
      <trkpt lat="45.37305" lon="6.61382">
        <ele>2666.64</ele>
        <time>2014-01-31T10:51:35Z</time>
      </trkpt>
      <trkpt lat="45.37299" lon="6.61358">
        <ele>2665.52</ele>
        <time>2014-01-31T10:51:45Z</time>
      </trkpt>
      <trkpt lat="45.37293" lon="6.61333">
        <ele>2667.46</ele>
        <time>2014-01-31T10:51:54Z</time>
      </trkpt>
      <trkpt lat="45.37282" lon="6.61311">
        <ele>2673.31</ele>
        <time>2014-01-31T10:52:00Z</time>
      </trkpt>
      <trkpt lat="45.37275" lon="6.61285">
        <ele>2678.54</ele>
        <time>2014-01-31T10:52:08Z</time>
      </trkpt>
      <trkpt lat="45.37269" lon="6.61261">
        <ele>2682.05</ele>
        <time>2014-01-31T10:52:17Z</time>
      </trkpt>
      <trkpt lat="45.37262" lon="6.61235">
        <ele>2687.18</ele>
        <time>2014-01-31T10:52:27Z</time>
      </trkpt>
      <trkpt lat="45.3725" lon="6.61215">
        <ele>2691.43</ele>
        <time>2014-01-31T10:52:32Z</time>
      </trkpt>
      <trkpt lat="45.37235" lon="6.61195">
        <ele>2690.02</ele>
        <time>2014-01-31T10:52:37Z</time>
      </trkpt>
      <trkpt lat="45.37221" lon="6.61178">
        <ele>2689.79</ele>
        <time>2014-01-31T10:53:04Z</time>
      </trkpt>
      <trkpt lat="45.37205" lon="6.61165">
        <ele>2686.75</ele>
        <time>2014-01-31T10:53:22Z</time>
      </trkpt>
      <trkpt lat="45.37186" lon="6.61161">
        <ele>2685.23</ele>
        <time>2014-01-31T10:53:45Z</time>
      </trkpt>
      <trkpt lat="45.37166" lon="6.61167">
        <ele>2685.87</ele>
        <time>2014-01-31T10:54:00Z</time>
      </trkpt>
      <trkpt lat="45.37149" lon="6.61161">
        <ele>2687.86</ele>
        <time>2014-01-31T10:54:22Z</time>
      </trkpt>
      <trkpt lat="45.37131" lon="6.61156">
        <ele>2689.94</ele>
        <time>2014-01-31T10:55:20Z</time>
      </trkpt>
      <trkpt lat="45.37113" lon="6.61155">
        <ele>2692.5</ele>
        <time>2014-01-31T10:55:39Z</time>
      </trkpt>
      <trkpt lat="45.37091" lon="6.61156">
        <ele>2697.35</ele>
        <time>2014-01-31T10:56:05Z</time>
      </trkpt>
      <trkpt lat="45.37072" lon="6.61156">
        <ele>2696.39</ele>
        <time>2014-01-31T10:56:11Z</time>
      </trkpt>
      <trkpt lat="45.37053" lon="6.61156">
        <ele>2691.94</ele>
        <time>2014-01-31T10:56:18Z</time>
      </trkpt>
      <trkpt lat="45.37033" lon="6.61145">
        <ele>2688.06</ele>
        <time>2014-01-31T10:56:54Z</time>
      </trkpt>
      <trkpt lat="45.37014" lon="6.61146">
        <ele>2681.88</ele>
        <time>2014-01-31T10:56:58Z</time>
      </trkpt>
      <trkpt lat="45.36996" lon="6.61154">
        <ele>2677.36</ele>
        <time>2014-01-31T10:57:02Z</time>
      </trkpt>
      <trkpt lat="45.36976" lon="6.61171">
        <ele>2674.7</ele>
        <time>2014-01-31T10:58:50Z</time>
      </trkpt>
      <trkpt lat="45.36957" lon="6.61192">
        <ele>2674.89</ele>
        <time>2014-01-31T10:58:54Z</time>
      </trkpt>
      <trkpt lat="45.36939" lon="6.61207">
        <ele>2675.1</ele>
        <time>2014-01-31T10:58:57Z</time>
      </trkpt>
      <trkpt lat="45.36921" lon="6.61222">
        <ele>2678.68</ele>
        <time>2014-01-31T10:59:01Z</time>
      </trkpt>
      <trkpt lat="45.36901" lon="6.61235">
        <ele>2675.49</ele>
        <time>2014-01-31T10:59:05Z</time>
      </trkpt>
      <trkpt lat="45.36885" lon="6.61251">
        <ele>2676.17</ele>
        <time>2014-01-31T10:59:52Z</time>
      </trkpt>
      <trkpt lat="45.36869" lon="6.61266">
        <ele>2669.12</ele>
        <time>2014-01-31T11:00:10Z</time>
      </trkpt>
      <trkpt lat="45.36855" lon="6.61286">
        <ele>2668.14</ele>
        <time>2014-01-31T11:00:53Z</time>
      </trkpt>
      <trkpt lat="45.36839" lon="6.61301">
        <ele>2668.02</ele>
        <time>2014-01-31T11:01:04Z</time>
      </trkpt>
      <trkpt lat="45.36826" lon="6.61319">
        <ele>2665.83</ele>
        <time>2014-01-31T11:01:08Z</time>
      </trkpt>
      <trkpt lat="45.36811" lon="6.61337">
        <ele>2661.49</ele>
        <time>2014-01-31T11:01:12Z</time>
      </trkpt>
      <trkpt lat="45.36797" lon="6.61357">
        <ele>2658.41</ele>
        <time>2014-01-31T11:01:15Z</time>
      </trkpt>
      <trkpt lat="45.36783" lon="6.61378">
        <ele>2657.67</ele>
        <time>2014-01-31T11:01:18Z</time>
      </trkpt>
      <trkpt lat="45.3677" lon="6.61401">
        <ele>2657.89</ele>
        <time>2014-01-31T11:01:48Z</time>
      </trkpt>
      <trkpt lat="45.36758" lon="6.6142">
        <ele>2654.32</ele>
        <time>2014-01-31T11:03:14Z</time>
      </trkpt>
      <trkpt lat="45.36754" lon="6.61445">
        <ele>2656.45</ele>
        <time>2014-01-31T11:03:19Z</time>
      </trkpt>
      <trkpt lat="45.36753" lon="6.61474">
        <ele>2661.56</ele>
        <time>2014-01-31T11:04:21Z</time>
      </trkpt>
      <trkpt lat="45.36745" lon="6.61501">
        <ele>2665.66</ele>
        <time>2014-01-31T11:05:03Z</time>
      </trkpt>
      <trkpt lat="45.36741" lon="6.61528">
        <ele>2671.61</ele>
        <time>2014-01-31T11:05:40Z</time>
      </trkpt>
      <trkpt lat="45.36731" lon="6.61549">
        <ele>2673.45</ele>
        <time>2014-01-31T11:06:21Z</time>
      </trkpt>
      <trkpt lat="45.3673" lon="6.61575">
        <ele>2683.05</ele>
        <time>2014-01-31T11:06:56Z</time>
      </trkpt>
      <trkpt lat="45.36731" lon="6.61601">
        <ele>2683.16</ele>
        <time>2014-01-31T11:07:24Z</time>
      </trkpt>
      <trkpt lat="45.36726" lon="6.61628">
        <ele>2679.55</ele>
        <time>2014-01-31T11:07:37Z</time>
      </trkpt>
      <trkpt lat="45.36719" lon="6.61653">
        <ele>2674.81</ele>
        <time>2014-01-31T11:07:41Z</time>
      </trkpt>
      <trkpt lat="45.36707" lon="6.61677">
        <ele>2667.49</ele>
        <time>2014-01-31T11:07:46Z</time>
      </trkpt>
      <trkpt lat="45.3669" lon="6.61686">
        <ele>2664.04</ele>
        <time>2014-01-31T11:07:52Z</time>
      </trkpt>
      <trkpt lat="45.36669" lon="6.61696">
        <ele>2662.62</ele>
        <time>2014-01-31T11:07:58Z</time>
      </trkpt>
      <trkpt lat="45.36651" lon="6.61707">
        <ele>2657.8</ele>
        <time>2014-01-31T11:08:03Z</time>
      </trkpt>
      <trkpt lat="45.36635" lon="6.61724">
        <ele>2653.16</ele>
        <time>2014-01-31T11:08:09Z</time>
      </trkpt>
      <trkpt lat="45.36625" lon="6.61749">
        <ele>2649.15</ele>
        <time>2014-01-31T11:08:16Z</time>
      </trkpt>
      <trkpt lat="45.36609" lon="6.61764">
        <ele>2641.51</ele>
        <time>2014-01-31T11:10:45Z</time>
      </trkpt>
      <trkpt lat="45.36591" lon="6.6177">
        <ele>2630.49</ele>
        <time>2014-01-31T11:10:52Z</time>
      </trkpt>
      <trkpt lat="45.36582" lon="6.61793">
        <ele>2627.41</ele>
        <time>2014-01-31T11:11:05Z</time>
      </trkpt>
      <trkpt lat="45.36565" lon="6.61782">
        <ele>2613.83</ele>
        <time>2014-01-31T11:11:33Z</time>
      </trkpt>
      <trkpt lat="45.36554" lon="6.61761">
        <ele>2603.38</ele>
        <time>2014-01-31T11:11:53Z</time>
      </trkpt>
      <trkpt lat="45.36536" lon="6.6177">
        <ele>2594.96</ele>
        <time>2014-01-31T11:12:05Z</time>
      </trkpt>
      <trkpt lat="45.36523" lon="6.61789">
        <ele>2587.4</ele>
        <time>2014-01-31T11:12:11Z</time>
      </trkpt>
      <trkpt lat="45.3651" lon="6.61808">
        <ele>2580.78</ele>
        <time>2014-01-31T11:12:18Z</time>
      </trkpt>
      <trkpt lat="45.36494" lon="6.61824">
        <ele>2574.71</ele>
        <time>2014-01-31T11:12:29Z</time>
      </trkpt>
      <trkpt lat="45.36483" lon="6.61844">
        <ele>2573.93</ele>
        <time>2014-01-31T11:12:34Z</time>
      </trkpt>
      <trkpt lat="45.36464" lon="6.61849">
        <ele>2568.13</ele>
        <time>2014-01-31T11:12:43Z</time>
      </trkpt>
      <trkpt lat="45.36443" lon="6.6186">
        <ele>2562.46</ele>
        <time>2014-01-31T11:12:49Z</time>
      </trkpt>
      <trkpt lat="45.36425" lon="6.61875">
        <ele>2557.96</ele>
        <time>2014-01-31T11:12:55Z</time>
      </trkpt>
      <trkpt lat="45.36407" lon="6.61887">
        <ele>2552.11</ele>
        <time>2014-01-31T11:13:00Z</time>
      </trkpt>
      <trkpt lat="45.36389" lon="6.61899">
        <ele>2543.29</ele>
        <time>2014-01-31T11:13:07Z</time>
      </trkpt>
      <trkpt lat="45.36379" lon="6.6192">
        <ele>2545.37</ele>
        <time>2014-01-31T11:13:17Z</time>
      </trkpt>
      <trkpt lat="45.36359" lon="6.61929">
        <ele>2539.35</ele>
        <time>2014-01-31T11:13:23Z</time>
      </trkpt>
      <trkpt lat="45.36342" lon="6.61941">
        <ele>2535.56</ele>
        <time>2014-01-31T11:13:26Z</time>
      </trkpt>
      <trkpt lat="45.36322" lon="6.61953">
        <ele>2532.18</ele>
        <time>2014-01-31T11:13:30Z</time>
      </trkpt>
      <trkpt lat="45.36303" lon="6.61964">
        <ele>2528.26</ele>
        <time>2014-01-31T11:13:34Z</time>
      </trkpt>
      <trkpt lat="45.36288" lon="6.61981">
        <ele>2524.61</ele>
        <time>2014-01-31T11:13:39Z</time>
      </trkpt>
      <trkpt lat="45.36274" lon="6.62">
        <ele>2528.48</ele>
        <time>2014-01-31T11:13:47Z</time>
      </trkpt>
      <trkpt lat="45.36262" lon="6.62022">
        <ele>2524.61</ele>
        <time>2014-01-31T11:13:53Z</time>
      </trkpt>
      <trkpt lat="45.36248" lon="6.62038">
        <ele>2518.96</ele>
        <time>2014-01-31T11:14:05Z</time>
      </trkpt>
      <trkpt lat="45.36246" lon="6.62065">
        <ele>2515.54</ele>
        <time>2014-01-31T11:14:30Z</time>
      </trkpt>
      <trkpt lat="45.36235" lon="6.6209">
        <ele>2507.09</ele>
        <time>2014-01-31T11:14:35Z</time>
      </trkpt>
      <trkpt lat="45.36227" lon="6.62117">
        <ele>2501.75</ele>
        <time>2014-01-31T11:17:17Z</time>
      </trkpt>
      <trkpt lat="45.36213" lon="6.62137">
        <ele>2496.24</ele>
        <time>2014-01-31T11:17:22Z</time>
      </trkpt>
      <trkpt lat="45.36205" lon="6.62113">
        <ele>2486.66</ele>
        <time>2014-01-31T11:17:32Z</time>
      </trkpt>
      <trkpt lat="45.36188" lon="6.62122">
        <ele>2477.61</ele>
        <time>2014-01-31T11:17:43Z</time>
      </trkpt>
      <trkpt lat="45.36174" lon="6.62145">
        <ele>2475.1</ele>
        <time>2014-01-31T11:17:50Z</time>
      </trkpt>
      <trkpt lat="45.36176" lon="6.62118">
        <ele>2468.14</ele>
        <time>2014-01-31T11:17:58Z</time>
      </trkpt>
      <trkpt lat="45.36156" lon="6.62124">
        <ele>2456.01</ele>
        <time>2014-01-31T11:18:08Z</time>
      </trkpt>
      <trkpt lat="45.36142" lon="6.62144">
        <ele>2451.73</ele>
        <time>2014-01-31T11:18:16Z</time>
      </trkpt>
      <trkpt lat="45.36135" lon="6.62119">
        <ele>2439.56</ele>
        <time>2014-01-31T11:18:35Z</time>
      </trkpt>
      <trkpt lat="45.36124" lon="6.62099">
        <ele>2428.34</ele>
        <time>2014-01-31T11:18:44Z</time>
      </trkpt>
      <trkpt lat="45.36104" lon="6.62099">
        <ele>2414.21</ele>
        <time>2014-01-31T11:18:51Z</time>
      </trkpt>
      <trkpt lat="45.36085" lon="6.62096">
        <ele>2403.95</ele>
        <time>2014-01-31T11:18:56Z</time>
      </trkpt>
      <trkpt lat="45.36074" lon="6.62117">
        <ele>2404.59</ele>
        <time>2014-01-31T11:19:00Z</time>
      </trkpt>
      <trkpt lat="45.36057" lon="6.62128">
        <ele>2401.57</ele>
        <time>2014-01-31T11:19:05Z</time>
      </trkpt>
      <trkpt lat="45.36037" lon="6.62134">
        <ele>2393.39</ele>
        <time>2014-01-31T11:19:12Z</time>
      </trkpt>
      <trkpt lat="45.36019" lon="6.62142">
        <ele>2387.21</ele>
        <time>2014-01-31T11:19:19Z</time>
      </trkpt>
      <trkpt lat="45.36" lon="6.62139">
        <ele>2377.95</ele>
        <time>2014-01-31T11:19:27Z</time>
      </trkpt>
      <trkpt lat="45.35977" lon="6.62148">
        <ele>2368.09</ele>
        <time>2014-01-31T11:19:34Z</time>
      </trkpt>
      <trkpt lat="45.35957" lon="6.6215">
        <ele>2358.28</ele>
        <time>2014-01-31T11:19:46Z</time>
      </trkpt>
      <trkpt lat="45.35936" lon="6.62148">
        <ele>2349.95</ele>
        <time>2014-01-31T11:19:49Z</time>
      </trkpt>
      <trkpt lat="45.35916" lon="6.62146">
        <ele>2343.42</ele>
        <time>2014-01-31T11:20:05Z</time>
      </trkpt>
      <trkpt lat="45.35907" lon="6.6214">
        <ele>2339.24</ele>
        <time>2014-01-31T11:22:29Z</time>
      </trkpt>
      <trkpt lat="45.35889" lon="6.62144">
        <ele>2336.64</ele>
        <time>2014-01-31T11:22:45Z</time>
      </trkpt>
      <trkpt lat="45.35875" lon="6.62126">
        <ele>2323.99</ele>
        <time>2014-01-31T11:25:20Z</time>
      </trkpt>
      <trkpt lat="45.35859" lon="6.62115">
        <ele>2315.98</ele>
        <time>2014-01-31T11:25:27Z</time>
      </trkpt>
      <trkpt lat="45.35841" lon="6.62101">
        <ele>2307.29</ele>
        <time>2014-01-31T11:25:33Z</time>
      </trkpt>
      <trkpt lat="45.35823" lon="6.62088">
        <ele>2297.17</ele>
        <time>2014-01-31T11:25:39Z</time>
      </trkpt>
      <trkpt lat="45.35805" lon="6.6208">
        <ele>2290.78</ele>
        <time>2014-01-31T11:25:43Z</time>
      </trkpt>
      <trkpt lat="45.35786" lon="6.62073">
        <ele>2286.45</ele>
        <time>2014-01-31T11:25:46Z</time>
      </trkpt>
      <trkpt lat="45.35766" lon="6.62064">
        <ele>2279.94</ele>
        <time>2014-01-31T11:25:49Z</time>
      </trkpt>
      <trkpt lat="45.35747" lon="6.62055">
        <ele>2273.48</ele>
        <time>2014-01-31T11:25:52Z</time>
      </trkpt>
      <trkpt lat="45.35725" lon="6.6205">
        <ele>2270.37</ele>
        <time>2014-01-31T11:25:56Z</time>
      </trkpt>
      <trkpt lat="45.35715" lon="6.62027">
        <ele>2268.52</ele>
        <time>2014-01-31T11:26:06Z</time>
      </trkpt>
      <trkpt lat="45.35715" lon="6.62">
        <ele>2250.87</ele>
        <time>2014-01-31T11:26:15Z</time>
      </trkpt>
      <trkpt lat="45.35719" lon="6.61974">
        <ele>2239.39</ele>
        <time>2014-01-31T11:26:21Z</time>
      </trkpt>
      <trkpt lat="45.35729" lon="6.61951">
        <ele>2231.13</ele>
        <time>2014-01-31T11:26:27Z</time>
      </trkpt>
      <trkpt lat="45.35737" lon="6.61926">
        <ele>2220.93</ele>
        <time>2014-01-31T11:26:33Z</time>
      </trkpt>
      <trkpt lat="45.35736" lon="6.61896">
        <ele>2209.29</ele>
        <time>2014-01-31T11:26:43Z</time>
      </trkpt>
      <trkpt lat="45.35726" lon="6.61874">
        <ele>2200.07</ele>
        <time>2014-01-31T11:26:51Z</time>
      </trkpt>
      <trkpt lat="45.35709" lon="6.61864">
        <ele>2195.06</ele>
        <time>2014-01-31T11:26:55Z</time>
      </trkpt>
      <trkpt lat="45.35713" lon="6.61838">
        <ele>2185.16</ele>
        <time>2014-01-31T11:31:45Z</time>
      </trkpt>
      <trkpt lat="45.35729" lon="6.61821">
        <ele>2178.91</ele>
        <time>2014-01-31T11:31:52Z</time>
      </trkpt>
      <trkpt lat="45.35721" lon="6.61796">
        <ele>2169.02</ele>
        <time>2014-01-31T11:31:59Z</time>
      </trkpt>
      <trkpt lat="45.35713" lon="6.61773">
        <ele>2161.01</ele>
        <time>2014-01-31T11:32:05Z</time>
      </trkpt>
      <trkpt lat="45.35702" lon="6.61751">
        <ele>2153.37</ele>
        <time>2014-01-31T11:32:14Z</time>
      </trkpt>
      <trkpt lat="45.35711" lon="6.61729">
        <ele>2145.06</ele>
        <time>2014-01-31T11:32:21Z</time>
      </trkpt>
      <trkpt lat="45.35709" lon="6.61702">
        <ele>2135.09</ele>
        <time>2014-01-31T11:32:29Z</time>
      </trkpt>
      <trkpt lat="45.35701" lon="6.61676">
        <ele>2124.05</ele>
        <time>2014-01-31T11:32:33Z</time>
      </trkpt>
      <trkpt lat="45.357" lon="6.6165">
        <ele>2115.15</ele>
        <time>2014-01-31T11:32:41Z</time>
      </trkpt>
      <trkpt lat="45.35723" lon="6.61638">
        <ele>2111.83</ele>
        <time>2014-01-31T11:32:47Z</time>
      </trkpt>
      <trkpt lat="45.35726" lon="6.61613">
        <ele>2103.1</ele>
        <time>2014-01-31T11:32:54Z</time>
      </trkpt>
      <trkpt lat="45.35729" lon="6.61584">
        <ele>2093.86</ele>
        <time>2014-01-31T11:33:00Z</time>
      </trkpt>
      <trkpt lat="45.35726" lon="6.61555">
        <ele>2085.29</ele>
        <time>2014-01-31T11:33:05Z</time>
      </trkpt>
      <trkpt lat="45.35721" lon="6.61525">
        <ele>2073.85</ele>
        <time>2014-01-31T11:33:09Z</time>
      </trkpt>
      <trkpt lat="45.35716" lon="6.61493">
        <ele>2063.21</ele>
        <time>2014-01-31T11:33:12Z</time>
      </trkpt>
      <trkpt lat="45.35713" lon="6.61465">
        <ele>2055.17</ele>
        <time>2014-01-31T11:33:17Z</time>
      </trkpt>
      <trkpt lat="45.35706" lon="6.61435">
        <ele>2048.02</ele>
        <time>2014-01-31T11:33:22Z</time>
      </trkpt>
      <trkpt lat="45.35703" lon="6.61403">
        <ele>2039.8</ele>
        <time>2014-01-31T11:33:27Z</time>
      </trkpt>
      <trkpt lat="45.35697" lon="6.61372">
        <ele>2033.13</ele>
        <time>2014-01-31T11:33:30Z</time>
      </trkpt>
      <trkpt lat="45.35684" lon="6.6135">
        <ele>2027.64</ele>
        <time>2014-01-31T11:33:34Z</time>
      </trkpt>
      <trkpt lat="45.3567" lon="6.61328">
        <ele>2022.87</ele>
        <time>2014-01-31T11:33:38Z</time>
      </trkpt>
      <trkpt lat="45.35661" lon="6.61298">
        <ele>2017.84</ele>
        <time>2014-01-31T11:33:42Z</time>
      </trkpt>
      <trkpt lat="45.35651" lon="6.61274">
        <ele>2015.11</ele>
        <time>2014-01-31T11:36:48Z</time>
      </trkpt>
      <trkpt lat="45.35656" lon="6.61248">
        <ele>2012.81</ele>
        <time>2014-01-31T11:36:53Z</time>
      </trkpt>
      <trkpt lat="45.35658" lon="6.61223">
        <ele>2010.04</ele>
        <time>2014-01-31T11:36:57Z</time>
      </trkpt>
      <trkpt lat="45.35651" lon="6.61199">
        <ele>2004.5</ele>
        <time>2014-01-31T11:37:04Z</time>
      </trkpt>
      <trkpt lat="45.35638" lon="6.6118">
        <ele>1996.39</ele>
        <time>2014-01-31T11:37:08Z</time>
      </trkpt>
      <trkpt lat="45.35618" lon="6.61176">
        <ele>1994.02</ele>
        <time>2014-01-31T11:37:17Z</time>
      </trkpt>
      <trkpt lat="45.35599" lon="6.61175">
        <ele>1992.94</ele>
        <time>2014-01-31T11:37:20Z</time>
      </trkpt>
      <trkpt lat="45.35605" lon="6.61148">
        <ele>1989.79</ele>
        <time>2014-01-31T11:37:32Z</time>
      </trkpt>
      <trkpt lat="45.35605" lon="6.61122">
        <ele>1992.96</ele>
        <time>2014-01-31T11:37:41Z</time>
      </trkpt>
      <trkpt lat="45.35614" lon="6.611">
        <ele>1994.04</ele>
        <time>2014-01-31T11:39:11Z</time>
      </trkpt>
      <trkpt lat="45.35622" lon="6.61077">
        <ele>1994.57</ele>
        <time>2014-01-31T11:39:38Z</time>
      </trkpt>
      <trkpt lat="45.35638" lon="6.61063">
        <ele>1994.98</ele>
        <time>2014-01-31T11:40:16Z</time>
      </trkpt>
      <trkpt lat="45.35649" lon="6.61043">
        <ele>1997.63</ele>
        <time>2014-01-31T11:40:53Z</time>
      </trkpt>
      <trkpt lat="45.35665" lon="6.6103">
        <ele>1998.68</ele>
        <time>2014-01-31T11:41:51Z</time>
      </trkpt>
      <trkpt lat="45.35682" lon="6.61013">
        <ele>2000.36</ele>
        <time>2014-01-31T11:42:09Z</time>
      </trkpt>
      <trkpt lat="45.35698" lon="6.61001">
        <ele>1999.52</ele>
        <time>2014-01-31T11:42:13Z</time>
      </trkpt>
      <trkpt lat="45.35716" lon="6.6099">
        <ele>2000.28</ele>
        <time>2014-01-31T11:42:20Z</time>
      </trkpt>
      <trkpt lat="45.3573" lon="6.60973">
        <ele>2000.66</ele>
        <time>2014-01-31T11:42:42Z</time>
      </trkpt>
      <trkpt lat="45.35743" lon="6.60955">
        <ele>1998.78</ele>
        <time>2014-01-31T11:43:09Z</time>
      </trkpt>
      <trkpt lat="45.35756" lon="6.60936">
        <ele>1997.88</ele>
        <time>2014-01-31T11:43:25Z</time>
      </trkpt>
      <trkpt lat="45.35764" lon="6.60912">
        <ele>1999.05</ele>
        <time>2014-01-31T11:43:55Z</time>
      </trkpt>
      <trkpt lat="45.35772" lon="6.60889">
        <ele>2000.01</ele>
        <time>2014-01-31T11:44:18Z</time>
      </trkpt>
      <trkpt lat="45.35785" lon="6.6087">
        <ele>1999.36</ele>
        <time>2014-01-31T11:44:42Z</time>
      </trkpt>
      <trkpt lat="45.35795" lon="6.60847">
        <ele>1997.16</ele>
        <time>2014-01-31T11:44:51Z</time>
      </trkpt>
      <trkpt lat="45.35804" lon="6.60824">
        <ele>1991.07</ele>
        <time>2014-01-31T11:51:09Z</time>
      </trkpt>
      <trkpt lat="45.35793" lon="6.60804">
        <ele>1987.56</ele>
        <time>2014-01-31T11:51:13Z</time>
      </trkpt>
      <trkpt lat="45.35781" lon="6.60784">
        <ele>1978.53</ele>
        <time>2014-01-31T11:51:17Z</time>
      </trkpt>
      <trkpt lat="45.35764" lon="6.60761">
        <ele>1972.09</ele>
        <time>2014-01-31T11:51:21Z</time>
      </trkpt>
      <trkpt lat="45.35744" lon="6.60746">
        <ele>1973.02</ele>
        <time>2014-01-31T11:51:24Z</time>
      </trkpt>
      <trkpt lat="45.35729" lon="6.60731">
        <ele>1973.18</ele>
        <time>2014-01-31T11:51:28Z</time>
      </trkpt>
      <trkpt lat="45.35719" lon="6.60708">
        <ele>1966.43</ele>
        <time>2014-01-31T11:51:33Z</time>
      </trkpt>
      <trkpt lat="45.35708" lon="6.60686">
        <ele>1959.12</ele>
        <time>2014-01-31T11:51:37Z</time>
      </trkpt>
      <trkpt lat="45.35691" lon="6.60669">
        <ele>1952.43</ele>
        <time>2014-01-31T11:51:42Z</time>
      </trkpt>
      <trkpt lat="45.35672" lon="6.60654">
        <ele>1940.4</ele>
        <time>2014-01-31T11:51:47Z</time>
      </trkpt>
      <trkpt lat="45.35654" lon="6.60661">
        <ele>1942.51</ele>
        <time>2014-01-31T11:51:52Z</time>
      </trkpt>
      <trkpt lat="45.35663" lon="6.60638">
        <ele>1931.64</ele>
        <time>2014-01-31T11:52:06Z</time>
      </trkpt>
      <trkpt lat="45.35646" lon="6.60622">
        <ele>1925.27</ele>
        <time>2014-01-31T11:52:24Z</time>
      </trkpt>
      <trkpt lat="45.35635" lon="6.60597">
        <ele>1915.63</ele>
        <time>2014-01-31T11:52:36Z</time>
      </trkpt>
      <trkpt lat="45.35653" lon="6.60588">
        <ele>1912.4</ele>
        <time>2014-01-31T11:52:49Z</time>
      </trkpt>
      <trkpt lat="45.35652" lon="6.60562">
        <ele>1902.24</ele>
        <time>2014-01-31T11:53:22Z</time>
      </trkpt>
      <trkpt lat="45.35666" lon="6.60545">
        <ele>1898.23</ele>
        <time>2014-01-31T11:53:29Z</time>
      </trkpt>
      <trkpt lat="45.35653" lon="6.6052">
        <ele>1889.33</ele>
        <time>2014-01-31T11:53:50Z</time>
      </trkpt>
      <trkpt lat="45.35639" lon="6.60503">
        <ele>1883.98</ele>
        <time>2014-01-31T11:53:54Z</time>
      </trkpt>
      <trkpt lat="45.35631" lon="6.6048">
        <ele>1876.7</ele>
        <time>2014-01-31T11:54:11Z</time>
      </trkpt>
      <trkpt lat="45.35649" lon="6.60457">
        <ele>1870.6</ele>
        <time>2014-01-31T11:54:36Z</time>
      </trkpt>
      <trkpt lat="45.35657" lon="6.60432">
        <ele>1866.29</ele>
        <time>2014-01-31T11:54:40Z</time>
      </trkpt>
      <trkpt lat="45.35658" lon="6.60406">
        <ele>1863.42</ele>
        <time>2014-01-31T11:54:43Z</time>
      </trkpt>
      <trkpt lat="45.35659" lon="6.60378">
        <ele>1860.07</ele>
        <time>2014-01-31T11:54:46Z</time>
      </trkpt>
      <trkpt lat="45.35661" lon="6.60349">
        <ele>1856.82</ele>
        <time>2014-01-31T11:54:50Z</time>
      </trkpt>
      <trkpt lat="45.35665" lon="6.60323">
        <ele>1852.93</ele>
        <time>2014-01-31T11:54:54Z</time>
      </trkpt>
      <trkpt lat="45.35659" lon="6.60293">
        <ele>1849.03</ele>
        <time>2014-01-31T11:55:01Z</time>
      </trkpt>
      <trkpt lat="45.35651" lon="6.60269">
        <ele>1847.37</ele>
        <time>2014-01-31T11:55:04Z</time>
      </trkpt>
      <trkpt lat="45.3564" lon="6.60245">
        <ele>1844.92</ele>
        <time>2014-01-31T11:55:09Z</time>
      </trkpt>
      <trkpt lat="45.35628" lon="6.60222">
        <ele>1843.01</ele>
        <time>2014-01-31T11:55:16Z</time>
      </trkpt>
      <trkpt lat="45.35637" lon="6.60196">
        <ele>1840.16</ele>
        <time>2014-01-31T11:55:25Z</time>
      </trkpt>
      <trkpt lat="45.35647" lon="6.60173">
        <ele>1837.79</ele>
        <time>2014-01-31T11:55:29Z</time>
      </trkpt>
      <trkpt lat="45.35665" lon="6.60161">
        <ele>1834.22</ele>
        <time>2014-01-31T11:55:33Z</time>
      </trkpt>
      <trkpt lat="45.35682" lon="6.60141">
        <ele>1832.05</ele>
        <time>2014-01-31T11:55:38Z</time>
      </trkpt>
      <trkpt lat="45.35671" lon="6.60117">
        <ele>1827.21</ele>
        <time>2014-01-31T11:55:45Z</time>
      </trkpt>
      <trkpt lat="45.3566" lon="6.60094">
        <ele>1823.82</ele>
        <time>2014-01-31T11:55:50Z</time>
      </trkpt>
      <trkpt lat="45.35659" lon="6.60068">
        <ele>1819.79</ele>
        <time>2014-01-31T11:55:56Z</time>
      </trkpt>
      <trkpt lat="45.35677" lon="6.6006">
        <ele>1817.72</ele>
        <time>2014-01-31T11:56:02Z</time>
      </trkpt>
      <trkpt lat="45.35667" lon="6.60039">
        <ele>1813.77</ele>
        <time>2014-01-31T11:56:11Z</time>
      </trkpt>
      <trkpt lat="45.35651" lon="6.60022">
        <ele>1808.56</ele>
        <time>2014-01-31T11:56:19Z</time>
      </trkpt>
      <trkpt lat="45.35633" lon="6.60012">
        <ele>1805.12</ele>
        <time>2014-01-31T11:56:25Z</time>
      </trkpt>
      <trkpt lat="45.35641" lon="6.59987">
        <ele>1802.14</ele>
        <time>2014-01-31T11:56:31Z</time>
      </trkpt>
      <trkpt lat="45.35651" lon="6.59964">
        <ele>1798.32</ele>
        <time>2014-01-31T11:56:36Z</time>
      </trkpt>
      <trkpt lat="45.35639" lon="6.59942">
        <ele>1795.56</ele>
        <time>2014-01-31T11:56:44Z</time>
      </trkpt>
      <trkpt lat="45.35617" lon="6.59927">
        <ele>1786.91</ele>
        <time>2014-01-31T11:59:00Z</time>
      </trkpt>
      <trkpt lat="45.35614" lon="6.59899">
        <ele>1782.6</ele>
        <time>2014-01-31T11:59:09Z</time>
      </trkpt>
      <trkpt lat="45.35622" lon="6.59874">
        <ele>1780.44</ele>
        <time>2014-01-31T11:59:16Z</time>
      </trkpt>
      <trkpt lat="45.35603" lon="6.59872">
        <ele>1777.38</ele>
        <time>2014-01-31T11:59:21Z</time>
      </trkpt>
      <trkpt lat="45.35602" lon="6.59845">
        <ele>1773.14</ele>
        <time>2014-01-31T11:59:26Z</time>
      </trkpt>
      <trkpt lat="45.35615" lon="6.59826">
        <ele>1770.91</ele>
        <time>2014-01-31T11:59:32Z</time>
      </trkpt>
      <trkpt lat="45.35621" lon="6.59798">
        <ele>1766.62</ele>
        <time>2014-01-31T11:59:40Z</time>
      </trkpt>
      <trkpt lat="45.35639" lon="6.59782">
        <ele>1765.62</ele>
        <time>2014-01-31T11:59:47Z</time>
      </trkpt>
      <trkpt lat="45.35657" lon="6.59769">
        <ele>1758.47</ele>
        <time>2014-01-31T11:59:52Z</time>
      </trkpt>
      <trkpt lat="45.35679" lon="6.59774">
        <ele>1757.85</ele>
        <time>2014-01-31T11:59:58Z</time>
      </trkpt>
      <trkpt lat="45.35696" lon="6.59777">
        <ele>1759.34</ele>
        <time>2014-01-31T12:00:04Z</time>
      </trkpt>
      <trkpt lat="45.35703" lon="6.59754">
        <ele>1761.64</ele>
        <time>2014-01-31T12:00:34Z</time>
      </trkpt>
      <trkpt lat="45.35696" lon="6.59729">
        <ele>1767.13</ele>
        <time>2014-01-31T12:01:07Z</time>
      </trkpt>
      <trkpt lat="45.35693" lon="6.59704">
        <ele>1769.19</ele>
        <time>2014-01-31T12:01:31Z</time>
      </trkpt>
      <trkpt lat="45.35696" lon="6.59678">
        <ele>1770.02</ele>
        <time>2014-01-31T12:01:43Z</time>
      </trkpt>
      <trkpt lat="45.35703" lon="6.59654">
        <ele>1768.77</ele>
        <time>2014-01-31T12:01:54Z</time>
      </trkpt>
      <trkpt lat="45.35714" lon="6.59631">
        <ele>1766.17</ele>
        <time>2014-01-31T12:02:01Z</time>
      </trkpt>
      <trkpt lat="45.35725" lon="6.59603">
        <ele>1762.31</ele>
        <time>2014-01-31T12:02:05Z</time>
      </trkpt>
      <trkpt lat="45.35734" lon="6.59579">
        <ele>1760.57</ele>
        <time>2014-01-31T12:02:08Z</time>
      </trkpt>
      <trkpt lat="45.35744" lon="6.59554">
        <ele>1758.98</ele>
        <time>2014-01-31T12:02:11Z</time>
      </trkpt>
      <trkpt lat="45.35756" lon="6.59525">
        <ele>1756.69</ele>
        <time>2014-01-31T12:02:14Z</time>
      </trkpt>
      <trkpt lat="45.3576" lon="6.59493">
        <ele>1755.83</ele>
        <time>2014-01-31T12:02:17Z</time>
      </trkpt>
      <trkpt lat="45.3576" lon="6.59466">
        <ele>1755.74</ele>
        <time>2014-01-31T12:02:20Z</time>
      </trkpt>
      <trkpt lat="45.35761" lon="6.59438">
        <ele>1753.66</ele>
        <time>2014-01-31T12:02:23Z</time>
      </trkpt>
      <trkpt lat="45.35769" lon="6.59408">
        <ele>1750.28</ele>
        <time>2014-01-31T12:02:26Z</time>
      </trkpt>
      <trkpt lat="45.35783" lon="6.59381">
        <ele>1746.12</ele>
        <time>2014-01-31T12:02:29Z</time>
      </trkpt>
      <trkpt lat="45.35794" lon="6.59358">
        <ele>1742.96</ele>
        <time>2014-01-31T12:02:32Z</time>
      </trkpt>
      <trkpt lat="45.35797" lon="6.59331">
        <ele>1738.62</ele>
        <time>2014-01-31T12:02:35Z</time>
      </trkpt>
      <trkpt lat="45.35814" lon="6.59314">
        <ele>1735.64</ele>
        <time>2014-01-31T12:02:40Z</time>
      </trkpt>
      <trkpt lat="45.35822" lon="6.59286">
        <ele>1729.38</ele>
        <time>2014-01-31T12:02:44Z</time>
      </trkpt>
      <trkpt lat="45.35831" lon="6.59264">
        <ele>1723.39</ele>
        <time>2014-01-31T12:02:48Z</time>
      </trkpt>
      <trkpt lat="45.3585" lon="6.59244">
        <ele>1722.44</ele>
        <time>2014-01-31T12:02:52Z</time>
      </trkpt>
      <trkpt lat="45.3587" lon="6.59234">
        <ele>1723.29</ele>
        <time>2014-01-31T12:02:56Z</time>
      </trkpt>
      <trkpt lat="45.35889" lon="6.59221">
        <ele>1721.58</ele>
        <time>2014-01-31T12:03:00Z</time>
      </trkpt>
      <trkpt lat="45.35901" lon="6.592">
        <ele>1720.41</ele>
        <time>2014-01-31T12:03:04Z</time>
      </trkpt>
      <trkpt lat="45.35912" lon="6.59172">
        <ele>1718.28</ele>
        <time>2014-01-31T12:03:10Z</time>
      </trkpt>
      <trkpt lat="45.35904" lon="6.59148">
        <ele>1715.34</ele>
        <time>2014-01-31T12:07:45Z</time>
      </trkpt>
      <trkpt lat="45.35893" lon="6.59126">
        <ele>1711.53</ele>
        <time>2014-01-31T12:09:23Z</time>
      </trkpt>
      <trkpt lat="45.35883" lon="6.59102">
        <ele>1710</ele>
        <time>2014-01-31T12:09:27Z</time>
      </trkpt>
      <trkpt lat="45.35884" lon="6.59068">
        <ele>1710</ele>
        <time>2014-01-31T12:09:31Z</time>
      </trkpt>
      <trkpt lat="45.35884" lon="6.59035">
        <ele>1710</ele>
        <time>2014-01-31T12:09:34Z</time>
      </trkpt>
      <trkpt lat="45.35896" lon="6.5901">
        <ele>1710</ele>
        <time>2014-01-31T12:09:37Z</time>
      </trkpt>
      <trkpt lat="45.35912" lon="6.58995">
        <ele>1710</ele>
        <time>2014-01-31T12:09:41Z</time>
      </trkpt>
      <trkpt lat="45.35929" lon="6.58979">
        <ele>1710</ele>
        <time>2014-01-31T12:09:46Z</time>
      </trkpt>
      <trkpt lat="45.35943" lon="6.5896">
        <ele>1710</ele>
        <time>2014-01-31T12:09:52Z</time>
      </trkpt>
      <trkpt lat="45.35957" lon="6.58942">
        <ele>1710</ele>
        <time>2014-01-31T12:10:00Z</time>
      </trkpt>
      <trkpt lat="45.35973" lon="6.58924">
        <ele>1710</ele>
        <time>2014-01-31T12:10:05Z</time>
      </trkpt>
      <trkpt lat="45.35989" lon="6.58907">
        <ele>1710</ele>
        <time>2014-01-31T12:10:11Z</time>
      </trkpt>
      <trkpt lat="45.36006" lon="6.58892">
        <ele>1710</ele>
        <time>2014-01-31T12:10:18Z</time>
      </trkpt>
      <trkpt lat="45.36021" lon="6.58879">
        <ele>1710</ele>
        <time>2014-01-31T12:10:25Z</time>
      </trkpt>
      <trkpt lat="45.36039" lon="6.58866">
        <ele>1710</ele>
        <time>2014-01-31T12:10:32Z</time>
      </trkpt>
      <trkpt lat="45.36055" lon="6.58854">
        <ele>1710</ele>
        <time>2014-01-31T12:10:39Z</time>
      </trkpt>
      <trkpt lat="45.36073" lon="6.58842">
        <ele>1710</ele>
        <time>2014-01-31T12:10:47Z</time>
      </trkpt>
      <trkpt lat="45.3609" lon="6.5883">
        <ele>1710</ele>
        <time>2014-01-31T12:10:54Z</time>
      </trkpt>
      <trkpt lat="45.36109" lon="6.58824">
        <ele>1710</ele>
        <time>2014-01-31T12:11:04Z</time>
      </trkpt>
      <trkpt lat="45.36127" lon="6.58828">
        <ele>1710</ele>
        <time>2014-01-31T12:11:15Z</time>
      </trkpt>
      <trkpt lat="45.36149" lon="6.58832">
        <ele>1710</ele>
        <time>2014-01-31T12:11:57Z</time>
      </trkpt>
      <trkpt lat="45.36169" lon="6.58831">
        <ele>1710</ele>
        <time>2014-01-31T12:12:16Z</time>
      </trkpt>
      <trkpt lat="45.36188" lon="6.58831">
        <ele>1710</ele>
        <time>2014-01-31T12:12:22Z</time>
      </trkpt>
      <trkpt lat="45.36209" lon="6.58825">
        <ele>1710</ele>
        <time>2014-01-31T12:12:30Z</time>
      </trkpt>
      <trkpt lat="45.36226" lon="6.58813">
        <ele>1710</ele>
        <time>2014-01-31T12:12:37Z</time>
      </trkpt>
      <trkpt lat="45.36241" lon="6.58798">
        <ele>1710</ele>
        <time>2014-01-31T12:12:45Z</time>
      </trkpt>
      <trkpt lat="45.36259" lon="6.58788">
        <ele>1710</ele>
        <time>2014-01-31T12:12:54Z</time>
      </trkpt>
      <trkpt lat="45.36278" lon="6.58782">
        <ele>1710</ele>
        <time>2014-01-31T12:13:05Z</time>
      </trkpt>
      <trkpt lat="45.36294" lon="6.5877">
        <ele>1710</ele>
        <time>2014-01-31T12:13:13Z</time>
      </trkpt>
      <trkpt lat="45.3631" lon="6.58755">
        <ele>1710.03</ele>
        <time>2014-01-31T12:13:21Z</time>
      </trkpt>
      <trkpt lat="45.36324" lon="6.58737">
        <ele>1709.54</ele>
        <time>2014-01-31T12:13:29Z</time>
      </trkpt>
      <trkpt lat="45.36339" lon="6.5872">
        <ele>1709</ele>
        <time>2014-01-31T12:13:38Z</time>
      </trkpt>
      <trkpt lat="45.36354" lon="6.58702">
        <ele>1709</ele>
        <time>2014-01-31T12:13:47Z</time>
      </trkpt>
      <trkpt lat="45.36366" lon="6.58681">
        <ele>1709</ele>
        <time>2014-01-31T12:13:52Z</time>
      </trkpt>
      <trkpt lat="45.36378" lon="6.58658">
        <ele>1709</ele>
        <time>2014-01-31T12:13:58Z</time>
      </trkpt>
      <trkpt lat="45.36391" lon="6.58637">
        <ele>1709</ele>
        <time>2014-01-31T12:14:06Z</time>
      </trkpt>
      <trkpt lat="45.36405" lon="6.58617">
        <ele>1709</ele>
        <time>2014-01-31T12:14:15Z</time>
      </trkpt>
      <trkpt lat="45.3642" lon="6.586">
        <ele>1708.52</ele>
        <time>2014-01-31T12:14:23Z</time>
      </trkpt>
      <trkpt lat="45.36437" lon="6.58587">
        <ele>1708.03</ele>
        <time>2014-01-31T12:14:32Z</time>
      </trkpt>
      <trkpt lat="45.36454" lon="6.58576">
        <ele>1707.3</ele>
        <time>2014-01-31T12:14:40Z</time>
      </trkpt>
      <trkpt lat="45.36471" lon="6.58564">
        <ele>1705.64</ele>
        <time>2014-01-31T12:14:51Z</time>
      </trkpt>
      <trkpt lat="45.3649" lon="6.58555">
        <ele>1703.71</ele>
        <time>2014-01-31T12:15:03Z</time>
      </trkpt>
      <trkpt lat="45.36509" lon="6.58549">
        <ele>1701.74</ele>
        <time>2014-01-31T12:15:14Z</time>
      </trkpt>
      <trkpt lat="45.36527" lon="6.58546">
        <ele>1699.1</ele>
        <time>2014-01-31T12:15:22Z</time>
      </trkpt>
      <trkpt lat="45.36547" lon="6.58544">
        <ele>1698.6</ele>
        <time>2014-01-31T12:15:30Z</time>
      </trkpt>
      <trkpt lat="45.36566" lon="6.58544">
        <ele>1698.41</ele>
        <time>2014-01-31T12:15:40Z</time>
      </trkpt>
      <trkpt lat="45.36584" lon="6.58548">
        <ele>1698.27</ele>
        <time>2014-01-31T12:15:50Z</time>
      </trkpt>
      <trkpt lat="45.36602" lon="6.58557">
        <ele>1698.55</ele>
        <time>2014-01-31T12:15:58Z</time>
      </trkpt>
      <trkpt lat="45.36623" lon="6.58563">
        <ele>1698.07</ele>
        <time>2014-01-31T12:16:03Z</time>
      </trkpt>
      <trkpt lat="45.36646" lon="6.58562">
        <ele>1694.01</ele>
        <time>2014-01-31T12:16:07Z</time>
      </trkpt>
      <trkpt lat="45.36667" lon="6.58554">
        <ele>1690</ele>
        <time>2014-01-31T12:16:10Z</time>
      </trkpt>
      <trkpt lat="45.36684" lon="6.58539">
        <ele>1690</ele>
        <time>2014-01-31T12:16:13Z</time>
      </trkpt>
      <trkpt lat="45.36701" lon="6.58517">
        <ele>1690</ele>
        <time>2014-01-31T12:16:17Z</time>
      </trkpt>
      <trkpt lat="45.36713" lon="6.58499">
        <ele>1690</ele>
        <time>2014-01-31T12:16:21Z</time>
      </trkpt>
      <trkpt lat="45.36723" lon="6.58474">
        <ele>1690</ele>
        <time>2014-01-31T12:16:27Z</time>
      </trkpt>
      <trkpt lat="45.36731" lon="6.5845">
        <ele>1690</ele>
        <time>2014-01-31T12:16:33Z</time>
      </trkpt>
      <trkpt lat="45.36743" lon="6.58427">
        <ele>1690</ele>
        <time>2014-01-31T12:16:41Z</time>
      </trkpt>
      <trkpt lat="45.36756" lon="6.5841">
        <ele>1690</ele>
        <time>2014-01-31T12:16:48Z</time>
      </trkpt>
      <trkpt lat="45.36767" lon="6.58386">
        <ele>1690</ele>
        <time>2014-01-31T12:16:55Z</time>
      </trkpt>
      <trkpt lat="45.36771" lon="6.58358">
        <ele>1690.24</ele>
        <time>2014-01-31T12:17:01Z</time>
      </trkpt>
      <trkpt lat="45.36788" lon="6.58344">
        <ele>1690</ele>
        <time>2014-01-31T12:17:08Z</time>
      </trkpt>
      <trkpt lat="45.36806" lon="6.58334">
        <ele>1690</ele>
        <time>2014-01-31T12:17:17Z</time>
      </trkpt>
      <trkpt lat="45.36823" lon="6.58321">
        <ele>1690.5</ele>
        <time>2014-01-31T12:17:25Z</time>
      </trkpt>
      <trkpt lat="45.36836" lon="6.58302">
        <ele>1690.49</ele>
        <time>2014-01-31T12:17:36Z</time>
      </trkpt>
      <trkpt lat="45.36846" lon="6.5828">
        <ele>1692.05</ele>
        <time>2014-01-31T12:17:51Z</time>
      </trkpt>
      <trkpt lat="45.36853" lon="6.58257">
        <ele>1692.25</ele>
        <time>2014-01-31T12:18:18Z</time>
      </trkpt>
      <trkpt lat="45.36861" lon="6.58233">
        <ele>1692.58</ele>
        <time>2014-01-31T12:18:45Z</time>
      </trkpt>
      <trkpt lat="45.36872" lon="6.58212">
        <ele>1695.29</ele>
        <time>2014-01-31T12:19:08Z</time>
      </trkpt>
      <trkpt lat="45.36889" lon="6.58204">
        <ele>1694.64</ele>
        <time>2014-01-31T12:19:35Z</time>
      </trkpt>
      <trkpt lat="45.36907" lon="6.58196">
        <ele>1696.11</ele>
        <time>2014-01-31T12:20:02Z</time>
      </trkpt>
      <trkpt lat="45.36926" lon="6.58195">
        <ele>1695.6</ele>
        <time>2014-01-31T12:20:28Z</time>
      </trkpt>
      <trkpt lat="45.36944" lon="6.58195">
        <ele>1694.93</ele>
        <time>2014-01-31T12:20:40Z</time>
      </trkpt>
      <trkpt lat="45.36962" lon="6.58197">
        <ele>1695.59</ele>
        <time>2014-01-31T12:20:56Z</time>
      </trkpt>
      <trkpt lat="45.36981" lon="6.58198">
        <ele>1695.9</ele>
        <time>2014-01-31T12:21:06Z</time>
      </trkpt>
      <trkpt lat="45.37003" lon="6.58194">
        <ele>1695.64</ele>
        <time>2014-01-31T12:21:12Z</time>
      </trkpt>
      <trkpt lat="45.37019" lon="6.58182">
        <ele>1696.3</ele>
        <time>2014-01-31T12:21:17Z</time>
      </trkpt>
      <trkpt lat="45.37033" lon="6.58165">
        <ele>1697.07</ele>
        <time>2014-01-31T12:21:41Z</time>
      </trkpt>
      <trkpt lat="45.37048" lon="6.5815">
        <ele>1696.1</ele>
        <time>2014-01-31T12:22:04Z</time>
      </trkpt>
      <trkpt lat="45.37063" lon="6.58133">
        <ele>1695.72</ele>
        <time>2014-01-31T12:22:30Z</time>
      </trkpt>
      <trkpt lat="45.37064" lon="6.58137">
        <ele>1695.1</ele>
        <time>2014-01-31T12:22:47Z</time>
      </trkpt>
      <trkpt lat="45.37081" lon="6.58115">
        <ele>1695.82</ele>
        <time>2014-01-31T12:36:14Z</time>
      </trkpt>
      <trkpt lat="45.37097" lon="6.58104">
        <ele>1694.6</ele>
        <time>2014-01-31T12:36:17Z</time>
      </trkpt>
      <trkpt lat="45.37118" lon="6.58096">
        <ele>1691.83</ele>
        <time>2014-01-31T12:36:21Z</time>
      </trkpt>
      <trkpt lat="45.37122" lon="6.5807">
        <ele>1693.67</ele>
        <time>2014-01-31T12:37:06Z</time>
      </trkpt>
      <trkpt lat="45.37104" lon="6.58076">
        <ele>1697.39</ele>
        <time>2014-01-31T12:38:34Z</time>
      </trkpt>
      <trkpt lat="45.37082" lon="6.58075">
        <ele>1704.07</ele>
        <time>2014-01-31T12:38:39Z</time>
      </trkpt>
      <trkpt lat="45.37061" lon="6.58071">
        <ele>1710.34</ele>
        <time>2014-01-31T12:38:45Z</time>
      </trkpt>
      <trkpt lat="45.37042" lon="6.58066">
        <ele>1715.36</ele>
        <time>2014-01-31T12:38:49Z</time>
      </trkpt>
      <trkpt lat="45.37023" lon="6.58063">
        <ele>1719.3</ele>
        <time>2014-01-31T12:38:54Z</time>
      </trkpt>
      <trkpt lat="45.37005" lon="6.58061">
        <ele>1722.37</ele>
        <time>2014-01-31T12:38:58Z</time>
      </trkpt>
      <trkpt lat="45.36984" lon="6.58057">
        <ele>1727.08</ele>
        <time>2014-01-31T12:39:03Z</time>
      </trkpt>
      <trkpt lat="45.36964" lon="6.58057">
        <ele>1732.68</ele>
        <time>2014-01-31T12:39:07Z</time>
      </trkpt>
      <trkpt lat="45.36944" lon="6.58057">
        <ele>1739.82</ele>
        <time>2014-01-31T12:39:12Z</time>
      </trkpt>
      <trkpt lat="45.36922" lon="6.58053">
        <ele>1748.23</ele>
        <time>2014-01-31T12:39:17Z</time>
      </trkpt>
      <trkpt lat="45.369" lon="6.58051">
        <ele>1754.85</ele>
        <time>2014-01-31T12:39:22Z</time>
      </trkpt>
      <trkpt lat="45.36881" lon="6.5805">
        <ele>1760.2</ele>
        <time>2014-01-31T12:39:26Z</time>
      </trkpt>
      <trkpt lat="45.36862" lon="6.58047">
        <ele>1765.75</ele>
        <time>2014-01-31T12:39:30Z</time>
      </trkpt>
      <trkpt lat="45.36842" lon="6.58044">
        <ele>1770.67</ele>
        <time>2014-01-31T12:39:34Z</time>
      </trkpt>
      <trkpt lat="45.36821" lon="6.58041">
        <ele>1775.39</ele>
        <time>2014-01-31T12:39:39Z</time>
      </trkpt>
      <trkpt lat="45.36802" lon="6.58038">
        <ele>1779.55</ele>
        <time>2014-01-31T12:39:44Z</time>
      </trkpt>
      <trkpt lat="45.3678" lon="6.58036">
        <ele>1784.08</ele>
        <time>2014-01-31T12:39:49Z</time>
      </trkpt>
      <trkpt lat="45.36761" lon="6.58034">
        <ele>1786.24</ele>
        <time>2014-01-31T12:39:53Z</time>
      </trkpt>
      <trkpt lat="45.3674" lon="6.58032">
        <ele>1790.27</ele>
        <time>2014-01-31T12:39:57Z</time>
      </trkpt>
      <trkpt lat="45.36719" lon="6.5803">
        <ele>1795.4</ele>
        <time>2014-01-31T12:40:02Z</time>
      </trkpt>
      <trkpt lat="45.36699" lon="6.58027">
        <ele>1797.01</ele>
        <time>2014-01-31T12:40:07Z</time>
      </trkpt>
      <trkpt lat="45.36677" lon="6.58024">
        <ele>1800.41</ele>
        <time>2014-01-31T12:40:12Z</time>
      </trkpt>
      <trkpt lat="45.36657" lon="6.58023">
        <ele>1805.61</ele>
        <time>2014-01-31T12:40:16Z</time>
      </trkpt>
      <trkpt lat="45.36636" lon="6.5802">
        <ele>1814.42</ele>
        <time>2014-01-31T12:40:20Z</time>
      </trkpt>
      <trkpt lat="45.36617" lon="6.58017">
        <ele>1819.46</ele>
        <time>2014-01-31T12:40:24Z</time>
      </trkpt>
      <trkpt lat="45.36597" lon="6.58013">
        <ele>1820.8</ele>
        <time>2014-01-31T12:40:30Z</time>
      </trkpt>
      <trkpt lat="45.36577" lon="6.58009">
        <ele>1822.36</ele>
        <time>2014-01-31T12:40:36Z</time>
      </trkpt>
      <trkpt lat="45.36557" lon="6.58009">
        <ele>1827.16</ele>
        <time>2014-01-31T12:40:41Z</time>
      </trkpt>
      <trkpt lat="45.36538" lon="6.58007">
        <ele>1835.39</ele>
        <time>2014-01-31T12:40:45Z</time>
      </trkpt>
      <trkpt lat="45.36519" lon="6.58004">
        <ele>1841.8</ele>
        <time>2014-01-31T12:40:49Z</time>
      </trkpt>
      <trkpt lat="45.36501" lon="6.58">
        <ele>1845.08</ele>
        <time>2014-01-31T12:40:53Z</time>
      </trkpt>
      <trkpt lat="45.36483" lon="6.57995">
        <ele>1849.95</ele>
        <time>2014-01-31T12:40:57Z</time>
      </trkpt>
      <trkpt lat="45.36461" lon="6.5799">
        <ele>1859.84</ele>
        <time>2014-01-31T12:41:02Z</time>
      </trkpt>
      <trkpt lat="45.36441" lon="6.57989">
        <ele>1870.61</ele>
        <time>2014-01-31T12:41:08Z</time>
      </trkpt>
      <trkpt lat="45.36422" lon="6.57991">
        <ele>1878.06</ele>
        <time>2014-01-31T12:41:13Z</time>
      </trkpt>
      <trkpt lat="45.36403" lon="6.5799">
        <ele>1884.1</ele>
        <time>2014-01-31T12:41:18Z</time>
      </trkpt>
      <trkpt lat="45.36385" lon="6.57986">
        <ele>1889.96</ele>
        <time>2014-01-31T12:41:23Z</time>
      </trkpt>
      <trkpt lat="45.36367" lon="6.57981">
        <ele>1895.17</ele>
        <time>2014-01-31T12:41:28Z</time>
      </trkpt>
      <trkpt lat="45.36346" lon="6.57977">
        <ele>1903.37</ele>
        <time>2014-01-31T12:41:34Z</time>
      </trkpt>
      <trkpt lat="45.36326" lon="6.57973">
        <ele>1912.42</ele>
        <time>2014-01-31T12:41:39Z</time>
      </trkpt>
      <trkpt lat="45.36305" lon="6.57969">
        <ele>1923.25</ele>
        <time>2014-01-31T12:41:44Z</time>
      </trkpt>
      <trkpt lat="45.36285" lon="6.57965">
        <ele>1937.05</ele>
        <time>2014-01-31T12:41:49Z</time>
      </trkpt>
      <trkpt lat="45.36266" lon="6.5796">
        <ele>1948.66</ele>
        <time>2014-01-31T12:41:54Z</time>
      </trkpt>
      <trkpt lat="45.36247" lon="6.5796">
        <ele>1957.72</ele>
        <time>2014-01-31T12:41:58Z</time>
      </trkpt>
      <trkpt lat="45.36227" lon="6.57964">
        <ele>1967.23</ele>
        <time>2014-01-31T12:42:01Z</time>
      </trkpt>
      <trkpt lat="45.36206" lon="6.57966">
        <ele>1974.57</ele>
        <time>2014-01-31T12:42:06Z</time>
      </trkpt>
      <trkpt lat="45.36185" lon="6.57962">
        <ele>1982.69</ele>
        <time>2014-01-31T12:42:11Z</time>
      </trkpt>
      <trkpt lat="45.36166" lon="6.57958">
        <ele>1990.65</ele>
        <time>2014-01-31T12:42:17Z</time>
      </trkpt>
      <trkpt lat="45.36148" lon="6.57955">
        <ele>1997</ele>
        <time>2014-01-31T12:42:21Z</time>
      </trkpt>
      <trkpt lat="45.36128" lon="6.57954">
        <ele>2001.22</ele>
        <time>2014-01-31T12:42:25Z</time>
      </trkpt>
      <trkpt lat="45.36108" lon="6.57951">
        <ele>2004.06</ele>
        <time>2014-01-31T12:42:29Z</time>
      </trkpt>
      <trkpt lat="45.36089" lon="6.57949">
        <ele>2008.63</ele>
        <time>2014-01-31T12:42:33Z</time>
      </trkpt>
      <trkpt lat="45.36069" lon="6.57947">
        <ele>2014.21</ele>
        <time>2014-01-31T12:42:37Z</time>
      </trkpt>
      <trkpt lat="45.3605" lon="6.5794">
        <ele>2020.06</ele>
        <time>2014-01-31T12:42:42Z</time>
      </trkpt>
      <trkpt lat="45.3603" lon="6.57934">
        <ele>2024.54</ele>
        <time>2014-01-31T12:42:47Z</time>
      </trkpt>
      <trkpt lat="45.36009" lon="6.5793">
        <ele>2030.25</ele>
        <time>2014-01-31T12:42:52Z</time>
      </trkpt>
      <trkpt lat="45.35988" lon="6.57933">
        <ele>2033.63</ele>
        <time>2014-01-31T12:42:58Z</time>
      </trkpt>
      <trkpt lat="45.35967" lon="6.57933">
        <ele>2037.07</ele>
        <time>2014-01-31T12:43:04Z</time>
      </trkpt>
      <trkpt lat="45.35944" lon="6.57931">
        <ele>2042.93</ele>
        <time>2014-01-31T12:43:09Z</time>
      </trkpt>
      <trkpt lat="45.35924" lon="6.57929">
        <ele>2048.13</ele>
        <time>2014-01-31T12:43:13Z</time>
      </trkpt>
      <trkpt lat="45.35903" lon="6.57926">
        <ele>2052.74</ele>
        <time>2014-01-31T12:43:17Z</time>
      </trkpt>
      <trkpt lat="45.35885" lon="6.57926">
        <ele>2055.64</ele>
        <time>2014-01-31T12:43:21Z</time>
      </trkpt>
      <trkpt lat="45.35867" lon="6.57924">
        <ele>2057.82</ele>
        <time>2014-01-31T12:43:25Z</time>
      </trkpt>
      <trkpt lat="45.35844" lon="6.57923">
        <ele>2059.8</ele>
        <time>2014-01-31T12:43:30Z</time>
      </trkpt>
      <trkpt lat="45.35823" lon="6.57922">
        <ele>2062.99</ele>
        <time>2014-01-31T12:43:35Z</time>
      </trkpt>
      <trkpt lat="45.35802" lon="6.5792">
        <ele>2066.05</ele>
        <time>2014-01-31T12:43:40Z</time>
      </trkpt>
      <trkpt lat="45.35781" lon="6.57918">
        <ele>2068.07</ele>
        <time>2014-01-31T12:43:45Z</time>
      </trkpt>
      <trkpt lat="45.3576" lon="6.57919">
        <ele>2072.56</ele>
        <time>2014-01-31T12:43:50Z</time>
      </trkpt>
      <trkpt lat="45.35738" lon="6.57919">
        <ele>2077.11</ele>
        <time>2014-01-31T12:43:55Z</time>
      </trkpt>
      <trkpt lat="45.35717" lon="6.5792">
        <ele>2080.49</ele>
        <time>2014-01-31T12:44:01Z</time>
      </trkpt>
      <trkpt lat="45.35695" lon="6.57918">
        <ele>2083.69</ele>
        <time>2014-01-31T12:44:06Z</time>
      </trkpt>
      <trkpt lat="45.35675" lon="6.57916">
        <ele>2090.54</ele>
        <time>2014-01-31T12:44:11Z</time>
      </trkpt>
      <trkpt lat="45.35655" lon="6.57913">
        <ele>2096.39</ele>
        <time>2014-01-31T12:44:15Z</time>
      </trkpt>
      <trkpt lat="45.35634" lon="6.5791">
        <ele>2100.95</ele>
        <time>2014-01-31T12:44:19Z</time>
      </trkpt>
      <trkpt lat="45.35613" lon="6.57906">
        <ele>2104.1</ele>
        <time>2014-01-31T12:44:23Z</time>
      </trkpt>
      <trkpt lat="45.35594" lon="6.57904">
        <ele>2107.81</ele>
        <time>2014-01-31T12:44:27Z</time>
      </trkpt>
      <trkpt lat="45.35575" lon="6.57901">
        <ele>2111.94</ele>
        <time>2014-01-31T12:44:31Z</time>
      </trkpt>
      <trkpt lat="45.35556" lon="6.57899">
        <ele>2116.05</ele>
        <time>2014-01-31T12:44:35Z</time>
      </trkpt>
      <trkpt lat="45.35536" lon="6.57895">
        <ele>2116.75</ele>
        <time>2014-01-31T12:44:40Z</time>
      </trkpt>
      <trkpt lat="45.35513" lon="6.57891">
        <ele>2117.61</ele>
        <time>2014-01-31T12:44:45Z</time>
      </trkpt>
      <trkpt lat="45.35492" lon="6.57886">
        <ele>2118.7</ele>
        <time>2014-01-31T12:44:50Z</time>
      </trkpt>
      <trkpt lat="45.35474" lon="6.57885">
        <ele>2118.18</ele>
        <time>2014-01-31T12:44:54Z</time>
      </trkpt>
      <trkpt lat="45.35455" lon="6.57882">
        <ele>2115.46</ele>
        <time>2014-01-31T12:44:58Z</time>
      </trkpt>
      <trkpt lat="45.35437" lon="6.5788">
        <ele>2113.44</ele>
        <time>2014-01-31T12:45:02Z</time>
      </trkpt>
      <trkpt lat="45.35415" lon="6.57879">
        <ele>2110.43</ele>
        <time>2014-01-31T12:45:07Z</time>
      </trkpt>
      <trkpt lat="45.35392" lon="6.57876">
        <ele>2110</ele>
        <time>2014-01-31T12:45:12Z</time>
      </trkpt>
      <trkpt lat="45.35374" lon="6.57874">
        <ele>2110.72</ele>
        <time>2014-01-31T12:45:16Z</time>
      </trkpt>
      <trkpt lat="45.35355" lon="6.57871">
        <ele>2111.76</ele>
        <time>2014-01-31T12:45:20Z</time>
      </trkpt>
      <trkpt lat="45.35334" lon="6.5787">
        <ele>2112.65</ele>
        <time>2014-01-31T12:45:24Z</time>
      </trkpt>
      <trkpt lat="45.35313" lon="6.5787">
        <ele>2115.34</ele>
        <time>2014-01-31T12:45:28Z</time>
      </trkpt>
      <trkpt lat="45.35292" lon="6.57867">
        <ele>2118.54</ele>
        <time>2014-01-31T12:45:33Z</time>
      </trkpt>
      <trkpt lat="45.3527" lon="6.57867">
        <ele>2122.45</ele>
        <time>2014-01-31T12:45:37Z</time>
      </trkpt>
      <trkpt lat="45.35251" lon="6.57865">
        <ele>2127.62</ele>
        <time>2014-01-31T12:45:41Z</time>
      </trkpt>
      <trkpt lat="45.35229" lon="6.57861">
        <ele>2133.35</ele>
        <time>2014-01-31T12:45:46Z</time>
      </trkpt>
      <trkpt lat="45.35209" lon="6.57858">
        <ele>2138.01</ele>
        <time>2014-01-31T12:45:51Z</time>
      </trkpt>
      <trkpt lat="45.3519" lon="6.57854">
        <ele>2142.75</ele>
        <time>2014-01-31T12:45:56Z</time>
      </trkpt>
      <trkpt lat="45.35172" lon="6.5785">
        <ele>2148.51</ele>
        <time>2014-01-31T12:46:01Z</time>
      </trkpt>
      <trkpt lat="45.35151" lon="6.57847">
        <ele>2153.94</ele>
        <time>2014-01-31T12:46:06Z</time>
      </trkpt>
      <trkpt lat="45.35132" lon="6.57845">
        <ele>2158.24</ele>
        <time>2014-01-31T12:46:10Z</time>
      </trkpt>
      <trkpt lat="45.35109" lon="6.57852">
        <ele>2162.95</ele>
        <time>2014-01-31T12:46:14Z</time>
      </trkpt>
      <trkpt lat="45.35088" lon="6.57849">
        <ele>2168.74</ele>
        <time>2014-01-31T12:46:18Z</time>
      </trkpt>
      <trkpt lat="45.35069" lon="6.57845">
        <ele>2172.59</ele>
        <time>2014-01-31T12:46:22Z</time>
      </trkpt>
      <trkpt lat="45.3505" lon="6.57842">
        <ele>2176.76</ele>
        <time>2014-01-31T12:46:27Z</time>
      </trkpt>
      <trkpt lat="45.35029" lon="6.57838">
        <ele>2182.13</ele>
        <time>2014-01-31T12:46:32Z</time>
      </trkpt>
      <trkpt lat="45.35007" lon="6.57835">
        <ele>2187.5</ele>
        <time>2014-01-31T12:46:37Z</time>
      </trkpt>
      <trkpt lat="45.34987" lon="6.57833">
        <ele>2192.88</ele>
        <time>2014-01-31T12:46:41Z</time>
      </trkpt>
      <trkpt lat="45.34968" lon="6.57831">
        <ele>2199.19</ele>
        <time>2014-01-31T12:46:45Z</time>
      </trkpt>
      <trkpt lat="45.3495" lon="6.5783">
        <ele>2207.21</ele>
        <time>2014-01-31T12:46:49Z</time>
      </trkpt>
      <trkpt lat="45.3493" lon="6.57828">
        <ele>2215.15</ele>
        <time>2014-01-31T12:46:54Z</time>
      </trkpt>
      <trkpt lat="45.3491" lon="6.57826">
        <ele>2221.89</ele>
        <time>2014-01-31T12:46:58Z</time>
      </trkpt>
      <trkpt lat="45.34891" lon="6.57823">
        <ele>2226.71</ele>
        <time>2014-01-31T12:47:02Z</time>
      </trkpt>
      <trkpt lat="45.34869" lon="6.57821">
        <ele>2231.64</ele>
        <time>2014-01-31T12:47:07Z</time>
      </trkpt>
      <trkpt lat="45.34849" lon="6.57818">
        <ele>2236.87</ele>
        <time>2014-01-31T12:47:11Z</time>
      </trkpt>
      <trkpt lat="45.34829" lon="6.57815">
        <ele>2242.25</ele>
        <time>2014-01-31T12:47:15Z</time>
      </trkpt>
      <trkpt lat="45.3481" lon="6.57812">
        <ele>2246.54</ele>
        <time>2014-01-31T12:47:19Z</time>
      </trkpt>
      <trkpt lat="45.34792" lon="6.5781">
        <ele>2252.49</ele>
        <time>2014-01-31T12:47:23Z</time>
      </trkpt>
      <trkpt lat="45.34772" lon="6.57808">
        <ele>2259.73</ele>
        <time>2014-01-31T12:47:27Z</time>
      </trkpt>
      <trkpt lat="45.3475" lon="6.57806">
        <ele>2268.87</ele>
        <time>2014-01-31T12:47:32Z</time>
      </trkpt>
      <trkpt lat="45.34732" lon="6.57804">
        <ele>2273.14</ele>
        <time>2014-01-31T12:47:36Z</time>
      </trkpt>
      <trkpt lat="45.34714" lon="6.57802">
        <ele>2279.24</ele>
        <time>2014-01-31T12:47:40Z</time>
      </trkpt>
      <trkpt lat="45.34692" lon="6.57799">
        <ele>2288.54</ele>
        <time>2014-01-31T12:47:45Z</time>
      </trkpt>
      <trkpt lat="45.34672" lon="6.57797">
        <ele>2298.44</ele>
        <time>2014-01-31T12:47:50Z</time>
      </trkpt>
      <trkpt lat="45.34653" lon="6.57795">
        <ele>2308.84</ele>
        <time>2014-01-31T12:47:55Z</time>
      </trkpt>
      <trkpt lat="45.34633" lon="6.57794">
        <ele>2318.85</ele>
        <time>2014-01-31T12:48:01Z</time>
      </trkpt>
      <trkpt lat="45.34614" lon="6.57793">
        <ele>2326.37</ele>
        <time>2014-01-31T12:48:06Z</time>
      </trkpt>
      <trkpt lat="45.34595" lon="6.57792">
        <ele>2333.77</ele>
        <time>2014-01-31T12:48:11Z</time>
      </trkpt>
      <trkpt lat="45.34575" lon="6.5779">
        <ele>2342.44</ele>
        <time>2014-01-31T12:48:16Z</time>
      </trkpt>
      <trkpt lat="45.34555" lon="6.57787">
        <ele>2351.32</ele>
        <time>2014-01-31T12:48:21Z</time>
      </trkpt>
      <trkpt lat="45.34534" lon="6.57782">
        <ele>2357.99</ele>
        <time>2014-01-31T12:48:26Z</time>
      </trkpt>
      <trkpt lat="45.34515" lon="6.57777">
        <ele>2362.64</ele>
        <time>2014-01-31T12:48:31Z</time>
      </trkpt>
      <trkpt lat="45.34491" lon="6.57773">
        <ele>2369.07</ele>
        <time>2014-01-31T12:48:36Z</time>
      </trkpt>
      <trkpt lat="45.34472" lon="6.57772">
        <ele>2376.59</ele>
        <time>2014-01-31T12:48:40Z</time>
      </trkpt>
      <trkpt lat="45.34452" lon="6.57769">
        <ele>2384.34</ele>
        <time>2014-01-31T12:48:44Z</time>
      </trkpt>
      <trkpt lat="45.3443" lon="6.57766">
        <ele>2392.45</ele>
        <time>2014-01-31T12:48:48Z</time>
      </trkpt>
      <trkpt lat="45.34408" lon="6.57763">
        <ele>2401.68</ele>
        <time>2014-01-31T12:48:52Z</time>
      </trkpt>
      <trkpt lat="45.34384" lon="6.57761">
        <ele>2413.45</ele>
        <time>2014-01-31T12:48:56Z</time>
      </trkpt>
      <trkpt lat="45.34361" lon="6.57758">
        <ele>2426.62</ele>
        <time>2014-01-31T12:49:00Z</time>
      </trkpt>
      <trkpt lat="45.34341" lon="6.57756">
        <ele>2435.14</ele>
        <time>2014-01-31T12:49:04Z</time>
      </trkpt>
      <trkpt lat="45.34324" lon="6.57748">
        <ele>2443.84</ele>
        <time>2014-01-31T12:49:09Z</time>
      </trkpt>
      <trkpt lat="45.34325" lon="6.57774">
        <ele>2437.05</ele>
        <time>2014-01-31T12:51:03Z</time>
      </trkpt>
      <trkpt lat="45.34313" lon="6.57796">
        <ele>2438.75</ele>
        <time>2014-01-31T12:51:09Z</time>
      </trkpt>
      <trkpt lat="45.34298" lon="6.57816">
        <ele>2439.19</ele>
        <time>2014-01-31T12:51:13Z</time>
      </trkpt>
      <trkpt lat="45.34285" lon="6.57838">
        <ele>2433.88</ele>
        <time>2014-01-31T12:51:17Z</time>
      </trkpt>
      <trkpt lat="45.3427" lon="6.57859">
        <ele>2424.73</ele>
        <time>2014-01-31T12:51:21Z</time>
      </trkpt>
      <trkpt lat="45.34257" lon="6.5788">
        <ele>2418.27</ele>
        <time>2014-01-31T12:51:24Z</time>
      </trkpt>
      <trkpt lat="45.34248" lon="6.57907">
        <ele>2412.58</ele>
        <time>2014-01-31T12:51:27Z</time>
      </trkpt>
      <trkpt lat="45.34252" lon="6.57937">
        <ele>2408.17</ele>
        <time>2014-01-31T12:51:30Z</time>
      </trkpt>
      <trkpt lat="45.34241" lon="6.57965">
        <ele>2409.58</ele>
        <time>2014-01-31T12:51:35Z</time>
      </trkpt>
      <trkpt lat="45.34226" lon="6.5798">
        <ele>2410.5</ele>
        <time>2014-01-31T12:51:42Z</time>
      </trkpt>
      <trkpt lat="45.34208" lon="6.57994">
        <ele>2397.74</ele>
        <time>2014-01-31T12:51:49Z</time>
      </trkpt>
      <trkpt lat="45.34189" lon="6.57998">
        <ele>2382.79</ele>
        <time>2014-01-31T12:51:53Z</time>
      </trkpt>
      <trkpt lat="45.34171" lon="6.57988">
        <ele>2374.93</ele>
        <time>2014-01-31T12:51:57Z</time>
      </trkpt>
      <trkpt lat="45.34149" lon="6.57982">
        <ele>2366.02</ele>
        <time>2014-01-31T12:52:01Z</time>
      </trkpt>
      <trkpt lat="45.34128" lon="6.57977">
        <ele>2360.16</ele>
        <time>2014-01-31T12:52:05Z</time>
      </trkpt>
      <trkpt lat="45.34108" lon="6.57986">
        <ele>2356.46</ele>
        <time>2014-01-31T12:52:08Z</time>
      </trkpt>
      <trkpt lat="45.34101" lon="6.58013">
        <ele>2353.64</ele>
        <time>2014-01-31T12:52:11Z</time>
      </trkpt>
      <trkpt lat="45.34079" lon="6.58024">
        <ele>2352.88</ele>
        <time>2014-01-31T12:52:15Z</time>
      </trkpt>
      <trkpt lat="45.34077" lon="6.58049">
        <ele>2350.21</ele>
        <time>2014-01-31T12:52:20Z</time>
      </trkpt>
      <trkpt lat="45.34065" lon="6.58069">
        <ele>2348.9</ele>
        <time>2014-01-31T12:52:24Z</time>
      </trkpt>
      <trkpt lat="45.34064" lon="6.58095">
        <ele>2345.01</ele>
        <time>2014-01-31T12:52:30Z</time>
      </trkpt>
      <trkpt lat="45.34057" lon="6.58127">
        <ele>2339.95</ele>
        <time>2014-01-31T12:52:34Z</time>
      </trkpt>
      <trkpt lat="45.34042" lon="6.58155">
        <ele>2336</ele>
        <time>2014-01-31T12:52:38Z</time>
      </trkpt>
      <trkpt lat="45.34028" lon="6.58172">
        <ele>2332.54</ele>
        <time>2014-01-31T12:52:42Z</time>
      </trkpt>
      <trkpt lat="45.34019" lon="6.582">
        <ele>2322.58</ele>
        <time>2014-01-31T12:52:46Z</time>
      </trkpt>
      <trkpt lat="45.34003" lon="6.58211">
        <ele>2318.57</ele>
        <time>2014-01-31T12:52:49Z</time>
      </trkpt>
      <trkpt lat="45.33993" lon="6.58241">
        <ele>2302.45</ele>
        <time>2014-01-31T12:52:52Z</time>
      </trkpt>
      <trkpt lat="45.33972" lon="6.58253">
        <ele>2294.96</ele>
        <time>2014-01-31T12:52:55Z</time>
      </trkpt>
      <trkpt lat="45.339" lon="6.58309">
        <ele>2260.47</ele>
        <time>2014-01-31T12:53:06Z</time>
      </trkpt>
      <trkpt lat="45.33885" lon="6.58336">
        <ele>2253.77</ele>
        <time>2014-01-31T12:53:09Z</time>
      </trkpt>
      <trkpt lat="45.33868" lon="6.58354">
        <ele>2247.94</ele>
        <time>2014-01-31T12:53:13Z</time>
      </trkpt>
      <trkpt lat="45.3388" lon="6.58375">
        <ele>2245.23</ele>
        <time>2014-01-31T12:53:18Z</time>
      </trkpt>
      <trkpt lat="45.33873" lon="6.58403">
        <ele>2237.93</ele>
        <time>2014-01-31T12:53:23Z</time>
      </trkpt>
      <trkpt lat="45.33878" lon="6.58429">
        <ele>2228.86</ele>
        <time>2014-01-31T12:53:26Z</time>
      </trkpt>
      <trkpt lat="45.33879" lon="6.58461">
        <ele>2219.99</ele>
        <time>2014-01-31T12:53:29Z</time>
      </trkpt>
      <trkpt lat="45.33888" lon="6.58484">
        <ele>2213.32</ele>
        <time>2014-01-31T12:53:32Z</time>
      </trkpt>
      <trkpt lat="45.33897" lon="6.58514">
        <ele>2203.74</ele>
        <time>2014-01-31T12:53:35Z</time>
      </trkpt>
      <trkpt lat="45.33918" lon="6.5853">
        <ele>2197.92</ele>
        <time>2014-01-31T12:53:38Z</time>
      </trkpt>
      <trkpt lat="45.33913" lon="6.58556">
        <ele>2186.06</ele>
        <time>2014-01-31T12:53:43Z</time>
      </trkpt>
      <trkpt lat="45.33902" lon="6.58578">
        <ele>2178.11</ele>
        <time>2014-01-31T12:53:47Z</time>
      </trkpt>
      <trkpt lat="45.33919" lon="6.58602">
        <ele>2171.67</ele>
        <time>2014-01-31T12:53:50Z</time>
      </trkpt>
      <trkpt lat="45.33919" lon="6.5864">
        <ele>2159.79</ele>
        <time>2014-01-31T12:53:53Z</time>
      </trkpt>
      <trkpt lat="45.33925" lon="6.58667">
        <ele>2151.87</ele>
        <time>2014-01-31T12:53:55Z</time>
      </trkpt>
      <trkpt lat="45.33944" lon="6.58698">
        <ele>2142.57</ele>
        <time>2014-01-31T12:53:57Z</time>
      </trkpt>
      <trkpt lat="45.33964" lon="6.5873">
        <ele>2136.73</ele>
        <time>2014-01-31T12:53:59Z</time>
      </trkpt>
      <trkpt lat="45.33985" lon="6.58764">
        <ele>2130.54</ele>
        <time>2014-01-31T12:54:01Z</time>
      </trkpt>
      <trkpt lat="45.34" lon="6.58797">
        <ele>2124.32</ele>
        <time>2014-01-31T12:54:03Z</time>
      </trkpt>
      <trkpt lat="45.34015" lon="6.58828">
        <ele>2119.04</ele>
        <time>2014-01-31T12:54:05Z</time>
      </trkpt>
      <trkpt lat="45.34038" lon="6.58857">
        <ele>2115.43</ele>
        <time>2014-01-31T12:54:07Z</time>
      </trkpt>
      <trkpt lat="45.34059" lon="6.58883">
        <ele>2112.78</ele>
        <time>2014-01-31T12:54:09Z</time>
      </trkpt>
      <trkpt lat="45.34076" lon="6.58908">
        <ele>2112.08</ele>
        <time>2014-01-31T12:54:11Z</time>
      </trkpt>
      <trkpt lat="45.3409" lon="6.58932">
        <ele>2111.28</ele>
        <time>2014-01-31T12:54:14Z</time>
      </trkpt>
      <trkpt lat="45.34102" lon="6.58951">
        <ele>2110.92</ele>
        <time>2014-01-31T12:54:17Z</time>
      </trkpt>
      <trkpt lat="45.34117" lon="6.58967">
        <ele>2111.78</ele>
        <time>2014-01-31T12:54:20Z</time>
      </trkpt>
      <trkpt lat="45.34132" lon="6.58982">
        <ele>2114.89</ele>
        <time>2014-01-31T12:54:28Z</time>
      </trkpt>
      <trkpt lat="45.34123" lon="6.59014">
        <ele>2112.17</ele>
        <time>2014-01-31T12:56:54Z</time>
      </trkpt>
      <trkpt lat="45.34108" lon="6.59045">
        <ele>2108.48</ele>
        <time>2014-01-31T12:57:12Z</time>
      </trkpt>
      <trkpt lat="45.34092" lon="6.59066">
        <ele>2106.11</ele>
        <time>2014-01-31T12:57:15Z</time>
      </trkpt>
      <trkpt lat="45.34077" lon="6.59084">
        <ele>2104.97</ele>
        <time>2014-01-31T12:57:18Z</time>
      </trkpt>
      <trkpt lat="45.34065" lon="6.59104">
        <ele>2104.24</ele>
        <time>2014-01-31T12:57:21Z</time>
      </trkpt>
      <trkpt lat="45.34052" lon="6.59127">
        <ele>2104.28</ele>
        <time>2014-01-31T12:57:25Z</time>
      </trkpt>
      <trkpt lat="45.34039" lon="6.5915">
        <ele>2104.77</ele>
        <time>2014-01-31T12:57:30Z</time>
      </trkpt>
      <trkpt lat="45.34026" lon="6.59175">
        <ele>2105.4</ele>
        <time>2014-01-31T12:57:35Z</time>
      </trkpt>
      <trkpt lat="45.34015" lon="6.59196">
        <ele>2106.56</ele>
        <time>2014-01-31T12:57:39Z</time>
      </trkpt>
      <trkpt lat="45.34003" lon="6.59218">
        <ele>2107.84</ele>
        <time>2014-01-31T12:57:43Z</time>
      </trkpt>
      <trkpt lat="45.33992" lon="6.59238">
        <ele>2109.76</ele>
        <time>2014-01-31T12:57:47Z</time>
      </trkpt>
      <trkpt lat="45.33979" lon="6.5926">
        <ele>2117.72</ele>
        <time>2014-01-31T12:57:52Z</time>
      </trkpt>
      <trkpt lat="45.33964" lon="6.59282">
        <ele>2130.19</ele>
        <time>2014-01-31T12:57:58Z</time>
      </trkpt>
      <trkpt lat="45.3395" lon="6.59301">
        <ele>2147.21</ele>
        <time>2014-01-31T12:58:02Z</time>
      </trkpt>
      <trkpt lat="45.33938" lon="6.59326">
        <ele>2164.63</ele>
        <time>2014-01-31T12:58:06Z</time>
      </trkpt>
      <trkpt lat="45.33927" lon="6.59351">
        <ele>2180.83</ele>
        <time>2014-01-31T12:58:10Z</time>
      </trkpt>
      <trkpt lat="45.33914" lon="6.59375">
        <ele>2196.04</ele>
        <time>2014-01-31T12:58:15Z</time>
      </trkpt>
      <trkpt lat="45.33902" lon="6.59395">
        <ele>2207.18</ele>
        <time>2014-01-31T12:58:19Z</time>
      </trkpt>
      <trkpt lat="45.33887" lon="6.59418">
        <ele>2220.87</ele>
        <time>2014-01-31T12:58:24Z</time>
      </trkpt>
      <trkpt lat="45.33874" lon="6.59438">
        <ele>2230.32</ele>
        <time>2014-01-31T12:58:29Z</time>
      </trkpt>
      <trkpt lat="45.33861" lon="6.59458">
        <ele>2239.09</ele>
        <time>2014-01-31T12:58:33Z</time>
      </trkpt>
      <trkpt lat="45.33843" lon="6.59478">
        <ele>2245.45</ele>
        <time>2014-01-31T12:58:38Z</time>
      </trkpt>
      <trkpt lat="45.3383" lon="6.59497">
        <ele>2250.09</ele>
        <time>2014-01-31T12:58:43Z</time>
      </trkpt>
      <trkpt lat="45.33818" lon="6.59518">
        <ele>2261.98</ele>
        <time>2014-01-31T12:58:48Z</time>
      </trkpt>
      <trkpt lat="45.33805" lon="6.59541">
        <ele>2271.5</ele>
        <time>2014-01-31T12:58:53Z</time>
      </trkpt>
      <trkpt lat="45.33793" lon="6.59562">
        <ele>2279.15</ele>
        <time>2014-01-31T12:58:57Z</time>
      </trkpt>
      <trkpt lat="45.33781" lon="6.59588">
        <ele>2287.87</ele>
        <time>2014-01-31T12:59:02Z</time>
      </trkpt>
      <trkpt lat="45.33768" lon="6.59611">
        <ele>2296.13</ele>
        <time>2014-01-31T12:59:07Z</time>
      </trkpt>
      <trkpt lat="45.33756" lon="6.59633">
        <ele>2306.58</ele>
        <time>2014-01-31T12:59:12Z</time>
      </trkpt>
      <trkpt lat="45.33745" lon="6.59656">
        <ele>2315.03</ele>
        <time>2014-01-31T12:59:17Z</time>
      </trkpt>
      <trkpt lat="45.33733" lon="6.59677">
        <ele>2322.82</ele>
        <time>2014-01-31T12:59:21Z</time>
      </trkpt>
      <trkpt lat="45.33721" lon="6.59697">
        <ele>2330.71</ele>
        <time>2014-01-31T12:59:25Z</time>
      </trkpt>
      <trkpt lat="45.3371" lon="6.59718">
        <ele>2336.89</ele>
        <time>2014-01-31T12:59:29Z</time>
      </trkpt>
      <trkpt lat="45.33696" lon="6.59741">
        <ele>2345.37</ele>
        <time>2014-01-31T12:59:34Z</time>
      </trkpt>
      <trkpt lat="45.33683" lon="6.59761">
        <ele>2353.17</ele>
        <time>2014-01-31T12:59:38Z</time>
      </trkpt>
      <trkpt lat="45.33669" lon="6.59779">
        <ele>2361.09</ele>
        <time>2014-01-31T12:59:42Z</time>
      </trkpt>
      <trkpt lat="45.33655" lon="6.59797">
        <ele>2370.01</ele>
        <time>2014-01-31T12:59:46Z</time>
      </trkpt>
      <trkpt lat="45.33641" lon="6.59814">
        <ele>2380.3</ele>
        <time>2014-01-31T12:59:50Z</time>
      </trkpt>
      <trkpt lat="45.33627" lon="6.59831">
        <ele>2389.35</ele>
        <time>2014-01-31T12:59:54Z</time>
      </trkpt>
      <trkpt lat="45.33613" lon="6.59852">
        <ele>2395.89</ele>
        <time>2014-01-31T12:59:59Z</time>
      </trkpt>
      <trkpt lat="45.336" lon="6.5987">
        <ele>2403.86</ele>
        <time>2014-01-31T13:00:03Z</time>
      </trkpt>
      <trkpt lat="45.33586" lon="6.59888">
        <ele>2412.77</ele>
        <time>2014-01-31T13:00:07Z</time>
      </trkpt>
      <trkpt lat="45.33573" lon="6.59909">
        <ele>2423.51</ele>
        <time>2014-01-31T13:00:12Z</time>
      </trkpt>
      <trkpt lat="45.33562" lon="6.5993">
        <ele>2432.9</ele>
        <time>2014-01-31T13:00:17Z</time>
      </trkpt>
      <trkpt lat="45.3355" lon="6.59953">
        <ele>2442.9</ele>
        <time>2014-01-31T13:00:22Z</time>
      </trkpt>
      <trkpt lat="45.33533" lon="6.59969">
        <ele>2454.14</ele>
        <time>2014-01-31T13:00:26Z</time>
      </trkpt>
      <trkpt lat="45.33515" lon="6.59988">
        <ele>2466.78</ele>
        <time>2014-01-31T13:00:30Z</time>
      </trkpt>
      <trkpt lat="45.33502" lon="6.60007">
        <ele>2479.47</ele>
        <time>2014-01-31T13:00:34Z</time>
      </trkpt>
      <trkpt lat="45.33491" lon="6.60028">
        <ele>2490.22</ele>
        <time>2014-01-31T13:00:40Z</time>
      </trkpt>
      <trkpt lat="45.33476" lon="6.60045">
        <ele>2501.02</ele>
        <time>2014-01-31T13:00:47Z</time>
      </trkpt>
      <trkpt lat="45.33463" lon="6.60066">
        <ele>2511.31</ele>
        <time>2014-01-31T13:00:53Z</time>
      </trkpt>
      <trkpt lat="45.33449" lon="6.60089">
        <ele>2524.92</ele>
        <time>2014-01-31T13:00:59Z</time>
      </trkpt>
      <trkpt lat="45.33436" lon="6.60114">
        <ele>2537.2</ele>
        <time>2014-01-31T13:01:04Z</time>
      </trkpt>
      <trkpt lat="45.33424" lon="6.60137">
        <ele>2548.58</ele>
        <time>2014-01-31T13:01:08Z</time>
      </trkpt>
      <trkpt lat="45.3341" lon="6.60158">
        <ele>2560.61</ele>
        <time>2014-01-31T13:01:12Z</time>
      </trkpt>
      <trkpt lat="45.33395" lon="6.60177">
        <ele>2573.69</ele>
        <time>2014-01-31T13:01:16Z</time>
      </trkpt>
      <trkpt lat="45.33381" lon="6.60195">
        <ele>2583.88</ele>
        <time>2014-01-31T13:01:20Z</time>
      </trkpt>
      <trkpt lat="45.33365" lon="6.60216">
        <ele>2595.24</ele>
        <time>2014-01-31T13:01:25Z</time>
      </trkpt>
      <trkpt lat="45.33351" lon="6.60238">
        <ele>2605.59</ele>
        <time>2014-01-31T13:01:30Z</time>
      </trkpt>
      <trkpt lat="45.33339" lon="6.60259">
        <ele>2613.5</ele>
        <time>2014-01-31T13:01:36Z</time>
      </trkpt>
      <trkpt lat="45.33323" lon="6.60277">
        <ele>2620.19</ele>
        <time>2014-01-31T13:01:42Z</time>
      </trkpt>
      <trkpt lat="45.33309" lon="6.60296">
        <ele>2620.78</ele>
        <time>2014-01-31T13:01:47Z</time>
      </trkpt>
      <trkpt lat="45.33297" lon="6.60317">
        <ele>2622.57</ele>
        <time>2014-01-31T13:01:51Z</time>
      </trkpt>
      <trkpt lat="45.33283" lon="6.60334">
        <ele>2629.59</ele>
        <time>2014-01-31T13:01:55Z</time>
      </trkpt>
      <trkpt lat="45.33267" lon="6.60355">
        <ele>2644.19</ele>
        <time>2014-01-31T13:02:00Z</time>
      </trkpt>
      <trkpt lat="45.33255" lon="6.60374">
        <ele>2656.96</ele>
        <time>2014-01-31T13:02:06Z</time>
      </trkpt>
      <trkpt lat="45.33241" lon="6.60391">
        <ele>2669.73</ele>
        <time>2014-01-31T13:02:11Z</time>
      </trkpt>
      <trkpt lat="45.33225" lon="6.60412">
        <ele>2684.92</ele>
        <time>2014-01-31T13:02:16Z</time>
      </trkpt>
      <trkpt lat="45.33213" lon="6.60434">
        <ele>2697.02</ele>
        <time>2014-01-31T13:02:20Z</time>
      </trkpt>
      <trkpt lat="45.33201" lon="6.60455">
        <ele>2710.31</ele>
        <time>2014-01-31T13:02:24Z</time>
      </trkpt>
      <trkpt lat="45.33191" lon="6.60478">
        <ele>2724.93</ele>
        <time>2014-01-31T13:02:28Z</time>
      </trkpt>
      <trkpt lat="45.33178" lon="6.60504">
        <ele>2743.17</ele>
        <time>2014-01-31T13:02:33Z</time>
      </trkpt>
      <trkpt lat="45.33164" lon="6.60526">
        <ele>2756.62</ele>
        <time>2014-01-31T13:02:38Z</time>
      </trkpt>
      <trkpt lat="45.3315" lon="6.60546">
        <ele>2765.2</ele>
        <time>2014-01-31T13:02:43Z</time>
      </trkpt>
      <trkpt lat="45.33137" lon="6.60565">
        <ele>2774.57</ele>
        <time>2014-01-31T13:02:48Z</time>
      </trkpt>
      <trkpt lat="45.33123" lon="6.60585">
        <ele>2788.37</ele>
        <time>2014-01-31T13:02:53Z</time>
      </trkpt>
      <trkpt lat="45.33108" lon="6.60601">
        <ele>2800.77</ele>
        <time>2014-01-31T13:02:58Z</time>
      </trkpt>
      <trkpt lat="45.33094" lon="6.60621">
        <ele>2815.49</ele>
        <time>2014-01-31T13:03:03Z</time>
      </trkpt>
      <trkpt lat="45.33082" lon="6.60644">
        <ele>2829.78</ele>
        <time>2014-01-31T13:03:08Z</time>
      </trkpt>
      <trkpt lat="45.33068" lon="6.60665">
        <ele>2844.67</ele>
        <time>2014-01-31T13:03:13Z</time>
      </trkpt>
      <trkpt lat="45.33054" lon="6.60685">
        <ele>2857.2</ele>
        <time>2014-01-31T13:03:18Z</time>
      </trkpt>
      <trkpt lat="45.33039" lon="6.60703">
        <ele>2871.3</ele>
        <time>2014-01-31T13:03:23Z</time>
      </trkpt>
      <trkpt lat="45.3303" lon="6.60727">
        <ele>2883.61</ele>
        <time>2014-01-31T13:03:28Z</time>
      </trkpt>
      <trkpt lat="45.33023" lon="6.60752">
        <ele>2893.76</ele>
        <time>2014-01-31T13:03:33Z</time>
      </trkpt>
      <trkpt lat="45.33013" lon="6.60779">
        <ele>2902.22</ele>
        <time>2014-01-31T13:03:38Z</time>
      </trkpt>
      <trkpt lat="45.33001" lon="6.608">
        <ele>2909.88</ele>
        <time>2014-01-31T13:03:42Z</time>
      </trkpt>
      <trkpt lat="45.32987" lon="6.60817">
        <ele>2914.45</ele>
        <time>2014-01-31T13:03:46Z</time>
      </trkpt>
      <trkpt lat="45.32974" lon="6.60834">
        <ele>2911.97</ele>
        <time>2014-01-31T13:03:50Z</time>
      </trkpt>
      <trkpt lat="45.32953" lon="6.60842">
        <ele>2917.72</ele>
        <time>2014-01-31T13:03:56Z</time>
      </trkpt>
      <trkpt lat="45.32935" lon="6.60856">
        <ele>2922.01</ele>
        <time>2014-01-31T13:04:02Z</time>
      </trkpt>
      <trkpt lat="45.32923" lon="6.60877">
        <ele>2918.15</ele>
        <time>2014-01-31T13:04:08Z</time>
      </trkpt>
      <trkpt lat="45.32907" lon="6.60893">
        <ele>2918.05</ele>
        <time>2014-01-31T13:04:12Z</time>
      </trkpt>
      <trkpt lat="45.32891" lon="6.60915">
        <ele>2922.19</ele>
        <time>2014-01-31T13:04:17Z</time>
      </trkpt>
      <trkpt lat="45.32878" lon="6.60932">
        <ele>2926.43</ele>
        <time>2014-01-31T13:04:21Z</time>
      </trkpt>
      <trkpt lat="45.32863" lon="6.60953">
        <ele>2934.5</ele>
        <time>2014-01-31T13:04:26Z</time>
      </trkpt>
      <trkpt lat="45.3287" lon="6.6093">
        <ele>2930.25</ele>
        <time>2014-01-31T13:05:59Z</time>
      </trkpt>
      <trkpt lat="45.32886" lon="6.60916">
        <ele>2923.8</ele>
        <time>2014-01-31T13:06:05Z</time>
      </trkpt>
      <trkpt lat="45.32877" lon="6.60892">
        <ele>2921.6</ele>
        <time>2014-01-31T13:08:12Z</time>
      </trkpt>
      <trkpt lat="45.32865" lon="6.60872">
        <ele>2907.59</ele>
        <time>2014-01-31T13:08:22Z</time>
      </trkpt>
      <trkpt lat="45.32853" lon="6.60851">
        <ele>2894.93</ele>
        <time>2014-01-31T13:08:32Z</time>
      </trkpt>
      <trkpt lat="45.32843" lon="6.60823">
        <ele>2882.3</ele>
        <time>2014-01-31T13:09:35Z</time>
      </trkpt>
      <trkpt lat="45.32826" lon="6.60811">
        <ele>2870.7</ele>
        <time>2014-01-31T13:09:52Z</time>
      </trkpt>
      <trkpt lat="45.32809" lon="6.60827">
        <ele>2865.57</ele>
        <time>2014-01-31T13:09:59Z</time>
      </trkpt>
      <trkpt lat="45.32789" lon="6.60828">
        <ele>2854.99</ele>
        <time>2014-01-31T13:10:06Z</time>
      </trkpt>
      <trkpt lat="45.32772" lon="6.60836">
        <ele>2846.22</ele>
        <time>2014-01-31T13:10:18Z</time>
      </trkpt>
      <trkpt lat="45.32759" lon="6.60857">
        <ele>2838.18</ele>
        <time>2014-01-31T13:10:23Z</time>
      </trkpt>
      <trkpt lat="45.32748" lon="6.60836">
        <ele>2828.75</ele>
        <time>2014-01-31T13:10:45Z</time>
      </trkpt>
      <trkpt lat="45.32732" lon="6.60853">
        <ele>2819.31</ele>
        <time>2014-01-31T13:10:55Z</time>
      </trkpt>
      <trkpt lat="45.32717" lon="6.60866">
        <ele>2811.68</ele>
        <time>2014-01-31T13:11:19Z</time>
      </trkpt>
      <trkpt lat="45.32709" lon="6.6084">
        <ele>2803.43</ele>
        <time>2014-01-31T13:11:33Z</time>
      </trkpt>
      <trkpt lat="45.32691" lon="6.60846">
        <ele>2794.8</ele>
        <time>2014-01-31T13:11:42Z</time>
      </trkpt>
      <trkpt lat="45.32679" lon="6.60824">
        <ele>2788.56</ele>
        <time>2014-01-31T13:11:56Z</time>
      </trkpt>
      <trkpt lat="45.32667" lon="6.60804">
        <ele>2781.7</ele>
        <time>2014-01-31T13:12:05Z</time>
      </trkpt>
      <trkpt lat="45.32675" lon="6.60778">
        <ele>2773.88</ele>
        <time>2014-01-31T13:12:10Z</time>
      </trkpt>
      <trkpt lat="45.32666" lon="6.60753">
        <ele>2768.24</ele>
        <time>2014-01-31T13:12:16Z</time>
      </trkpt>
      <trkpt lat="45.32665" lon="6.60727">
        <ele>2765.26</ele>
        <time>2014-01-31T13:12:20Z</time>
      </trkpt>
      <trkpt lat="45.32662" lon="6.60696">
        <ele>2762.42</ele>
        <time>2014-01-31T13:12:23Z</time>
      </trkpt>
      <trkpt lat="45.32667" lon="6.60671">
        <ele>2760.46</ele>
        <time>2014-01-31T13:12:27Z</time>
      </trkpt>
      <trkpt lat="45.32678" lon="6.60645">
        <ele>2754.17</ele>
        <time>2014-01-31T13:12:34Z</time>
      </trkpt>
      <trkpt lat="45.32684" lon="6.60615">
        <ele>2745.17</ele>
        <time>2014-01-31T13:12:38Z</time>
      </trkpt>
      <trkpt lat="45.32688" lon="6.60587">
        <ele>2741.21</ele>
        <time>2014-01-31T13:12:41Z</time>
      </trkpt>
      <trkpt lat="45.32687" lon="6.60559">
        <ele>2736.1</ele>
        <time>2014-01-31T13:12:53Z</time>
      </trkpt>
      <trkpt lat="45.32687" lon="6.60533">
        <ele>2731.45</ele>
        <time>2014-01-31T13:12:58Z</time>
      </trkpt>
      <trkpt lat="45.3268" lon="6.60508">
        <ele>2728.93</ele>
        <time>2014-01-31T13:13:02Z</time>
      </trkpt>
      <trkpt lat="45.32666" lon="6.60489">
        <ele>2728.92</ele>
        <time>2014-01-31T13:13:05Z</time>
      </trkpt>
      <trkpt lat="45.32654" lon="6.60464">
        <ele>2721.79</ele>
        <time>2014-01-31T13:13:12Z</time>
      </trkpt>
      <trkpt lat="45.32643" lon="6.60444">
        <ele>2718.97</ele>
        <time>2014-01-31T13:13:18Z</time>
      </trkpt>
      <trkpt lat="45.32627" lon="6.60428">
        <ele>2712.03</ele>
        <time>2014-01-31T13:13:23Z</time>
      </trkpt>
      <trkpt lat="45.32617" lon="6.60404">
        <ele>2702.92</ele>
        <time>2014-01-31T13:13:32Z</time>
      </trkpt>
      <trkpt lat="45.32604" lon="6.60386">
        <ele>2683.13</ele>
        <time>2014-01-31T13:13:38Z</time>
      </trkpt>
      <trkpt lat="45.32608" lon="6.60358">
        <ele>2674.36</ele>
        <time>2014-01-31T13:14:01Z</time>
      </trkpt>
      <trkpt lat="45.32607" lon="6.6033">
        <ele>2664.35</ele>
        <time>2014-01-31T13:14:06Z</time>
      </trkpt>
      <trkpt lat="45.32614" lon="6.60304">
        <ele>2660.8</ele>
        <time>2014-01-31T13:14:11Z</time>
      </trkpt>
      <trkpt lat="45.32608" lon="6.6028">
        <ele>2649.64</ele>
        <time>2014-01-31T13:14:20Z</time>
      </trkpt>
      <trkpt lat="45.32615" lon="6.60255">
        <ele>2645.03</ele>
        <time>2014-01-31T13:14:24Z</time>
      </trkpt>
      <trkpt lat="45.32621" lon="6.60229">
        <ele>2642.41</ele>
        <time>2014-01-31T13:14:30Z</time>
      </trkpt>
      <trkpt lat="45.32603" lon="6.60237">
        <ele>2635.35</ele>
        <time>2014-01-31T13:14:38Z</time>
      </trkpt>
      <trkpt lat="45.32587" lon="6.60253">
        <ele>2634.74</ele>
        <time>2014-01-31T13:14:43Z</time>
      </trkpt>
      <trkpt lat="45.32592" lon="6.60224">
        <ele>2628.61</ele>
        <time>2014-01-31T13:14:49Z</time>
      </trkpt>
      <trkpt lat="45.32579" lon="6.60206">
        <ele>2616.86</ele>
        <time>2014-01-31T13:15:01Z</time>
      </trkpt>
      <trkpt lat="45.32563" lon="6.60192">
        <ele>2607.19</ele>
        <time>2014-01-31T13:15:09Z</time>
      </trkpt>
      <trkpt lat="45.32549" lon="6.60175">
        <ele>2598.26</ele>
        <time>2014-01-31T13:15:18Z</time>
      </trkpt>
      <trkpt lat="45.32532" lon="6.60166">
        <ele>2588.55</ele>
        <time>2014-01-31T13:15:39Z</time>
      </trkpt>
      <trkpt lat="45.32518" lon="6.60149">
        <ele>2578.87</ele>
        <time>2014-01-31T13:15:47Z</time>
      </trkpt>
      <trkpt lat="45.32518" lon="6.60123">
        <ele>2573.58</ele>
        <time>2014-01-31T13:15:51Z</time>
      </trkpt>
      <trkpt lat="45.32518" lon="6.60096">
        <ele>2568.71</ele>
        <time>2014-01-31T13:15:56Z</time>
      </trkpt>
      <trkpt lat="45.32518" lon="6.60069">
        <ele>2563.3</ele>
        <time>2014-01-31T13:16:09Z</time>
      </trkpt>
      <trkpt lat="45.32497" lon="6.60081">
        <ele>2556.3</ele>
        <time>2014-01-31T13:16:21Z</time>
      </trkpt>
      <trkpt lat="45.32481" lon="6.60062">
        <ele>2551.39</ele>
        <time>2014-01-31T13:16:29Z</time>
      </trkpt>
      <trkpt lat="45.32461" lon="6.60059">
        <ele>2548.87</ele>
        <time>2014-01-31T13:16:32Z</time>
      </trkpt>
      <trkpt lat="45.32443" lon="6.60049">
        <ele>2545.4</ele>
        <time>2014-01-31T13:16:35Z</time>
      </trkpt>
      <trkpt lat="45.32424" lon="6.60043">
        <ele>2544.22</ele>
        <time>2014-01-31T13:16:39Z</time>
      </trkpt>
      <trkpt lat="45.32407" lon="6.60028">
        <ele>2538.07</ele>
        <time>2014-01-31T13:16:43Z</time>
      </trkpt>
      <trkpt lat="45.32388" lon="6.6002">
        <ele>2535.44</ele>
        <time>2014-01-31T13:16:46Z</time>
      </trkpt>
      <trkpt lat="45.32368" lon="6.60012">
        <ele>2529.31</ele>
        <time>2014-01-31T13:16:51Z</time>
      </trkpt>
      <trkpt lat="45.32348" lon="6.60004">
        <ele>2528.66</ele>
        <time>2014-01-31T13:16:55Z</time>
      </trkpt>
      <trkpt lat="45.32328" lon="6.5999">
        <ele>2526.37</ele>
        <time>2014-01-31T13:16:59Z</time>
      </trkpt>
      <trkpt lat="45.32316" lon="6.59967">
        <ele>2516.98</ele>
        <time>2014-01-31T13:17:14Z</time>
      </trkpt>
      <trkpt lat="45.32304" lon="6.59943">
        <ele>2507.18</ele>
        <time>2014-01-31T13:17:19Z</time>
      </trkpt>
      <trkpt lat="45.32284" lon="6.59947">
        <ele>2506.2</ele>
        <time>2014-01-31T13:17:25Z</time>
      </trkpt>
      <trkpt lat="45.32264" lon="6.59951">
        <ele>2511.67</ele>
        <time>2014-01-31T13:17:29Z</time>
      </trkpt>
      <trkpt lat="45.32253" lon="6.59929">
        <ele>2511.57</ele>
        <time>2014-01-31T13:17:34Z</time>
      </trkpt>
      <trkpt lat="45.3226" lon="6.59903">
        <ele>2503.93</ele>
        <time>2014-01-31T13:17:38Z</time>
      </trkpt>
      <trkpt lat="45.32273" lon="6.59885">
        <ele>2495.92</ele>
        <time>2014-01-31T13:17:44Z</time>
      </trkpt>
      <trkpt lat="45.32292" lon="6.59877">
        <ele>2489.58</ele>
        <time>2014-01-31T13:17:50Z</time>
      </trkpt>
      <trkpt lat="45.32303" lon="6.59855">
        <ele>2483.78</ele>
        <time>2014-01-31T13:19:56Z</time>
      </trkpt>
      <trkpt lat="45.32309" lon="6.59831">
        <ele>2478.73</ele>
        <time>2014-01-31T13:20:31Z</time>
      </trkpt>
      <trkpt lat="45.32304" lon="6.59803">
        <ele>2472.65</ele>
        <time>2014-01-31T13:20:36Z</time>
      </trkpt>
      <trkpt lat="45.32322" lon="6.59794">
        <ele>2467.37</ele>
        <time>2014-01-31T13:20:41Z</time>
      </trkpt>
      <trkpt lat="45.32321" lon="6.59767">
        <ele>2459.98</ele>
        <time>2014-01-31T13:20:46Z</time>
      </trkpt>
      <trkpt lat="45.32309" lon="6.59747">
        <ele>2455.87</ele>
        <time>2014-01-31T13:20:50Z</time>
      </trkpt>
      <trkpt lat="45.32304" lon="6.59716">
        <ele>2450.46</ele>
        <time>2014-01-31T13:20:56Z</time>
      </trkpt>
      <trkpt lat="45.32319" lon="6.59703">
        <ele>2444.2</ele>
        <time>2014-01-31T13:20:59Z</time>
      </trkpt>
      <trkpt lat="45.32314" lon="6.59674">
        <ele>2439.23</ele>
        <time>2014-01-31T13:21:05Z</time>
      </trkpt>
      <trkpt lat="45.32324" lon="6.59652">
        <ele>2434.82</ele>
        <time>2014-01-31T13:21:09Z</time>
      </trkpt>
      <trkpt lat="45.32323" lon="6.59624">
        <ele>2430.5</ele>
        <time>2014-01-31T13:21:13Z</time>
      </trkpt>
      <trkpt lat="45.32321" lon="6.59592">
        <ele>2426.17</ele>
        <time>2014-01-31T13:21:17Z</time>
      </trkpt>
      <trkpt lat="45.32325" lon="6.59566">
        <ele>2422.87</ele>
        <time>2014-01-31T13:21:20Z</time>
      </trkpt>
      <trkpt lat="45.32328" lon="6.59534">
        <ele>2420.38</ele>
        <time>2014-01-31T13:21:24Z</time>
      </trkpt>
      <trkpt lat="45.32333" lon="6.59506">
        <ele>2412.89</ele>
        <time>2014-01-31T13:21:27Z</time>
      </trkpt>
      <trkpt lat="45.3234" lon="6.5947">
        <ele>2407.94</ele>
        <time>2014-01-31T13:21:30Z</time>
      </trkpt>
      <trkpt lat="45.32346" lon="6.59443">
        <ele>2406.25</ele>
        <time>2014-01-31T13:21:32Z</time>
      </trkpt>
      <trkpt lat="45.3235" lon="6.59416">
        <ele>2403.59</ele>
        <time>2014-01-31T13:21:34Z</time>
      </trkpt>
      <trkpt lat="45.32353" lon="6.5939">
        <ele>2400.76</ele>
        <time>2014-01-31T13:21:36Z</time>
      </trkpt>
      <trkpt lat="45.32354" lon="6.59356">
        <ele>2396.93</ele>
        <time>2014-01-31T13:21:39Z</time>
      </trkpt>
      <trkpt lat="45.32355" lon="6.59324">
        <ele>2393.53</ele>
        <time>2014-01-31T13:21:42Z</time>
      </trkpt>
      <trkpt lat="45.32356" lon="6.59291">
        <ele>2390.57</ele>
        <time>2014-01-31T13:21:45Z</time>
      </trkpt>
      <trkpt lat="45.32361" lon="6.59256">
        <ele>2386.6</ele>
        <time>2014-01-31T13:21:48Z</time>
      </trkpt>
      <trkpt lat="45.32375" lon="6.59223">
        <ele>2383.11</ele>
        <time>2014-01-31T13:21:51Z</time>
      </trkpt>
      <trkpt lat="45.32394" lon="6.59203">
        <ele>2381.3</ele>
        <time>2014-01-31T13:21:54Z</time>
      </trkpt>
      <trkpt lat="45.32413" lon="6.59183">
        <ele>2379.59</ele>
        <time>2014-01-31T13:21:57Z</time>
      </trkpt>
      <trkpt lat="45.32428" lon="6.59162">
        <ele>2377.56</ele>
        <time>2014-01-31T13:22:01Z</time>
      </trkpt>
      <trkpt lat="45.32442" lon="6.59143">
        <ele>2375.42</ele>
        <time>2014-01-31T13:22:05Z</time>
      </trkpt>
      <trkpt lat="45.32456" lon="6.59125">
        <ele>2373.9</ele>
        <time>2014-01-31T13:22:08Z</time>
      </trkpt>
      <trkpt lat="45.32473" lon="6.59101">
        <ele>2370.53</ele>
        <time>2014-01-31T13:22:11Z</time>
      </trkpt>
      <trkpt lat="45.32489" lon="6.59073">
        <ele>2366.15</ele>
        <time>2014-01-31T13:22:14Z</time>
      </trkpt>
      <trkpt lat="45.32501" lon="6.59052">
        <ele>2362.38</ele>
        <time>2014-01-31T13:22:16Z</time>
      </trkpt>
      <trkpt lat="45.32514" lon="6.5903">
        <ele>2359.06</ele>
        <time>2014-01-31T13:22:18Z</time>
      </trkpt>
      <trkpt lat="45.32527" lon="6.59011">
        <ele>2356.57</ele>
        <time>2014-01-31T13:22:20Z</time>
      </trkpt>
      <trkpt lat="45.32541" lon="6.58991">
        <ele>2354.84</ele>
        <time>2014-01-31T13:22:22Z</time>
      </trkpt>
      <trkpt lat="45.32558" lon="6.5897">
        <ele>2353.85</ele>
        <time>2014-01-31T13:22:24Z</time>
      </trkpt>
      <trkpt lat="45.32575" lon="6.58947">
        <ele>2351.24</ele>
        <time>2014-01-31T13:22:26Z</time>
      </trkpt>
      <trkpt lat="45.32591" lon="6.58925">
        <ele>2350.1</ele>
        <time>2014-01-31T13:22:28Z</time>
      </trkpt>
      <trkpt lat="45.32606" lon="6.58903">
        <ele>2349.72</ele>
        <time>2014-01-31T13:22:30Z</time>
      </trkpt>
      <trkpt lat="45.32619" lon="6.58881">
        <ele>2348.41</ele>
        <time>2014-01-31T13:22:32Z</time>
      </trkpt>
      <trkpt lat="45.32631" lon="6.5886">
        <ele>2347.18</ele>
        <time>2014-01-31T13:22:34Z</time>
      </trkpt>
      <trkpt lat="45.32646" lon="6.58832">
        <ele>2344.96</ele>
        <time>2014-01-31T13:22:37Z</time>
      </trkpt>
      <trkpt lat="45.32659" lon="6.58806">
        <ele>2342.94</ele>
        <time>2014-01-31T13:22:40Z</time>
      </trkpt>
      <trkpt lat="45.32671" lon="6.58782">
        <ele>2338.81</ele>
        <time>2014-01-31T13:22:43Z</time>
      </trkpt>
      <trkpt lat="45.32683" lon="6.58756">
        <ele>2334.39</ele>
        <time>2014-01-31T13:22:46Z</time>
      </trkpt>
      <trkpt lat="45.32701" lon="6.58741">
        <ele>2332.58</ele>
        <time>2014-01-31T13:22:49Z</time>
      </trkpt>
      <trkpt lat="45.32717" lon="6.58729">
        <ele>2330.95</ele>
        <time>2014-01-31T13:22:52Z</time>
      </trkpt>
      <trkpt lat="45.32737" lon="6.58712">
        <ele>2328.89</ele>
        <time>2014-01-31T13:22:56Z</time>
      </trkpt>
      <trkpt lat="45.32754" lon="6.58702">
        <ele>2325.44</ele>
        <time>2014-01-31T13:22:59Z</time>
      </trkpt>
      <trkpt lat="45.32775" lon="6.58692">
        <ele>2320.29</ele>
        <time>2014-01-31T13:23:02Z</time>
      </trkpt>
      <trkpt lat="45.32794" lon="6.58681">
        <ele>2315.82</ele>
        <time>2014-01-31T13:23:05Z</time>
      </trkpt>
      <trkpt lat="45.32814" lon="6.5867">
        <ele>2310.07</ele>
        <time>2014-01-31T13:23:08Z</time>
      </trkpt>
      <trkpt lat="45.32897" lon="6.58632">
        <ele>2293.65</ele>
        <time>2014-01-31T13:23:40Z</time>
      </trkpt>
      <trkpt lat="45.32919" lon="6.58642">
        <ele>2293.28</ele>
        <time>2014-01-31T13:26:50Z</time>
      </trkpt>
      <trkpt lat="45.32936" lon="6.58654">
        <ele>2290.76</ele>
        <time>2014-01-31T13:26:52Z</time>
      </trkpt>
      <trkpt lat="45.32956" lon="6.58665">
        <ele>2284.74</ele>
        <time>2014-01-31T13:26:54Z</time>
      </trkpt>
      <trkpt lat="45.3298" lon="6.58676">
        <ele>2277.16</ele>
        <time>2014-01-31T13:26:56Z</time>
      </trkpt>
      <trkpt lat="45.33003" lon="6.58681">
        <ele>2272.05</ele>
        <time>2014-01-31T13:26:58Z</time>
      </trkpt>
      <trkpt lat="45.33028" lon="6.58681">
        <ele>2268.53</ele>
        <time>2014-01-31T13:27:00Z</time>
      </trkpt>
      <trkpt lat="45.33053" lon="6.58677">
        <ele>2263.81</ele>
        <time>2014-01-31T13:27:02Z</time>
      </trkpt>
      <trkpt lat="45.33079" lon="6.58657">
        <ele>2261.27</ele>
        <time>2014-01-31T13:27:04Z</time>
      </trkpt>
      <trkpt lat="45.33101" lon="6.58633">
        <ele>2260.48</ele>
        <time>2014-01-31T13:27:06Z</time>
      </trkpt>
      <trkpt lat="45.33119" lon="6.58611">
        <ele>2259.99</ele>
        <time>2014-01-31T13:27:08Z</time>
      </trkpt>
      <trkpt lat="45.33135" lon="6.58591">
        <ele>2259.27</ele>
        <time>2014-01-31T13:27:10Z</time>
      </trkpt>
      <trkpt lat="45.33152" lon="6.58575">
        <ele>2259</ele>
        <time>2014-01-31T13:27:12Z</time>
      </trkpt>
      <trkpt lat="45.33169" lon="6.58564">
        <ele>2258.95</ele>
        <time>2014-01-31T13:27:14Z</time>
      </trkpt>
      <trkpt lat="45.33192" lon="6.58556">
        <ele>2258.09</ele>
        <time>2014-01-31T13:27:17Z</time>
      </trkpt>
      <trkpt lat="45.33217" lon="6.58548">
        <ele>2254.64</ele>
        <time>2014-01-31T13:27:20Z</time>
      </trkpt>
      <trkpt lat="45.33243" lon="6.58543">
        <ele>2249.88</ele>
        <time>2014-01-31T13:27:23Z</time>
      </trkpt>
      <trkpt lat="45.33263" lon="6.58536">
        <ele>2248.12</ele>
        <time>2014-01-31T13:27:26Z</time>
      </trkpt>
      <trkpt lat="45.33286" lon="6.58529">
        <ele>2246.49</ele>
        <time>2014-01-31T13:27:30Z</time>
      </trkpt>
      <trkpt lat="45.33304" lon="6.58529">
        <ele>2243.17</ele>
        <time>2014-01-31T13:27:33Z</time>
      </trkpt>
      <trkpt lat="45.33325" lon="6.58524">
        <ele>2236.4</ele>
        <time>2014-01-31T13:27:36Z</time>
      </trkpt>
      <trkpt lat="45.33343" lon="6.58514">
        <ele>2232.02</ele>
        <time>2014-01-31T13:27:39Z</time>
      </trkpt>
      <trkpt lat="45.33365" lon="6.58506">
        <ele>2225.04</ele>
        <time>2014-01-31T13:27:43Z</time>
      </trkpt>
      <trkpt lat="45.33388" lon="6.58503">
        <ele>2218.33</ele>
        <time>2014-01-31T13:27:46Z</time>
      </trkpt>
      <trkpt lat="45.33406" lon="6.58507">
        <ele>2212.25</ele>
        <time>2014-01-31T13:27:48Z</time>
      </trkpt>
      <trkpt lat="45.33431" lon="6.58516">
        <ele>2205.65</ele>
        <time>2014-01-31T13:27:51Z</time>
      </trkpt>
      <trkpt lat="45.33451" lon="6.5853">
        <ele>2200.93</ele>
        <time>2014-01-31T13:27:54Z</time>
      </trkpt>
      <trkpt lat="45.33468" lon="6.5855">
        <ele>2198.73</ele>
        <time>2014-01-31T13:27:58Z</time>
      </trkpt>
      <trkpt lat="45.33481" lon="6.58579">
        <ele>2193.08</ele>
        <time>2014-01-31T13:28:02Z</time>
      </trkpt>
      <trkpt lat="45.33487" lon="6.58609">
        <ele>2186.03</ele>
        <time>2014-01-31T13:28:04Z</time>
      </trkpt>
      <trkpt lat="45.335" lon="6.58646">
        <ele>2176.95</ele>
        <time>2014-01-31T13:28:06Z</time>
      </trkpt>
      <trkpt lat="45.33516" lon="6.58686">
        <ele>2170.78</ele>
        <time>2014-01-31T13:28:08Z</time>
      </trkpt>
      <trkpt lat="45.33534" lon="6.58723">
        <ele>2163.78</ele>
        <time>2014-01-31T13:28:10Z</time>
      </trkpt>
      <trkpt lat="45.33554" lon="6.58754">
        <ele>2158.08</ele>
        <time>2014-01-31T13:28:12Z</time>
      </trkpt>
      <trkpt lat="45.33576" lon="6.58778">
        <ele>2151.8</ele>
        <time>2014-01-31T13:28:14Z</time>
      </trkpt>
      <trkpt lat="45.33599" lon="6.58798">
        <ele>2146.95</ele>
        <time>2014-01-31T13:28:16Z</time>
      </trkpt>
      <trkpt lat="45.33623" lon="6.58813">
        <ele>2142.93</ele>
        <time>2014-01-31T13:28:18Z</time>
      </trkpt>
      <trkpt lat="45.33651" lon="6.58822">
        <ele>2138.48</ele>
        <time>2014-01-31T13:28:20Z</time>
      </trkpt>
      <trkpt lat="45.33677" lon="6.58828">
        <ele>2136.27</ele>
        <time>2014-01-31T13:28:22Z</time>
      </trkpt>
      <trkpt lat="45.337" lon="6.58827">
        <ele>2134.41</ele>
        <time>2014-01-31T13:28:24Z</time>
      </trkpt>
      <trkpt lat="45.33724" lon="6.58829">
        <ele>2132.05</ele>
        <time>2014-01-31T13:28:26Z</time>
      </trkpt>
      <trkpt lat="45.33745" lon="6.58829">
        <ele>2130.49</ele>
        <time>2014-01-31T13:28:28Z</time>
      </trkpt>
      <trkpt lat="45.3377" lon="6.58831">
        <ele>2130.02</ele>
        <time>2014-01-31T13:28:31Z</time>
      </trkpt>
      <trkpt lat="45.3379" lon="6.58832">
        <ele>2130</ele>
        <time>2014-01-31T13:28:34Z</time>
      </trkpt>
      <trkpt lat="45.3381" lon="6.58832">
        <ele>2130.04</ele>
        <time>2014-01-31T13:28:37Z</time>
      </trkpt>
      <trkpt lat="45.33831" lon="6.58828">
        <ele>2130.74</ele>
        <time>2014-01-31T13:28:41Z</time>
      </trkpt>
      <trkpt lat="45.3385" lon="6.58824">
        <ele>2131.61</ele>
        <time>2014-01-31T13:28:45Z</time>
      </trkpt>
      <trkpt lat="45.3387" lon="6.58821">
        <ele>2131.65</ele>
        <time>2014-01-31T13:28:49Z</time>
      </trkpt>
      <trkpt lat="45.33891" lon="6.58824">
        <ele>2130.19</ele>
        <time>2014-01-31T13:28:53Z</time>
      </trkpt>
      <trkpt lat="45.33911" lon="6.58828">
        <ele>2128.7</ele>
        <time>2014-01-31T13:28:57Z</time>
      </trkpt>
      <trkpt lat="45.33933" lon="6.58836">
        <ele>2126.73</ele>
        <time>2014-01-31T13:29:03Z</time>
      </trkpt>
      <trkpt lat="45.33956" lon="6.58845">
        <ele>2124.77</ele>
        <time>2014-01-31T13:29:07Z</time>
      </trkpt>
      <trkpt lat="45.33979" lon="6.58854">
        <ele>2122.29</ele>
        <time>2014-01-31T13:29:10Z</time>
      </trkpt>
      <trkpt lat="45.33996" lon="6.5886">
        <ele>2118.7</ele>
        <time>2014-01-31T13:29:12Z</time>
      </trkpt>
      <trkpt lat="45.34014" lon="6.58868">
        <ele>2115.99</ele>
        <time>2014-01-31T13:29:14Z</time>
      </trkpt>
      <trkpt lat="45.34037" lon="6.58879">
        <ele>2113.04</ele>
        <time>2014-01-31T13:29:17Z</time>
      </trkpt>
      <trkpt lat="45.34054" lon="6.5889">
        <ele>2111.95</ele>
        <time>2014-01-31T13:29:20Z</time>
      </trkpt>
      <trkpt lat="45.34069" lon="6.58908">
        <ele>2111.63</ele>
        <time>2014-01-31T13:29:25Z</time>
      </trkpt>
      <trkpt lat="45.34079" lon="6.5893">
        <ele>2110.82</ele>
        <time>2014-01-31T13:29:35Z</time>
      </trkpt>
      <trkpt lat="45.34093" lon="6.58946">
        <ele>2110.6</ele>
        <time>2014-01-31T13:29:46Z</time>
      </trkpt>
      <trkpt lat="45.34106" lon="6.58966">
        <ele>2110.24</ele>
        <time>2014-01-31T13:29:57Z</time>
      </trkpt>
      <trkpt lat="45.3412" lon="6.58982">
        <ele>2112.09</ele>
        <time>2014-01-31T13:30:11Z</time>
      </trkpt>
      <trkpt lat="45.3415" lon="6.59009">
        <ele>2117.13</ele>
        <time>2014-01-31T13:33:29Z</time>
      </trkpt>
      <trkpt lat="45.34123" lon="6.5902">
        <ele>2112.02</ele>
        <time>2014-01-31T13:34:22Z</time>
      </trkpt>
      <trkpt lat="45.34112" lon="6.5904">
        <ele>2109.29</ele>
        <time>2014-01-31T13:34:23Z</time>
      </trkpt>
      <trkpt lat="45.34095" lon="6.59069">
        <ele>2106.18</ele>
        <time>2014-01-31T13:34:25Z</time>
      </trkpt>
      <trkpt lat="45.34078" lon="6.59092">
        <ele>2104.68</ele>
        <time>2014-01-31T13:34:28Z</time>
      </trkpt>
      <trkpt lat="45.34061" lon="6.59113">
        <ele>2103.97</ele>
        <time>2014-01-31T13:34:31Z</time>
      </trkpt>
      <trkpt lat="45.34046" lon="6.59133">
        <ele>2104.72</ele>
        <time>2014-01-31T13:34:35Z</time>
      </trkpt>
      <trkpt lat="45.34033" lon="6.59152">
        <ele>2105.12</ele>
        <time>2014-01-31T13:34:39Z</time>
      </trkpt>
      <trkpt lat="45.3402" lon="6.59176">
        <ele>2105.81</ele>
        <time>2014-01-31T13:34:44Z</time>
      </trkpt>
      <trkpt lat="45.34007" lon="6.59197">
        <ele>2106.85</ele>
        <time>2014-01-31T13:34:48Z</time>
      </trkpt>
      <trkpt lat="45.33994" lon="6.59216">
        <ele>2107.99</ele>
        <time>2014-01-31T13:34:52Z</time>
      </trkpt>
      <trkpt lat="45.3398" lon="6.59236">
        <ele>2110.91</ele>
        <time>2014-01-31T13:34:56Z</time>
      </trkpt>
      <trkpt lat="45.33966" lon="6.59254">
        <ele>2117.7</ele>
        <time>2014-01-31T13:35:00Z</time>
      </trkpt>
      <trkpt lat="45.33951" lon="6.59273">
        <ele>2127.67</ele>
        <time>2014-01-31T13:35:04Z</time>
      </trkpt>
      <trkpt lat="45.33938" lon="6.59291">
        <ele>2143.84</ele>
        <time>2014-01-31T13:35:08Z</time>
      </trkpt>
      <trkpt lat="45.33926" lon="6.5931">
        <ele>2160.6</ele>
        <time>2014-01-31T13:35:12Z</time>
      </trkpt>
      <trkpt lat="45.33911" lon="6.59333">
        <ele>2178.86</ele>
        <time>2014-01-31T13:35:17Z</time>
      </trkpt>
      <trkpt lat="45.33896" lon="6.59357">
        <ele>2197.49</ele>
        <time>2014-01-31T13:35:22Z</time>
      </trkpt>
      <trkpt lat="45.33884" lon="6.59378">
        <ele>2209.31</ele>
        <time>2014-01-31T13:35:26Z</time>
      </trkpt>
      <trkpt lat="45.33873" lon="6.59399">
        <ele>2221.21</ele>
        <time>2014-01-31T13:35:30Z</time>
      </trkpt>
      <trkpt lat="45.33861" lon="6.5942">
        <ele>2231.85</ele>
        <time>2014-01-31T13:35:34Z</time>
      </trkpt>
      <trkpt lat="45.33849" lon="6.59444">
        <ele>2239.88</ele>
        <time>2014-01-31T13:35:38Z</time>
      </trkpt>
      <trkpt lat="45.33838" lon="6.59465">
        <ele>2245.09</ele>
        <time>2014-01-31T13:35:44Z</time>
      </trkpt>
      <trkpt lat="45.33825" lon="6.59486">
        <ele>2251.23</ele>
        <time>2014-01-31T13:35:48Z</time>
      </trkpt>
      <trkpt lat="45.3381" lon="6.59508">
        <ele>2260.88</ele>
        <time>2014-01-31T13:35:52Z</time>
      </trkpt>
      <trkpt lat="45.33797" lon="6.59529">
        <ele>2270.92</ele>
        <time>2014-01-31T13:35:56Z</time>
      </trkpt>
      <trkpt lat="45.33773" lon="6.59559">
        <ele>2282.41</ele>
        <time>2014-01-31T13:36:02Z</time>
      </trkpt>
      <trkpt lat="45.33756" lon="6.59579">
        <ele>2287.82</ele>
        <time>2014-01-31T13:36:06Z</time>
      </trkpt>
      <trkpt lat="45.33744" lon="6.59598">
        <ele>2294.19</ele>
        <time>2014-01-31T13:36:09Z</time>
      </trkpt>
      <trkpt lat="45.33727" lon="6.59615">
        <ele>2299.16</ele>
        <time>2014-01-31T13:36:12Z</time>
      </trkpt>
      <trkpt lat="45.3371" lon="6.59631">
        <ele>2306.3</ele>
        <time>2014-01-31T13:36:15Z</time>
      </trkpt>
      <trkpt lat="45.33691" lon="6.59649">
        <ele>2313.61</ele>
        <time>2014-01-31T13:36:19Z</time>
      </trkpt>
      <trkpt lat="45.33677" lon="6.59669">
        <ele>2323.24</ele>
        <time>2014-01-31T13:36:23Z</time>
      </trkpt>
      <trkpt lat="45.33666" lon="6.5969">
        <ele>2329.64</ele>
        <time>2014-01-31T13:36:27Z</time>
      </trkpt>
      <trkpt lat="45.33656" lon="6.59712">
        <ele>2339.87</ele>
        <time>2014-01-31T13:36:31Z</time>
      </trkpt>
      <trkpt lat="45.33643" lon="6.59738">
        <ele>2352.6</ele>
        <time>2014-01-31T13:36:36Z</time>
      </trkpt>
      <trkpt lat="45.3363" lon="6.59758">
        <ele>2363.85</ele>
        <time>2014-01-31T13:36:41Z</time>
      </trkpt>
      <trkpt lat="45.33626" lon="6.59787">
        <ele>2374.69</ele>
        <time>2014-01-31T13:36:51Z</time>
      </trkpt>
      <trkpt lat="45.33612" lon="6.59811">
        <ele>2386.06</ele>
        <time>2014-01-31T13:36:56Z</time>
      </trkpt>
      <trkpt lat="45.33601" lon="6.59831">
        <ele>2395.18</ele>
        <time>2014-01-31T13:37:00Z</time>
      </trkpt>
      <trkpt lat="45.3359" lon="6.59853">
        <ele>2403.42</ele>
        <time>2014-01-31T13:37:04Z</time>
      </trkpt>
      <trkpt lat="45.33577" lon="6.59879">
        <ele>2414.87</ele>
        <time>2014-01-31T13:37:09Z</time>
      </trkpt>
      <trkpt lat="45.33566" lon="6.59901">
        <ele>2425.65</ele>
        <time>2014-01-31T13:37:13Z</time>
      </trkpt>
      <trkpt lat="45.33553" lon="6.59919">
        <ele>2435.07</ele>
        <time>2014-01-31T13:37:17Z</time>
      </trkpt>
      <trkpt lat="45.33542" lon="6.5994">
        <ele>2446.12</ele>
        <time>2014-01-31T13:37:22Z</time>
      </trkpt>
      <trkpt lat="45.33529" lon="6.59961">
        <ele>2455.88</ele>
        <time>2014-01-31T13:37:27Z</time>
      </trkpt>
      <trkpt lat="45.33515" lon="6.5998">
        <ele>2465.35</ele>
        <time>2014-01-31T13:37:31Z</time>
      </trkpt>
      <trkpt lat="45.33499" lon="6.59997">
        <ele>2478.25</ele>
        <time>2014-01-31T13:37:35Z</time>
      </trkpt>
      <trkpt lat="45.33484" lon="6.6001">
        <ele>2488.37</ele>
        <time>2014-01-31T13:37:39Z</time>
      </trkpt>
      <trkpt lat="45.33471" lon="6.60031">
        <ele>2500.05</ele>
        <time>2014-01-31T13:37:44Z</time>
      </trkpt>
      <trkpt lat="45.33458" lon="6.6005">
        <ele>2508.93</ele>
        <time>2014-01-31T13:37:48Z</time>
      </trkpt>
      <trkpt lat="45.33445" lon="6.60068">
        <ele>2520.33</ele>
        <time>2014-01-31T13:37:53Z</time>
      </trkpt>
      <trkpt lat="45.33431" lon="6.60089">
        <ele>2531.01</ele>
        <time>2014-01-31T13:37:57Z</time>
      </trkpt>
      <trkpt lat="45.33421" lon="6.60109">
        <ele>2540.34</ele>
        <time>2014-01-31T13:38:01Z</time>
      </trkpt>
      <trkpt lat="45.33411" lon="6.60131">
        <ele>2552.33</ele>
        <time>2014-01-31T13:38:05Z</time>
      </trkpt>
      <trkpt lat="45.33399" lon="6.60158">
        <ele>2566.43</ele>
        <time>2014-01-31T13:38:10Z</time>
      </trkpt>
      <trkpt lat="45.33382" lon="6.60175">
        <ele>2578.01</ele>
        <time>2014-01-31T13:38:15Z</time>
      </trkpt>
      <trkpt lat="45.33368" lon="6.60192">
        <ele>2588.02</ele>
        <time>2014-01-31T13:38:19Z</time>
      </trkpt>
      <trkpt lat="45.33352" lon="6.60209">
        <ele>2598.01</ele>
        <time>2014-01-31T13:38:23Z</time>
      </trkpt>
      <trkpt lat="45.33335" lon="6.60227">
        <ele>2609.85</ele>
        <time>2014-01-31T13:38:27Z</time>
      </trkpt>
      <trkpt lat="45.3332" lon="6.60247">
        <ele>2616.91</ele>
        <time>2014-01-31T13:38:31Z</time>
      </trkpt>
      <trkpt lat="45.33301" lon="6.60265">
        <ele>2623.72</ele>
        <time>2014-01-31T13:38:35Z</time>
      </trkpt>
      <trkpt lat="45.33286" lon="6.60284">
        <ele>2627.68</ele>
        <time>2014-01-31T13:38:39Z</time>
      </trkpt>
      <trkpt lat="45.33271" lon="6.60304">
        <ele>2631.22</ele>
        <time>2014-01-31T13:38:43Z</time>
      </trkpt>
      <trkpt lat="45.33254" lon="6.60325">
        <ele>2645.4</ele>
        <time>2014-01-31T13:38:47Z</time>
      </trkpt>
      <trkpt lat="45.33237" lon="6.60346">
        <ele>2662.24</ele>
        <time>2014-01-31T13:38:51Z</time>
      </trkpt>
      <trkpt lat="45.33218" lon="6.60366">
        <ele>2678.57</ele>
        <time>2014-01-31T13:38:55Z</time>
      </trkpt>
      <trkpt lat="45.332" lon="6.60385">
        <ele>2692.22</ele>
        <time>2014-01-31T13:38:59Z</time>
      </trkpt>
      <trkpt lat="45.33184" lon="6.60404">
        <ele>2706.63</ele>
        <time>2014-01-31T13:39:03Z</time>
      </trkpt>
      <trkpt lat="45.3317" lon="6.60424">
        <ele>2722.9</ele>
        <time>2014-01-31T13:39:07Z</time>
      </trkpt>
      <trkpt lat="45.33154" lon="6.60446">
        <ele>2736.32</ele>
        <time>2014-01-31T13:39:12Z</time>
      </trkpt>
      <trkpt lat="45.3317" lon="6.60461">
        <ele>2734.17</ele>
        <time>2014-01-31T13:39:18Z</time>
      </trkpt>
      <trkpt lat="45.33161" lon="6.60485">
        <ele>2745.83</ele>
        <time>2014-01-31T13:39:24Z</time>
      </trkpt>
      <trkpt lat="45.33147" lon="6.60504">
        <ele>2752.99</ele>
        <time>2014-01-31T13:39:28Z</time>
      </trkpt>
      <trkpt lat="45.33133" lon="6.60524">
        <ele>2758.59</ele>
        <time>2014-01-31T13:39:32Z</time>
      </trkpt>
      <trkpt lat="45.33118" lon="6.60543">
        <ele>2766.72</ele>
        <time>2014-01-31T13:39:37Z</time>
      </trkpt>
      <trkpt lat="45.33105" lon="6.60563">
        <ele>2777.68</ele>
        <time>2014-01-31T13:39:41Z</time>
      </trkpt>
      <trkpt lat="45.33089" lon="6.60583">
        <ele>2793.61</ele>
        <time>2014-01-31T13:39:45Z</time>
      </trkpt>
      <trkpt lat="45.33075" lon="6.60603">
        <ele>2808.99</ele>
        <time>2014-01-31T13:39:49Z</time>
      </trkpt>
      <trkpt lat="45.3306" lon="6.60622">
        <ele>2823.77</ele>
        <time>2014-01-31T13:39:53Z</time>
      </trkpt>
      <trkpt lat="45.33044" lon="6.60642">
        <ele>2839.34</ele>
        <time>2014-01-31T13:39:57Z</time>
      </trkpt>
      <trkpt lat="45.33028" lon="6.60661">
        <ele>2852.62</ele>
        <time>2014-01-31T13:40:01Z</time>
      </trkpt>
      <trkpt lat="45.33013" lon="6.60678">
        <ele>2869.81</ele>
        <time>2014-01-31T13:40:05Z</time>
      </trkpt>
      <trkpt lat="45.32997" lon="6.60696">
        <ele>2889.7</ele>
        <time>2014-01-31T13:40:09Z</time>
      </trkpt>
      <trkpt lat="45.32981" lon="6.60714">
        <ele>2905.16</ele>
        <time>2014-01-31T13:40:13Z</time>
      </trkpt>
      <trkpt lat="45.32967" lon="6.60736">
        <ele>2924.11</ele>
        <time>2014-01-31T13:40:18Z</time>
      </trkpt>
      <trkpt lat="45.32961" lon="6.60761">
        <ele>2937.96</ele>
        <time>2014-01-31T13:40:24Z</time>
      </trkpt>
      <trkpt lat="45.32972" lon="6.60784">
        <ele>2937.03</ele>
        <time>2014-01-31T13:40:30Z</time>
      </trkpt>
      <trkpt lat="45.32962" lon="6.60809">
        <ele>2934.21</ele>
        <time>2014-01-31T13:40:36Z</time>
      </trkpt>
      <trkpt lat="45.32947" lon="6.60832">
        <ele>2927.14</ele>
        <time>2014-01-31T13:40:41Z</time>
      </trkpt>
      <trkpt lat="45.32934" lon="6.60851">
        <ele>2925.3</ele>
        <time>2014-01-31T13:40:45Z</time>
      </trkpt>
      <trkpt lat="45.3292" lon="6.6087">
        <ele>2924.61</ele>
        <time>2014-01-31T13:40:49Z</time>
      </trkpt>
      <trkpt lat="45.32906" lon="6.6089">
        <ele>2919.81</ele>
        <time>2014-01-31T13:40:53Z</time>
      </trkpt>
      <trkpt lat="45.32893" lon="6.6091">
        <ele>2922.08</ele>
        <time>2014-01-31T13:40:57Z</time>
      </trkpt>
      <trkpt lat="45.3288" lon="6.60929">
        <ele>2924.91</ele>
        <time>2014-01-31T13:41:01Z</time>
      </trkpt>
      <trkpt lat="45.32868" lon="6.60949">
        <ele>2932.37</ele>
        <time>2014-01-31T13:41:05Z</time>
      </trkpt>
      <trkpt lat="45.32855" lon="6.60968">
        <ele>2926.8</ele>
        <time>2014-01-31T13:41:09Z</time>
      </trkpt>
      <trkpt lat="45.32862" lon="6.60941">
        <ele>2938.21</ele>
        <time>2014-01-31T13:42:53Z</time>
      </trkpt>
      <trkpt lat="45.32879" lon="6.60917">
        <ele>2925.53</ele>
        <time>2014-01-31T13:42:58Z</time>
      </trkpt>
      <trkpt lat="45.32896" lon="6.60902">
        <ele>2922.61</ele>
        <time>2014-01-31T13:43:01Z</time>
      </trkpt>
      <trkpt lat="45.32911" lon="6.60888">
        <ele>2917.79</ele>
        <time>2014-01-31T13:43:04Z</time>
      </trkpt>
      <trkpt lat="45.32928" lon="6.60868">
        <ele>2920.01</ele>
        <time>2014-01-31T13:43:08Z</time>
      </trkpt>
      <trkpt lat="45.32946" lon="6.60857">
        <ele>2914.05</ele>
        <time>2014-01-31T13:43:13Z</time>
      </trkpt>
      <trkpt lat="45.32967" lon="6.60847">
        <ele>2907.85</ele>
        <time>2014-01-31T13:43:18Z</time>
      </trkpt>
      <trkpt lat="45.32987" lon="6.60854">
        <ele>2898.73</ele>
        <time>2014-01-31T13:43:23Z</time>
      </trkpt>
      <trkpt lat="45.32985" lon="6.60879">
        <ele>2885.44</ele>
        <time>2014-01-31T13:43:28Z</time>
      </trkpt>
      <trkpt lat="45.32969" lon="6.60901">
        <ele>2878.84</ele>
        <time>2014-01-31T13:43:31Z</time>
      </trkpt>
      <trkpt lat="45.32985" lon="6.60921">
        <ele>2865.44</ele>
        <time>2014-01-31T13:43:38Z</time>
      </trkpt>
      <trkpt lat="45.32973" lon="6.60944">
        <ele>2862.01</ele>
        <time>2014-01-31T13:43:42Z</time>
      </trkpt>
      <trkpt lat="45.32982" lon="6.60966">
        <ele>2853.96</ele>
        <time>2014-01-31T13:43:47Z</time>
      </trkpt>
      <trkpt lat="45.32977" lon="6.60993">
        <ele>2850.55</ele>
        <time>2014-01-31T13:43:51Z</time>
      </trkpt>
      <trkpt lat="45.32991" lon="6.61011">
        <ele>2841.87</ele>
        <time>2014-01-31T13:43:55Z</time>
      </trkpt>
      <trkpt lat="45.32974" lon="6.61032">
        <ele>2842.69</ele>
        <time>2014-01-31T13:44:00Z</time>
      </trkpt>
      <trkpt lat="45.3298" lon="6.61058">
        <ele>2833.74</ele>
        <time>2014-01-31T13:44:05Z</time>
      </trkpt>
      <trkpt lat="45.32971" lon="6.61084">
        <ele>2826.64</ele>
        <time>2014-01-31T13:44:09Z</time>
      </trkpt>
      <trkpt lat="45.32982" lon="6.61108">
        <ele>2814.74</ele>
        <time>2014-01-31T13:44:16Z</time>
      </trkpt>
      <trkpt lat="45.3298" lon="6.61135">
        <ele>2812.61</ele>
        <time>2014-01-31T13:44:20Z</time>
      </trkpt>
      <trkpt lat="45.33001" lon="6.61139">
        <ele>2799.65</ele>
        <time>2014-01-31T13:44:25Z</time>
      </trkpt>
      <trkpt lat="45.33007" lon="6.61165">
        <ele>2798.77</ele>
        <time>2014-01-31T13:44:29Z</time>
      </trkpt>
      <trkpt lat="45.33022" lon="6.61183">
        <ele>2790.7</ele>
        <time>2014-01-31T13:44:34Z</time>
      </trkpt>
      <trkpt lat="45.33032" lon="6.61206">
        <ele>2784.04</ele>
        <time>2014-01-31T13:44:39Z</time>
      </trkpt>
      <trkpt lat="45.33043" lon="6.61176">
        <ele>2776.7</ele>
        <time>2014-01-31T13:44:43Z</time>
      </trkpt>
      <trkpt lat="45.33053" lon="6.6115">
        <ele>2774.22</ele>
        <time>2014-01-31T13:44:46Z</time>
      </trkpt>
      <trkpt lat="45.33073" lon="6.6115">
        <ele>2766.53</ele>
        <time>2014-01-31T13:44:50Z</time>
      </trkpt>
      <trkpt lat="45.33094" lon="6.61141">
        <ele>2759.69</ele>
        <time>2014-01-31T13:44:55Z</time>
      </trkpt>
      <trkpt lat="45.33117" lon="6.61136">
        <ele>2751.41</ele>
        <time>2014-01-31T13:44:58Z</time>
      </trkpt>
      <trkpt lat="45.33139" lon="6.61128">
        <ele>2743.11</ele>
        <time>2014-01-31T13:45:01Z</time>
      </trkpt>
      <trkpt lat="45.3316" lon="6.61123">
        <ele>2740.19</ele>
        <time>2014-01-31T13:45:04Z</time>
      </trkpt>
      <trkpt lat="45.3318" lon="6.61107">
        <ele>2733.97</ele>
        <time>2014-01-31T13:45:08Z</time>
      </trkpt>
      <trkpt lat="45.332" lon="6.61094">
        <ele>2726.71</ele>
        <time>2014-01-31T13:45:13Z</time>
      </trkpt>
      <trkpt lat="45.33212" lon="6.61074">
        <ele>2722.67</ele>
        <time>2014-01-31T13:45:19Z</time>
      </trkpt>
      <trkpt lat="45.33231" lon="6.61062">
        <ele>2716.62</ele>
        <time>2014-01-31T13:45:24Z</time>
      </trkpt>
      <trkpt lat="45.33236" lon="6.61032">
        <ele>2711.92</ele>
        <time>2014-01-31T13:45:28Z</time>
      </trkpt>
      <trkpt lat="45.3325" lon="6.6105">
        <ele>2709.02</ele>
        <time>2014-01-31T13:45:35Z</time>
      </trkpt>
      <trkpt lat="45.33272" lon="6.61052">
        <ele>2700.37</ele>
        <time>2014-01-31T13:45:40Z</time>
      </trkpt>
      <trkpt lat="45.33291" lon="6.61053">
        <ele>2691.75</ele>
        <time>2014-01-31T13:45:44Z</time>
      </trkpt>
      <trkpt lat="45.33311" lon="6.61054">
        <ele>2682.29</ele>
        <time>2014-01-31T13:45:51Z</time>
      </trkpt>
      <trkpt lat="45.33332" lon="6.61061">
        <ele>2673.1</ele>
        <time>2014-01-31T13:45:55Z</time>
      </trkpt>
      <trkpt lat="45.3335" lon="6.61054">
        <ele>2668.61</ele>
        <time>2014-01-31T13:46:00Z</time>
      </trkpt>
      <trkpt lat="45.33352" lon="6.61026">
        <ele>2658.88</ele>
        <time>2014-01-31T13:46:08Z</time>
      </trkpt>
      <trkpt lat="45.3337" lon="6.61026">
        <ele>2651.29</ele>
        <time>2014-01-31T13:46:15Z</time>
      </trkpt>
      <trkpt lat="45.33383" lon="6.61005">
        <ele>2638.51</ele>
        <time>2014-01-31T13:46:22Z</time>
      </trkpt>
      <trkpt lat="45.33384" lon="6.6098">
        <ele>2626.64</ele>
        <time>2014-01-31T13:46:30Z</time>
      </trkpt>
      <trkpt lat="45.3339" lon="6.60949">
        <ele>2612.62</ele>
        <time>2014-01-31T13:46:35Z</time>
      </trkpt>
      <trkpt lat="45.33379" lon="6.60922">
        <ele>2611.12</ele>
        <time>2014-01-31T13:46:39Z</time>
      </trkpt>
      <trkpt lat="45.33371" lon="6.60893">
        <ele>2611.25</ele>
        <time>2014-01-31T13:46:42Z</time>
      </trkpt>
      <trkpt lat="45.33374" lon="6.60868">
        <ele>2606.51</ele>
        <time>2014-01-31T13:46:44Z</time>
      </trkpt>
      <trkpt lat="45.33383" lon="6.60839">
        <ele>2602.89</ele>
        <time>2014-01-31T13:46:47Z</time>
      </trkpt>
      <trkpt lat="45.33407" lon="6.60841">
        <ele>2592.24</ele>
        <time>2014-01-31T13:46:50Z</time>
      </trkpt>
      <trkpt lat="45.3342" lon="6.60818">
        <ele>2586.36</ele>
        <time>2014-01-31T13:46:53Z</time>
      </trkpt>
      <trkpt lat="45.33426" lon="6.6079">
        <ele>2583.81</ele>
        <time>2014-01-31T13:46:57Z</time>
      </trkpt>
      <trkpt lat="45.33444" lon="6.60783">
        <ele>2575.61</ele>
        <time>2014-01-31T13:47:01Z</time>
      </trkpt>
      <trkpt lat="45.33445" lon="6.60754">
        <ele>2576.4</ele>
        <time>2014-01-31T13:47:05Z</time>
      </trkpt>
      <trkpt lat="45.33466" lon="6.60744">
        <ele>2570.38</ele>
        <time>2014-01-31T13:47:09Z</time>
      </trkpt>
      <trkpt lat="45.33481" lon="6.60731">
        <ele>2564.53</ele>
        <time>2014-01-31T13:47:13Z</time>
      </trkpt>
      <trkpt lat="45.33496" lon="6.60708">
        <ele>2556.04</ele>
        <time>2014-01-31T13:47:19Z</time>
      </trkpt>
      <trkpt lat="45.33506" lon="6.60687">
        <ele>2549.3</ele>
        <time>2014-01-31T13:47:22Z</time>
      </trkpt>
      <trkpt lat="45.3352" lon="6.60663">
        <ele>2539.21</ele>
        <time>2014-01-31T13:47:27Z</time>
      </trkpt>
      <trkpt lat="45.33525" lon="6.60633">
        <ele>2532.87</ele>
        <time>2014-01-31T13:47:31Z</time>
      </trkpt>
      <trkpt lat="45.33543" lon="6.6062">
        <ele>2523.61</ele>
        <time>2014-01-31T13:47:36Z</time>
      </trkpt>
      <trkpt lat="45.33558" lon="6.606">
        <ele>2517.85</ele>
        <time>2014-01-31T13:47:41Z</time>
      </trkpt>
      <trkpt lat="45.33567" lon="6.60576">
        <ele>2514.03</ele>
        <time>2014-01-31T13:47:46Z</time>
      </trkpt>
      <trkpt lat="45.33587" lon="6.60566">
        <ele>2503.58</ele>
        <time>2014-01-31T13:47:50Z</time>
      </trkpt>
      <trkpt lat="45.33597" lon="6.60544">
        <ele>2501.5</ele>
        <time>2014-01-31T13:47:54Z</time>
      </trkpt>
      <trkpt lat="45.33615" lon="6.60538">
        <ele>2489.28</ele>
        <time>2014-01-31T13:47:59Z</time>
      </trkpt>
      <trkpt lat="45.33635" lon="6.60537">
        <ele>2479.69</ele>
        <time>2014-01-31T13:48:04Z</time>
      </trkpt>
      <trkpt lat="45.33654" lon="6.60529">
        <ele>2471.34</ele>
        <time>2014-01-31T13:48:11Z</time>
      </trkpt>
      <trkpt lat="45.33674" lon="6.60519">
        <ele>2463.73</ele>
        <time>2014-01-31T13:48:17Z</time>
      </trkpt>
      <trkpt lat="45.33692" lon="6.60518">
        <ele>2461.12</ele>
        <time>2014-01-31T13:48:21Z</time>
      </trkpt>
      <trkpt lat="45.33697" lon="6.6049">
        <ele>2454.61</ele>
        <time>2014-01-31T13:48:28Z</time>
      </trkpt>
      <trkpt lat="45.33719" lon="6.60485">
        <ele>2450.25</ele>
        <time>2014-01-31T13:48:33Z</time>
      </trkpt>
      <trkpt lat="45.33739" lon="6.60477">
        <ele>2445.16</ele>
        <time>2014-01-31T13:48:38Z</time>
      </trkpt>
      <trkpt lat="45.33757" lon="6.60473">
        <ele>2441.79</ele>
        <time>2014-01-31T13:48:44Z</time>
      </trkpt>
      <trkpt lat="45.33742" lon="6.60453">
        <ele>2437.17</ele>
        <time>2014-01-31T13:48:53Z</time>
      </trkpt>
      <trkpt lat="45.33726" lon="6.60438">
        <ele>2437.33</ele>
        <time>2014-01-31T13:48:57Z</time>
      </trkpt>
      <trkpt lat="45.33731" lon="6.60411">
        <ele>2435.55</ele>
        <time>2014-01-31T13:49:04Z</time>
      </trkpt>
      <trkpt lat="45.3375" lon="6.60399">
        <ele>2426.09</ele>
        <time>2014-01-31T13:49:10Z</time>
      </trkpt>
      <trkpt lat="45.3376" lon="6.60375">
        <ele>2421.43</ele>
        <time>2014-01-31T13:49:15Z</time>
      </trkpt>
      <trkpt lat="45.3378" lon="6.60368">
        <ele>2412.14</ele>
        <time>2014-01-31T13:49:20Z</time>
      </trkpt>
      <trkpt lat="45.33791" lon="6.60346">
        <ele>2407.13</ele>
        <time>2014-01-31T13:49:24Z</time>
      </trkpt>
      <trkpt lat="45.33806" lon="6.60362">
        <ele>2399.6</ele>
        <time>2014-01-31T13:49:28Z</time>
      </trkpt>
      <trkpt lat="45.33825" lon="6.60347">
        <ele>2392.03</ele>
        <time>2014-01-31T13:49:34Z</time>
      </trkpt>
      <trkpt lat="45.33838" lon="6.60367">
        <ele>2384.78</ele>
        <time>2014-01-31T13:49:38Z</time>
      </trkpt>
      <trkpt lat="45.33848" lon="6.60389">
        <ele>2379.4</ele>
        <time>2014-01-31T13:49:42Z</time>
      </trkpt>
      <trkpt lat="45.3386" lon="6.60408">
        <ele>2376.82</ele>
        <time>2014-01-31T13:49:46Z</time>
      </trkpt>
      <trkpt lat="45.33877" lon="6.60424">
        <ele>2373.46</ele>
        <time>2014-01-31T13:49:52Z</time>
      </trkpt>
      <trkpt lat="45.33885" lon="6.60397">
        <ele>2364.2</ele>
        <time>2014-01-31T13:50:00Z</time>
      </trkpt>
      <trkpt lat="45.33883" lon="6.60369">
        <ele>2359.47</ele>
        <time>2014-01-31T13:50:04Z</time>
      </trkpt>
      <trkpt lat="45.33891" lon="6.60344">
        <ele>2354.49</ele>
        <time>2014-01-31T13:50:12Z</time>
      </trkpt>
      <trkpt lat="45.3391" lon="6.60331">
        <ele>2348.34</ele>
        <time>2014-01-31T13:50:17Z</time>
      </trkpt>
      <trkpt lat="45.33913" lon="6.603">
        <ele>2345.73</ele>
        <time>2014-01-31T13:50:22Z</time>
      </trkpt>
      <trkpt lat="45.33935" lon="6.60301">
        <ele>2337.59</ele>
        <time>2014-01-31T13:50:27Z</time>
      </trkpt>
      <trkpt lat="45.33954" lon="6.60295">
        <ele>2329.1</ele>
        <time>2014-01-31T13:50:32Z</time>
      </trkpt>
      <trkpt lat="45.33967" lon="6.60276">
        <ele>2321.83</ele>
        <time>2014-01-31T13:50:37Z</time>
      </trkpt>
      <trkpt lat="45.33987" lon="6.60275">
        <ele>2309.89</ele>
        <time>2014-01-31T13:50:42Z</time>
      </trkpt>
      <trkpt lat="45.34005" lon="6.60259">
        <ele>2301.23</ele>
        <time>2014-01-31T13:50:47Z</time>
      </trkpt>
      <trkpt lat="45.34023" lon="6.60249">
        <ele>2291.07</ele>
        <time>2014-01-31T13:50:51Z</time>
      </trkpt>
      <trkpt lat="45.3404" lon="6.60232">
        <ele>2284.16</ele>
        <time>2014-01-31T13:50:54Z</time>
      </trkpt>
      <trkpt lat="45.34061" lon="6.60225">
        <ele>2278.76</ele>
        <time>2014-01-31T13:50:57Z</time>
      </trkpt>
      <trkpt lat="45.34081" lon="6.60216">
        <ele>2277.26</ele>
        <time>2014-01-31T13:51:00Z</time>
      </trkpt>
      <trkpt lat="45.34103" lon="6.60213">
        <ele>2268.99</ele>
        <time>2014-01-31T13:51:04Z</time>
      </trkpt>
      <trkpt lat="45.34128" lon="6.60204">
        <ele>2255.97</ele>
        <time>2014-01-31T13:51:07Z</time>
      </trkpt>
      <trkpt lat="45.34142" lon="6.60187">
        <ele>2245.75</ele>
        <time>2014-01-31T13:51:09Z</time>
      </trkpt>
      <trkpt lat="45.34157" lon="6.60161">
        <ele>2241.73</ele>
        <time>2014-01-31T13:51:11Z</time>
      </trkpt>
      <trkpt lat="45.34177" lon="6.60147">
        <ele>2238.95</ele>
        <time>2014-01-31T13:51:13Z</time>
      </trkpt>
      <trkpt lat="45.34196" lon="6.6014">
        <ele>2237.91</ele>
        <time>2014-01-31T13:51:15Z</time>
      </trkpt>
      <trkpt lat="45.34213" lon="6.6011">
        <ele>2229.15</ele>
        <time>2014-01-31T13:51:18Z</time>
      </trkpt>
      <trkpt lat="45.34232" lon="6.60096">
        <ele>2227.85</ele>
        <time>2014-01-31T13:51:21Z</time>
      </trkpt>
      <trkpt lat="45.34249" lon="6.60076">
        <ele>2226.36</ele>
        <time>2014-01-31T13:51:25Z</time>
      </trkpt>
      <trkpt lat="45.34269" lon="6.6006">
        <ele>2223.54</ele>
        <time>2014-01-31T13:51:29Z</time>
      </trkpt>
      <trkpt lat="45.34284" lon="6.60041">
        <ele>2222.81</ele>
        <time>2014-01-31T13:51:33Z</time>
      </trkpt>
      <trkpt lat="45.34304" lon="6.60038">
        <ele>2218.61</ele>
        <time>2014-01-31T13:51:38Z</time>
      </trkpt>
      <trkpt lat="45.34323" lon="6.60023">
        <ele>2209.06</ele>
        <time>2014-01-31T13:51:44Z</time>
      </trkpt>
      <trkpt lat="45.34332" lon="6.6">
        <ele>2203.62</ele>
        <time>2014-01-31T13:51:48Z</time>
      </trkpt>
      <trkpt lat="45.34349" lon="6.5999">
        <ele>2193.68</ele>
        <time>2014-01-31T13:51:51Z</time>
      </trkpt>
      <trkpt lat="45.34351" lon="6.59956">
        <ele>2183.52</ele>
        <time>2014-01-31T13:51:55Z</time>
      </trkpt>
      <trkpt lat="45.34371" lon="6.59942">
        <ele>2171.25</ele>
        <time>2014-01-31T13:51:59Z</time>
      </trkpt>
      <trkpt lat="45.3437" lon="6.59916">
        <ele>2163.66</ele>
        <time>2014-01-31T13:52:02Z</time>
      </trkpt>
      <trkpt lat="45.34376" lon="6.5989">
        <ele>2152.07</ele>
        <time>2014-01-31T13:52:06Z</time>
      </trkpt>
      <trkpt lat="45.34387" lon="6.59862">
        <ele>2146.09</ele>
        <time>2014-01-31T13:52:09Z</time>
      </trkpt>
      <trkpt lat="45.34391" lon="6.59835">
        <ele>2142.77</ele>
        <time>2014-01-31T13:52:12Z</time>
      </trkpt>
      <trkpt lat="45.34411" lon="6.59829">
        <ele>2137.59</ele>
        <time>2014-01-31T13:52:15Z</time>
      </trkpt>
      <trkpt lat="45.34421" lon="6.59802">
        <ele>2130.85</ele>
        <time>2014-01-31T13:52:19Z</time>
      </trkpt>
      <trkpt lat="45.34443" lon="6.59789">
        <ele>2122.46</ele>
        <time>2014-01-31T13:52:23Z</time>
      </trkpt>
      <trkpt lat="45.34453" lon="6.59763">
        <ele>2115.54</ele>
        <time>2014-01-31T13:52:27Z</time>
      </trkpt>
      <trkpt lat="45.34473" lon="6.59749">
        <ele>2107.72</ele>
        <time>2014-01-31T13:52:31Z</time>
      </trkpt>
      <trkpt lat="45.34475" lon="6.59721">
        <ele>2102.95</ele>
        <time>2014-01-31T13:52:35Z</time>
      </trkpt>
      <trkpt lat="45.34481" lon="6.59694">
        <ele>2097.6</ele>
        <time>2014-01-31T13:52:39Z</time>
      </trkpt>
      <trkpt lat="45.34494" lon="6.59668">
        <ele>2090.84</ele>
        <time>2014-01-31T13:52:43Z</time>
      </trkpt>
      <trkpt lat="45.34512" lon="6.5966">
        <ele>2083.12</ele>
        <time>2014-01-31T13:52:46Z</time>
      </trkpt>
      <trkpt lat="45.34519" lon="6.59632">
        <ele>2073.59</ele>
        <time>2014-01-31T13:52:51Z</time>
      </trkpt>
      <trkpt lat="45.34521" lon="6.59606">
        <ele>2065.88</ele>
        <time>2014-01-31T13:52:56Z</time>
      </trkpt>
      <trkpt lat="45.34539" lon="6.59589">
        <ele>2056.56</ele>
        <time>2014-01-31T13:53:02Z</time>
      </trkpt>
      <trkpt lat="45.3456" lon="6.59574">
        <ele>2047.37</ele>
        <time>2014-01-31T13:53:06Z</time>
      </trkpt>
      <trkpt lat="45.34569" lon="6.59544">
        <ele>2034.55</ele>
        <time>2014-01-31T13:53:11Z</time>
      </trkpt>
      <trkpt lat="45.34581" lon="6.59513">
        <ele>2024</ele>
        <time>2014-01-31T13:53:14Z</time>
      </trkpt>
      <trkpt lat="45.34586" lon="6.59479">
        <ele>2020.88</ele>
        <time>2014-01-31T13:53:17Z</time>
      </trkpt>
      <trkpt lat="45.34586" lon="6.59451">
        <ele>2019.86</ele>
        <time>2014-01-31T13:53:20Z</time>
      </trkpt>
      <trkpt lat="45.34598" lon="6.59428">
        <ele>2013.78</ele>
        <time>2014-01-31T13:53:24Z</time>
      </trkpt>
      <trkpt lat="45.34593" lon="6.59397">
        <ele>2007.65</ele>
        <time>2014-01-31T13:53:28Z</time>
      </trkpt>
      <trkpt lat="45.34597" lon="6.59366">
        <ele>1991.87</ele>
        <time>2014-01-31T13:53:31Z</time>
      </trkpt>
      <trkpt lat="45.34598" lon="6.59332">
        <ele>1979.09</ele>
        <time>2014-01-31T13:53:34Z</time>
      </trkpt>
      <trkpt lat="45.34604" lon="6.59305">
        <ele>1980.61</ele>
        <time>2014-01-31T13:53:36Z</time>
      </trkpt>
      <trkpt lat="45.34616" lon="6.59278">
        <ele>1983.31</ele>
        <time>2014-01-31T13:53:38Z</time>
      </trkpt>
      <trkpt lat="45.34634" lon="6.59266">
        <ele>1980.96</ele>
        <time>2014-01-31T13:53:40Z</time>
      </trkpt>
      <trkpt lat="45.34654" lon="6.59262">
        <ele>1975.59</ele>
        <time>2014-01-31T13:53:42Z</time>
      </trkpt>
      <trkpt lat="45.34682" lon="6.59266">
        <ele>1966.33</ele>
        <time>2014-01-31T13:53:44Z</time>
      </trkpt>
      <trkpt lat="45.34711" lon="6.59272">
        <ele>1959.09</ele>
        <time>2014-01-31T13:53:46Z</time>
      </trkpt>
      <trkpt lat="45.34738" lon="6.59279">
        <ele>1955.95</ele>
        <time>2014-01-31T13:53:48Z</time>
      </trkpt>
      <trkpt lat="45.3476" lon="6.59284">
        <ele>1954.57</ele>
        <time>2014-01-31T13:53:50Z</time>
      </trkpt>
      <trkpt lat="45.34781" lon="6.59284">
        <ele>1953.54</ele>
        <time>2014-01-31T13:53:52Z</time>
      </trkpt>
      <trkpt lat="45.34801" lon="6.59283">
        <ele>1949.18</ele>
        <time>2014-01-31T13:53:54Z</time>
      </trkpt>
      <trkpt lat="45.3482" lon="6.59279">
        <ele>1947.25</ele>
        <time>2014-01-31T13:53:56Z</time>
      </trkpt>
      <trkpt lat="45.34838" lon="6.59274">
        <ele>1945.96</ele>
        <time>2014-01-31T13:53:58Z</time>
      </trkpt>
      <trkpt lat="45.34861" lon="6.59265">
        <ele>1945.4</ele>
        <time>2014-01-31T13:54:01Z</time>
      </trkpt>
      <trkpt lat="45.34898" lon="6.59212">
        <ele>1937.47</ele>
        <time>2014-01-31T13:54:09Z</time>
      </trkpt>
      <trkpt lat="45.34916" lon="6.59193">
        <ele>1924.49</ele>
        <time>2014-01-31T13:54:11Z</time>
      </trkpt>
      <trkpt lat="45.34935" lon="6.59175">
        <ele>1919.78</ele>
        <time>2014-01-31T13:54:13Z</time>
      </trkpt>
      <trkpt lat="45.34952" lon="6.59155">
        <ele>1919.27</ele>
        <time>2014-01-31T13:54:15Z</time>
      </trkpt>
      <trkpt lat="45.34969" lon="6.5914">
        <ele>1915.42</ele>
        <time>2014-01-31T13:54:17Z</time>
      </trkpt>
      <trkpt lat="45.34982" lon="6.59159">
        <ele>1909.44</ele>
        <time>2014-01-31T13:54:20Z</time>
      </trkpt>
      <trkpt lat="45.34979" lon="6.59196">
        <ele>1906.14</ele>
        <time>2014-01-31T13:54:23Z</time>
      </trkpt>
      <trkpt lat="45.34983" lon="6.59223">
        <ele>1903.8</ele>
        <time>2014-01-31T13:54:26Z</time>
      </trkpt>
      <trkpt lat="45.34966" lon="6.59232">
        <ele>1907.28</ele>
        <time>2014-01-31T13:55:00Z</time>
      </trkpt>
      <trkpt lat="45.34946" lon="6.59233">
        <ele>1914.55</ele>
        <time>2014-01-31T13:55:12Z</time>
      </trkpt>
      <trkpt lat="45.34926" lon="6.59233">
        <ele>1920.64</ele>
        <time>2014-01-31T13:55:20Z</time>
      </trkpt>
      <trkpt lat="45.34908" lon="6.59233">
        <ele>1929.28</ele>
        <time>2014-01-31T13:55:27Z</time>
      </trkpt>
      <trkpt lat="45.34889" lon="6.59233">
        <ele>1942.51</ele>
        <time>2014-01-31T13:55:35Z</time>
      </trkpt>
      <trkpt lat="45.3487" lon="6.59232">
        <ele>1949.8</ele>
        <time>2014-01-31T13:55:43Z</time>
      </trkpt>
      <trkpt lat="45.3485" lon="6.59231">
        <ele>1954.53</ele>
        <time>2014-01-31T13:55:51Z</time>
      </trkpt>
      <trkpt lat="45.34831" lon="6.59223">
        <ele>1958.87</ele>
        <time>2014-01-31T13:55:58Z</time>
      </trkpt>
      <trkpt lat="45.3481" lon="6.59218">
        <ele>1961.86</ele>
        <time>2014-01-31T13:56:05Z</time>
      </trkpt>
      <trkpt lat="45.34792" lon="6.59213">
        <ele>1966.52</ele>
        <time>2014-01-31T13:56:12Z</time>
      </trkpt>
      <trkpt lat="45.34774" lon="6.59208">
        <ele>1971.43</ele>
        <time>2014-01-31T13:56:19Z</time>
      </trkpt>
      <trkpt lat="45.34754" lon="6.59203">
        <ele>1976.64</ele>
        <time>2014-01-31T13:56:26Z</time>
      </trkpt>
      <trkpt lat="45.34734" lon="6.59202">
        <ele>1979.74</ele>
        <time>2014-01-31T13:56:34Z</time>
      </trkpt>
      <trkpt lat="45.34716" lon="6.59199">
        <ele>1982.25</ele>
        <time>2014-01-31T13:56:40Z</time>
      </trkpt>
      <trkpt lat="45.34697" lon="6.59194">
        <ele>1984.07</ele>
        <time>2014-01-31T13:56:46Z</time>
      </trkpt>
      <trkpt lat="45.34678" lon="6.5919">
        <ele>1987.66</ele>
        <time>2014-01-31T13:56:51Z</time>
      </trkpt>
      <trkpt lat="45.34659" lon="6.59187">
        <ele>1992.81</ele>
        <time>2014-01-31T13:56:57Z</time>
      </trkpt>
      <trkpt lat="45.34641" lon="6.5918">
        <ele>2000.42</ele>
        <time>2014-01-31T13:57:03Z</time>
      </trkpt>
      <trkpt lat="45.34623" lon="6.59171">
        <ele>2006.18</ele>
        <time>2014-01-31T13:57:09Z</time>
      </trkpt>
      <trkpt lat="45.34605" lon="6.59162">
        <ele>2011.51</ele>
        <time>2014-01-31T13:57:16Z</time>
      </trkpt>
      <trkpt lat="45.34585" lon="6.59157">
        <ele>2015.69</ele>
        <time>2014-01-31T13:57:23Z</time>
      </trkpt>
      <trkpt lat="45.34565" lon="6.59157">
        <ele>2017.78</ele>
        <time>2014-01-31T13:57:31Z</time>
      </trkpt>
      <trkpt lat="45.34545" lon="6.59156">
        <ele>2018.34</ele>
        <time>2014-01-31T13:57:39Z</time>
      </trkpt>
      <trkpt lat="45.34526" lon="6.59153">
        <ele>2017.87</ele>
        <time>2014-01-31T13:57:45Z</time>
      </trkpt>
      <trkpt lat="45.34508" lon="6.59148">
        <ele>2017.23</ele>
        <time>2014-01-31T13:57:51Z</time>
      </trkpt>
      <trkpt lat="45.34488" lon="6.59143">
        <ele>2019.88</ele>
        <time>2014-01-31T13:57:58Z</time>
      </trkpt>
      <trkpt lat="45.3447" lon="6.59138">
        <ele>2024.76</ele>
        <time>2014-01-31T13:58:04Z</time>
      </trkpt>
      <trkpt lat="45.34452" lon="6.59133">
        <ele>2028.98</ele>
        <time>2014-01-31T13:58:10Z</time>
      </trkpt>
      <trkpt lat="45.34432" lon="6.59128">
        <ele>2039.34</ele>
        <time>2014-01-31T13:58:17Z</time>
      </trkpt>
      <trkpt lat="45.34413" lon="6.59125">
        <ele>2051.33</ele>
        <time>2014-01-31T13:58:24Z</time>
      </trkpt>
      <trkpt lat="45.34394" lon="6.59123">
        <ele>2061.93</ele>
        <time>2014-01-31T13:58:31Z</time>
      </trkpt>
      <trkpt lat="45.34374" lon="6.5912">
        <ele>2074.81</ele>
        <time>2014-01-31T13:58:39Z</time>
      </trkpt>
      <trkpt lat="45.34356" lon="6.5912">
        <ele>2085.63</ele>
        <time>2014-01-31T13:58:47Z</time>
      </trkpt>
      <trkpt lat="45.34336" lon="6.59119">
        <ele>2092.55</ele>
        <time>2014-01-31T13:58:55Z</time>
      </trkpt>
      <trkpt lat="45.34318" lon="6.59115">
        <ele>2099.46</ele>
        <time>2014-01-31T13:59:03Z</time>
      </trkpt>
      <trkpt lat="45.34299" lon="6.59108">
        <ele>2106.02</ele>
        <time>2014-01-31T13:59:08Z</time>
      </trkpt>
      <trkpt lat="45.34282" lon="6.59098">
        <ele>2112.53</ele>
        <time>2014-01-31T13:59:13Z</time>
      </trkpt>
      <trkpt lat="45.34264" lon="6.59094">
        <ele>2117.16</ele>
        <time>2014-01-31T13:59:20Z</time>
      </trkpt>
      <trkpt lat="45.34245" lon="6.59091">
        <ele>2119.77</ele>
        <time>2014-01-31T13:59:28Z</time>
      </trkpt>
      <trkpt lat="45.34226" lon="6.59087">
        <ele>2119.98</ele>
        <time>2014-01-31T13:59:35Z</time>
      </trkpt>
      <trkpt lat="45.34209" lon="6.59069">
        <ele>2120</ele>
        <time>2014-01-31T13:59:43Z</time>
      </trkpt>
      <trkpt lat="45.34195" lon="6.59046">
        <ele>2120</ele>
        <time>2014-01-31T13:59:48Z</time>
      </trkpt>
      <trkpt lat="45.34181" lon="6.59029">
        <ele>2120</ele>
        <time>2014-01-31T13:59:51Z</time>
      </trkpt>
      <trkpt lat="45.34164" lon="6.59008">
        <ele>2119.5</ele>
        <time>2014-01-31T13:59:54Z</time>
      </trkpt>
      <trkpt lat="45.34147" lon="6.58993">
        <ele>2117.39</ele>
        <time>2014-01-31T13:59:57Z</time>
      </trkpt>
      <trkpt lat="45.3413" lon="6.5898">
        <ele>2114.5</ele>
        <time>2014-01-31T14:00:01Z</time>
      </trkpt>
      <trkpt lat="45.34118" lon="6.5896">
        <ele>2112.64</ele>
        <time>2014-01-31T14:00:06Z</time>
      </trkpt>
      <trkpt lat="45.34116" lon="6.58932">
        <ele>2113.63</ele>
        <time>2014-01-31T14:00:37Z</time>
      </trkpt>
      <trkpt lat="45.34133" lon="6.58941">
        <ele>2116.96</ele>
        <time>2014-01-31T14:00:49Z</time>
      </trkpt>
      <trkpt lat="45.34152" lon="6.58945">
        <ele>2118.93</ele>
        <time>2014-01-31T14:01:16Z</time>
      </trkpt>
      <trkpt lat="45.34171" lon="6.58951">
        <ele>2120.35</ele>
        <time>2014-01-31T14:01:35Z</time>
      </trkpt>
      <trkpt lat="45.34189" lon="6.58958">
        <ele>2121.26</ele>
        <time>2014-01-31T14:01:55Z</time>
      </trkpt>
      <trkpt lat="45.34207" lon="6.58962">
        <ele>2121.61</ele>
        <time>2014-01-31T14:02:10Z</time>
      </trkpt>
      <trkpt lat="45.34226" lon="6.58972">
        <ele>2120.1</ele>
        <time>2014-01-31T14:02:22Z</time>
      </trkpt>
      <trkpt lat="45.34243" lon="6.58981">
        <ele>2120</ele>
        <time>2014-01-31T14:02:31Z</time>
      </trkpt>
      <trkpt lat="45.34263" lon="6.58982">
        <ele>2120.32</ele>
        <time>2014-01-31T14:02:39Z</time>
      </trkpt>
      <trkpt lat="45.34283" lon="6.58975">
        <ele>2120.48</ele>
        <time>2014-01-31T14:02:45Z</time>
      </trkpt>
      <trkpt lat="45.34302" lon="6.58965">
        <ele>2120.09</ele>
        <time>2014-01-31T14:02:53Z</time>
      </trkpt>
      <trkpt lat="45.34323" lon="6.58954">
        <ele>2116.17</ele>
        <time>2014-01-31T14:02:59Z</time>
      </trkpt>
      <trkpt lat="45.3434" lon="6.58943">
        <ele>2111.64</ele>
        <time>2014-01-31T14:03:02Z</time>
      </trkpt>
      <trkpt lat="45.34353" lon="6.58915">
        <ele>2109.26</ele>
        <time>2014-01-31T14:03:06Z</time>
      </trkpt>
      <trkpt lat="45.34369" lon="6.58895">
        <ele>2101.01</ele>
        <time>2014-01-31T14:03:09Z</time>
      </trkpt>
      <trkpt lat="45.34386" lon="6.58871">
        <ele>2093.73</ele>
        <time>2014-01-31T14:03:12Z</time>
      </trkpt>
      <trkpt lat="45.34409" lon="6.58862">
        <ele>2089.82</ele>
        <time>2014-01-31T14:03:15Z</time>
      </trkpt>
      <trkpt lat="45.34428" lon="6.58863">
        <ele>2087.65</ele>
        <time>2014-01-31T14:03:18Z</time>
      </trkpt>
      <trkpt lat="45.34433" lon="6.589">
        <ele>2081.31</ele>
        <time>2014-01-31T14:03:22Z</time>
      </trkpt>
      <trkpt lat="45.34434" lon="6.58925">
        <ele>2074.26</ele>
        <time>2014-01-31T14:03:24Z</time>
      </trkpt>
      <trkpt lat="45.34422" lon="6.58955">
        <ele>2072.03</ele>
        <time>2014-01-31T14:03:27Z</time>
      </trkpt>
      <trkpt lat="45.34416" lon="6.58992">
        <ele>2067.47</ele>
        <time>2014-01-31T14:03:30Z</time>
      </trkpt>
      <trkpt lat="45.34417" lon="6.59021">
        <ele>2063.46</ele>
        <time>2014-01-31T14:03:32Z</time>
      </trkpt>
      <trkpt lat="45.34421" lon="6.59047">
        <ele>2059.47</ele>
        <time>2014-01-31T14:03:34Z</time>
      </trkpt>
      <trkpt lat="45.34427" lon="6.59076">
        <ele>2051.76</ele>
        <time>2014-01-31T14:03:37Z</time>
      </trkpt>
      <trkpt lat="45.34433" lon="6.59107">
        <ele>2042.43</ele>
        <time>2014-01-31T14:03:40Z</time>
      </trkpt>
      <trkpt lat="45.34449" lon="6.59129">
        <ele>2030.22</ele>
        <time>2014-01-31T14:03:42Z</time>
      </trkpt>
      <trkpt lat="45.34474" lon="6.59143">
        <ele>2022.55</ele>
        <time>2014-01-31T14:03:44Z</time>
      </trkpt>
      <trkpt lat="45.34501" lon="6.59156">
        <ele>2015.62</ele>
        <time>2014-01-31T14:03:46Z</time>
      </trkpt>
      <trkpt lat="45.34525" lon="6.59167">
        <ele>2015.78</ele>
        <time>2014-01-31T14:03:48Z</time>
      </trkpt>
      <trkpt lat="45.34548" lon="6.59173">
        <ele>2016.43</ele>
        <time>2014-01-31T14:03:50Z</time>
      </trkpt>
      <trkpt lat="45.34566" lon="6.59173">
        <ele>2016.17</ele>
        <time>2014-01-31T14:03:52Z</time>
      </trkpt>
      <trkpt lat="45.34587" lon="6.59176">
        <ele>2014.06</ele>
        <time>2014-01-31T14:03:55Z</time>
      </trkpt>
      <trkpt lat="45.34606" lon="6.59179">
        <ele>2010.05</ele>
        <time>2014-01-31T14:03:58Z</time>
      </trkpt>
      <trkpt lat="45.34631" lon="6.59184">
        <ele>2002.97</ele>
        <time>2014-01-31T14:04:01Z</time>
      </trkpt>
      <trkpt lat="45.34651" lon="6.59183">
        <ele>1996.48</ele>
        <time>2014-01-31T14:04:03Z</time>
      </trkpt>
      <trkpt lat="45.34673" lon="6.59194">
        <ele>1987.99</ele>
        <time>2014-01-31T14:04:05Z</time>
      </trkpt>
      <trkpt lat="45.34696" lon="6.59208">
        <ele>1981.52</ele>
        <time>2014-01-31T14:04:07Z</time>
      </trkpt>
      <trkpt lat="45.34714" lon="6.59219">
        <ele>1977.52</ele>
        <time>2014-01-31T14:04:09Z</time>
      </trkpt>
      <trkpt lat="45.34732" lon="6.59229">
        <ele>1974.11</ele>
        <time>2014-01-31T14:04:11Z</time>
      </trkpt>
      <trkpt lat="45.3475" lon="6.59232">
        <ele>1972.21</ele>
        <time>2014-01-31T14:04:13Z</time>
      </trkpt>
      <trkpt lat="45.34774" lon="6.59238">
        <ele>1965.13</ele>
        <time>2014-01-31T14:04:16Z</time>
      </trkpt>
      <trkpt lat="45.34795" lon="6.59241">
        <ele>1960.67</ele>
        <time>2014-01-31T14:04:19Z</time>
      </trkpt>
      <trkpt lat="45.34819" lon="6.59238">
        <ele>1956.14</ele>
        <time>2014-01-31T14:04:23Z</time>
      </trkpt>
      <trkpt lat="45.34837" lon="6.59236">
        <ele>1953.81</ele>
        <time>2014-01-31T14:04:26Z</time>
      </trkpt>
      <trkpt lat="45.34862" lon="6.59233">
        <ele>1952.54</ele>
        <time>2014-01-31T14:04:29Z</time>
      </trkpt>
      <trkpt lat="45.3488" lon="6.59227">
        <ele>1946.79</ele>
        <time>2014-01-31T14:04:31Z</time>
      </trkpt>
      <trkpt lat="45.34899" lon="6.59207">
        <ele>1937.79</ele>
        <time>2014-01-31T14:04:33Z</time>
      </trkpt>
      <trkpt lat="45.34923" lon="6.59183">
        <ele>1924.04</ele>
        <time>2014-01-31T14:04:35Z</time>
      </trkpt>
      <trkpt lat="45.34946" lon="6.59159">
        <ele>1919.83</ele>
        <time>2014-01-31T14:04:37Z</time>
      </trkpt>
      <trkpt lat="45.34971" lon="6.59142">
        <ele>1913.75</ele>
        <time>2014-01-31T14:04:39Z</time>
      </trkpt>
      <trkpt lat="45.34996" lon="6.59135">
        <ele>1910.56</ele>
        <time>2014-01-31T14:04:41Z</time>
      </trkpt>
      <trkpt lat="45.35019" lon="6.59135">
        <ele>1908.83</ele>
        <time>2014-01-31T14:04:43Z</time>
      </trkpt>
      <trkpt lat="45.35039" lon="6.59135">
        <ele>1908.02</ele>
        <time>2014-01-31T14:04:45Z</time>
      </trkpt>
      <trkpt lat="45.35057" lon="6.59134">
        <ele>1907.5</ele>
        <time>2014-01-31T14:04:47Z</time>
      </trkpt>
      <trkpt lat="45.3508" lon="6.59133">
        <ele>1907.48</ele>
        <time>2014-01-31T14:04:50Z</time>
      </trkpt>
      <trkpt lat="45.35099" lon="6.59131">
        <ele>1907.6</ele>
        <time>2014-01-31T14:04:53Z</time>
      </trkpt>
      <trkpt lat="45.35118" lon="6.59128">
        <ele>1907.81</ele>
        <time>2014-01-31T14:04:57Z</time>
      </trkpt>
      <trkpt lat="45.3514" lon="6.59122">
        <ele>1907.68</ele>
        <time>2014-01-31T14:05:01Z</time>
      </trkpt>
      <trkpt lat="45.35163" lon="6.59114">
        <ele>1898.96</ele>
        <time>2014-01-31T14:05:04Z</time>
      </trkpt>
      <trkpt lat="45.35184" lon="6.59107">
        <ele>1895.88</ele>
        <time>2014-01-31T14:05:06Z</time>
      </trkpt>
      <trkpt lat="45.35205" lon="6.59099">
        <ele>1892.52</ele>
        <time>2014-01-31T14:05:08Z</time>
      </trkpt>
      <trkpt lat="45.35226" lon="6.59086">
        <ele>1890.83</ele>
        <time>2014-01-31T14:05:10Z</time>
      </trkpt>
      <trkpt lat="45.35245" lon="6.5907">
        <ele>1891.63</ele>
        <time>2014-01-31T14:05:12Z</time>
      </trkpt>
      <trkpt lat="45.35265" lon="6.59053">
        <ele>1890.95</ele>
        <time>2014-01-31T14:05:14Z</time>
      </trkpt>
      <trkpt lat="45.35284" lon="6.59037">
        <ele>1889.17</ele>
        <time>2014-01-31T14:05:16Z</time>
      </trkpt>
      <trkpt lat="45.35303" lon="6.59025">
        <ele>1885.9</ele>
        <time>2014-01-31T14:05:18Z</time>
      </trkpt>
      <trkpt lat="45.35322" lon="6.59014">
        <ele>1887.15</ele>
        <time>2014-01-31T14:05:20Z</time>
      </trkpt>
      <trkpt lat="45.35339" lon="6.59003">
        <ele>1888.35</ele>
        <time>2014-01-31T14:05:22Z</time>
      </trkpt>
      <trkpt lat="45.35363" lon="6.58988">
        <ele>1883.59</ele>
        <time>2014-01-31T14:05:25Z</time>
      </trkpt>
      <trkpt lat="45.3538" lon="6.58975">
        <ele>1875.02</ele>
        <time>2014-01-31T14:05:27Z</time>
      </trkpt>
      <trkpt lat="45.35401" lon="6.5895">
        <ele>1871.01</ele>
        <time>2014-01-31T14:05:30Z</time>
      </trkpt>
      <trkpt lat="45.35415" lon="6.58931">
        <ele>1866.95</ele>
        <time>2014-01-31T14:05:32Z</time>
      </trkpt>
      <trkpt lat="45.35427" lon="6.58909">
        <ele>1866.39</ele>
        <time>2014-01-31T14:05:34Z</time>
      </trkpt>
      <trkpt lat="45.35438" lon="6.58888">
        <ele>1866.12</ele>
        <time>2014-01-31T14:05:36Z</time>
      </trkpt>
      <trkpt lat="45.35459" lon="6.58866">
        <ele>1860.5</ele>
        <time>2014-01-31T14:05:39Z</time>
      </trkpt>
      <trkpt lat="45.35482" lon="6.58846">
        <ele>1859.74</ele>
        <time>2014-01-31T14:05:42Z</time>
      </trkpt>
      <trkpt lat="45.35506" lon="6.58835">
        <ele>1856.98</ele>
        <time>2014-01-31T14:05:45Z</time>
      </trkpt>
      <trkpt lat="45.35525" lon="6.58826">
        <ele>1851.3</ele>
        <time>2014-01-31T14:05:47Z</time>
      </trkpt>
      <trkpt lat="45.35544" lon="6.58812">
        <ele>1847.19</ele>
        <time>2014-01-31T14:05:49Z</time>
      </trkpt>
      <trkpt lat="45.35561" lon="6.58796">
        <ele>1842.83</ele>
        <time>2014-01-31T14:05:51Z</time>
      </trkpt>
      <trkpt lat="45.35577" lon="6.58781">
        <ele>1839.96</ele>
        <time>2014-01-31T14:05:53Z</time>
      </trkpt>
      <trkpt lat="45.35592" lon="6.58766">
        <ele>1837.24</ele>
        <time>2014-01-31T14:05:55Z</time>
      </trkpt>
      <trkpt lat="45.35609" lon="6.5875">
        <ele>1835.75</ele>
        <time>2014-01-31T14:05:57Z</time>
      </trkpt>
      <trkpt lat="45.35625" lon="6.58735">
        <ele>1832.41</ele>
        <time>2014-01-31T14:05:59Z</time>
      </trkpt>
      <trkpt lat="45.35643" lon="6.58724">
        <ele>1829.1</ele>
        <time>2014-01-31T14:06:01Z</time>
      </trkpt>
      <trkpt lat="45.35661" lon="6.58716">
        <ele>1830.95</ele>
        <time>2014-01-31T14:06:03Z</time>
      </trkpt>
      <trkpt lat="45.35686" lon="6.587">
        <ele>1828.1</ele>
        <time>2014-01-31T14:06:06Z</time>
      </trkpt>
      <trkpt lat="45.35703" lon="6.58687">
        <ele>1824.41</ele>
        <time>2014-01-31T14:06:08Z</time>
      </trkpt>
      <trkpt lat="45.35721" lon="6.58674">
        <ele>1822.75</ele>
        <time>2014-01-31T14:06:10Z</time>
      </trkpt>
      <trkpt lat="45.3574" lon="6.58661">
        <ele>1823.74</ele>
        <time>2014-01-31T14:06:12Z</time>
      </trkpt>
      <trkpt lat="45.35756" lon="6.58649">
        <ele>1825.06</ele>
        <time>2014-01-31T14:06:14Z</time>
      </trkpt>
      <trkpt lat="45.35772" lon="6.58636">
        <ele>1822.25</ele>
        <time>2014-01-31T14:06:16Z</time>
      </trkpt>
      <trkpt lat="45.35794" lon="6.5862">
        <ele>1818.43</ele>
        <time>2014-01-31T14:06:19Z</time>
      </trkpt>
      <trkpt lat="45.35815" lon="6.58604">
        <ele>1815.36</ele>
        <time>2014-01-31T14:06:22Z</time>
      </trkpt>
      <trkpt lat="45.35835" lon="6.58591">
        <ele>1815.23</ele>
        <time>2014-01-31T14:06:25Z</time>
      </trkpt>
      <trkpt lat="45.35854" lon="6.58574">
        <ele>1816.26</ele>
        <time>2014-01-31T14:06:28Z</time>
      </trkpt>
      <trkpt lat="45.35874" lon="6.5856">
        <ele>1814.85</ele>
        <time>2014-01-31T14:06:31Z</time>
      </trkpt>
      <trkpt lat="45.35895" lon="6.58546">
        <ele>1812.08</ele>
        <time>2014-01-31T14:06:34Z</time>
      </trkpt>
      <trkpt lat="45.35913" lon="6.58534">
        <ele>1809.03</ele>
        <time>2014-01-31T14:06:37Z</time>
      </trkpt>
      <trkpt lat="45.3593" lon="6.58522">
        <ele>1806.86</ele>
        <time>2014-01-31T14:06:40Z</time>
      </trkpt>
      <trkpt lat="45.35949" lon="6.58513">
        <ele>1804.31</ele>
        <time>2014-01-31T14:06:43Z</time>
      </trkpt>
      <trkpt lat="45.35968" lon="6.58506">
        <ele>1805.58</ele>
        <time>2014-01-31T14:06:46Z</time>
      </trkpt>
      <trkpt lat="45.35987" lon="6.585">
        <ele>1803.19</ele>
        <time>2014-01-31T14:06:49Z</time>
      </trkpt>
      <trkpt lat="45.36009" lon="6.58495">
        <ele>1800.3</ele>
        <time>2014-01-31T14:06:53Z</time>
      </trkpt>
      <trkpt lat="45.3603" lon="6.58488">
        <ele>1800.48</ele>
        <time>2014-01-31T14:06:57Z</time>
      </trkpt>
      <trkpt lat="45.36049" lon="6.58473">
        <ele>1801.72</ele>
        <time>2014-01-31T14:07:01Z</time>
      </trkpt>
      <trkpt lat="45.36063" lon="6.58455">
        <ele>1804.14</ele>
        <time>2014-01-31T14:07:05Z</time>
      </trkpt>
      <trkpt lat="45.36075" lon="6.58434">
        <ele>1805.09</ele>
        <time>2014-01-31T14:07:09Z</time>
      </trkpt>
      <trkpt lat="45.36089" lon="6.5841">
        <ele>1806.33</ele>
        <time>2014-01-31T14:07:14Z</time>
      </trkpt>
      <trkpt lat="45.36099" lon="6.58385">
        <ele>1807.21</ele>
        <time>2014-01-31T14:07:20Z</time>
      </trkpt>
      <trkpt lat="45.36113" lon="6.58363">
        <ele>1805.37</ele>
        <time>2014-01-31T14:07:25Z</time>
      </trkpt>
      <trkpt lat="45.3613" lon="6.58348">
        <ele>1806.45</ele>
        <time>2014-01-31T14:07:30Z</time>
      </trkpt>
      <trkpt lat="45.36147" lon="6.58334">
        <ele>1806.57</ele>
        <time>2014-01-31T14:07:35Z</time>
      </trkpt>
      <trkpt lat="45.36164" lon="6.58318">
        <ele>1804.31</ele>
        <time>2014-01-31T14:07:40Z</time>
      </trkpt>
      <trkpt lat="45.36182" lon="6.58303">
        <ele>1803.8</ele>
        <time>2014-01-31T14:07:44Z</time>
      </trkpt>
      <trkpt lat="45.36199" lon="6.58291">
        <ele>1802.28</ele>
        <time>2014-01-31T14:07:48Z</time>
      </trkpt>
      <trkpt lat="45.36216" lon="6.58279">
        <ele>1801.69</ele>
        <time>2014-01-31T14:07:53Z</time>
      </trkpt>
      <trkpt lat="45.36233" lon="6.58266">
        <ele>1800.78</ele>
        <time>2014-01-31T14:07:56Z</time>
      </trkpt>
      <trkpt lat="45.36253" lon="6.58258">
        <ele>1796.15</ele>
        <time>2014-01-31T14:08:00Z</time>
      </trkpt>
      <trkpt lat="45.36273" lon="6.58255">
        <ele>1790.05</ele>
        <time>2014-01-31T14:08:04Z</time>
      </trkpt>
      <trkpt lat="45.36296" lon="6.58254">
        <ele>1784.55</ele>
        <time>2014-01-31T14:08:08Z</time>
      </trkpt>
      <trkpt lat="45.36316" lon="6.58253">
        <ele>1781.12</ele>
        <time>2014-01-31T14:08:12Z</time>
      </trkpt>
      <trkpt lat="45.36334" lon="6.58262">
        <ele>1775.28</ele>
        <time>2014-01-31T14:08:15Z</time>
      </trkpt>
      <trkpt lat="45.3635" lon="6.58274">
        <ele>1770.84</ele>
        <time>2014-01-31T14:08:18Z</time>
      </trkpt>
      <trkpt lat="45.36368" lon="6.58287">
        <ele>1766.15</ele>
        <time>2014-01-31T14:08:22Z</time>
      </trkpt>
      <trkpt lat="45.36387" lon="6.58299">
        <ele>1764.32</ele>
        <time>2014-01-31T14:08:26Z</time>
      </trkpt>
      <trkpt lat="45.36407" lon="6.58302">
        <ele>1765.17</ele>
        <time>2014-01-31T14:08:31Z</time>
      </trkpt>
      <trkpt lat="45.36428" lon="6.583">
        <ele>1767.34</ele>
        <time>2014-01-31T14:08:35Z</time>
      </trkpt>
      <trkpt lat="45.36449" lon="6.58297">
        <ele>1768.88</ele>
        <time>2014-01-31T14:08:40Z</time>
      </trkpt>
      <trkpt lat="45.36468" lon="6.58295">
        <ele>1769.4</ele>
        <time>2014-01-31T14:08:45Z</time>
      </trkpt>
      <trkpt lat="45.36486" lon="6.58293">
        <ele>1768.48</ele>
        <time>2014-01-31T14:08:48Z</time>
      </trkpt>
      <trkpt lat="45.36506" lon="6.58288">
        <ele>1768.29</ele>
        <time>2014-01-31T14:08:52Z</time>
      </trkpt>
      <trkpt lat="45.36523" lon="6.58277">
        <ele>1770.92</ele>
        <time>2014-01-31T14:08:57Z</time>
      </trkpt>
      <trkpt lat="45.36541" lon="6.58264">
        <ele>1771.62</ele>
        <time>2014-01-31T14:09:02Z</time>
      </trkpt>
      <trkpt lat="45.36557" lon="6.58246">
        <ele>1773.6</ele>
        <time>2014-01-31T14:09:08Z</time>
      </trkpt>
      <trkpt lat="45.3657" lon="6.58228">
        <ele>1773.14</ele>
        <time>2014-01-31T14:09:13Z</time>
      </trkpt>
      <trkpt lat="45.36586" lon="6.5821">
        <ele>1773.66</ele>
        <time>2014-01-31T14:09:18Z</time>
      </trkpt>
      <trkpt lat="45.36604" lon="6.58194">
        <ele>1772.25</ele>
        <time>2014-01-31T14:09:22Z</time>
      </trkpt>
      <trkpt lat="45.3662" lon="6.58175">
        <ele>1771.19</ele>
        <time>2014-01-31T14:09:27Z</time>
      </trkpt>
      <trkpt lat="45.3664" lon="6.58159">
        <ele>1765.57</ele>
        <time>2014-01-31T14:09:31Z</time>
      </trkpt>
      <trkpt lat="45.36658" lon="6.5815">
        <ele>1758.97</ele>
        <time>2014-01-31T14:09:35Z</time>
      </trkpt>
      <trkpt lat="45.36678" lon="6.58148">
        <ele>1755.43</ele>
        <time>2014-01-31T14:09:40Z</time>
      </trkpt>
      <trkpt lat="45.36698" lon="6.58147">
        <ele>1755.7</ele>
        <time>2014-01-31T14:09:47Z</time>
      </trkpt>
      <trkpt lat="45.36718" lon="6.5814">
        <ele>1756.06</ele>
        <time>2014-01-31T14:09:55Z</time>
      </trkpt>
      <trkpt lat="45.36737" lon="6.58131">
        <ele>1757</ele>
        <time>2014-01-31T14:10:02Z</time>
      </trkpt>
      <trkpt lat="45.3676" lon="6.5813">
        <ele>1757.02</ele>
        <time>2014-01-31T14:10:08Z</time>
      </trkpt>
      <trkpt lat="45.3678" lon="6.58121">
        <ele>1758.6</ele>
        <time>2014-01-31T14:10:10Z</time>
      </trkpt>
      <trkpt lat="45.36805" lon="6.58115">
        <ele>1755.26</ele>
        <time>2014-01-31T14:10:12Z</time>
      </trkpt>
      <trkpt lat="45.36834" lon="6.5811">
        <ele>1746.56</ele>
        <time>2014-01-31T14:10:14Z</time>
      </trkpt>
      <trkpt lat="45.36866" lon="6.58104">
        <ele>1741.07</ele>
        <time>2014-01-31T14:10:16Z</time>
      </trkpt>
      <trkpt lat="45.36894" lon="6.58105">
        <ele>1732.11</ele>
        <time>2014-01-31T14:10:18Z</time>
      </trkpt>
      <trkpt lat="45.36919" lon="6.58104">
        <ele>1726.95</ele>
        <time>2014-01-31T14:10:20Z</time>
      </trkpt>
      <trkpt lat="45.36942" lon="6.58097">
        <ele>1726.43</ele>
        <time>2014-01-31T14:10:22Z</time>
      </trkpt>
      <trkpt lat="45.36961" lon="6.58088">
        <ele>1726.42</ele>
        <time>2014-01-31T14:10:24Z</time>
      </trkpt>
      <trkpt lat="45.36979" lon="6.58078">
        <ele>1724.52</ele>
        <time>2014-01-31T14:10:26Z</time>
      </trkpt>
      <trkpt lat="45.36996" lon="6.58068">
        <ele>1722.76</ele>
        <time>2014-01-31T14:10:28Z</time>
      </trkpt>
      <trkpt lat="45.37012" lon="6.58056">
        <ele>1722.11</ele>
        <time>2014-01-31T14:10:30Z</time>
      </trkpt>
      <trkpt lat="45.37035" lon="6.58039">
        <ele>1723.14</ele>
        <time>2014-01-31T14:10:33Z</time>
      </trkpt>
      <trkpt lat="45.37058" lon="6.58025">
        <ele>1721.42</ele>
        <time>2014-01-31T14:10:36Z</time>
      </trkpt>
      <trkpt lat="45.37081" lon="6.58013">
        <ele>1718.93</ele>
        <time>2014-01-31T14:10:39Z</time>
      </trkpt>
      <trkpt lat="45.37103" lon="6.58002">
        <ele>1714.29</ele>
        <time>2014-01-31T14:10:42Z</time>
      </trkpt>
      <trkpt lat="45.37122" lon="6.57987">
        <ele>1712.2</ele>
        <time>2014-01-31T14:10:45Z</time>
      </trkpt>
      <trkpt lat="45.37137" lon="6.57968">
        <ele>1712.14</ele>
        <time>2014-01-31T14:10:48Z</time>
      </trkpt>
      <trkpt lat="45.37155" lon="6.57975">
        <ele>1705.23</ele>
        <time>2014-01-31T14:10:56Z</time>
      </trkpt>
      <trkpt lat="45.3715" lon="6.58006">
        <ele>1700.6</ele>
        <time>2014-01-31T14:10:59Z</time>
      </trkpt>
      <trkpt lat="45.37156" lon="6.5804">
        <ele>1691.41</ele>
        <time>2014-01-31T14:11:02Z</time>
      </trkpt>
      <trkpt lat="45.37152" lon="6.58074">
        <ele>1688.69</ele>
        <time>2014-01-31T14:11:05Z</time>
      </trkpt>
      <trkpt lat="45.37136" lon="6.58089">
        <ele>1689.49</ele>
        <time>2014-01-31T14:11:09Z</time>
      </trkpt>
      <trkpt lat="45.37125" lon="6.58062">
        <ele>1693.82</ele>
        <time>2014-01-31T14:12:09Z</time>
      </trkpt>
      <trkpt lat="45.37106" lon="6.58066">
        <ele>1698.4</ele>
        <time>2014-01-31T14:15:39Z</time>
      </trkpt>
      <trkpt lat="45.37083" lon="6.58064">
        <ele>1707.43</ele>
        <time>2014-01-31T14:15:42Z</time>
      </trkpt>
      <trkpt lat="45.37058" lon="6.58065">
        <ele>1712.59</ele>
        <time>2014-01-31T14:15:45Z</time>
      </trkpt>
      <trkpt lat="45.37036" lon="6.58065">
        <ele>1716.62</ele>
        <time>2014-01-31T14:15:48Z</time>
      </trkpt>
      <trkpt lat="45.37014" lon="6.58062">
        <ele>1720.92</ele>
        <time>2014-01-31T14:15:52Z</time>
      </trkpt>
      <trkpt lat="45.36995" lon="6.5806">
        <ele>1724.39</ele>
        <time>2014-01-31T14:15:56Z</time>
      </trkpt>
      <trkpt lat="45.36973" lon="6.5806">
        <ele>1729.08</ele>
        <time>2014-01-31T14:16:00Z</time>
      </trkpt>
      <trkpt lat="45.36952" lon="6.58057">
        <ele>1736.74</ele>
        <time>2014-01-31T14:16:04Z</time>
      </trkpt>
      <trkpt lat="45.3693" lon="6.58057">
        <ele>1744.19</ele>
        <time>2014-01-31T14:16:08Z</time>
      </trkpt>
      <trkpt lat="45.36909" lon="6.58054">
        <ele>1751.52</ele>
        <time>2014-01-31T14:16:12Z</time>
      </trkpt>
      <trkpt lat="45.36889" lon="6.5805">
        <ele>1757.73</ele>
        <time>2014-01-31T14:16:16Z</time>
      </trkpt>
      <trkpt lat="45.36867" lon="6.58048">
        <ele>1764.17</ele>
        <time>2014-01-31T14:16:20Z</time>
      </trkpt>
      <trkpt lat="45.36846" lon="6.58047">
        <ele>1769.27</ele>
        <time>2014-01-31T14:16:24Z</time>
      </trkpt>
      <trkpt lat="45.36827" lon="6.58045">
        <ele>1773.46</ele>
        <time>2014-01-31T14:16:28Z</time>
      </trkpt>
      <trkpt lat="45.36805" lon="6.58041">
        <ele>1778.48</ele>
        <time>2014-01-31T14:16:33Z</time>
      </trkpt>
      <trkpt lat="45.36782" lon="6.58038">
        <ele>1782.99</ele>
        <time>2014-01-31T14:16:37Z</time>
      </trkpt>
      <trkpt lat="45.36763" lon="6.58035">
        <ele>1785.89</ele>
        <time>2014-01-31T14:16:41Z</time>
      </trkpt>
      <trkpt lat="45.36743" lon="6.58032">
        <ele>1789.32</ele>
        <time>2014-01-31T14:16:45Z</time>
      </trkpt>
      <trkpt lat="45.36721" lon="6.58029">
        <ele>1795.41</ele>
        <time>2014-01-31T14:16:49Z</time>
      </trkpt>
      <trkpt lat="45.367" lon="6.58026">
        <ele>1797.79</ele>
        <time>2014-01-31T14:16:53Z</time>
      </trkpt>
      <trkpt lat="45.36678" lon="6.58023">
        <ele>1800.5</ele>
        <time>2014-01-31T14:16:57Z</time>
      </trkpt>
      <trkpt lat="45.36656" lon="6.58021">
        <ele>1806.75</ele>
        <time>2014-01-31T14:17:01Z</time>
      </trkpt>
      <trkpt lat="45.36634" lon="6.5802">
        <ele>1815.01</ele>
        <time>2014-01-31T14:17:05Z</time>
      </trkpt>
      <trkpt lat="45.36614" lon="6.58017">
        <ele>1820.14</ele>
        <time>2014-01-31T14:17:09Z</time>
      </trkpt>
      <trkpt lat="45.36593" lon="6.58016">
        <ele>1819.42</ele>
        <time>2014-01-31T14:17:13Z</time>
      </trkpt>
      <trkpt lat="45.36571" lon="6.58013">
        <ele>1822.35</ele>
        <time>2014-01-31T14:17:17Z</time>
      </trkpt>
      <trkpt lat="45.36549" lon="6.5801">
        <ele>1829.84</ele>
        <time>2014-01-31T14:17:21Z</time>
      </trkpt>
      <trkpt lat="45.36528" lon="6.58008">
        <ele>1839.45</ele>
        <time>2014-01-31T14:17:25Z</time>
      </trkpt>
      <trkpt lat="45.36509" lon="6.58004">
        <ele>1843.12</ele>
        <time>2014-01-31T14:17:29Z</time>
      </trkpt>
      <trkpt lat="45.36489" lon="6.58001">
        <ele>1846.9</ele>
        <time>2014-01-31T14:17:33Z</time>
      </trkpt>
      <trkpt lat="45.36468" lon="6.57998">
        <ele>1853.1</ele>
        <time>2014-01-31T14:17:37Z</time>
      </trkpt>
      <trkpt lat="45.36447" lon="6.57996">
        <ele>1865.64</ele>
        <time>2014-01-31T14:17:41Z</time>
      </trkpt>
      <trkpt lat="45.36427" lon="6.57993">
        <ele>1875.54</ele>
        <time>2014-01-31T14:17:45Z</time>
      </trkpt>
      <trkpt lat="45.36405" lon="6.57992">
        <ele>1882.87</ele>
        <time>2014-01-31T14:17:49Z</time>
      </trkpt>
      <trkpt lat="45.36384" lon="6.57991">
        <ele>1888.5</ele>
        <time>2014-01-31T14:17:53Z</time>
      </trkpt>
      <trkpt lat="45.36363" lon="6.5799">
        <ele>1893.38</ele>
        <time>2014-01-31T14:17:57Z</time>
      </trkpt>
      <trkpt lat="45.36341" lon="6.57989">
        <ele>1901.76</ele>
        <time>2014-01-31T14:18:01Z</time>
      </trkpt>
      <trkpt lat="45.36321" lon="6.57987">
        <ele>1910.06</ele>
        <time>2014-01-31T14:18:05Z</time>
      </trkpt>
      <trkpt lat="45.36301" lon="6.57984">
        <ele>1920.22</ele>
        <time>2014-01-31T14:18:09Z</time>
      </trkpt>
      <trkpt lat="45.36282" lon="6.5798">
        <ele>1934.97</ele>
        <time>2014-01-31T14:18:13Z</time>
      </trkpt>
      <trkpt lat="45.36261" lon="6.57978">
        <ele>1946.95</ele>
        <time>2014-01-31T14:18:17Z</time>
      </trkpt>
      <trkpt lat="45.3624" lon="6.57978">
        <ele>1957.52</ele>
        <time>2014-01-31T14:18:21Z</time>
      </trkpt>
      <trkpt lat="45.3622" lon="6.57977">
        <ele>1967.4</ele>
        <time>2014-01-31T14:18:25Z</time>
      </trkpt>
      <trkpt lat="45.362" lon="6.57975">
        <ele>1973.18</ele>
        <time>2014-01-31T14:18:29Z</time>
      </trkpt>
      <trkpt lat="45.36181" lon="6.57973">
        <ele>1981.54</ele>
        <time>2014-01-31T14:18:33Z</time>
      </trkpt>
      <trkpt lat="45.3616" lon="6.57971">
        <ele>1990.03</ele>
        <time>2014-01-31T14:18:37Z</time>
      </trkpt>
      <trkpt lat="45.36137" lon="6.57968">
        <ele>1996.21</ele>
        <time>2014-01-31T14:18:41Z</time>
      </trkpt>
      <trkpt lat="45.36114" lon="6.57968">
        <ele>1997.31</ele>
        <time>2014-01-31T14:18:45Z</time>
      </trkpt>
      <trkpt lat="45.36092" lon="6.57967">
        <ele>2000.39</ele>
        <time>2014-01-31T14:18:49Z</time>
      </trkpt>
      <trkpt lat="45.36071" lon="6.57965">
        <ele>2007.4</ele>
        <time>2014-01-31T14:18:53Z</time>
      </trkpt>
      <trkpt lat="45.36052" lon="6.57962">
        <ele>2014.91</ele>
        <time>2014-01-31T14:18:57Z</time>
      </trkpt>
      <trkpt lat="45.36032" lon="6.57958">
        <ele>2019.39</ele>
        <time>2014-01-31T14:19:01Z</time>
      </trkpt>
      <trkpt lat="45.36014" lon="6.57952">
        <ele>2024.59</ele>
        <time>2014-01-31T14:19:05Z</time>
      </trkpt>
      <trkpt lat="45.35996" lon="6.57944">
        <ele>2030.57</ele>
        <time>2014-01-31T14:19:09Z</time>
      </trkpt>
      <trkpt lat="45.35978" lon="6.57938">
        <ele>2033.96</ele>
        <time>2014-01-31T14:19:13Z</time>
      </trkpt>
      <trkpt lat="45.35958" lon="6.57932">
        <ele>2039.42</ele>
        <time>2014-01-31T14:19:17Z</time>
      </trkpt>
      <trkpt lat="45.35936" lon="6.57924">
        <ele>2047.12</ele>
        <time>2014-01-31T14:19:21Z</time>
      </trkpt>
      <trkpt lat="45.35922" lon="6.57908">
        <ele>2055.87</ele>
        <time>2014-01-31T14:19:25Z</time>
      </trkpt>
      <trkpt lat="45.35903" lon="6.57917">
        <ele>2055.8</ele>
        <time>2014-01-31T14:19:29Z</time>
      </trkpt>
      <trkpt lat="45.35884" lon="6.5792">
        <ele>2057.6</ele>
        <time>2014-01-31T14:19:32Z</time>
      </trkpt>
      <trkpt lat="45.35865" lon="6.57921">
        <ele>2059</ele>
        <time>2014-01-31T14:19:35Z</time>
      </trkpt>
      <trkpt lat="45.35843" lon="6.57922">
        <ele>2060.73</ele>
        <time>2014-01-31T14:19:39Z</time>
      </trkpt>
      <trkpt lat="45.35821" lon="6.5792">
        <ele>2063.83</ele>
        <time>2014-01-31T14:19:43Z</time>
      </trkpt>
      <trkpt lat="45.35799" lon="6.57917">
        <ele>2067.35</ele>
        <time>2014-01-31T14:19:47Z</time>
      </trkpt>
      <trkpt lat="45.35778" lon="6.57911">
        <ele>2072.42</ele>
        <time>2014-01-31T14:19:51Z</time>
      </trkpt>
      <trkpt lat="45.35756" lon="6.57906">
        <ele>2077.78</ele>
        <time>2014-01-31T14:19:55Z</time>
      </trkpt>
      <trkpt lat="45.35736" lon="6.57908">
        <ele>2080.34</ele>
        <time>2014-01-31T14:19:59Z</time>
      </trkpt>
      <trkpt lat="45.35717" lon="6.57907">
        <ele>2083.44</ele>
        <time>2014-01-31T14:20:03Z</time>
      </trkpt>
      <trkpt lat="45.35695" lon="6.57904">
        <ele>2087.14</ele>
        <time>2014-01-31T14:20:07Z</time>
      </trkpt>
      <trkpt lat="45.35674" lon="6.57901">
        <ele>2095.32</ele>
        <time>2014-01-31T14:20:11Z</time>
      </trkpt>
      <trkpt lat="45.35652" lon="6.57899">
        <ele>2102.35</ele>
        <time>2014-01-31T14:20:15Z</time>
      </trkpt>
      <trkpt lat="45.35631" lon="6.57897">
        <ele>2107.22</ele>
        <time>2014-01-31T14:20:19Z</time>
      </trkpt>
      <trkpt lat="45.35609" lon="6.57894">
        <ele>2110.81</ele>
        <time>2014-01-31T14:20:23Z</time>
      </trkpt>
      <trkpt lat="45.35588" lon="6.5789">
        <ele>2114.05</ele>
        <time>2014-01-31T14:20:27Z</time>
      </trkpt>
      <trkpt lat="45.35568" lon="6.57888">
        <ele>2119.13</ele>
        <time>2014-01-31T14:20:31Z</time>
      </trkpt>
      <trkpt lat="45.35547" lon="6.57885">
        <ele>2122.48</ele>
        <time>2014-01-31T14:20:35Z</time>
      </trkpt>
      <trkpt lat="45.35524" lon="6.57881">
        <ele>2122.55</ele>
        <time>2014-01-31T14:20:39Z</time>
      </trkpt>
      <trkpt lat="45.35503" lon="6.57881">
        <ele>2121.64</ele>
        <time>2014-01-31T14:20:43Z</time>
      </trkpt>
      <trkpt lat="45.35483" lon="6.5788">
        <ele>2120.24</ele>
        <time>2014-01-31T14:20:47Z</time>
      </trkpt>
      <trkpt lat="45.35462" lon="6.57876">
        <ele>2118.62</ele>
        <time>2014-01-31T14:20:52Z</time>
      </trkpt>
      <trkpt lat="45.35441" lon="6.57874">
        <ele>2116.21</ele>
        <time>2014-01-31T14:20:56Z</time>
      </trkpt>
      <trkpt lat="45.35419" lon="6.57873">
        <ele>2112.27</ele>
        <time>2014-01-31T14:21:00Z</time>
      </trkpt>
      <trkpt lat="45.35397" lon="6.57872">
        <ele>2110.94</ele>
        <time>2014-01-31T14:21:04Z</time>
      </trkpt>
      <trkpt lat="45.35377" lon="6.5787">
        <ele>2111.16</ele>
        <time>2014-01-31T14:21:08Z</time>
      </trkpt>
      <trkpt lat="45.35357" lon="6.57868">
        <ele>2112.08</ele>
        <time>2014-01-31T14:21:11Z</time>
      </trkpt>
      <trkpt lat="45.35334" lon="6.57866">
        <ele>2113.29</ele>
        <time>2014-01-31T14:21:15Z</time>
      </trkpt>
      <trkpt lat="45.35312" lon="6.57866">
        <ele>2115.9</ele>
        <time>2014-01-31T14:21:19Z</time>
      </trkpt>
      <trkpt lat="45.3529" lon="6.57865">
        <ele>2119.01</ele>
        <time>2014-01-31T14:21:23Z</time>
      </trkpt>
      <trkpt lat="45.35269" lon="6.57862">
        <ele>2123.26</ele>
        <time>2014-01-31T14:21:27Z</time>
      </trkpt>
      <trkpt lat="45.35249" lon="6.57858">
        <ele>2128.46</ele>
        <time>2014-01-31T14:21:31Z</time>
      </trkpt>
      <trkpt lat="45.35229" lon="6.57853">
        <ele>2133.66</ele>
        <time>2014-01-31T14:21:35Z</time>
      </trkpt>
      <trkpt lat="45.35208" lon="6.57849">
        <ele>2138.81</ele>
        <time>2014-01-31T14:21:39Z</time>
      </trkpt>
      <trkpt lat="45.35186" lon="6.57846">
        <ele>2144.54</ele>
        <time>2014-01-31T14:21:43Z</time>
      </trkpt>
      <trkpt lat="45.35165" lon="6.57844">
        <ele>2150.54</ele>
        <time>2014-01-31T14:21:47Z</time>
      </trkpt>
      <trkpt lat="45.35145" lon="6.57843">
        <ele>2155.57</ele>
        <time>2014-01-31T14:21:51Z</time>
      </trkpt>
      <trkpt lat="45.35123" lon="6.57842">
        <ele>2159.66</ele>
        <time>2014-01-31T14:21:55Z</time>
      </trkpt>
      <trkpt lat="45.351" lon="6.5784">
        <ele>2164.79</ele>
        <time>2014-01-31T14:21:59Z</time>
      </trkpt>
      <trkpt lat="45.35078" lon="6.57838">
        <ele>2171.06</ele>
        <time>2014-01-31T14:22:03Z</time>
      </trkpt>
      <trkpt lat="45.35056" lon="6.57836">
        <ele>2175.64</ele>
        <time>2014-01-31T14:22:07Z</time>
      </trkpt>
      <trkpt lat="45.35034" lon="6.57835">
        <ele>2181.2</ele>
        <time>2014-01-31T14:22:11Z</time>
      </trkpt>
      <trkpt lat="45.35012" lon="6.57834">
        <ele>2186.38</ele>
        <time>2014-01-31T14:22:15Z</time>
      </trkpt>
      <trkpt lat="45.34989" lon="6.57833">
        <ele>2192.1</ele>
        <time>2014-01-31T14:22:19Z</time>
      </trkpt>
      <trkpt lat="45.34966" lon="6.57834">
        <ele>2199.76</ele>
        <time>2014-01-31T14:22:23Z</time>
      </trkpt>
      <trkpt lat="45.34945" lon="6.57832">
        <ele>2209.08</ele>
        <time>2014-01-31T14:22:27Z</time>
      </trkpt>
      <trkpt lat="45.34926" lon="6.57828">
        <ele>2216.62</ele>
        <time>2014-01-31T14:22:31Z</time>
      </trkpt>
      <trkpt lat="45.34906" lon="6.57824">
        <ele>2222.68</ele>
        <time>2014-01-31T14:22:35Z</time>
      </trkpt>
      <trkpt lat="45.34886" lon="6.57821">
        <ele>2227.66</ele>
        <time>2014-01-31T14:22:39Z</time>
      </trkpt>
      <trkpt lat="45.34865" lon="6.57819">
        <ele>2232.56</ele>
        <time>2014-01-31T14:22:43Z</time>
      </trkpt>
      <trkpt lat="45.34844" lon="6.57816">
        <ele>2238.46</ele>
        <time>2014-01-31T14:22:47Z</time>
      </trkpt>
      <trkpt lat="45.34822" lon="6.57815">
        <ele>2243.76</ele>
        <time>2014-01-31T14:22:51Z</time>
      </trkpt>
      <trkpt lat="45.34801" lon="6.57813">
        <ele>2249</ele>
        <time>2014-01-31T14:22:55Z</time>
      </trkpt>
      <trkpt lat="45.34781" lon="6.5781">
        <ele>2256.3</ele>
        <time>2014-01-31T14:22:59Z</time>
      </trkpt>
      <trkpt lat="45.3476" lon="6.57807">
        <ele>2264.63</ele>
        <time>2014-01-31T14:23:03Z</time>
      </trkpt>
      <trkpt lat="45.34741" lon="6.57803">
        <ele>2271.3</ele>
        <time>2014-01-31T14:23:07Z</time>
      </trkpt>
      <trkpt lat="45.34721" lon="6.57799">
        <ele>2276.69</ele>
        <time>2014-01-31T14:23:11Z</time>
      </trkpt>
      <trkpt lat="45.34701" lon="6.57796">
        <ele>2285.85</ele>
        <time>2014-01-31T14:23:15Z</time>
      </trkpt>
      <trkpt lat="45.34681" lon="6.57794">
        <ele>2295.16</ele>
        <time>2014-01-31T14:23:19Z</time>
      </trkpt>
      <trkpt lat="45.34662" lon="6.5779">
        <ele>2305.54</ele>
        <time>2014-01-31T14:23:23Z</time>
      </trkpt>
      <trkpt lat="45.34641" lon="6.57788">
        <ele>2316.73</ele>
        <time>2014-01-31T14:23:27Z</time>
      </trkpt>
      <trkpt lat="45.3462" lon="6.57787">
        <ele>2325.69</ele>
        <time>2014-01-31T14:23:30Z</time>
      </trkpt>
      <trkpt lat="45.346" lon="6.57785">
        <ele>2334.53</ele>
        <time>2014-01-31T14:23:34Z</time>
      </trkpt>
      <trkpt lat="45.3458" lon="6.57782">
        <ele>2343.93</ele>
        <time>2014-01-31T14:23:38Z</time>
      </trkpt>
      <trkpt lat="45.3456" lon="6.57779">
        <ele>2351.47</ele>
        <time>2014-01-31T14:23:42Z</time>
      </trkpt>
      <trkpt lat="45.3454" lon="6.57776">
        <ele>2356.56</ele>
        <time>2014-01-31T14:23:46Z</time>
      </trkpt>
      <trkpt lat="45.34519" lon="6.57774">
        <ele>2361.36</ele>
        <time>2014-01-31T14:23:50Z</time>
      </trkpt>
      <trkpt lat="45.34498" lon="6.57773">
        <ele>2366.5</ele>
        <time>2014-01-31T14:23:54Z</time>
      </trkpt>
      <trkpt lat="45.34477" lon="6.57772">
        <ele>2374.47</ele>
        <time>2014-01-31T14:23:58Z</time>
      </trkpt>
      <trkpt lat="45.34456" lon="6.5777">
        <ele>2382.79</ele>
        <time>2014-01-31T14:24:02Z</time>
      </trkpt>
      <trkpt lat="45.34381" lon="6.57764">
        <ele>2414.37</ele>
        <time>2014-01-31T14:24:15Z</time>
      </trkpt>
      <trkpt lat="45.34363" lon="6.57757">
        <ele>2426</ele>
        <time>2014-01-31T14:24:19Z</time>
      </trkpt>
      <trkpt lat="45.34344" lon="6.57748">
        <ele>2436.36</ele>
        <time>2014-01-31T14:24:24Z</time>
      </trkpt>
      <trkpt lat="45.34331" lon="6.57767">
        <ele>2436.22</ele>
        <time>2014-01-31T14:24:56Z</time>
      </trkpt>
      <trkpt lat="45.3432" lon="6.57792">
        <ele>2435.6</ele>
        <time>2014-01-31T14:25:45Z</time>
      </trkpt>
      <trkpt lat="45.34308" lon="6.57815">
        <ele>2436.76</ele>
        <time>2014-01-31T14:25:49Z</time>
      </trkpt>
      <trkpt lat="45.34293" lon="6.57838">
        <ele>2432.2</ele>
        <time>2014-01-31T14:25:53Z</time>
      </trkpt>
      <trkpt lat="45.34275" lon="6.57861">
        <ele>2422.72</ele>
        <time>2014-01-31T14:25:57Z</time>
      </trkpt>
      <trkpt lat="45.34258" lon="6.57881">
        <ele>2417.58</ele>
        <time>2014-01-31T14:26:00Z</time>
      </trkpt>
      <trkpt lat="45.34249" lon="6.5791">
        <ele>2411.69</ele>
        <time>2014-01-31T14:26:03Z</time>
      </trkpt>
      <trkpt lat="45.34255" lon="6.57935">
        <ele>2407.6</ele>
        <time>2014-01-31T14:26:05Z</time>
      </trkpt>
      <trkpt lat="45.34264" lon="6.57969">
        <ele>2403.27</ele>
        <time>2014-01-31T14:26:08Z</time>
      </trkpt>
      <trkpt lat="45.3427" lon="6.57993">
        <ele>2403.25</ele>
        <time>2014-01-31T14:26:11Z</time>
      </trkpt>
      <trkpt lat="45.34283" lon="6.58014">
        <ele>2401.71</ele>
        <time>2014-01-31T14:27:27Z</time>
      </trkpt>
      <trkpt lat="45.34272" lon="6.5799">
        <ele>2402.27</ele>
        <time>2014-01-31T14:27:31Z</time>
      </trkpt>
      <trkpt lat="45.34257" lon="6.57969">
        <ele>2405.66</ele>
        <time>2014-01-31T14:27:34Z</time>
      </trkpt>
      <trkpt lat="45.34244" lon="6.57946">
        <ele>2409.46</ele>
        <time>2014-01-31T14:27:39Z</time>
      </trkpt>
      <trkpt lat="45.34232" lon="6.57927">
        <ele>2414.58</ele>
        <time>2014-01-31T14:27:44Z</time>
      </trkpt>
      <trkpt lat="45.3422" lon="6.57907">
        <ele>2422.41</ele>
        <time>2014-01-31T14:27:49Z</time>
      </trkpt>
      <trkpt lat="45.34207" lon="6.57883">
        <ele>2433.21</ele>
        <time>2014-01-31T14:27:55Z</time>
      </trkpt>
      <trkpt lat="45.34195" lon="6.5786">
        <ele>2443.18</ele>
        <time>2014-01-31T14:28:01Z</time>
      </trkpt>
      <trkpt lat="45.34183" lon="6.57839">
        <ele>2450.67</ele>
        <time>2014-01-31T14:28:07Z</time>
      </trkpt>
      <trkpt lat="45.3417" lon="6.57817">
        <ele>2460.11</ele>
        <time>2014-01-31T14:28:13Z</time>
      </trkpt>
      <trkpt lat="45.34158" lon="6.57795">
        <ele>2464.8</ele>
        <time>2014-01-31T14:28:19Z</time>
      </trkpt>
      <trkpt lat="45.34143" lon="6.57767">
        <ele>2471.94</ele>
        <time>2014-01-31T14:28:26Z</time>
      </trkpt>
      <trkpt lat="45.34131" lon="6.57743">
        <ele>2481.32</ele>
        <time>2014-01-31T14:28:32Z</time>
      </trkpt>
      <trkpt lat="45.34118" lon="6.5772">
        <ele>2494.96</ele>
        <time>2014-01-31T14:28:38Z</time>
      </trkpt>
      <trkpt lat="45.34106" lon="6.57697">
        <ele>2508.6</ele>
        <time>2014-01-31T14:28:44Z</time>
      </trkpt>
      <trkpt lat="45.34095" lon="6.57674">
        <ele>2513.36</ele>
        <time>2014-01-31T14:28:50Z</time>
      </trkpt>
      <trkpt lat="45.34084" lon="6.57652">
        <ele>2523.72</ele>
        <time>2014-01-31T14:28:55Z</time>
      </trkpt>
      <trkpt lat="45.3407" lon="6.57631">
        <ele>2527.81</ele>
        <time>2014-01-31T14:29:00Z</time>
      </trkpt>
      <trkpt lat="45.34058" lon="6.57607">
        <ele>2543.56</ele>
        <time>2014-01-31T14:29:07Z</time>
      </trkpt>
      <trkpt lat="45.3405" lon="6.57581">
        <ele>2556.01</ele>
        <time>2014-01-31T14:29:14Z</time>
      </trkpt>
      <trkpt lat="45.34038" lon="6.57556">
        <ele>2567.04</ele>
        <time>2014-01-31T14:29:21Z</time>
      </trkpt>
      <trkpt lat="45.34028" lon="6.57534">
        <ele>2587.92</ele>
        <time>2014-01-31T14:29:27Z</time>
      </trkpt>
      <trkpt lat="45.34017" lon="6.57511">
        <ele>2601.43</ele>
        <time>2014-01-31T14:29:33Z</time>
      </trkpt>
      <trkpt lat="45.34006" lon="6.5749">
        <ele>2614.82</ele>
        <time>2014-01-31T14:29:39Z</time>
      </trkpt>
      <trkpt lat="45.33994" lon="6.57466">
        <ele>2628.98</ele>
        <time>2014-01-31T14:29:46Z</time>
      </trkpt>
      <trkpt lat="45.33983" lon="6.57445">
        <ele>2639.29</ele>
        <time>2014-01-31T14:29:52Z</time>
      </trkpt>
      <trkpt lat="45.33972" lon="6.57425">
        <ele>2657.63</ele>
        <time>2014-01-31T14:29:58Z</time>
      </trkpt>
      <trkpt lat="45.3396" lon="6.57402">
        <ele>2672.61</ele>
        <time>2014-01-31T14:30:04Z</time>
      </trkpt>
      <trkpt lat="45.33945" lon="6.57381">
        <ele>2684.7</ele>
        <time>2014-01-31T14:30:10Z</time>
      </trkpt>
      <trkpt lat="45.33931" lon="6.57361">
        <ele>2691.98</ele>
        <time>2014-01-31T14:30:16Z</time>
      </trkpt>
      <trkpt lat="45.33917" lon="6.57338">
        <ele>2694.82</ele>
        <time>2014-01-31T14:30:22Z</time>
      </trkpt>
      <trkpt lat="45.33905" lon="6.57314">
        <ele>2695.98</ele>
        <time>2014-01-31T14:30:28Z</time>
      </trkpt>
      <trkpt lat="45.33893" lon="6.57291">
        <ele>2696.35</ele>
        <time>2014-01-31T14:30:34Z</time>
      </trkpt>
      <trkpt lat="45.33869" lon="6.5729">
        <ele>2699.18</ele>
        <time>2014-01-31T14:31:23Z</time>
      </trkpt>
      <trkpt lat="45.3387" lon="6.57262">
        <ele>2695.35</ele>
        <time>2014-01-31T14:33:12Z</time>
      </trkpt>
      <trkpt lat="45.33867" lon="6.57235">
        <ele>2689.49</ele>
        <time>2014-01-31T14:33:16Z</time>
      </trkpt>
      <trkpt lat="45.33869" lon="6.57205">
        <ele>2681.34</ele>
        <time>2014-01-31T14:33:19Z</time>
      </trkpt>
      <trkpt lat="45.33874" lon="6.57179">
        <ele>2675.03</ele>
        <time>2014-01-31T14:33:21Z</time>
      </trkpt>
      <trkpt lat="45.33869" lon="6.57151">
        <ele>2673.23</ele>
        <time>2014-01-31T14:33:23Z</time>
      </trkpt>
      <trkpt lat="45.33865" lon="6.57121">
        <ele>2674.12</ele>
        <time>2014-01-31T14:33:26Z</time>
      </trkpt>
      <trkpt lat="45.33887" lon="6.57116">
        <ele>2666.26</ele>
        <time>2014-01-31T14:33:31Z</time>
      </trkpt>
      <trkpt lat="45.33906" lon="6.57111">
        <ele>2660.7</ele>
        <time>2014-01-31T14:33:34Z</time>
      </trkpt>
      <trkpt lat="45.33922" lon="6.57088">
        <ele>2653.32</ele>
        <time>2014-01-31T14:33:38Z</time>
      </trkpt>
      <trkpt lat="45.33939" lon="6.5707">
        <ele>2648.66</ele>
        <time>2014-01-31T14:33:42Z</time>
      </trkpt>
      <trkpt lat="45.33957" lon="6.57064">
        <ele>2643.22</ele>
        <time>2014-01-31T14:33:45Z</time>
      </trkpt>
      <trkpt lat="45.33963" lon="6.57036">
        <ele>2638.66</ele>
        <time>2014-01-31T14:33:48Z</time>
      </trkpt>
      <trkpt lat="45.33979" lon="6.57019">
        <ele>2632.61</ele>
        <time>2014-01-31T14:33:53Z</time>
      </trkpt>
      <trkpt lat="45.33973" lon="6.56994">
        <ele>2630.9</ele>
        <time>2014-01-31T14:34:04Z</time>
      </trkpt>
      <trkpt lat="45.33962" lon="6.56964">
        <ele>2630.15</ele>
        <time>2014-01-31T14:34:09Z</time>
      </trkpt>
      <trkpt lat="45.33947" lon="6.56938">
        <ele>2618.07</ele>
        <time>2014-01-31T14:34:12Z</time>
      </trkpt>
      <trkpt lat="45.33928" lon="6.56913">
        <ele>2613.95</ele>
        <time>2014-01-31T14:34:15Z</time>
      </trkpt>
      <trkpt lat="45.33913" lon="6.56894">
        <ele>2614.95</ele>
        <time>2014-01-31T14:34:17Z</time>
      </trkpt>
      <trkpt lat="45.33901" lon="6.56872">
        <ele>2612.24</ele>
        <time>2014-01-31T14:34:19Z</time>
      </trkpt>
      <trkpt lat="45.33879" lon="6.56856">
        <ele>2606.81</ele>
        <time>2014-01-31T14:34:22Z</time>
      </trkpt>
      <trkpt lat="45.33862" lon="6.56842">
        <ele>2601.23</ele>
        <time>2014-01-31T14:34:25Z</time>
      </trkpt>
      <trkpt lat="45.33839" lon="6.56829">
        <ele>2595.79</ele>
        <time>2014-01-31T14:34:28Z</time>
      </trkpt>
      <trkpt lat="45.33821" lon="6.56818">
        <ele>2595.37</ele>
        <time>2014-01-31T14:34:30Z</time>
      </trkpt>
      <trkpt lat="45.33805" lon="6.56801">
        <ele>2591.77</ele>
        <time>2014-01-31T14:34:32Z</time>
      </trkpt>
      <trkpt lat="45.33795" lon="6.56778">
        <ele>2583.04</ele>
        <time>2014-01-31T14:34:34Z</time>
      </trkpt>
      <trkpt lat="45.33773" lon="6.56761">
        <ele>2575.23</ele>
        <time>2014-01-31T14:34:37Z</time>
      </trkpt>
      <trkpt lat="45.33753" lon="6.56758">
        <ele>2575.29</ele>
        <time>2014-01-31T14:34:39Z</time>
      </trkpt>
      <trkpt lat="45.3373" lon="6.56744">
        <ele>2574.38</ele>
        <time>2014-01-31T14:34:42Z</time>
      </trkpt>
      <trkpt lat="45.33708" lon="6.56726">
        <ele>2569.36</ele>
        <time>2014-01-31T14:34:45Z</time>
      </trkpt>
      <trkpt lat="45.33688" lon="6.56719">
        <ele>2565.52</ele>
        <time>2014-01-31T14:34:48Z</time>
      </trkpt>
      <trkpt lat="45.3368" lon="6.56687">
        <ele>2558.94</ele>
        <time>2014-01-31T14:34:51Z</time>
      </trkpt>
      <trkpt lat="45.33674" lon="6.56652">
        <ele>2549.8</ele>
        <time>2014-01-31T14:34:54Z</time>
      </trkpt>
      <trkpt lat="45.33693" lon="6.5663">
        <ele>2540.94</ele>
        <time>2014-01-31T14:34:57Z</time>
      </trkpt>
      <trkpt lat="45.33706" lon="6.56605">
        <ele>2534.44</ele>
        <time>2014-01-31T14:34:59Z</time>
      </trkpt>
      <trkpt lat="45.33708" lon="6.56577">
        <ele>2528.19</ele>
        <time>2014-01-31T14:35:01Z</time>
      </trkpt>
      <trkpt lat="45.33686" lon="6.56558">
        <ele>2519.59</ele>
        <time>2014-01-31T14:35:04Z</time>
      </trkpt>
      <trkpt lat="45.33668" lon="6.56553">
        <ele>2511.77</ele>
        <time>2014-01-31T14:35:06Z</time>
      </trkpt>
      <trkpt lat="45.33661" lon="6.56525">
        <ele>2504.08</ele>
        <time>2014-01-31T14:35:09Z</time>
      </trkpt>
      <trkpt lat="45.33669" lon="6.56501">
        <ele>2502.39</ele>
        <time>2014-01-31T14:35:11Z</time>
      </trkpt>
      <trkpt lat="45.33664" lon="6.56468">
        <ele>2493.76</ele>
        <time>2014-01-31T14:35:14Z</time>
      </trkpt>
      <trkpt lat="45.33647" lon="6.56447">
        <ele>2483.85</ele>
        <time>2014-01-31T14:35:17Z</time>
      </trkpt>
      <trkpt lat="45.3366" lon="6.56419">
        <ele>2479.2</ele>
        <time>2014-01-31T14:35:20Z</time>
      </trkpt>
      <trkpt lat="45.33678" lon="6.56411">
        <ele>2479.24</ele>
        <time>2014-01-31T14:35:22Z</time>
      </trkpt>
      <trkpt lat="45.33687" lon="6.56379">
        <ele>2470.76</ele>
        <time>2014-01-31T14:35:25Z</time>
      </trkpt>
      <trkpt lat="45.33692" lon="6.56352">
        <ele>2462.37</ele>
        <time>2014-01-31T14:35:28Z</time>
      </trkpt>
      <trkpt lat="45.33716" lon="6.56334">
        <ele>2456.87</ele>
        <time>2014-01-31T14:35:32Z</time>
      </trkpt>
      <trkpt lat="45.33717" lon="6.56304">
        <ele>2448.92</ele>
        <time>2014-01-31T14:35:35Z</time>
      </trkpt>
      <trkpt lat="45.33731" lon="6.56274">
        <ele>2439.9</ele>
        <time>2014-01-31T14:35:38Z</time>
      </trkpt>
      <trkpt lat="45.33737" lon="6.56246">
        <ele>2431.07</ele>
        <time>2014-01-31T14:35:41Z</time>
      </trkpt>
      <trkpt lat="45.33714" lon="6.56241">
        <ele>2426.44</ele>
        <time>2014-01-31T14:35:44Z</time>
      </trkpt>
      <trkpt lat="45.33694" lon="6.56236">
        <ele>2419.97</ele>
        <time>2014-01-31T14:35:46Z</time>
      </trkpt>
      <trkpt lat="45.33673" lon="6.56211">
        <ele>2412.11</ele>
        <time>2014-01-31T14:35:48Z</time>
      </trkpt>
      <trkpt lat="45.33649" lon="6.56198">
        <ele>2406.5</ele>
        <time>2014-01-31T14:35:50Z</time>
      </trkpt>
      <trkpt lat="45.33625" lon="6.56186">
        <ele>2403.29</ele>
        <time>2014-01-31T14:35:52Z</time>
      </trkpt>
      <trkpt lat="45.33604" lon="6.56165">
        <ele>2401.92</ele>
        <time>2014-01-31T14:35:54Z</time>
      </trkpt>
      <trkpt lat="45.33589" lon="6.56135">
        <ele>2397.81</ele>
        <time>2014-01-31T14:35:56Z</time>
      </trkpt>
      <trkpt lat="45.33574" lon="6.56104">
        <ele>2396.07</ele>
        <time>2014-01-31T14:35:58Z</time>
      </trkpt>
      <trkpt lat="45.33558" lon="6.56078">
        <ele>2396.6</ele>
        <time>2014-01-31T14:36:00Z</time>
      </trkpt>
      <trkpt lat="45.33541" lon="6.56055">
        <ele>2391.78</ele>
        <time>2014-01-31T14:36:02Z</time>
      </trkpt>
      <trkpt lat="45.33523" lon="6.56043">
        <ele>2385.05</ele>
        <time>2014-01-31T14:36:04Z</time>
      </trkpt>
      <trkpt lat="45.33505" lon="6.56023">
        <ele>2380.23</ele>
        <time>2014-01-31T14:36:07Z</time>
      </trkpt>
      <trkpt lat="45.33485" lon="6.56001">
        <ele>2378</ele>
        <time>2014-01-31T14:36:10Z</time>
      </trkpt>
      <trkpt lat="45.33482" lon="6.55963">
        <ele>2375.08</ele>
        <time>2014-01-31T14:36:13Z</time>
      </trkpt>
      <trkpt lat="45.33488" lon="6.55929">
        <ele>2368.81</ele>
        <time>2014-01-31T14:36:15Z</time>
      </trkpt>
      <trkpt lat="45.33489" lon="6.55893">
        <ele>2364.19</ele>
        <time>2014-01-31T14:36:17Z</time>
      </trkpt>
      <trkpt lat="45.33492" lon="6.5586">
        <ele>2357.09</ele>
        <time>2014-01-31T14:36:19Z</time>
      </trkpt>
      <trkpt lat="45.33502" lon="6.55833">
        <ele>2351.96</ele>
        <time>2014-01-31T14:36:21Z</time>
      </trkpt>
      <trkpt lat="45.33497" lon="6.55806">
        <ele>2347.61</ele>
        <time>2014-01-31T14:36:24Z</time>
      </trkpt>
      <trkpt lat="45.33489" lon="6.55782">
        <ele>2341.18</ele>
        <time>2014-01-31T14:36:27Z</time>
      </trkpt>
      <trkpt lat="45.33497" lon="6.55749">
        <ele>2335.71</ele>
        <time>2014-01-31T14:36:30Z</time>
      </trkpt>
      <trkpt lat="45.3349" lon="6.55719">
        <ele>2326.75</ele>
        <time>2014-01-31T14:36:33Z</time>
      </trkpt>
      <trkpt lat="45.33468" lon="6.55702">
        <ele>2317.34</ele>
        <time>2014-01-31T14:36:36Z</time>
      </trkpt>
      <trkpt lat="45.33464" lon="6.55676">
        <ele>2311.24</ele>
        <time>2014-01-31T14:36:38Z</time>
      </trkpt>
      <trkpt lat="45.33455" lon="6.5565">
        <ele>2305.81</ele>
        <time>2014-01-31T14:36:40Z</time>
      </trkpt>
      <trkpt lat="45.33434" lon="6.55641">
        <ele>2302.09</ele>
        <time>2014-01-31T14:36:42Z</time>
      </trkpt>
      <trkpt lat="45.33413" lon="6.5563">
        <ele>2299.87</ele>
        <time>2014-01-31T14:36:44Z</time>
      </trkpt>
      <trkpt lat="45.33399" lon="6.55606">
        <ele>2300.09</ele>
        <time>2014-01-31T14:36:46Z</time>
      </trkpt>
      <trkpt lat="45.33395" lon="6.55576">
        <ele>2298.37</ele>
        <time>2014-01-31T14:36:48Z</time>
      </trkpt>
      <trkpt lat="45.33393" lon="6.55545">
        <ele>2295.48</ele>
        <time>2014-01-31T14:36:50Z</time>
      </trkpt>
      <trkpt lat="45.33398" lon="6.5551">
        <ele>2291.64</ele>
        <time>2014-01-31T14:36:53Z</time>
      </trkpt>
      <trkpt lat="45.33417" lon="6.55519">
        <ele>2291.36</ele>
        <time>2014-01-31T14:37:37Z</time>
      </trkpt>
      <trkpt lat="45.33422" lon="6.55549">
        <ele>2293.53</ele>
        <time>2014-01-31T14:38:16Z</time>
      </trkpt>
      <trkpt lat="45.33429" lon="6.55573">
        <ele>2295.57</ele>
        <time>2014-01-31T14:38:22Z</time>
      </trkpt>
      <trkpt lat="45.33433" lon="6.556">
        <ele>2298.12</ele>
        <time>2014-01-31T14:38:29Z</time>
      </trkpt>
      <trkpt lat="45.3344" lon="6.5563">
        <ele>2301.55</ele>
        <time>2014-01-31T14:38:36Z</time>
      </trkpt>
      <trkpt lat="45.33446" lon="6.55655">
        <ele>2305.09</ele>
        <time>2014-01-31T14:38:40Z</time>
      </trkpt>
      <trkpt lat="45.33452" lon="6.55684">
        <ele>2309.79</ele>
        <time>2014-01-31T14:38:45Z</time>
      </trkpt>
      <trkpt lat="45.33458" lon="6.55713">
        <ele>2316.82</ele>
        <time>2014-01-31T14:38:50Z</time>
      </trkpt>
      <trkpt lat="45.33465" lon="6.55741">
        <ele>2324.08</ele>
        <time>2014-01-31T14:38:55Z</time>
      </trkpt>
      <trkpt lat="45.33473" lon="6.5577">
        <ele>2333.82</ele>
        <time>2014-01-31T14:39:00Z</time>
      </trkpt>
      <trkpt lat="45.3348" lon="6.55796">
        <ele>2342.7</ele>
        <time>2014-01-31T14:39:05Z</time>
      </trkpt>
      <trkpt lat="45.33485" lon="6.55827">
        <ele>2350.14</ele>
        <time>2014-01-31T14:39:10Z</time>
      </trkpt>
      <trkpt lat="45.3349" lon="6.55857">
        <ele>2356.94</ele>
        <time>2014-01-31T14:39:15Z</time>
      </trkpt>
      <trkpt lat="45.33495" lon="6.55885">
        <ele>2361.09</ele>
        <time>2014-01-31T14:39:20Z</time>
      </trkpt>
      <trkpt lat="45.335" lon="6.5591">
        <ele>2362.33</ele>
        <time>2014-01-31T14:39:24Z</time>
      </trkpt>
      <trkpt lat="45.33507" lon="6.55939">
        <ele>2365.81</ele>
        <time>2014-01-31T14:39:29Z</time>
      </trkpt>
      <trkpt lat="45.33514" lon="6.55968">
        <ele>2369.93</ele>
        <time>2014-01-31T14:39:34Z</time>
      </trkpt>
      <trkpt lat="45.3352" lon="6.55995">
        <ele>2375.49</ele>
        <time>2014-01-31T14:39:39Z</time>
      </trkpt>
      <trkpt lat="45.33526" lon="6.56025">
        <ele>2381.38</ele>
        <time>2014-01-31T14:39:44Z</time>
      </trkpt>
      <trkpt lat="45.33529" lon="6.56053">
        <ele>2387.79</ele>
        <time>2014-01-31T14:39:49Z</time>
      </trkpt>
      <trkpt lat="45.33534" lon="6.5608">
        <ele>2395.7</ele>
        <time>2014-01-31T14:39:54Z</time>
      </trkpt>
      <trkpt lat="45.3354" lon="6.5611">
        <ele>2403.38</ele>
        <time>2014-01-31T14:39:59Z</time>
      </trkpt>
      <trkpt lat="45.33545" lon="6.56139">
        <ele>2410.13</ele>
        <time>2014-01-31T14:40:04Z</time>
      </trkpt>
      <trkpt lat="45.3355" lon="6.56167">
        <ele>2419.51</ele>
        <time>2014-01-31T14:40:09Z</time>
      </trkpt>
      <trkpt lat="45.33557" lon="6.56196">
        <ele>2430.03</ele>
        <time>2014-01-31T14:40:15Z</time>
      </trkpt>
      <trkpt lat="45.33561" lon="6.56225">
        <ele>2441.46</ele>
        <time>2014-01-31T14:40:19Z</time>
      </trkpt>
      <trkpt lat="45.33566" lon="6.56253">
        <ele>2453.83</ele>
        <time>2014-01-31T14:40:23Z</time>
      </trkpt>
      <trkpt lat="45.33573" lon="6.56279">
        <ele>2460.96</ele>
        <time>2014-01-31T14:40:28Z</time>
      </trkpt>
      <trkpt lat="45.3358" lon="6.56306">
        <ele>2465.92</ele>
        <time>2014-01-31T14:40:33Z</time>
      </trkpt>
      <trkpt lat="45.33584" lon="6.56335">
        <ele>2469.95</ele>
        <time>2014-01-31T14:40:38Z</time>
      </trkpt>
      <trkpt lat="45.33589" lon="6.56363">
        <ele>2471.34</ele>
        <time>2014-01-31T14:40:43Z</time>
      </trkpt>
      <trkpt lat="45.33593" lon="6.5639">
        <ele>2472.32</ele>
        <time>2014-01-31T14:40:48Z</time>
      </trkpt>
      <trkpt lat="45.336" lon="6.56417">
        <ele>2471.18</ele>
        <time>2014-01-31T14:40:53Z</time>
      </trkpt>
      <trkpt lat="45.33607" lon="6.56441">
        <ele>2475.66</ele>
        <time>2014-01-31T14:40:58Z</time>
      </trkpt>
      <trkpt lat="45.33613" lon="6.56468">
        <ele>2483.55</ele>
        <time>2014-01-31T14:41:03Z</time>
      </trkpt>
      <trkpt lat="45.33619" lon="6.56499">
        <ele>2494.24</ele>
        <time>2014-01-31T14:41:09Z</time>
      </trkpt>
      <trkpt lat="45.33624" lon="6.56525">
        <ele>2505.19</ele>
        <time>2014-01-31T14:41:14Z</time>
      </trkpt>
      <trkpt lat="45.33631" lon="6.56551">
        <ele>2511.75</ele>
        <time>2014-01-31T14:41:23Z</time>
      </trkpt>
      <trkpt lat="45.33637" lon="6.56579">
        <ele>2521.16</ele>
        <time>2014-01-31T14:41:33Z</time>
      </trkpt>
      <trkpt lat="45.33643" lon="6.56607">
        <ele>2533.72</ele>
        <time>2014-01-31T14:41:39Z</time>
      </trkpt>
      <trkpt lat="45.33649" lon="6.56633">
        <ele>2544.54</ele>
        <time>2014-01-31T14:41:44Z</time>
      </trkpt>
      <trkpt lat="45.33656" lon="6.5666">
        <ele>2554.85</ele>
        <time>2014-01-31T14:41:50Z</time>
      </trkpt>
      <trkpt lat="45.33659" lon="6.5669">
        <ele>2562.92</ele>
        <time>2014-01-31T14:41:55Z</time>
      </trkpt>
      <trkpt lat="45.33663" lon="6.56717">
        <ele>2567.81</ele>
        <time>2014-01-31T14:42:00Z</time>
      </trkpt>
      <trkpt lat="45.33667" lon="6.56745">
        <ele>2573.68</ele>
        <time>2014-01-31T14:42:05Z</time>
      </trkpt>
      <trkpt lat="45.33671" lon="6.5677">
        <ele>2578.53</ele>
        <time>2014-01-31T14:42:09Z</time>
      </trkpt>
      <trkpt lat="45.33676" lon="6.56799">
        <ele>2581.75</ele>
        <time>2014-01-31T14:42:14Z</time>
      </trkpt>
      <trkpt lat="45.33683" lon="6.56824">
        <ele>2584.71</ele>
        <time>2014-01-31T14:42:19Z</time>
      </trkpt>
      <trkpt lat="45.33688" lon="6.56849">
        <ele>2589.37</ele>
        <time>2014-01-31T14:42:23Z</time>
      </trkpt>
      <trkpt lat="45.33695" lon="6.56877">
        <ele>2597.88</ele>
        <time>2014-01-31T14:42:28Z</time>
      </trkpt>
      <trkpt lat="45.33703" lon="6.56901">
        <ele>2608.01</ele>
        <time>2014-01-31T14:42:32Z</time>
      </trkpt>
      <trkpt lat="45.3371" lon="6.56928">
        <ele>2622.5</ele>
        <time>2014-01-31T14:42:39Z</time>
      </trkpt>
      <trkpt lat="45.33717" lon="6.56954">
        <ele>2636.7</ele>
        <time>2014-01-31T14:42:46Z</time>
      </trkpt>
      <trkpt lat="45.33724" lon="6.56979">
        <ele>2650.77</ele>
        <time>2014-01-31T14:42:52Z</time>
      </trkpt>
      <trkpt lat="45.33732" lon="6.57007">
        <ele>2654.29</ele>
        <time>2014-01-31T14:42:59Z</time>
      </trkpt>
      <trkpt lat="45.3374" lon="6.57033">
        <ele>2660.69</ele>
        <time>2014-01-31T14:43:05Z</time>
      </trkpt>
      <trkpt lat="45.33747" lon="6.57059">
        <ele>2667.91</ele>
        <time>2014-01-31T14:43:11Z</time>
      </trkpt>
      <trkpt lat="45.33754" lon="6.57092">
        <ele>2682.59</ele>
        <time>2014-01-31T14:43:16Z</time>
      </trkpt>
      <trkpt lat="45.33762" lon="6.57119">
        <ele>2693.56</ele>
        <time>2014-01-31T14:43:19Z</time>
      </trkpt>
      <trkpt lat="45.33769" lon="6.57147">
        <ele>2693.79</ele>
        <time>2014-01-31T14:43:23Z</time>
      </trkpt>
      <trkpt lat="45.33785" lon="6.57161">
        <ele>2693.36</ele>
        <time>2014-01-31T14:43:30Z</time>
      </trkpt>
      <trkpt lat="45.33797" lon="6.5714">
        <ele>2692.63</ele>
        <time>2014-01-31T14:43:33Z</time>
      </trkpt>
      <trkpt lat="45.33816" lon="6.57127">
        <ele>2686.58</ele>
        <time>2014-01-31T14:43:36Z</time>
      </trkpt>
      <trkpt lat="45.33832" lon="6.57114">
        <ele>2682.13</ele>
        <time>2014-01-31T14:43:38Z</time>
      </trkpt>
      <trkpt lat="45.3385" lon="6.57109">
        <ele>2678.5</ele>
        <time>2014-01-31T14:43:40Z</time>
      </trkpt>
      <trkpt lat="45.33865" lon="6.57094">
        <ele>2674.62</ele>
        <time>2014-01-31T14:43:42Z</time>
      </trkpt>
      <trkpt lat="45.33878" lon="6.57076">
        <ele>2667.8</ele>
        <time>2014-01-31T14:43:44Z</time>
      </trkpt>
      <trkpt lat="45.33896" lon="6.57069">
        <ele>2660.64</ele>
        <time>2014-01-31T14:43:46Z</time>
      </trkpt>
      <trkpt lat="45.33918" lon="6.57059">
        <ele>2655.28</ele>
        <time>2014-01-31T14:43:48Z</time>
      </trkpt>
      <trkpt lat="45.33939" lon="6.57043">
        <ele>2648.12</ele>
        <time>2014-01-31T14:43:50Z</time>
      </trkpt>
      <trkpt lat="45.33955" lon="6.57024">
        <ele>2640.28</ele>
        <time>2014-01-31T14:43:52Z</time>
      </trkpt>
      <trkpt lat="45.33961" lon="6.56999">
        <ele>2635.22</ele>
        <time>2014-01-31T14:43:54Z</time>
      </trkpt>
      <trkpt lat="45.33966" lon="6.56972">
        <ele>2632.34</ele>
        <time>2014-01-31T14:43:56Z</time>
      </trkpt>
      <trkpt lat="45.33955" lon="6.56938">
        <ele>2619.28</ele>
        <time>2014-01-31T14:43:59Z</time>
      </trkpt>
      <trkpt lat="45.3394" lon="6.56918">
        <ele>2611.7</ele>
        <time>2014-01-31T14:44:01Z</time>
      </trkpt>
      <trkpt lat="45.33923" lon="6.56899">
        <ele>2613.9</ele>
        <time>2014-01-31T14:44:03Z</time>
      </trkpt>
      <trkpt lat="45.33904" lon="6.56881">
        <ele>2613.67</ele>
        <time>2014-01-31T14:44:05Z</time>
      </trkpt>
      <trkpt lat="45.33888" lon="6.56864">
        <ele>2609.59</ele>
        <time>2014-01-31T14:44:07Z</time>
      </trkpt>
      <trkpt lat="45.33865" lon="6.56848">
        <ele>2603.26</ele>
        <time>2014-01-31T14:44:10Z</time>
      </trkpt>
      <trkpt lat="45.33844" lon="6.56829">
        <ele>2596.27</ele>
        <time>2014-01-31T14:44:13Z</time>
      </trkpt>
      <trkpt lat="45.33826" lon="6.56814">
        <ele>2593.89</ele>
        <time>2014-01-31T14:44:15Z</time>
      </trkpt>
      <trkpt lat="45.33806" lon="6.56804">
        <ele>2592.56</ele>
        <time>2014-01-31T14:44:17Z</time>
      </trkpt>
      <trkpt lat="45.33794" lon="6.56783">
        <ele>2584.59</ele>
        <time>2014-01-31T14:44:19Z</time>
      </trkpt>
      <trkpt lat="45.33771" lon="6.56763">
        <ele>2575.96</ele>
        <time>2014-01-31T14:44:22Z</time>
      </trkpt>
      <trkpt lat="45.3375" lon="6.56759">
        <ele>2575.56</ele>
        <time>2014-01-31T14:44:24Z</time>
      </trkpt>
      <trkpt lat="45.33731" lon="6.56756">
        <ele>2576.51</ele>
        <time>2014-01-31T14:44:26Z</time>
      </trkpt>
      <trkpt lat="45.33708" lon="6.56744">
        <ele>2573.16</ele>
        <time>2014-01-31T14:44:29Z</time>
      </trkpt>
      <trkpt lat="45.33695" lon="6.56724">
        <ele>2566.46</ele>
        <time>2014-01-31T14:44:31Z</time>
      </trkpt>
      <trkpt lat="45.33683" lon="6.56694">
        <ele>2560</ele>
        <time>2014-01-31T14:44:34Z</time>
      </trkpt>
      <trkpt lat="45.33686" lon="6.56656">
        <ele>2549.82</ele>
        <time>2014-01-31T14:44:37Z</time>
      </trkpt>
      <trkpt lat="45.33697" lon="6.56634">
        <ele>2541.6</ele>
        <time>2014-01-31T14:44:39Z</time>
      </trkpt>
      <trkpt lat="45.33717" lon="6.56613">
        <ele>2535.74</ele>
        <time>2014-01-31T14:44:41Z</time>
      </trkpt>
      <trkpt lat="45.3372" lon="6.56581">
        <ele>2529.33</ele>
        <time>2014-01-31T14:44:43Z</time>
      </trkpt>
      <trkpt lat="45.33711" lon="6.56555">
        <ele>2521.19</ele>
        <time>2014-01-31T14:44:45Z</time>
      </trkpt>
      <trkpt lat="45.33689" lon="6.56541">
        <ele>2516.6</ele>
        <time>2014-01-31T14:44:47Z</time>
      </trkpt>
      <trkpt lat="45.33666" lon="6.56542">
        <ele>2508.96</ele>
        <time>2014-01-31T14:44:49Z</time>
      </trkpt>
      <trkpt lat="45.3365" lon="6.56524">
        <ele>2501.17</ele>
        <time>2014-01-31T14:44:51Z</time>
      </trkpt>
      <trkpt lat="45.33653" lon="6.56496">
        <ele>2495</ele>
        <time>2014-01-31T14:44:53Z</time>
      </trkpt>
      <trkpt lat="45.33664" lon="6.56467">
        <ele>2493.71</ele>
        <time>2014-01-31T14:44:55Z</time>
      </trkpt>
      <trkpt lat="45.33666" lon="6.56439">
        <ele>2487.05</ele>
        <time>2014-01-31T14:44:57Z</time>
      </trkpt>
      <trkpt lat="45.33664" lon="6.56408">
        <ele>2476.63</ele>
        <time>2014-01-31T14:44:59Z</time>
      </trkpt>
      <trkpt lat="45.33671" lon="6.56382">
        <ele>2469.64</ele>
        <time>2014-01-31T14:45:01Z</time>
      </trkpt>
      <trkpt lat="45.33692" lon="6.56362">
        <ele>2465.94</ele>
        <time>2014-01-31T14:45:04Z</time>
      </trkpt>
      <trkpt lat="45.33704" lon="6.56335">
        <ele>2457.01</ele>
        <time>2014-01-31T14:45:06Z</time>
      </trkpt>
      <trkpt lat="45.33712" lon="6.56309">
        <ele>2450.11</ele>
        <time>2014-01-31T14:45:09Z</time>
      </trkpt>
      <trkpt lat="45.3373" lon="6.5629">
        <ele>2445.03</ele>
        <time>2014-01-31T14:45:11Z</time>
      </trkpt>
      <trkpt lat="45.33732" lon="6.56263">
        <ele>2436.07</ele>
        <time>2014-01-31T14:45:13Z</time>
      </trkpt>
      <trkpt lat="45.3372" lon="6.56241">
        <ele>2428.21</ele>
        <time>2014-01-31T14:45:15Z</time>
      </trkpt>
      <trkpt lat="45.33696" lon="6.56227">
        <ele>2417.67</ele>
        <time>2014-01-31T14:45:17Z</time>
      </trkpt>
      <trkpt lat="45.3367" lon="6.56207">
        <ele>2411.16</ele>
        <time>2014-01-31T14:45:19Z</time>
      </trkpt>
      <trkpt lat="45.33642" lon="6.56196">
        <ele>2404.6</ele>
        <time>2014-01-31T14:45:21Z</time>
      </trkpt>
      <trkpt lat="45.33616" lon="6.56182">
        <ele>2403.76</ele>
        <time>2014-01-31T14:45:23Z</time>
      </trkpt>
      <trkpt lat="45.33594" lon="6.56159">
        <ele>2403.6</ele>
        <time>2014-01-31T14:45:25Z</time>
      </trkpt>
      <trkpt lat="45.33579" lon="6.56127">
        <ele>2398.94</ele>
        <time>2014-01-31T14:45:27Z</time>
      </trkpt>
      <trkpt lat="45.33564" lon="6.56093">
        <ele>2396.98</ele>
        <time>2014-01-31T14:45:29Z</time>
      </trkpt>
      <trkpt lat="45.33546" lon="6.56067">
        <ele>2394.93</ele>
        <time>2014-01-31T14:45:31Z</time>
      </trkpt>
      <trkpt lat="45.33526" lon="6.56046">
        <ele>2385.83</ele>
        <time>2014-01-31T14:45:33Z</time>
      </trkpt>
      <trkpt lat="45.33507" lon="6.56033">
        <ele>2382.44</ele>
        <time>2014-01-31T14:45:35Z</time>
      </trkpt>
      <trkpt lat="45.3349" lon="6.56018">
        <ele>2380.47</ele>
        <time>2014-01-31T14:45:37Z</time>
      </trkpt>
      <trkpt lat="45.3348" lon="6.55997">
        <ele>2378.44</ele>
        <time>2014-01-31T14:45:39Z</time>
      </trkpt>
      <trkpt lat="45.3348" lon="6.55965">
        <ele>2376.2</ele>
        <time>2014-01-31T14:45:41Z</time>
      </trkpt>
      <trkpt lat="45.33488" lon="6.55922">
        <ele>2367.9</ele>
        <time>2014-01-31T14:45:43Z</time>
      </trkpt>
      <trkpt lat="45.3349" lon="6.55883">
        <ele>2362.18</ele>
        <time>2014-01-31T14:45:45Z</time>
      </trkpt>
      <trkpt lat="45.33494" lon="6.55847">
        <ele>2354.43</ele>
        <time>2014-01-31T14:45:47Z</time>
      </trkpt>
      <trkpt lat="45.33499" lon="6.55815">
        <ele>2349.17</ele>
        <time>2014-01-31T14:45:49Z</time>
      </trkpt>
      <trkpt lat="45.33495" lon="6.55789">
        <ele>2343.87</ele>
        <time>2014-01-31T14:45:51Z</time>
      </trkpt>
      <trkpt lat="45.33495" lon="6.55763">
        <ele>2338.29</ele>
        <time>2014-01-31T14:45:53Z</time>
      </trkpt>
      <trkpt lat="45.33498" lon="6.55735">
        <ele>2332.6</ele>
        <time>2014-01-31T14:45:55Z</time>
      </trkpt>
      <trkpt lat="45.33492" lon="6.55707">
        <ele>2323.86</ele>
        <time>2014-01-31T14:45:57Z</time>
      </trkpt>
      <trkpt lat="45.33472" lon="6.55686">
        <ele>2315.04</ele>
        <time>2014-01-31T14:45:59Z</time>
      </trkpt>
      <trkpt lat="45.33447" lon="6.55667">
        <ele>2306.52</ele>
        <time>2014-01-31T14:46:01Z</time>
      </trkpt>
      <trkpt lat="45.33427" lon="6.55641">
        <ele>2301.3</ele>
        <time>2014-01-31T14:46:03Z</time>
      </trkpt>
      <trkpt lat="45.33416" lon="6.55611">
        <ele>2298.08</ele>
        <time>2014-01-31T14:46:05Z</time>
      </trkpt>
      <trkpt lat="45.334" lon="6.55591">
        <ele>2299</ele>
        <time>2014-01-31T14:46:07Z</time>
      </trkpt>
      <trkpt lat="45.33389" lon="6.55566">
        <ele>2298.11</ele>
        <time>2014-01-31T14:46:09Z</time>
      </trkpt>
      <trkpt lat="45.33389" lon="6.55538">
        <ele>2295.05</ele>
        <time>2014-01-31T14:46:11Z</time>
      </trkpt>
      <trkpt lat="45.33393" lon="6.55507">
        <ele>2291.62</ele>
        <time>2014-01-31T14:46:14Z</time>
      </trkpt>
      <trkpt lat="45.33411" lon="6.55506">
        <ele>2290.65</ele>
        <time>2014-01-31T14:46:19Z</time>
      </trkpt>
      <trkpt lat="45.33425" lon="6.55529">
        <ele>2292.07</ele>
        <time>2014-01-31T14:46:47Z</time>
      </trkpt>
      <trkpt lat="45.33431" lon="6.55553">
        <ele>2293.79</ele>
        <time>2014-01-31T14:47:03Z</time>
      </trkpt>
      <trkpt lat="45.33436" lon="6.55579">
        <ele>2296.28</ele>
        <time>2014-01-31T14:47:07Z</time>
      </trkpt>
      <trkpt lat="45.33439" lon="6.55605">
        <ele>2298.99</ele>
        <time>2014-01-31T14:47:12Z</time>
      </trkpt>
      <trkpt lat="45.33445" lon="6.55636">
        <ele>2302.73</ele>
        <time>2014-01-31T14:47:17Z</time>
      </trkpt>
      <trkpt lat="45.33451" lon="6.55665">
        <ele>2306.91</ele>
        <time>2014-01-31T14:47:22Z</time>
      </trkpt>
      <trkpt lat="45.33455" lon="6.55691">
        <ele>2311.59</ele>
        <time>2014-01-31T14:47:26Z</time>
      </trkpt>
      <trkpt lat="45.33461" lon="6.55719">
        <ele>2318.69</ele>
        <time>2014-01-31T14:47:31Z</time>
      </trkpt>
      <trkpt lat="45.33467" lon="6.55747">
        <ele>2325.93</ele>
        <time>2014-01-31T14:47:36Z</time>
      </trkpt>
      <trkpt lat="45.33473" lon="6.55774">
        <ele>2335.17</ele>
        <time>2014-01-31T14:47:41Z</time>
      </trkpt>
      <trkpt lat="45.33478" lon="6.558">
        <ele>2343.25</ele>
        <time>2014-01-31T14:47:46Z</time>
      </trkpt>
      <trkpt lat="45.33482" lon="6.55825">
        <ele>2349.52</ele>
        <time>2014-01-31T14:47:50Z</time>
      </trkpt>
      <trkpt lat="45.33487" lon="6.5585">
        <ele>2355.69</ele>
        <time>2014-01-31T14:47:54Z</time>
      </trkpt>
      <trkpt lat="45.33494" lon="6.55879">
        <ele>2360.33</ele>
        <time>2014-01-31T14:47:59Z</time>
      </trkpt>
      <trkpt lat="45.335" lon="6.5591">
        <ele>2362.25</ele>
        <time>2014-01-31T14:48:04Z</time>
      </trkpt>
      <trkpt lat="45.33506" lon="6.5594">
        <ele>2365.83</ele>
        <time>2014-01-31T14:48:09Z</time>
      </trkpt>
      <trkpt lat="45.33512" lon="6.55968">
        <ele>2369.78</ele>
        <time>2014-01-31T14:48:14Z</time>
      </trkpt>
      <trkpt lat="45.33518" lon="6.55997">
        <ele>2375.66</ele>
        <time>2014-01-31T14:48:19Z</time>
      </trkpt>
      <trkpt lat="45.33524" lon="6.56027">
        <ele>2381.74</ele>
        <time>2014-01-31T14:48:24Z</time>
      </trkpt>
      <trkpt lat="45.33529" lon="6.56057">
        <ele>2388.7</ele>
        <time>2014-01-31T14:48:29Z</time>
      </trkpt>
      <trkpt lat="45.33535" lon="6.56086">
        <ele>2397.17</ele>
        <time>2014-01-31T14:48:34Z</time>
      </trkpt>
      <trkpt lat="45.33541" lon="6.56115">
        <ele>2404.59</ele>
        <time>2014-01-31T14:48:39Z</time>
      </trkpt>
      <trkpt lat="45.33547" lon="6.56144">
        <ele>2411.72</ele>
        <time>2014-01-31T14:48:44Z</time>
      </trkpt>
      <trkpt lat="45.33551" lon="6.56171">
        <ele>2421.14</ele>
        <time>2014-01-31T14:48:49Z</time>
      </trkpt>
      <trkpt lat="45.33554" lon="6.562">
        <ele>2432.88</ele>
        <time>2014-01-31T14:48:54Z</time>
      </trkpt>
      <trkpt lat="45.33558" lon="6.56229">
        <ele>2444.7</ele>
        <time>2014-01-31T14:48:59Z</time>
      </trkpt>
      <trkpt lat="45.33562" lon="6.56258">
        <ele>2456.88</ele>
        <time>2014-01-31T14:49:04Z</time>
      </trkpt>
      <trkpt lat="45.33569" lon="6.56288">
        <ele>2464.03</ele>
        <time>2014-01-31T14:49:09Z</time>
      </trkpt>
      <trkpt lat="45.33575" lon="6.56318">
        <ele>2469.03</ele>
        <time>2014-01-31T14:49:14Z</time>
      </trkpt>
      <trkpt lat="45.33582" lon="6.56347">
        <ele>2472.36</ele>
        <time>2014-01-31T14:49:19Z</time>
      </trkpt>
      <trkpt lat="45.33587" lon="6.56376">
        <ele>2474.23</ele>
        <time>2014-01-31T14:49:24Z</time>
      </trkpt>
      <trkpt lat="45.33592" lon="6.56406">
        <ele>2473.47</ele>
        <time>2014-01-31T14:49:29Z</time>
      </trkpt>
      <trkpt lat="45.33601" lon="6.56434">
        <ele>2475.15</ele>
        <time>2014-01-31T14:49:34Z</time>
      </trkpt>
      <trkpt lat="45.33608" lon="6.56462">
        <ele>2482.47</ele>
        <time>2014-01-31T14:49:39Z</time>
      </trkpt>
      <trkpt lat="45.33614" lon="6.56491">
        <ele>2492.54</ele>
        <time>2014-01-31T14:49:44Z</time>
      </trkpt>
      <trkpt lat="45.33622" lon="6.56518">
        <ele>2502.46</ele>
        <time>2014-01-31T14:49:49Z</time>
      </trkpt>
      <trkpt lat="45.33627" lon="6.56546">
        <ele>2511.83</ele>
        <time>2014-01-31T14:49:54Z</time>
      </trkpt>
      <trkpt lat="45.33634" lon="6.56574">
        <ele>2520.23</ele>
        <time>2014-01-31T14:49:59Z</time>
      </trkpt>
      <trkpt lat="45.3364" lon="6.56602">
        <ele>2531.55</ele>
        <time>2014-01-31T14:50:04Z</time>
      </trkpt>
      <trkpt lat="45.33646" lon="6.56628">
        <ele>2542.77</ele>
        <time>2014-01-31T14:50:09Z</time>
      </trkpt>
      <trkpt lat="45.33654" lon="6.56654">
        <ele>2552.62</ele>
        <time>2014-01-31T14:50:14Z</time>
      </trkpt>
      <trkpt lat="45.33663" lon="6.56678">
        <ele>2559.82</ele>
        <time>2014-01-31T14:50:19Z</time>
      </trkpt>
      <trkpt lat="45.33672" lon="6.56703">
        <ele>2563.79</ele>
        <time>2014-01-31T14:50:24Z</time>
      </trkpt>
      <trkpt lat="45.33681" lon="6.56727">
        <ele>2568.32</ele>
        <time>2014-01-31T14:50:29Z</time>
      </trkpt>
      <trkpt lat="45.33687" lon="6.56754">
        <ele>2574.49</ele>
        <time>2014-01-31T14:50:34Z</time>
      </trkpt>
      <trkpt lat="45.33694" lon="6.56783">
        <ele>2580.58</ele>
        <time>2014-01-31T14:50:39Z</time>
      </trkpt>
      <trkpt lat="45.33701" lon="6.5681">
        <ele>2584.19</ele>
        <time>2014-01-31T14:50:44Z</time>
      </trkpt>
      <trkpt lat="45.33706" lon="6.56835">
        <ele>2588.63</ele>
        <time>2014-01-31T14:50:49Z</time>
      </trkpt>
      <trkpt lat="45.33716" lon="6.56862">
        <ele>2596.41</ele>
        <time>2014-01-31T14:50:55Z</time>
      </trkpt>
      <trkpt lat="45.33727" lon="6.56884">
        <ele>2606.65</ele>
        <time>2014-01-31T14:51:01Z</time>
      </trkpt>
      <trkpt lat="45.33733" lon="6.56911">
        <ele>2621.25</ele>
        <time>2014-01-31T14:51:06Z</time>
      </trkpt>
      <trkpt lat="45.33739" lon="6.56939">
        <ele>2633.51</ele>
        <time>2014-01-31T14:51:11Z</time>
      </trkpt>
      <trkpt lat="45.33745" lon="6.56967">
        <ele>2644.08</ele>
        <time>2014-01-31T14:51:16Z</time>
      </trkpt>
      <trkpt lat="45.33748" lon="6.56994">
        <ele>2649.96</ele>
        <time>2014-01-31T14:51:20Z</time>
      </trkpt>
      <trkpt lat="45.33745" lon="6.5702">
        <ele>2657.48</ele>
        <time>2014-01-31T14:51:23Z</time>
      </trkpt>
      <trkpt lat="45.33748" lon="6.57051">
        <ele>2665.79</ele>
        <time>2014-01-31T14:51:28Z</time>
      </trkpt>
      <trkpt lat="45.33753" lon="6.57079">
        <ele>2676.81</ele>
        <time>2014-01-31T14:51:34Z</time>
      </trkpt>
      <trkpt lat="45.33761" lon="6.57105">
        <ele>2691.4</ele>
        <time>2014-01-31T14:51:41Z</time>
      </trkpt>
      <trkpt lat="45.33773" lon="6.57129">
        <ele>2697.26</ele>
        <time>2014-01-31T14:51:47Z</time>
      </trkpt>
      <trkpt lat="45.33785" lon="6.57151">
        <ele>2694.81</ele>
        <time>2014-01-31T14:51:51Z</time>
      </trkpt>
      <trkpt lat="45.3381" lon="6.57155">
        <ele>2688.73</ele>
        <time>2014-01-31T14:51:55Z</time>
      </trkpt>
      <trkpt lat="45.33837" lon="6.57152">
        <ele>2679.44</ele>
        <time>2014-01-31T14:51:58Z</time>
      </trkpt>
      <trkpt lat="45.33855" lon="6.57142">
        <ele>2676.21</ele>
        <time>2014-01-31T14:52:00Z</time>
      </trkpt>
      <trkpt lat="45.33873" lon="6.57133">
        <ele>2671.39</ele>
        <time>2014-01-31T14:52:02Z</time>
      </trkpt>
      <trkpt lat="45.3389" lon="6.57121">
        <ele>2665.32</ele>
        <time>2014-01-31T14:52:04Z</time>
      </trkpt>
      <trkpt lat="45.33909" lon="6.57121">
        <ele>2661.19</ele>
        <time>2014-01-31T14:52:06Z</time>
      </trkpt>
      <trkpt lat="45.3393" lon="6.57123">
        <ele>2657.01</ele>
        <time>2014-01-31T14:52:09Z</time>
      </trkpt>
      <trkpt lat="45.33941" lon="6.57098">
        <ele>2650.29</ele>
        <time>2014-01-31T14:52:12Z</time>
      </trkpt>
      <trkpt lat="45.33954" lon="6.57077">
        <ele>2644.6</ele>
        <time>2014-01-31T14:52:14Z</time>
      </trkpt>
      <trkpt lat="45.33973" lon="6.57055">
        <ele>2637.83</ele>
        <time>2014-01-31T14:52:16Z</time>
      </trkpt>
      <trkpt lat="45.3399" lon="6.57029">
        <ele>2632.92</ele>
        <time>2014-01-31T14:52:18Z</time>
      </trkpt>
      <trkpt lat="45.34012" lon="6.57009">
        <ele>2628.58</ele>
        <time>2014-01-31T14:52:20Z</time>
      </trkpt>
      <trkpt lat="45.34035" lon="6.56992">
        <ele>2624.71</ele>
        <time>2014-01-31T14:52:22Z</time>
      </trkpt>
      <trkpt lat="45.34052" lon="6.56969">
        <ele>2622</ele>
        <time>2014-01-31T14:52:24Z</time>
      </trkpt>
      <trkpt lat="45.3406" lon="6.56943">
        <ele>2619.29</ele>
        <time>2014-01-31T14:52:26Z</time>
      </trkpt>
      <trkpt lat="45.34059" lon="6.56912">
        <ele>2614.95</ele>
        <time>2014-01-31T14:52:28Z</time>
      </trkpt>
      <trkpt lat="45.34071" lon="6.56891">
        <ele>2610.26</ele>
        <time>2014-01-31T14:52:31Z</time>
      </trkpt>
      <trkpt lat="45.34087" lon="6.56871">
        <ele>2600.66</ele>
        <time>2014-01-31T14:52:35Z</time>
      </trkpt>
      <trkpt lat="45.34083" lon="6.56842">
        <ele>2592.17</ele>
        <time>2014-01-31T14:52:39Z</time>
      </trkpt>
      <trkpt lat="45.34098" lon="6.56822">
        <ele>2586.18</ele>
        <time>2014-01-31T14:52:42Z</time>
      </trkpt>
      <trkpt lat="45.34109" lon="6.56797">
        <ele>2578.13</ele>
        <time>2014-01-31T14:52:44Z</time>
      </trkpt>
      <trkpt lat="45.34104" lon="6.56763">
        <ele>2574.18</ele>
        <time>2014-01-31T14:52:46Z</time>
      </trkpt>
      <trkpt lat="45.34104" lon="6.56732">
        <ele>2569.99</ele>
        <time>2014-01-31T14:52:48Z</time>
      </trkpt>
      <trkpt lat="45.34122" lon="6.56699">
        <ele>2564.67</ele>
        <time>2014-01-31T14:52:50Z</time>
      </trkpt>
      <trkpt lat="45.34136" lon="6.56671">
        <ele>2560.47</ele>
        <time>2014-01-31T14:52:52Z</time>
      </trkpt>
      <trkpt lat="45.34144" lon="6.56643">
        <ele>2554.9</ele>
        <time>2014-01-31T14:52:54Z</time>
      </trkpt>
      <trkpt lat="45.34142" lon="6.56612">
        <ele>2546.83</ele>
        <time>2014-01-31T14:52:56Z</time>
      </trkpt>
      <trkpt lat="45.34143" lon="6.56578">
        <ele>2536.08</ele>
        <time>2014-01-31T14:52:58Z</time>
      </trkpt>
      <trkpt lat="45.34149" lon="6.56544">
        <ele>2531.38</ele>
        <time>2014-01-31T14:53:00Z</time>
      </trkpt>
      <trkpt lat="45.34168" lon="6.56517">
        <ele>2528.82</ele>
        <time>2014-01-31T14:53:02Z</time>
      </trkpt>
      <trkpt lat="45.34188" lon="6.56491">
        <ele>2526.34</ele>
        <time>2014-01-31T14:53:04Z</time>
      </trkpt>
      <trkpt lat="45.34198" lon="6.56462">
        <ele>2524.32</ele>
        <time>2014-01-31T14:53:06Z</time>
      </trkpt>
      <trkpt lat="45.34203" lon="6.56436">
        <ele>2520.96</ele>
        <time>2014-01-31T14:53:08Z</time>
      </trkpt>
      <trkpt lat="45.34216" lon="6.56411">
        <ele>2516.67</ele>
        <time>2014-01-31T14:53:11Z</time>
      </trkpt>
      <trkpt lat="45.34235" lon="6.56389">
        <ele>2511.66</ele>
        <time>2014-01-31T14:53:14Z</time>
      </trkpt>
      <trkpt lat="45.34235" lon="6.5636">
        <ele>2507.68</ele>
        <time>2014-01-31T14:53:18Z</time>
      </trkpt>
      <trkpt lat="45.34251" lon="6.56347">
        <ele>2501.25</ele>
        <time>2014-01-31T14:53:22Z</time>
      </trkpt>
      <trkpt lat="45.34272" lon="6.56339">
        <ele>2490.47</ele>
        <time>2014-01-31T14:53:29Z</time>
      </trkpt>
      <trkpt lat="45.34284" lon="6.56319">
        <ele>2479.72</ele>
        <time>2014-01-31T14:53:32Z</time>
      </trkpt>
      <trkpt lat="45.34305" lon="6.56305">
        <ele>2481.46</ele>
        <time>2014-01-31T14:53:36Z</time>
      </trkpt>
      <trkpt lat="45.34317" lon="6.56282">
        <ele>2475.58</ele>
        <time>2014-01-31T14:53:39Z</time>
      </trkpt>
      <trkpt lat="45.34324" lon="6.56255">
        <ele>2467.97</ele>
        <time>2014-01-31T14:53:42Z</time>
      </trkpt>
      <trkpt lat="45.3435" lon="6.56254">
        <ele>2465.78</ele>
        <time>2014-01-31T14:53:47Z</time>
      </trkpt>
      <trkpt lat="45.34368" lon="6.56246">
        <ele>2461.99</ele>
        <time>2014-01-31T14:53:49Z</time>
      </trkpt>
      <trkpt lat="45.34383" lon="6.56229">
        <ele>2459.84</ele>
        <time>2014-01-31T14:53:51Z</time>
      </trkpt>
      <trkpt lat="45.34399" lon="6.56217">
        <ele>2457.93</ele>
        <time>2014-01-31T14:53:53Z</time>
      </trkpt>
      <trkpt lat="45.34419" lon="6.56222">
        <ele>2451.91</ele>
        <time>2014-01-31T14:53:55Z</time>
      </trkpt>
      <trkpt lat="45.34438" lon="6.56221">
        <ele>2444.93</ele>
        <time>2014-01-31T14:53:57Z</time>
      </trkpt>
      <trkpt lat="45.34454" lon="6.56205">
        <ele>2443.43</ele>
        <time>2014-01-31T14:53:59Z</time>
      </trkpt>
      <trkpt lat="45.34472" lon="6.56192">
        <ele>2438.41</ele>
        <time>2014-01-31T14:54:01Z</time>
      </trkpt>
      <trkpt lat="45.34486" lon="6.56167">
        <ele>2436.4</ele>
        <time>2014-01-31T14:54:04Z</time>
      </trkpt>
      <trkpt lat="45.34497" lon="6.56134">
        <ele>2433.34</ele>
        <time>2014-01-31T14:54:07Z</time>
      </trkpt>
      <trkpt lat="45.34511" lon="6.56103">
        <ele>2421.19</ele>
        <time>2014-01-31T14:54:10Z</time>
      </trkpt>
      <trkpt lat="45.34532" lon="6.56095">
        <ele>2410.01</ele>
        <time>2014-01-31T14:54:13Z</time>
      </trkpt>
      <trkpt lat="45.34557" lon="6.56105">
        <ele>2403.14</ele>
        <time>2014-01-31T14:54:15Z</time>
      </trkpt>
      <trkpt lat="45.34582" lon="6.56103">
        <ele>2393.22</ele>
        <time>2014-01-31T14:54:17Z</time>
      </trkpt>
      <trkpt lat="45.34613" lon="6.56099">
        <ele>2381.73</ele>
        <time>2014-01-31T14:54:19Z</time>
      </trkpt>
      <trkpt lat="45.34645" lon="6.56094">
        <ele>2377.58</ele>
        <time>2014-01-31T14:54:21Z</time>
      </trkpt>
      <trkpt lat="45.34674" lon="6.56086">
        <ele>2376.72</ele>
        <time>2014-01-31T14:54:23Z</time>
      </trkpt>
      <trkpt lat="45.34699" lon="6.56076">
        <ele>2378.63</ele>
        <time>2014-01-31T14:54:25Z</time>
      </trkpt>
      <trkpt lat="45.34718" lon="6.56066">
        <ele>2379.55</ele>
        <time>2014-01-31T14:54:27Z</time>
      </trkpt>
      <trkpt lat="45.34734" lon="6.5605">
        <ele>2377.35</ele>
        <time>2014-01-31T14:54:29Z</time>
      </trkpt>
      <trkpt lat="45.34748" lon="6.56031">
        <ele>2373.69</ele>
        <time>2014-01-31T14:54:31Z</time>
      </trkpt>
      <trkpt lat="45.34759" lon="6.5601">
        <ele>2369.78</ele>
        <time>2014-01-31T14:54:33Z</time>
      </trkpt>
      <trkpt lat="45.34774" lon="6.55986">
        <ele>2361.73</ele>
        <time>2014-01-31T14:54:35Z</time>
      </trkpt>
      <trkpt lat="45.34792" lon="6.55965">
        <ele>2352.97</ele>
        <time>2014-01-31T14:54:37Z</time>
      </trkpt>
      <trkpt lat="45.34809" lon="6.55936">
        <ele>2345.76</ele>
        <time>2014-01-31T14:54:39Z</time>
      </trkpt>
      <trkpt lat="45.34825" lon="6.55906">
        <ele>2342.07</ele>
        <time>2014-01-31T14:54:41Z</time>
      </trkpt>
      <trkpt lat="45.34845" lon="6.5588">
        <ele>2337.53</ele>
        <time>2014-01-31T14:54:43Z</time>
      </trkpt>
      <trkpt lat="45.34864" lon="6.55848">
        <ele>2330.66</ele>
        <time>2014-01-31T14:54:45Z</time>
      </trkpt>
      <trkpt lat="45.34882" lon="6.55818">
        <ele>2325.67</ele>
        <time>2014-01-31T14:54:47Z</time>
      </trkpt>
      <trkpt lat="45.34901" lon="6.55789">
        <ele>2323.12</ele>
        <time>2014-01-31T14:54:49Z</time>
      </trkpt>
      <trkpt lat="45.34918" lon="6.5576">
        <ele>2321.79</ele>
        <time>2014-01-31T14:54:51Z</time>
      </trkpt>
      <trkpt lat="45.34933" lon="6.55732">
        <ele>2321.17</ele>
        <time>2014-01-31T14:54:53Z</time>
      </trkpt>
      <trkpt lat="45.34945" lon="6.55709">
        <ele>2321.13</ele>
        <time>2014-01-31T14:54:55Z</time>
      </trkpt>
      <trkpt lat="45.34956" lon="6.55689">
        <ele>2321.01</ele>
        <time>2014-01-31T14:54:57Z</time>
      </trkpt>
      <trkpt lat="45.34971" lon="6.55664">
        <ele>2321.74</ele>
        <time>2014-01-31T14:55:00Z</time>
      </trkpt>
      <trkpt lat="45.34984" lon="6.55643">
        <ele>2321.16</ele>
        <time>2014-01-31T14:55:03Z</time>
      </trkpt>
      <trkpt lat="45.34999" lon="6.55624">
        <ele>2320.48</ele>
        <time>2014-01-31T14:55:07Z</time>
      </trkpt>
      <trkpt lat="45.35016" lon="6.55606">
        <ele>2318.27</ele>
        <time>2014-01-31T14:55:11Z</time>
      </trkpt>
      <trkpt lat="45.35034" lon="6.55587">
        <ele>2312.28</ele>
        <time>2014-01-31T14:55:15Z</time>
      </trkpt>
      <trkpt lat="45.35049" lon="6.5557">
        <ele>2306.52</ele>
        <time>2014-01-31T14:55:18Z</time>
      </trkpt>
      <trkpt lat="45.35064" lon="6.55555">
        <ele>2301.89</ele>
        <time>2014-01-31T14:55:21Z</time>
      </trkpt>
      <trkpt lat="45.3508" lon="6.55533">
        <ele>2299.69</ele>
        <time>2014-01-31T14:55:24Z</time>
      </trkpt>
      <trkpt lat="45.35101" lon="6.55512">
        <ele>2297.8</ele>
        <time>2014-01-31T14:55:27Z</time>
      </trkpt>
      <trkpt lat="45.35117" lon="6.55495">
        <ele>2298.72</ele>
        <time>2014-01-31T14:55:29Z</time>
      </trkpt>
      <trkpt lat="45.35134" lon="6.55483">
        <ele>2297.96</ele>
        <time>2014-01-31T14:55:31Z</time>
      </trkpt>
      <trkpt lat="45.35158" lon="6.5547">
        <ele>2296.67</ele>
        <time>2014-01-31T14:55:34Z</time>
      </trkpt>
      <trkpt lat="45.35184" lon="6.55468">
        <ele>2295.06</ele>
        <time>2014-01-31T14:55:37Z</time>
      </trkpt>
      <trkpt lat="45.35206" lon="6.55465">
        <ele>2292.18</ele>
        <time>2014-01-31T14:55:40Z</time>
      </trkpt>
      <trkpt lat="45.35226" lon="6.55472">
        <ele>2289.06</ele>
        <time>2014-01-31T14:55:44Z</time>
      </trkpt>
      <trkpt lat="45.35251" lon="6.55462">
        <ele>2275.69</ele>
        <time>2014-01-31T14:55:47Z</time>
      </trkpt>
      <trkpt lat="45.35274" lon="6.55455">
        <ele>2269.91</ele>
        <time>2014-01-31T14:55:50Z</time>
      </trkpt>
      <trkpt lat="45.3529" lon="6.5543">
        <ele>2264.17</ele>
        <time>2014-01-31T14:55:54Z</time>
      </trkpt>
      <trkpt lat="45.35304" lon="6.55411">
        <ele>2260.77</ele>
        <time>2014-01-31T14:55:57Z</time>
      </trkpt>
      <trkpt lat="45.35327" lon="6.55397">
        <ele>2256.53</ele>
        <time>2014-01-31T14:56:00Z</time>
      </trkpt>
      <trkpt lat="45.3535" lon="6.55384">
        <ele>2253.47</ele>
        <time>2014-01-31T14:56:03Z</time>
      </trkpt>
      <trkpt lat="45.35372" lon="6.55376">
        <ele>2251.89</ele>
        <time>2014-01-31T14:56:06Z</time>
      </trkpt>
      <trkpt lat="45.35391" lon="6.55371">
        <ele>2251.12</ele>
        <time>2014-01-31T14:56:24Z</time>
      </trkpt>
      <trkpt lat="45.35384" lon="6.554">
        <ele>2257.18</ele>
        <time>2014-01-31T15:00:07Z</time>
      </trkpt>
      <trkpt lat="45.35371" lon="6.55426">
        <ele>2260.99</ele>
        <time>2014-01-31T15:00:11Z</time>
      </trkpt>
      <trkpt lat="45.3536" lon="6.55451">
        <ele>2265.53</ele>
        <time>2014-01-31T15:00:16Z</time>
      </trkpt>
      <trkpt lat="45.35346" lon="6.55475">
        <ele>2270.52</ele>
        <time>2014-01-31T15:00:22Z</time>
      </trkpt>
      <trkpt lat="45.35329" lon="6.55494">
        <ele>2273.3</ele>
        <time>2014-01-31T15:00:26Z</time>
      </trkpt>
      <trkpt lat="45.35311" lon="6.55513">
        <ele>2277.11</ele>
        <time>2014-01-31T15:00:31Z</time>
      </trkpt>
      <trkpt lat="45.35294" lon="6.55531">
        <ele>2281.25</ele>
        <time>2014-01-31T15:00:36Z</time>
      </trkpt>
      <trkpt lat="45.35278" lon="6.55549">
        <ele>2284.31</ele>
        <time>2014-01-31T15:00:41Z</time>
      </trkpt>
      <trkpt lat="45.35263" lon="6.55567">
        <ele>2287.5</ele>
        <time>2014-01-31T15:00:45Z</time>
      </trkpt>
      <trkpt lat="45.35248" lon="6.55583">
        <ele>2291.47</ele>
        <time>2014-01-31T15:00:49Z</time>
      </trkpt>
      <trkpt lat="45.35232" lon="6.55604">
        <ele>2300.35</ele>
        <time>2014-01-31T15:00:54Z</time>
      </trkpt>
      <trkpt lat="45.35216" lon="6.55619">
        <ele>2306.18</ele>
        <time>2014-01-31T15:00:58Z</time>
      </trkpt>
      <trkpt lat="45.35199" lon="6.55635">
        <ele>2311.77</ele>
        <time>2014-01-31T15:01:03Z</time>
      </trkpt>
      <trkpt lat="45.35182" lon="6.55656">
        <ele>2317.07</ele>
        <time>2014-01-31T15:01:08Z</time>
      </trkpt>
      <trkpt lat="45.35168" lon="6.55677">
        <ele>2321.26</ele>
        <time>2014-01-31T15:01:13Z</time>
      </trkpt>
      <trkpt lat="45.35151" lon="6.55697">
        <ele>2326.98</ele>
        <time>2014-01-31T15:01:18Z</time>
      </trkpt>
      <trkpt lat="45.35137" lon="6.55713">
        <ele>2329.25</ele>
        <time>2014-01-31T15:01:22Z</time>
      </trkpt>
      <trkpt lat="45.3512" lon="6.55728">
        <ele>2329.82</ele>
        <time>2014-01-31T15:01:26Z</time>
      </trkpt>
      <trkpt lat="45.35103" lon="6.55748">
        <ele>2329.94</ele>
        <time>2014-01-31T15:01:31Z</time>
      </trkpt>
      <trkpt lat="45.35087" lon="6.55763">
        <ele>2327.81</ele>
        <time>2014-01-31T15:01:35Z</time>
      </trkpt>
      <trkpt lat="45.35072" lon="6.5578">
        <ele>2327.67</ele>
        <time>2014-01-31T15:01:39Z</time>
      </trkpt>
      <trkpt lat="45.35055" lon="6.558">
        <ele>2327.77</ele>
        <time>2014-01-31T15:01:44Z</time>
      </trkpt>
      <trkpt lat="45.35041" lon="6.55817">
        <ele>2327.87</ele>
        <time>2014-01-31T15:01:48Z</time>
      </trkpt>
      <trkpt lat="45.35027" lon="6.55834">
        <ele>2328.02</ele>
        <time>2014-01-31T15:01:52Z</time>
      </trkpt>
      <trkpt lat="45.35011" lon="6.55854">
        <ele>2328.31</ele>
        <time>2014-01-31T15:01:57Z</time>
      </trkpt>
      <trkpt lat="45.34996" lon="6.55872">
        <ele>2328.39</ele>
        <time>2014-01-31T15:02:01Z</time>
      </trkpt>
      <trkpt lat="45.34982" lon="6.55889">
        <ele>2329</ele>
        <time>2014-01-31T15:02:05Z</time>
      </trkpt>
      <trkpt lat="45.34965" lon="6.5591">
        <ele>2331.18</ele>
        <time>2014-01-31T15:02:10Z</time>
      </trkpt>
      <trkpt lat="45.34949" lon="6.55929">
        <ele>2336.14</ele>
        <time>2014-01-31T15:02:15Z</time>
      </trkpt>
      <trkpt lat="45.34931" lon="6.55948">
        <ele>2340.63</ele>
        <time>2014-01-31T15:02:20Z</time>
      </trkpt>
      <trkpt lat="45.34915" lon="6.55968">
        <ele>2344.4</ele>
        <time>2014-01-31T15:02:25Z</time>
      </trkpt>
      <trkpt lat="45.34901" lon="6.55987">
        <ele>2350.81</ele>
        <time>2014-01-31T15:02:29Z</time>
      </trkpt>
      <trkpt lat="45.34886" lon="6.56008">
        <ele>2357.39</ele>
        <time>2014-01-31T15:02:34Z</time>
      </trkpt>
      <trkpt lat="45.34871" lon="6.56023">
        <ele>2361.15</ele>
        <time>2014-01-31T15:02:38Z</time>
      </trkpt>
      <trkpt lat="45.34856" lon="6.56042">
        <ele>2362.67</ele>
        <time>2014-01-31T15:02:43Z</time>
      </trkpt>
      <trkpt lat="45.3484" lon="6.5606">
        <ele>2362.74</ele>
        <time>2014-01-31T15:02:47Z</time>
      </trkpt>
      <trkpt lat="45.34825" lon="6.56076">
        <ele>2363.68</ele>
        <time>2014-01-31T15:02:51Z</time>
      </trkpt>
      <trkpt lat="45.3481" lon="6.56092">
        <ele>2365.76</ele>
        <time>2014-01-31T15:02:55Z</time>
      </trkpt>
      <trkpt lat="45.34796" lon="6.56109">
        <ele>2363.99</ele>
        <time>2014-01-31T15:02:59Z</time>
      </trkpt>
      <trkpt lat="45.34781" lon="6.5613">
        <ele>2367.77</ele>
        <time>2014-01-31T15:03:04Z</time>
      </trkpt>
      <trkpt lat="45.34765" lon="6.5615">
        <ele>2373.13</ele>
        <time>2014-01-31T15:03:09Z</time>
      </trkpt>
      <trkpt lat="45.34753" lon="6.56169">
        <ele>2378.53</ele>
        <time>2014-01-31T15:03:13Z</time>
      </trkpt>
      <trkpt lat="45.34739" lon="6.5619">
        <ele>2387.52</ele>
        <time>2014-01-31T15:03:18Z</time>
      </trkpt>
      <trkpt lat="45.34724" lon="6.56208">
        <ele>2397.24</ele>
        <time>2014-01-31T15:03:23Z</time>
      </trkpt>
      <trkpt lat="45.34709" lon="6.56226">
        <ele>2409.83</ele>
        <time>2014-01-31T15:03:28Z</time>
      </trkpt>
      <trkpt lat="45.34693" lon="6.56245">
        <ele>2421.93</ele>
        <time>2014-01-31T15:03:33Z</time>
      </trkpt>
      <trkpt lat="45.34678" lon="6.56266">
        <ele>2429.87</ele>
        <time>2014-01-31T15:03:38Z</time>
      </trkpt>
      <trkpt lat="45.34661" lon="6.56284">
        <ele>2433.19</ele>
        <time>2014-01-31T15:03:44Z</time>
      </trkpt>
      <trkpt lat="45.34645" lon="6.56303">
        <ele>2441.21</ele>
        <time>2014-01-31T15:03:48Z</time>
      </trkpt>
      <trkpt lat="45.3463" lon="6.5632">
        <ele>2448.7</ele>
        <time>2014-01-31T15:03:52Z</time>
      </trkpt>
      <trkpt lat="45.34614" lon="6.5634">
        <ele>2461.13</ele>
        <time>2014-01-31T15:03:57Z</time>
      </trkpt>
      <trkpt lat="45.346" lon="6.56356">
        <ele>2470.04</ele>
        <time>2014-01-31T15:04:02Z</time>
      </trkpt>
      <trkpt lat="45.34584" lon="6.56377">
        <ele>2481.07</ele>
        <time>2014-01-31T15:04:07Z</time>
      </trkpt>
      <trkpt lat="45.34567" lon="6.56393">
        <ele>2490.29</ele>
        <time>2014-01-31T15:04:12Z</time>
      </trkpt>
      <trkpt lat="45.34553" lon="6.56413">
        <ele>2495.99</ele>
        <time>2014-01-31T15:04:16Z</time>
      </trkpt>
      <trkpt lat="45.34538" lon="6.56433">
        <ele>2501.96</ele>
        <time>2014-01-31T15:04:21Z</time>
      </trkpt>
      <trkpt lat="45.34522" lon="6.56452">
        <ele>2509.1</ele>
        <time>2014-01-31T15:04:26Z</time>
      </trkpt>
      <trkpt lat="45.34508" lon="6.56469">
        <ele>2516.06</ele>
        <time>2014-01-31T15:04:31Z</time>
      </trkpt>
      <trkpt lat="45.34494" lon="6.56487">
        <ele>2524.25</ele>
        <time>2014-01-31T15:04:36Z</time>
      </trkpt>
      <trkpt lat="45.34478" lon="6.56508">
        <ele>2532.28</ele>
        <time>2014-01-31T15:04:41Z</time>
      </trkpt>
      <trkpt lat="45.34465" lon="6.56528">
        <ele>2537.92</ele>
        <time>2014-01-31T15:04:46Z</time>
      </trkpt>
      <trkpt lat="45.34455" lon="6.5655">
        <ele>2543.62</ele>
        <time>2014-01-31T15:04:50Z</time>
      </trkpt>
      <trkpt lat="45.34445" lon="6.56571">
        <ele>2549.34</ele>
        <time>2014-01-31T15:04:54Z</time>
      </trkpt>
      <trkpt lat="45.34434" lon="6.56596">
        <ele>2555.69</ele>
        <time>2014-01-31T15:04:59Z</time>
      </trkpt>
      <trkpt lat="45.3442" lon="6.56622">
        <ele>2562.31</ele>
        <time>2014-01-31T15:05:04Z</time>
      </trkpt>
      <trkpt lat="45.34407" lon="6.56642">
        <ele>2568.22</ele>
        <time>2014-01-31T15:05:08Z</time>
      </trkpt>
      <trkpt lat="45.34393" lon="6.56663">
        <ele>2569.94</ele>
        <time>2014-01-31T15:05:13Z</time>
      </trkpt>
      <trkpt lat="45.34373" lon="6.5668">
        <ele>2564.7</ele>
        <time>2014-01-31T15:05:18Z</time>
      </trkpt>
      <trkpt lat="45.34351" lon="6.56691">
        <ele>2560.1</ele>
        <time>2014-01-31T15:05:22Z</time>
      </trkpt>
      <trkpt lat="45.34332" lon="6.56702">
        <ele>2554.89</ele>
        <time>2014-01-31T15:05:26Z</time>
      </trkpt>
      <trkpt lat="45.34311" lon="6.56711">
        <ele>2552.55</ele>
        <time>2014-01-31T15:05:30Z</time>
      </trkpt>
      <trkpt lat="45.34294" lon="6.56724">
        <ele>2554.29</ele>
        <time>2014-01-31T15:05:34Z</time>
      </trkpt>
      <trkpt lat="45.34274" lon="6.56743">
        <ele>2560.94</ele>
        <time>2014-01-31T15:05:39Z</time>
      </trkpt>
      <trkpt lat="45.34258" lon="6.56762">
        <ele>2567.57</ele>
        <time>2014-01-31T15:05:44Z</time>
      </trkpt>
      <trkpt lat="45.34243" lon="6.56778">
        <ele>2572.43</ele>
        <time>2014-01-31T15:05:49Z</time>
      </trkpt>
      <trkpt lat="45.34227" lon="6.56796">
        <ele>2577.21</ele>
        <time>2014-01-31T15:05:54Z</time>
      </trkpt>
      <trkpt lat="45.34211" lon="6.56818">
        <ele>2580.43</ele>
        <time>2014-01-31T15:05:59Z</time>
      </trkpt>
      <trkpt lat="45.34195" lon="6.56838">
        <ele>2584.85</ele>
        <time>2014-01-31T15:06:04Z</time>
      </trkpt>
      <trkpt lat="45.3418" lon="6.56858">
        <ele>2590.13</ele>
        <time>2014-01-31T15:06:08Z</time>
      </trkpt>
      <trkpt lat="45.34166" lon="6.56876">
        <ele>2592.58</ele>
        <time>2014-01-31T15:06:12Z</time>
      </trkpt>
      <trkpt lat="45.34153" lon="6.56894">
        <ele>2595.4</ele>
        <time>2014-01-31T15:06:16Z</time>
      </trkpt>
      <trkpt lat="45.34139" lon="6.56913">
        <ele>2597.24</ele>
        <time>2014-01-31T15:06:20Z</time>
      </trkpt>
      <trkpt lat="45.34122" lon="6.56933">
        <ele>2601.61</ele>
        <time>2014-01-31T15:06:25Z</time>
      </trkpt>
      <trkpt lat="45.34106" lon="6.56952">
        <ele>2608.43</ele>
        <time>2014-01-31T15:06:30Z</time>
      </trkpt>
      <trkpt lat="45.34092" lon="6.5697">
        <ele>2616.05</ele>
        <time>2014-01-31T15:06:36Z</time>
      </trkpt>
      <trkpt lat="45.34077" lon="6.56988">
        <ele>2620.63</ele>
        <time>2014-01-31T15:06:44Z</time>
      </trkpt>
      <trkpt lat="45.34061" lon="6.57008">
        <ele>2622.33</ele>
        <time>2014-01-31T15:06:50Z</time>
      </trkpt>
      <trkpt lat="45.34045" lon="6.57029">
        <ele>2625.06</ele>
        <time>2014-01-31T15:06:56Z</time>
      </trkpt>
      <trkpt lat="45.34029" lon="6.57051">
        <ele>2628.73</ele>
        <time>2014-01-31T15:07:01Z</time>
      </trkpt>
      <trkpt lat="45.34016" lon="6.57071">
        <ele>2633.2</ele>
        <time>2014-01-31T15:07:05Z</time>
      </trkpt>
      <trkpt lat="45.34002" lon="6.57093">
        <ele>2638.95</ele>
        <time>2014-01-31T15:07:10Z</time>
      </trkpt>
      <trkpt lat="45.33987" lon="6.57114">
        <ele>2644.99</ele>
        <time>2014-01-31T15:07:15Z</time>
      </trkpt>
      <trkpt lat="45.33974" lon="6.57136">
        <ele>2650.28</ele>
        <time>2014-01-31T15:07:20Z</time>
      </trkpt>
      <trkpt lat="45.33959" lon="6.5716">
        <ele>2656.56</ele>
        <time>2014-01-31T15:07:25Z</time>
      </trkpt>
      <trkpt lat="45.33942" lon="6.57179">
        <ele>2663.58</ele>
        <time>2014-01-31T15:07:30Z</time>
      </trkpt>
      <trkpt lat="45.33924" lon="6.57198">
        <ele>2671.44</ele>
        <time>2014-01-31T15:07:35Z</time>
      </trkpt>
      <trkpt lat="45.3391" lon="6.57214">
        <ele>2677.72</ele>
        <time>2014-01-31T15:07:39Z</time>
      </trkpt>
      <trkpt lat="45.33896" lon="6.5723">
        <ele>2683.38</ele>
        <time>2014-01-31T15:07:43Z</time>
      </trkpt>
      <trkpt lat="45.33879" lon="6.5725">
        <ele>2691.15</ele>
        <time>2014-01-31T15:07:48Z</time>
      </trkpt>
      <trkpt lat="45.33867" lon="6.5727">
        <ele>2697.53</ele>
        <time>2014-01-31T15:07:54Z</time>
      </trkpt>
      <trkpt lat="45.33849" lon="6.57277">
        <ele>2698.62</ele>
        <time>2014-01-31T15:08:00Z</time>
      </trkpt>
      <trkpt lat="45.33829" lon="6.57267">
        <ele>2697.26</ele>
        <time>2014-01-31T15:08:04Z</time>
      </trkpt>
      <trkpt lat="45.34549" lon="6.56107">
        <ele>2404.72</ele>
        <time>2014-01-31T15:11:46Z</time>
      </trkpt>
      <trkpt lat="45.34574" lon="6.56126">
        <ele>2399.16</ele>
        <time>2014-01-31T15:11:47Z</time>
      </trkpt>
      <trkpt lat="45.34604" lon="6.56109">
        <ele>2384.47</ele>
        <time>2014-01-31T15:11:52Z</time>
      </trkpt>
      <trkpt lat="45.34635" lon="6.56098">
        <ele>2378.67</ele>
        <time>2014-01-31T15:11:53Z</time>
      </trkpt>
      <trkpt lat="45.34668" lon="6.56094">
        <ele>2376.83</ele>
        <time>2014-01-31T15:11:55Z</time>
      </trkpt>
      <trkpt lat="45.34693" lon="6.56085">
        <ele>2377.98</ele>
        <time>2014-01-31T15:11:57Z</time>
      </trkpt>
      <trkpt lat="45.34715" lon="6.56072">
        <ele>2379.23</ele>
        <time>2014-01-31T15:11:59Z</time>
      </trkpt>
      <trkpt lat="45.34731" lon="6.56057">
        <ele>2378.08</ele>
        <time>2014-01-31T15:12:01Z</time>
      </trkpt>
      <trkpt lat="45.34745" lon="6.56035">
        <ele>2374.6</ele>
        <time>2014-01-31T15:12:03Z</time>
      </trkpt>
      <trkpt lat="45.34758" lon="6.56014">
        <ele>2370.41</ele>
        <time>2014-01-31T15:12:05Z</time>
      </trkpt>
      <trkpt lat="45.34774" lon="6.55993">
        <ele>2363.35</ele>
        <time>2014-01-31T15:12:07Z</time>
      </trkpt>
      <trkpt lat="45.34793" lon="6.55967">
        <ele>2353.46</ele>
        <time>2014-01-31T15:12:09Z</time>
      </trkpt>
      <trkpt lat="45.34814" lon="6.55941">
        <ele>2347.04</ele>
        <time>2014-01-31T15:12:11Z</time>
      </trkpt>
      <trkpt lat="45.3483" lon="6.55912">
        <ele>2343.73</ele>
        <time>2014-01-31T15:12:13Z</time>
      </trkpt>
      <trkpt lat="45.34847" lon="6.5588">
        <ele>2337.53</ele>
        <time>2014-01-31T15:12:15Z</time>
      </trkpt>
      <trkpt lat="45.34868" lon="6.55855">
        <ele>2331.75</ele>
        <time>2014-01-31T15:12:17Z</time>
      </trkpt>
      <trkpt lat="45.34889" lon="6.55829">
        <ele>2327.47</ele>
        <time>2014-01-31T15:12:19Z</time>
      </trkpt>
      <trkpt lat="45.3491" lon="6.55799">
        <ele>2324.38</ele>
        <time>2014-01-31T15:12:21Z</time>
      </trkpt>
      <trkpt lat="45.34927" lon="6.55769">
        <ele>2323.52</ele>
        <time>2014-01-31T15:12:23Z</time>
      </trkpt>
      <trkpt lat="45.34943" lon="6.55739">
        <ele>2323.06</ele>
        <time>2014-01-31T15:12:25Z</time>
      </trkpt>
      <trkpt lat="45.34958" lon="6.55713">
        <ele>2322.45</ele>
        <time>2014-01-31T15:12:27Z</time>
      </trkpt>
      <trkpt lat="45.34969" lon="6.55691">
        <ele>2322.49</ele>
        <time>2014-01-31T15:12:29Z</time>
      </trkpt>
      <trkpt lat="45.34983" lon="6.55663">
        <ele>2321.88</ele>
        <time>2014-01-31T15:12:32Z</time>
      </trkpt>
      <trkpt lat="45.34996" lon="6.5564">
        <ele>2321.04</ele>
        <time>2014-01-31T15:12:35Z</time>
      </trkpt>
      <trkpt lat="45.3501" lon="6.55615">
        <ele>2320.16</ele>
        <time>2014-01-31T15:12:39Z</time>
      </trkpt>
      <trkpt lat="45.35025" lon="6.55599">
        <ele>2315.67</ele>
        <time>2014-01-31T15:12:42Z</time>
      </trkpt>
      <trkpt lat="45.35043" lon="6.55581">
        <ele>2310.94</ele>
        <time>2014-01-31T15:12:45Z</time>
      </trkpt>
      <trkpt lat="45.3506" lon="6.55563">
        <ele>2304.53</ele>
        <time>2014-01-31T15:12:48Z</time>
      </trkpt>
      <trkpt lat="45.35078" lon="6.55539">
        <ele>2300.89</ele>
        <time>2014-01-31T15:12:51Z</time>
      </trkpt>
      <trkpt lat="45.35097" lon="6.55515">
        <ele>2297.67</ele>
        <time>2014-01-31T15:12:54Z</time>
      </trkpt>
      <trkpt lat="45.35112" lon="6.55495">
        <ele>2298.48</ele>
        <time>2014-01-31T15:12:56Z</time>
      </trkpt>
      <trkpt lat="45.3513" lon="6.55483">
        <ele>2297.88</ele>
        <time>2014-01-31T15:12:58Z</time>
      </trkpt>
      <trkpt lat="45.35146" lon="6.55472">
        <ele>2296.98</ele>
        <time>2014-01-31T15:13:00Z</time>
      </trkpt>
      <trkpt lat="45.35171" lon="6.55459">
        <ele>2294.76</ele>
        <time>2014-01-31T15:13:03Z</time>
      </trkpt>
      <trkpt lat="45.35197" lon="6.55454">
        <ele>2291.32</ele>
        <time>2014-01-31T15:13:06Z</time>
      </trkpt>
      <trkpt lat="45.35219" lon="6.55457">
        <ele>2288.7</ele>
        <time>2014-01-31T15:13:09Z</time>
      </trkpt>
      <trkpt lat="45.3524" lon="6.55459">
        <ele>2280.43</ele>
        <time>2014-01-31T15:13:11Z</time>
      </trkpt>
      <trkpt lat="45.35259" lon="6.55464">
        <ele>2274.56</ele>
        <time>2014-01-31T15:13:13Z</time>
      </trkpt>
      <trkpt lat="45.3528" lon="6.55444">
        <ele>2266.83</ele>
        <time>2014-01-31T15:13:16Z</time>
      </trkpt>
      <trkpt lat="45.35284" lon="6.55415">
        <ele>2261.77</ele>
        <time>2014-01-31T15:13:18Z</time>
      </trkpt>
      <trkpt lat="45.35302" lon="6.55391">
        <ele>2256.57</ele>
        <time>2014-01-31T15:13:21Z</time>
      </trkpt>
      <trkpt lat="45.35322" lon="6.5538">
        <ele>2253.53</ele>
        <time>2014-01-31T15:13:24Z</time>
      </trkpt>
      <trkpt lat="45.35324" lon="6.55354">
        <ele>2248.06</ele>
        <time>2014-01-31T15:13:26Z</time>
      </trkpt>
      <trkpt lat="45.35328" lon="6.5532">
        <ele>2238.79</ele>
        <time>2014-01-31T15:13:29Z</time>
      </trkpt>
      <trkpt lat="45.35336" lon="6.55296">
        <ele>2232</ele>
        <time>2014-01-31T15:13:31Z</time>
      </trkpt>
      <trkpt lat="45.35364" lon="6.55278">
        <ele>2232.83</ele>
        <time>2014-01-31T15:13:34Z</time>
      </trkpt>
      <trkpt lat="45.35381" lon="6.55255">
        <ele>2226.17</ele>
        <time>2014-01-31T15:13:36Z</time>
      </trkpt>
      <trkpt lat="45.35399" lon="6.55237">
        <ele>2222.46</ele>
        <time>2014-01-31T15:13:38Z</time>
      </trkpt>
      <trkpt lat="45.35419" lon="6.55227">
        <ele>2221.39</ele>
        <time>2014-01-31T15:13:40Z</time>
      </trkpt>
      <trkpt lat="45.35443" lon="6.55208">
        <ele>2213.31</ele>
        <time>2014-01-31T15:13:42Z</time>
      </trkpt>
      <trkpt lat="45.35467" lon="6.55179">
        <ele>2208.21</ele>
        <time>2014-01-31T15:13:44Z</time>
      </trkpt>
      <trkpt lat="45.35488" lon="6.55169">
        <ele>2204.12</ele>
        <time>2014-01-31T15:13:46Z</time>
      </trkpt>
      <trkpt lat="45.35506" lon="6.55156">
        <ele>2199.43</ele>
        <time>2014-01-31T15:13:48Z</time>
      </trkpt>
      <trkpt lat="45.35526" lon="6.55131">
        <ele>2194.02</ele>
        <time>2014-01-31T15:13:50Z</time>
      </trkpt>
      <trkpt lat="45.35548" lon="6.5511">
        <ele>2188.7</ele>
        <time>2014-01-31T15:13:52Z</time>
      </trkpt>
      <trkpt lat="45.3557" lon="6.55091">
        <ele>2184.3</ele>
        <time>2014-01-31T15:13:54Z</time>
      </trkpt>
      <trkpt lat="45.35594" lon="6.5507">
        <ele>2179.49</ele>
        <time>2014-01-31T15:13:56Z</time>
      </trkpt>
      <trkpt lat="45.35619" lon="6.55046">
        <ele>2172.7</ele>
        <time>2014-01-31T15:13:58Z</time>
      </trkpt>
      <trkpt lat="45.35642" lon="6.55026">
        <ele>2170.5</ele>
        <time>2014-01-31T15:14:00Z</time>
      </trkpt>
      <trkpt lat="45.35664" lon="6.55011">
        <ele>2167.35</ele>
        <time>2014-01-31T15:14:02Z</time>
      </trkpt>
      <trkpt lat="45.35685" lon="6.54995">
        <ele>2165.45</ele>
        <time>2014-01-31T15:14:04Z</time>
      </trkpt>
      <trkpt lat="45.35704" lon="6.54977">
        <ele>2163.43</ele>
        <time>2014-01-31T15:14:06Z</time>
      </trkpt>
      <trkpt lat="45.35723" lon="6.54961">
        <ele>2161.83</ele>
        <time>2014-01-31T15:14:08Z</time>
      </trkpt>
      <trkpt lat="45.3574" lon="6.54946">
        <ele>2160.21</ele>
        <time>2014-01-31T15:14:10Z</time>
      </trkpt>
      <trkpt lat="45.35755" lon="6.54929">
        <ele>2157.18</ele>
        <time>2014-01-31T15:14:12Z</time>
      </trkpt>
      <trkpt lat="45.35765" lon="6.54904">
        <ele>2152.52</ele>
        <time>2014-01-31T15:14:14Z</time>
      </trkpt>
      <trkpt lat="45.3578" lon="6.54882">
        <ele>2148.46</ele>
        <time>2014-01-31T15:14:16Z</time>
      </trkpt>
      <trkpt lat="45.35797" lon="6.54859">
        <ele>2142.4</ele>
        <time>2014-01-31T15:14:18Z</time>
      </trkpt>
      <trkpt lat="45.35813" lon="6.54823">
        <ele>2134.09</ele>
        <time>2014-01-31T15:14:20Z</time>
      </trkpt>
      <trkpt lat="45.35829" lon="6.54789">
        <ele>2126.99</ele>
        <time>2014-01-31T15:14:22Z</time>
      </trkpt>
      <trkpt lat="45.35843" lon="6.54749">
        <ele>2119.32</ele>
        <time>2014-01-31T15:14:24Z</time>
      </trkpt>
      <trkpt lat="45.35857" lon="6.5471">
        <ele>2118.63</ele>
        <time>2014-01-31T15:14:26Z</time>
      </trkpt>
      <trkpt lat="45.35873" lon="6.54682">
        <ele>2116.68</ele>
        <time>2014-01-31T15:14:28Z</time>
      </trkpt>
      <trkpt lat="45.35891" lon="6.54666">
        <ele>2114.81</ele>
        <time>2014-01-31T15:14:30Z</time>
      </trkpt>
      <trkpt lat="45.35909" lon="6.54648">
        <ele>2112.37</ele>
        <time>2014-01-31T15:14:32Z</time>
      </trkpt>
      <trkpt lat="45.35927" lon="6.54631">
        <ele>2109.13</ele>
        <time>2014-01-31T15:14:34Z</time>
      </trkpt>
      <trkpt lat="45.35945" lon="6.5462">
        <ele>2105.56</ele>
        <time>2014-01-31T15:14:36Z</time>
      </trkpt>
      <trkpt lat="45.35968" lon="6.54618">
        <ele>2102.56</ele>
        <time>2014-01-31T15:14:38Z</time>
      </trkpt>
      <trkpt lat="45.35992" lon="6.54612">
        <ele>2097.45</ele>
        <time>2014-01-31T15:14:40Z</time>
      </trkpt>
      <trkpt lat="45.36017" lon="6.546">
        <ele>2093.12</ele>
        <time>2014-01-31T15:14:42Z</time>
      </trkpt>
      <trkpt lat="45.36044" lon="6.54588">
        <ele>2085.49</ele>
        <time>2014-01-31T15:14:44Z</time>
      </trkpt>
      <trkpt lat="45.36068" lon="6.54572">
        <ele>2080.04</ele>
        <time>2014-01-31T15:14:46Z</time>
      </trkpt>
      <trkpt lat="45.36092" lon="6.54553">
        <ele>2078.02</ele>
        <time>2014-01-31T15:14:48Z</time>
      </trkpt>
      <trkpt lat="45.36109" lon="6.54536">
        <ele>2074.98</ele>
        <time>2014-01-31T15:14:50Z</time>
      </trkpt>
      <trkpt lat="45.3612" lon="6.54511">
        <ele>2073.25</ele>
        <time>2014-01-31T15:14:52Z</time>
      </trkpt>
      <trkpt lat="45.3613" lon="6.54489">
        <ele>2071.75</ele>
        <time>2014-01-31T15:14:54Z</time>
      </trkpt>
      <trkpt lat="45.36144" lon="6.5446">
        <ele>2070.13</ele>
        <time>2014-01-31T15:14:57Z</time>
      </trkpt>
      <trkpt lat="45.36155" lon="6.54439">
        <ele>2068.13</ele>
        <time>2014-01-31T15:15:00Z</time>
      </trkpt>
      <trkpt lat="45.3617" lon="6.54418">
        <ele>2065.28</ele>
        <time>2014-01-31T15:15:03Z</time>
      </trkpt>
      <trkpt lat="45.36188" lon="6.54398">
        <ele>2062.41</ele>
        <time>2014-01-31T15:15:06Z</time>
      </trkpt>
      <trkpt lat="45.36206" lon="6.54372">
        <ele>2057.84</ele>
        <time>2014-01-31T15:15:09Z</time>
      </trkpt>
      <trkpt lat="45.36224" lon="6.54342">
        <ele>2052.43</ele>
        <time>2014-01-31T15:15:12Z</time>
      </trkpt>
      <trkpt lat="45.36236" lon="6.54322">
        <ele>2051.8</ele>
        <time>2014-01-31T15:15:14Z</time>
      </trkpt>
      <trkpt lat="45.36254" lon="6.54296">
        <ele>2050.81</ele>
        <time>2014-01-31T15:15:17Z</time>
      </trkpt>
      <trkpt lat="45.36273" lon="6.54269">
        <ele>2047.88</ele>
        <time>2014-01-31T15:15:20Z</time>
      </trkpt>
      <trkpt lat="45.36285" lon="6.54246">
        <ele>2045.93</ele>
        <time>2014-01-31T15:15:22Z</time>
      </trkpt>
      <trkpt lat="45.36298" lon="6.54228">
        <ele>2044.94</ele>
        <time>2014-01-31T15:15:24Z</time>
      </trkpt>
      <trkpt lat="45.36314" lon="6.54202">
        <ele>2042.5</ele>
        <time>2014-01-31T15:15:27Z</time>
      </trkpt>
      <trkpt lat="45.36334" lon="6.54179">
        <ele>2041.4</ele>
        <time>2014-01-31T15:15:30Z</time>
      </trkpt>
      <trkpt lat="45.36349" lon="6.54164">
        <ele>2040.92</ele>
        <time>2014-01-31T15:15:32Z</time>
      </trkpt>
      <trkpt lat="45.36364" lon="6.54148">
        <ele>2040.69</ele>
        <time>2014-01-31T15:15:34Z</time>
      </trkpt>
      <trkpt lat="45.36379" lon="6.54132">
        <ele>2037.44</ele>
        <time>2014-01-31T15:15:36Z</time>
      </trkpt>
      <trkpt lat="45.36396" lon="6.54113">
        <ele>2034.35</ele>
        <time>2014-01-31T15:15:38Z</time>
      </trkpt>
      <trkpt lat="45.36415" lon="6.54094">
        <ele>2029.19</ele>
        <time>2014-01-31T15:15:40Z</time>
      </trkpt>
      <trkpt lat="45.36433" lon="6.54076">
        <ele>2025.74</ele>
        <time>2014-01-31T15:15:42Z</time>
      </trkpt>
      <trkpt lat="45.36452" lon="6.54056">
        <ele>2021.54</ele>
        <time>2014-01-31T15:15:44Z</time>
      </trkpt>
      <trkpt lat="45.36471" lon="6.54036">
        <ele>2017.17</ele>
        <time>2014-01-31T15:15:46Z</time>
      </trkpt>
      <trkpt lat="45.36489" lon="6.54017">
        <ele>2014.42</ele>
        <time>2014-01-31T15:15:48Z</time>
      </trkpt>
      <trkpt lat="45.36505" lon="6.54001">
        <ele>2012.64</ele>
        <time>2014-01-31T15:15:50Z</time>
      </trkpt>
      <trkpt lat="45.36521" lon="6.53987">
        <ele>2011.66</ele>
        <time>2014-01-31T15:15:52Z</time>
      </trkpt>
      <trkpt lat="45.36544" lon="6.53971">
        <ele>2010.6</ele>
        <time>2014-01-31T15:15:55Z</time>
      </trkpt>
      <trkpt lat="45.36568" lon="6.53959">
        <ele>2009.14</ele>
        <time>2014-01-31T15:15:58Z</time>
      </trkpt>
      <trkpt lat="45.36593" lon="6.53946">
        <ele>2004.54</ele>
        <time>2014-01-31T15:16:01Z</time>
      </trkpt>
      <trkpt lat="45.36609" lon="6.53935">
        <ele>2003.75</ele>
        <time>2014-01-31T15:16:03Z</time>
      </trkpt>
      <trkpt lat="45.36629" lon="6.53917">
        <ele>2002.04</ele>
        <time>2014-01-31T15:16:06Z</time>
      </trkpt>
      <trkpt lat="45.36647" lon="6.53897">
        <ele>2002.07</ele>
        <time>2014-01-31T15:16:09Z</time>
      </trkpt>
      <trkpt lat="45.36664" lon="6.53881">
        <ele>2000.45</ele>
        <time>2014-01-31T15:16:12Z</time>
      </trkpt>
      <trkpt lat="45.36681" lon="6.5387">
        <ele>1998.48</ele>
        <time>2014-01-31T15:16:15Z</time>
      </trkpt>
      <trkpt lat="45.36699" lon="6.53862">
        <ele>1996.82</ele>
        <time>2014-01-31T15:16:18Z</time>
      </trkpt>
      <trkpt lat="45.3672" lon="6.53855">
        <ele>1997.26</ele>
        <time>2014-01-31T15:16:21Z</time>
      </trkpt>
      <trkpt lat="45.3674" lon="6.53853">
        <ele>1993.75</ele>
        <time>2014-01-31T15:16:24Z</time>
      </trkpt>
      <trkpt lat="45.3676" lon="6.53855">
        <ele>1992.31</ele>
        <time>2014-01-31T15:16:27Z</time>
      </trkpt>
      <trkpt lat="45.36783" lon="6.53859">
        <ele>1991.74</ele>
        <time>2014-01-31T15:16:30Z</time>
      </trkpt>
      <trkpt lat="45.36808" lon="6.53863">
        <ele>1990.33</ele>
        <time>2014-01-31T15:16:33Z</time>
      </trkpt>
      <trkpt lat="45.36826" lon="6.53868">
        <ele>1989.39</ele>
        <time>2014-01-31T15:16:35Z</time>
      </trkpt>
      <trkpt lat="45.36853" lon="6.53865">
        <ele>1986.54</ele>
        <time>2014-01-31T15:16:38Z</time>
      </trkpt>
      <trkpt lat="45.36878" lon="6.53857">
        <ele>1982.32</ele>
        <time>2014-01-31T15:16:41Z</time>
      </trkpt>
      <trkpt lat="45.36896" lon="6.53836">
        <ele>1977.79</ele>
        <time>2014-01-31T15:16:44Z</time>
      </trkpt>
      <trkpt lat="45.36911" lon="6.53806">
        <ele>1970.84</ele>
        <time>2014-01-31T15:16:47Z</time>
      </trkpt>
      <trkpt lat="45.36926" lon="6.53787">
        <ele>1968.07</ele>
        <time>2014-01-31T15:16:50Z</time>
      </trkpt>
      <trkpt lat="45.36928" lon="6.53755">
        <ele>1959.34</ele>
        <time>2014-01-31T15:16:53Z</time>
      </trkpt>
      <trkpt lat="45.36934" lon="6.53728">
        <ele>1955.66</ele>
        <time>2014-01-31T15:16:56Z</time>
      </trkpt>
      <trkpt lat="45.36943" lon="6.53696">
        <ele>1952.16</ele>
        <time>2014-01-31T15:16:59Z</time>
      </trkpt>
      <trkpt lat="45.36955" lon="6.53673">
        <ele>1945.27</ele>
        <time>2014-01-31T15:17:01Z</time>
      </trkpt>
      <trkpt lat="45.36963" lon="6.53644">
        <ele>1938.99</ele>
        <time>2014-01-31T15:17:03Z</time>
      </trkpt>
      <trkpt lat="45.36968" lon="6.53613">
        <ele>1934.23</ele>
        <time>2014-01-31T15:17:05Z</time>
      </trkpt>
      <trkpt lat="45.3697" lon="6.53579">
        <ele>1929.84</ele>
        <time>2014-01-31T15:17:07Z</time>
      </trkpt>
      <trkpt lat="45.36968" lon="6.53554">
        <ele>1925.96</ele>
        <time>2014-01-31T15:17:09Z</time>
      </trkpt>
      <trkpt lat="45.36969" lon="6.53515">
        <ele>1918.4</ele>
        <time>2014-01-31T15:17:12Z</time>
      </trkpt>
      <trkpt lat="45.36974" lon="6.53487">
        <ele>1914.61</ele>
        <time>2014-01-31T15:17:14Z</time>
      </trkpt>
      <trkpt lat="45.36984" lon="6.53448">
        <ele>1913.55</ele>
        <time>2014-01-31T15:17:16Z</time>
      </trkpt>
      <trkpt lat="45.36999" lon="6.53413">
        <ele>1909.38</ele>
        <time>2014-01-31T15:17:18Z</time>
      </trkpt>
      <trkpt lat="45.37019" lon="6.53386">
        <ele>1905.23</ele>
        <time>2014-01-31T15:17:20Z</time>
      </trkpt>
      <trkpt lat="45.37035" lon="6.53367">
        <ele>1901.13</ele>
        <time>2014-01-31T15:17:22Z</time>
      </trkpt>
      <trkpt lat="45.37047" lon="6.53347">
        <ele>1896.71</ele>
        <time>2014-01-31T15:17:24Z</time>
      </trkpt>
      <trkpt lat="45.37069" lon="6.53334">
        <ele>1892.04</ele>
        <time>2014-01-31T15:17:28Z</time>
      </trkpt>
      <trkpt lat="45.3709" lon="6.5332">
        <ele>1889.67</ele>
        <time>2014-01-31T15:17:31Z</time>
      </trkpt>
      <trkpt lat="45.37096" lon="6.53289">
        <ele>1885.07</ele>
        <time>2014-01-31T15:17:34Z</time>
      </trkpt>
      <trkpt lat="45.37098" lon="6.53261">
        <ele>1881.7</ele>
        <time>2014-01-31T15:17:36Z</time>
      </trkpt>
      <trkpt lat="45.37098" lon="6.5323">
        <ele>1876.2</ele>
        <time>2014-01-31T15:17:38Z</time>
      </trkpt>
      <trkpt lat="45.3709" lon="6.53206">
        <ele>1871.28</ele>
        <time>2014-01-31T15:17:40Z</time>
      </trkpt>
      <trkpt lat="45.37077" lon="6.53187">
        <ele>1869.01</ele>
        <time>2014-01-31T15:17:42Z</time>
      </trkpt>
      <trkpt lat="45.37065" lon="6.53164">
        <ele>1867.62</ele>
        <time>2014-01-31T15:17:44Z</time>
      </trkpt>
      <trkpt lat="45.37054" lon="6.53138">
        <ele>1865.87</ele>
        <time>2014-01-31T15:17:46Z</time>
      </trkpt>
      <trkpt lat="45.37045" lon="6.53106">
        <ele>1859.88</ele>
        <time>2014-01-31T15:17:49Z</time>
      </trkpt>
      <trkpt lat="45.37064" lon="6.53091">
        <ele>1850.21</ele>
        <time>2014-01-31T15:17:52Z</time>
      </trkpt>
      <trkpt lat="45.37088" lon="6.531">
        <ele>1847.87</ele>
        <time>2014-01-31T15:17:54Z</time>
      </trkpt>
      <trkpt lat="45.37117" lon="6.53107">
        <ele>1839.27</ele>
        <time>2014-01-31T15:17:56Z</time>
      </trkpt>
      <trkpt lat="45.37144" lon="6.53104">
        <ele>1831.15</ele>
        <time>2014-01-31T15:17:58Z</time>
      </trkpt>
      <trkpt lat="45.37169" lon="6.53095">
        <ele>1823.48</ele>
        <time>2014-01-31T15:18:00Z</time>
      </trkpt>
      <trkpt lat="45.37192" lon="6.53083">
        <ele>1818.93</ele>
        <time>2014-01-31T15:18:02Z</time>
      </trkpt>
      <trkpt lat="45.3721" lon="6.5307">
        <ele>1816.61</ele>
        <time>2014-01-31T15:18:04Z</time>
      </trkpt>
      <trkpt lat="45.37227" lon="6.53053">
        <ele>1814.65</ele>
        <time>2014-01-31T15:18:06Z</time>
      </trkpt>
      <trkpt lat="45.37238" lon="6.53027">
        <ele>1811.5</ele>
        <time>2014-01-31T15:18:08Z</time>
      </trkpt>
      <trkpt lat="45.37251" lon="6.52999">
        <ele>1808.68</ele>
        <time>2014-01-31T15:18:10Z</time>
      </trkpt>
      <trkpt lat="45.37266" lon="6.5297">
        <ele>1803.61</ele>
        <time>2014-01-31T15:18:12Z</time>
      </trkpt>
      <trkpt lat="45.37277" lon="6.52943">
        <ele>1799.82</ele>
        <time>2014-01-31T15:18:14Z</time>
      </trkpt>
      <trkpt lat="45.37284" lon="6.52916">
        <ele>1797.84</ele>
        <time>2014-01-31T15:18:16Z</time>
      </trkpt>
      <trkpt lat="45.37288" lon="6.52891">
        <ele>1795.68</ele>
        <time>2014-01-31T15:18:20Z</time>
      </trkpt>
      <trkpt lat="45.37278" lon="6.52867">
        <ele>1792.51</ele>
        <time>2014-01-31T15:18:24Z</time>
      </trkpt>
      <trkpt lat="45.37261" lon="6.52878">
        <ele>1789.39</ele>
        <time>2014-01-31T15:19:47Z</time>
      </trkpt>
      <trkpt lat="45.37258" lon="6.52905">
        <ele>1792.35</ele>
        <time>2014-01-31T15:20:00Z</time>
      </trkpt>
      <trkpt lat="45.37249" lon="6.52931">
        <ele>1796.19</ele>
        <time>2014-01-31T15:20:04Z</time>
      </trkpt>
      <trkpt lat="45.37239" lon="6.52958">
        <ele>1801.43</ele>
        <time>2014-01-31T15:20:09Z</time>
      </trkpt>
      <trkpt lat="45.37232" lon="6.52982">
        <ele>1804.92</ele>
        <time>2014-01-31T15:20:14Z</time>
      </trkpt>
      <trkpt lat="45.37225" lon="6.53007">
        <ele>1808.19</ele>
        <time>2014-01-31T15:20:19Z</time>
      </trkpt>
      <trkpt lat="45.37217" lon="6.53033">
        <ele>1811.46</ele>
        <time>2014-01-31T15:20:25Z</time>
      </trkpt>
      <trkpt lat="45.37209" lon="6.53059">
        <ele>1815.07</ele>
        <time>2014-01-31T15:20:30Z</time>
      </trkpt>
      <trkpt lat="45.37202" lon="6.53085">
        <ele>1819.08</ele>
        <time>2014-01-31T15:20:34Z</time>
      </trkpt>
      <trkpt lat="45.37194" lon="6.53112">
        <ele>1824.17</ele>
        <time>2014-01-31T15:20:38Z</time>
      </trkpt>
      <trkpt lat="45.37187" lon="6.53139">
        <ele>1831.93</ele>
        <time>2014-01-31T15:20:42Z</time>
      </trkpt>
      <trkpt lat="45.37181" lon="6.53165">
        <ele>1842.85</ele>
        <time>2014-01-31T15:20:47Z</time>
      </trkpt>
      <trkpt lat="45.37173" lon="6.53194">
        <ele>1853.7</ele>
        <time>2014-01-31T15:20:53Z</time>
      </trkpt>
      <trkpt lat="45.37166" lon="6.53219">
        <ele>1862.36</ele>
        <time>2014-01-31T15:20:58Z</time>
      </trkpt>
      <trkpt lat="45.37159" lon="6.53248">
        <ele>1870.57</ele>
        <time>2014-01-31T15:21:04Z</time>
      </trkpt>
      <trkpt lat="45.37151" lon="6.53275">
        <ele>1874.87</ele>
        <time>2014-01-31T15:21:09Z</time>
      </trkpt>
      <trkpt lat="45.37145" lon="6.533">
        <ele>1878.09</ele>
        <time>2014-01-31T15:21:14Z</time>
      </trkpt>
      <trkpt lat="45.37137" lon="6.53325">
        <ele>1881.47</ele>
        <time>2014-01-31T15:21:19Z</time>
      </trkpt>
      <trkpt lat="45.37127" lon="6.53352">
        <ele>1884.98</ele>
        <time>2014-01-31T15:21:24Z</time>
      </trkpt>
      <trkpt lat="45.37121" lon="6.53377">
        <ele>1887.92</ele>
        <time>2014-01-31T15:21:28Z</time>
      </trkpt>
      <trkpt lat="45.37115" lon="6.53402">
        <ele>1891.39</ele>
        <time>2014-01-31T15:21:32Z</time>
      </trkpt>
      <trkpt lat="45.37106" lon="6.53427">
        <ele>1896.56</ele>
        <time>2014-01-31T15:21:38Z</time>
      </trkpt>
      <trkpt lat="45.37098" lon="6.53451">
        <ele>1900.79</ele>
        <time>2014-01-31T15:21:42Z</time>
      </trkpt>
      <trkpt lat="45.37089" lon="6.53488">
        <ele>1905.56</ele>
        <time>2014-01-31T15:21:44Z</time>
      </trkpt>
      <trkpt lat="45.37083" lon="6.53514">
        <ele>1909.04</ele>
        <time>2014-01-31T15:21:47Z</time>
      </trkpt>
      <trkpt lat="45.37077" lon="6.53541">
        <ele>1913.85</ele>
        <time>2014-01-31T15:21:52Z</time>
      </trkpt>
      <trkpt lat="45.37069" lon="6.53571">
        <ele>1920.24</ele>
        <time>2014-01-31T15:21:57Z</time>
      </trkpt>
      <trkpt lat="45.37066" lon="6.53596">
        <ele>1926.15</ele>
        <time>2014-01-31T15:22:01Z</time>
      </trkpt>
      <trkpt lat="45.3706" lon="6.53623">
        <ele>1934.43</ele>
        <time>2014-01-31T15:22:06Z</time>
      </trkpt>
      <trkpt lat="45.37055" lon="6.53651">
        <ele>1942.16</ele>
        <time>2014-01-31T15:22:11Z</time>
      </trkpt>
      <trkpt lat="45.37048" lon="6.53678">
        <ele>1945.39</ele>
        <time>2014-01-31T15:22:16Z</time>
      </trkpt>
      <trkpt lat="45.37039" lon="6.53702">
        <ele>1950.26</ele>
        <time>2014-01-31T15:22:20Z</time>
      </trkpt>
      <trkpt lat="45.37029" lon="6.53727">
        <ele>1959</ele>
        <time>2014-01-31T15:22:25Z</time>
      </trkpt>
      <trkpt lat="45.37019" lon="6.53752">
        <ele>1965.93</ele>
        <time>2014-01-31T15:22:30Z</time>
      </trkpt>
      <trkpt lat="45.37011" lon="6.5378">
        <ele>1971.08</ele>
        <time>2014-01-31T15:22:35Z</time>
      </trkpt>
      <trkpt lat="45.37003" lon="6.53803">
        <ele>1974.69</ele>
        <time>2014-01-31T15:22:39Z</time>
      </trkpt>
      <trkpt lat="45.36995" lon="6.53832">
        <ele>1980.86</ele>
        <time>2014-01-31T15:22:44Z</time>
      </trkpt>
      <trkpt lat="45.36989" lon="6.5386">
        <ele>1989.55</ele>
        <time>2014-01-31T15:22:49Z</time>
      </trkpt>
      <trkpt lat="45.36981" lon="6.53888">
        <ele>1993.47</ele>
        <time>2014-01-31T15:22:54Z</time>
      </trkpt>
      <trkpt lat="45.36975" lon="6.53917">
        <ele>1998.4</ele>
        <time>2014-01-31T15:22:59Z</time>
      </trkpt>
      <trkpt lat="45.36968" lon="6.53941">
        <ele>2000.46</ele>
        <time>2014-01-31T15:23:03Z</time>
      </trkpt>
      <trkpt lat="45.36959" lon="6.53969">
        <ele>2002.98</ele>
        <time>2014-01-31T15:23:08Z</time>
      </trkpt>
      <trkpt lat="45.36952" lon="6.53998">
        <ele>2007.23</ele>
        <time>2014-01-31T15:23:13Z</time>
      </trkpt>
      <trkpt lat="45.36944" lon="6.54025">
        <ele>2011.52</ele>
        <time>2014-01-31T15:23:18Z</time>
      </trkpt>
      <trkpt lat="45.3694" lon="6.54053">
        <ele>2014.74</ele>
        <time>2014-01-31T15:23:23Z</time>
      </trkpt>
      <trkpt lat="45.36929" lon="6.5408">
        <ele>2022.11</ele>
        <time>2014-01-31T15:23:28Z</time>
      </trkpt>
      <trkpt lat="45.36919" lon="6.54103">
        <ele>2031.23</ele>
        <time>2014-01-31T15:23:33Z</time>
      </trkpt>
      <trkpt lat="45.36912" lon="6.54127">
        <ele>2041.77</ele>
        <time>2014-01-31T15:23:39Z</time>
      </trkpt>
      <trkpt lat="45.36904" lon="6.54152">
        <ele>2052.73</ele>
        <time>2014-01-31T15:23:47Z</time>
      </trkpt>
      <trkpt lat="45.36896" lon="6.54176">
        <ele>2062.46</ele>
        <time>2014-01-31T15:23:52Z</time>
      </trkpt>
      <trkpt lat="45.36889" lon="6.542">
        <ele>2072.02</ele>
        <time>2014-01-31T15:23:57Z</time>
      </trkpt>
      <trkpt lat="45.36881" lon="6.54225">
        <ele>2077.05</ele>
        <time>2014-01-31T15:24:01Z</time>
      </trkpt>
      <trkpt lat="45.36873" lon="6.5425">
        <ele>2080.75</ele>
        <time>2014-01-31T15:24:05Z</time>
      </trkpt>
      <trkpt lat="45.36866" lon="6.54275">
        <ele>2087.88</ele>
        <time>2014-01-31T15:24:09Z</time>
      </trkpt>
      <trkpt lat="45.36859" lon="6.54305">
        <ele>2094.62</ele>
        <time>2014-01-31T15:24:15Z</time>
      </trkpt>
      <trkpt lat="45.36853" lon="6.5433">
        <ele>2096.09</ele>
        <time>2014-01-31T15:24:19Z</time>
      </trkpt>
      <trkpt lat="45.3685" lon="6.54357">
        <ele>2095.04</ele>
        <time>2014-01-31T15:24:23Z</time>
      </trkpt>
      <trkpt lat="45.36845" lon="6.54383">
        <ele>2099.98</ele>
        <time>2014-01-31T15:24:27Z</time>
      </trkpt>
      <trkpt lat="45.36839" lon="6.54411">
        <ele>2104.9</ele>
        <time>2014-01-31T15:24:32Z</time>
      </trkpt>
      <trkpt lat="45.36831" lon="6.54438">
        <ele>2106.16</ele>
        <time>2014-01-31T15:24:37Z</time>
      </trkpt>
      <trkpt lat="45.36824" lon="6.54462">
        <ele>2111.43</ele>
        <time>2014-01-31T15:24:42Z</time>
      </trkpt>
      <trkpt lat="45.36818" lon="6.5449">
        <ele>2120.6</ele>
        <time>2014-01-31T15:24:47Z</time>
      </trkpt>
      <trkpt lat="45.36813" lon="6.5452">
        <ele>2128.69</ele>
        <time>2014-01-31T15:24:51Z</time>
      </trkpt>
      <trkpt lat="45.36805" lon="6.54548">
        <ele>2131.7</ele>
        <time>2014-01-31T15:24:56Z</time>
      </trkpt>
      <trkpt lat="45.36795" lon="6.54572">
        <ele>2132.81</ele>
        <time>2014-01-31T15:25:02Z</time>
      </trkpt>
      <trkpt lat="45.36787" lon="6.54595">
        <ele>2133.21</ele>
        <time>2014-01-31T15:25:10Z</time>
      </trkpt>
      <trkpt lat="45.36781" lon="6.54621">
        <ele>2135.39</ele>
        <time>2014-01-31T15:25:18Z</time>
      </trkpt>
      <trkpt lat="45.36775" lon="6.54646">
        <ele>2139.94</ele>
        <time>2014-01-31T15:25:27Z</time>
      </trkpt>
      <trkpt lat="45.36768" lon="6.54673">
        <ele>2146.75</ele>
        <time>2014-01-31T15:25:37Z</time>
      </trkpt>
      <trkpt lat="45.36764" lon="6.547">
        <ele>2153.16</ele>
        <time>2014-01-31T15:25:44Z</time>
      </trkpt>
      <trkpt lat="45.36759" lon="6.54725">
        <ele>2164.74</ele>
        <time>2014-01-31T15:25:50Z</time>
      </trkpt>
      <trkpt lat="45.36745" lon="6.54755">
        <ele>2186.65</ele>
        <time>2014-01-31T15:25:57Z</time>
      </trkpt>
      <trkpt lat="45.36733" lon="6.54779">
        <ele>2188.89</ele>
        <time>2014-01-31T15:26:00Z</time>
      </trkpt>
      <trkpt lat="45.36721" lon="6.54808">
        <ele>2187.23</ele>
        <time>2014-01-31T15:26:03Z</time>
      </trkpt>
      <trkpt lat="45.36712" lon="6.54837">
        <ele>2190.71</ele>
        <time>2014-01-31T15:26:07Z</time>
      </trkpt>
      <trkpt lat="45.36707" lon="6.54863">
        <ele>2195.38</ele>
        <time>2014-01-31T15:26:11Z</time>
      </trkpt>
      <trkpt lat="45.36699" lon="6.54888">
        <ele>2197.24</ele>
        <time>2014-01-31T15:26:15Z</time>
      </trkpt>
      <trkpt lat="45.36691" lon="6.54913">
        <ele>2199.17</ele>
        <time>2014-01-31T15:26:20Z</time>
      </trkpt>
      <trkpt lat="45.36684" lon="6.54941">
        <ele>2194.77</ele>
        <time>2014-01-31T15:26:25Z</time>
      </trkpt>
      <trkpt lat="45.36678" lon="6.54965">
        <ele>2194.48</ele>
        <time>2014-01-31T15:26:29Z</time>
      </trkpt>
      <trkpt lat="45.36672" lon="6.54991">
        <ele>2198.04</ele>
        <time>2014-01-31T15:26:33Z</time>
      </trkpt>
      <trkpt lat="45.36665" lon="6.5502">
        <ele>2203.68</ele>
        <time>2014-01-31T15:26:38Z</time>
      </trkpt>
      <trkpt lat="45.3666" lon="6.55045">
        <ele>2209.54</ele>
        <time>2014-01-31T15:26:43Z</time>
      </trkpt>
      <trkpt lat="45.36653" lon="6.5507">
        <ele>2215.91</ele>
        <time>2014-01-31T15:26:49Z</time>
      </trkpt>
      <trkpt lat="45.36646" lon="6.55094">
        <ele>2222.44</ele>
        <time>2014-01-31T15:26:54Z</time>
      </trkpt>
      <trkpt lat="45.36637" lon="6.55122">
        <ele>2230.12</ele>
        <time>2014-01-31T15:27:00Z</time>
      </trkpt>
      <trkpt lat="45.36629" lon="6.55146">
        <ele>2236.7</ele>
        <time>2014-01-31T15:27:04Z</time>
      </trkpt>
      <trkpt lat="45.36621" lon="6.55172">
        <ele>2243.29</ele>
        <time>2014-01-31T15:27:08Z</time>
      </trkpt>
      <trkpt lat="45.36613" lon="6.55198">
        <ele>2248.64</ele>
        <time>2014-01-31T15:27:12Z</time>
      </trkpt>
      <trkpt lat="45.36606" lon="6.55224">
        <ele>2252.7</ele>
        <time>2014-01-31T15:27:17Z</time>
      </trkpt>
      <trkpt lat="45.36602" lon="6.55252">
        <ele>2257.92</ele>
        <time>2014-01-31T15:27:22Z</time>
      </trkpt>
      <trkpt lat="45.36598" lon="6.55278">
        <ele>2261.57</ele>
        <time>2014-01-31T15:27:27Z</time>
      </trkpt>
      <trkpt lat="45.36593" lon="6.55305">
        <ele>2265.92</ele>
        <time>2014-01-31T15:27:32Z</time>
      </trkpt>
      <trkpt lat="45.36585" lon="6.55334">
        <ele>2268.63</ele>
        <time>2014-01-31T15:27:37Z</time>
      </trkpt>
      <trkpt lat="45.36576" lon="6.5536">
        <ele>2273.72</ele>
        <time>2014-01-31T15:27:41Z</time>
      </trkpt>
      <trkpt lat="45.36567" lon="6.55388">
        <ele>2280.81</ele>
        <time>2014-01-31T15:27:46Z</time>
      </trkpt>
      <trkpt lat="45.36557" lon="6.55411">
        <ele>2286.52</ele>
        <time>2014-01-31T15:27:52Z</time>
      </trkpt>
      <trkpt lat="45.36548" lon="6.55436">
        <ele>2290.47</ele>
        <time>2014-01-31T15:28:00Z</time>
      </trkpt>
      <trkpt lat="45.36541" lon="6.55462">
        <ele>2294.01</ele>
        <time>2014-01-31T15:28:06Z</time>
      </trkpt>
      <trkpt lat="45.36534" lon="6.55488">
        <ele>2297.65</ele>
        <time>2014-01-31T15:28:15Z</time>
      </trkpt>
      <trkpt lat="45.36526" lon="6.55513">
        <ele>2304.18</ele>
        <time>2014-01-31T15:28:24Z</time>
      </trkpt>
      <trkpt lat="45.36516" lon="6.55537">
        <ele>2311.66</ele>
        <time>2014-01-31T15:28:29Z</time>
      </trkpt>
      <trkpt lat="45.36508" lon="6.55564">
        <ele>2318.88</ele>
        <time>2014-01-31T15:28:35Z</time>
      </trkpt>
      <trkpt lat="45.365" lon="6.55591">
        <ele>2327.28</ele>
        <time>2014-01-31T15:28:41Z</time>
      </trkpt>
      <trkpt lat="45.36494" lon="6.55615">
        <ele>2340.06</ele>
        <time>2014-01-31T15:28:46Z</time>
      </trkpt>
      <trkpt lat="45.36487" lon="6.55641">
        <ele>2356.1</ele>
        <time>2014-01-31T15:28:52Z</time>
      </trkpt>
      <trkpt lat="45.36476" lon="6.55671">
        <ele>2367.56</ele>
        <time>2014-01-31T15:28:58Z</time>
      </trkpt>
      <trkpt lat="45.36469" lon="6.55695">
        <ele>2378.75</ele>
        <time>2014-01-31T15:29:02Z</time>
      </trkpt>
      <trkpt lat="45.3646" lon="6.5572">
        <ele>2385.23</ele>
        <time>2014-01-31T15:29:09Z</time>
      </trkpt>
      <trkpt lat="45.36452" lon="6.55748">
        <ele>2396.22</ele>
        <time>2014-01-31T15:29:31Z</time>
      </trkpt>
      <trkpt lat="45.36433" lon="6.55752">
        <ele>2395.14</ele>
        <time>2014-01-31T15:29:40Z</time>
      </trkpt>
      <trkpt lat="45.36413" lon="6.55752">
        <ele>2392.82</ele>
        <time>2014-01-31T15:29:47Z</time>
      </trkpt>
      <trkpt lat="45.36395" lon="6.55752">
        <ele>2392.88</ele>
        <time>2014-01-31T15:29:52Z</time>
      </trkpt>
      <trkpt lat="45.36372" lon="6.55743">
        <ele>2389.97</ele>
        <time>2014-01-31T15:29:56Z</time>
      </trkpt>
      <trkpt lat="45.36353" lon="6.55732">
        <ele>2386.55</ele>
        <time>2014-01-31T15:29:59Z</time>
      </trkpt>
      <trkpt lat="45.36335" lon="6.55726">
        <ele>2384.16</ele>
        <time>2014-01-31T15:30:01Z</time>
      </trkpt>
      <trkpt lat="45.36314" lon="6.55711">
        <ele>2377.19</ele>
        <time>2014-01-31T15:30:04Z</time>
      </trkpt>
      <trkpt lat="45.36294" lon="6.55704">
        <ele>2375.26</ele>
        <time>2014-01-31T15:30:07Z</time>
      </trkpt>
      <trkpt lat="45.36275" lon="6.55696">
        <ele>2372.85</ele>
        <time>2014-01-31T15:30:10Z</time>
      </trkpt>
      <trkpt lat="45.36256" lon="6.55687">
        <ele>2366.66</ele>
        <time>2014-01-31T15:30:13Z</time>
      </trkpt>
      <trkpt lat="45.36264" lon="6.55659">
        <ele>2360.53</ele>
        <time>2014-01-31T15:30:47Z</time>
      </trkpt>
      <trkpt lat="45.3625" lon="6.55642">
        <ele>2355.76</ele>
        <time>2014-01-31T15:30:51Z</time>
      </trkpt>
      <trkpt lat="45.36258" lon="6.55617">
        <ele>2347.99</ele>
        <time>2014-01-31T15:30:56Z</time>
      </trkpt>
      <trkpt lat="45.36242" lon="6.55595">
        <ele>2340.78</ele>
        <time>2014-01-31T15:31:04Z</time>
      </trkpt>
      <trkpt lat="45.36223" lon="6.5558">
        <ele>2335.66</ele>
        <time>2014-01-31T15:31:09Z</time>
      </trkpt>
      <trkpt lat="45.36206" lon="6.5557">
        <ele>2330.48</ele>
        <time>2014-01-31T15:31:14Z</time>
      </trkpt>
      <trkpt lat="45.36185" lon="6.55561">
        <ele>2324.9</ele>
        <time>2014-01-31T15:31:19Z</time>
      </trkpt>
      <trkpt lat="45.36182" lon="6.55535">
        <ele>2314.93</ele>
        <time>2014-01-31T15:31:30Z</time>
      </trkpt>
      <trkpt lat="45.36165" lon="6.55523">
        <ele>2309.91</ele>
        <time>2014-01-31T15:31:38Z</time>
      </trkpt>
      <trkpt lat="45.36156" lon="6.55499">
        <ele>2304.5</ele>
        <time>2014-01-31T15:31:41Z</time>
      </trkpt>
      <trkpt lat="45.36142" lon="6.5548">
        <ele>2299.96</ele>
        <time>2014-01-31T15:31:45Z</time>
      </trkpt>
      <trkpt lat="45.36128" lon="6.55465">
        <ele>2293.61</ele>
        <time>2014-01-31T15:31:50Z</time>
      </trkpt>
      <trkpt lat="45.3611" lon="6.5545">
        <ele>2288.04</ele>
        <time>2014-01-31T15:31:56Z</time>
      </trkpt>
      <trkpt lat="45.36106" lon="6.55425">
        <ele>2281.32</ele>
        <time>2014-01-31T15:32:04Z</time>
      </trkpt>
      <trkpt lat="45.36121" lon="6.55401">
        <ele>2272.98</ele>
        <time>2014-01-31T15:32:14Z</time>
      </trkpt>
      <trkpt lat="45.3611" lon="6.55379">
        <ele>2266.79</ele>
        <time>2014-01-31T15:32:22Z</time>
      </trkpt>
      <trkpt lat="45.36119" lon="6.55351">
        <ele>2259.16</ele>
        <time>2014-01-31T15:32:30Z</time>
      </trkpt>
      <trkpt lat="45.3613" lon="6.55328">
        <ele>2255.16</ele>
        <time>2014-01-31T15:32:33Z</time>
      </trkpt>
      <trkpt lat="45.36128" lon="6.55302">
        <ele>2247.4</ele>
        <time>2014-01-31T15:32:38Z</time>
      </trkpt>
      <trkpt lat="45.36144" lon="6.55285">
        <ele>2244.27</ele>
        <time>2014-01-31T15:32:45Z</time>
      </trkpt>
      <trkpt lat="45.36127" lon="6.5527">
        <ele>2236.69</ele>
        <time>2014-01-31T15:32:52Z</time>
      </trkpt>
      <trkpt lat="45.36141" lon="6.5525">
        <ele>2232.46</ele>
        <time>2014-01-31T15:32:57Z</time>
      </trkpt>
      <trkpt lat="45.36159" lon="6.55232">
        <ele>2228.39</ele>
        <time>2014-01-31T15:33:01Z</time>
      </trkpt>
      <trkpt lat="45.36172" lon="6.55215">
        <ele>2223.94</ele>
        <time>2014-01-31T15:33:05Z</time>
      </trkpt>
      <trkpt lat="45.36187" lon="6.55194">
        <ele>2216.93</ele>
        <time>2014-01-31T15:33:11Z</time>
      </trkpt>
      <trkpt lat="45.36196" lon="6.55164">
        <ele>2209.19</ele>
        <time>2014-01-31T15:33:14Z</time>
      </trkpt>
      <trkpt lat="45.36197" lon="6.55132">
        <ele>2207.47</ele>
        <time>2014-01-31T15:33:17Z</time>
      </trkpt>
      <trkpt lat="45.36194" lon="6.551">
        <ele>2205.6</ele>
        <time>2014-01-31T15:33:20Z</time>
      </trkpt>
      <trkpt lat="45.36196" lon="6.55068">
        <ele>2203.61</ele>
        <time>2014-01-31T15:33:23Z</time>
      </trkpt>
      <trkpt lat="45.36211" lon="6.55045">
        <ele>2198.64</ele>
        <time>2014-01-31T15:33:28Z</time>
      </trkpt>
      <trkpt lat="45.36227" lon="6.55033">
        <ele>2194.34</ele>
        <time>2014-01-31T15:33:33Z</time>
      </trkpt>
      <trkpt lat="45.36226" lon="6.55005">
        <ele>2190.36</ele>
        <time>2014-01-31T15:34:01Z</time>
      </trkpt>
      <trkpt lat="45.36232" lon="6.54978">
        <ele>2184.43</ele>
        <time>2014-01-31T15:34:06Z</time>
      </trkpt>
      <trkpt lat="45.36226" lon="6.5495">
        <ele>2178.65</ele>
        <time>2014-01-31T15:34:11Z</time>
      </trkpt>
      <trkpt lat="45.36219" lon="6.54926">
        <ele>2171.09</ele>
        <time>2014-01-31T15:34:16Z</time>
      </trkpt>
      <trkpt lat="45.36236" lon="6.54913">
        <ele>2164.98</ele>
        <time>2014-01-31T15:34:20Z</time>
      </trkpt>
      <trkpt lat="45.36245" lon="6.54886">
        <ele>2157</ele>
        <time>2014-01-31T15:34:23Z</time>
      </trkpt>
      <trkpt lat="45.36252" lon="6.54855">
        <ele>2150.01</ele>
        <time>2014-01-31T15:34:26Z</time>
      </trkpt>
      <trkpt lat="45.3626" lon="6.54829">
        <ele>2146.36</ele>
        <time>2014-01-31T15:34:29Z</time>
      </trkpt>
      <trkpt lat="45.36266" lon="6.54802">
        <ele>2142.76</ele>
        <time>2014-01-31T15:34:34Z</time>
      </trkpt>
      <trkpt lat="45.36279" lon="6.54781">
        <ele>2141.92</ele>
        <time>2014-01-31T15:34:43Z</time>
      </trkpt>
      <trkpt lat="45.36296" lon="6.54762">
        <ele>2138.39</ele>
        <time>2014-01-31T15:34:48Z</time>
      </trkpt>
      <trkpt lat="45.36312" lon="6.54743">
        <ele>2135.02</ele>
        <time>2014-01-31T15:34:54Z</time>
      </trkpt>
      <trkpt lat="45.36327" lon="6.54724">
        <ele>2131.96</ele>
        <time>2014-01-31T15:34:57Z</time>
      </trkpt>
      <trkpt lat="45.36325" lon="6.54698">
        <ele>2126.54</ele>
        <time>2014-01-31T15:35:00Z</time>
      </trkpt>
      <trkpt lat="45.36323" lon="6.54667">
        <ele>2120.83</ele>
        <time>2014-01-31T15:35:03Z</time>
      </trkpt>
      <trkpt lat="45.36328" lon="6.54638">
        <ele>2116.69</ele>
        <time>2014-01-31T15:35:08Z</time>
      </trkpt>
      <trkpt lat="45.36334" lon="6.54608">
        <ele>2113.75</ele>
        <time>2014-01-31T15:35:13Z</time>
      </trkpt>
      <trkpt lat="45.36347" lon="6.54586">
        <ele>2111.57</ele>
        <time>2014-01-31T15:35:19Z</time>
      </trkpt>
      <trkpt lat="45.36355" lon="6.5456">
        <ele>2104.63</ele>
        <time>2014-01-31T15:35:30Z</time>
      </trkpt>
      <trkpt lat="45.3637" lon="6.54535">
        <ele>2100.51</ele>
        <time>2014-01-31T15:35:34Z</time>
      </trkpt>
      <trkpt lat="45.36373" lon="6.54505">
        <ele>2096.41</ele>
        <time>2014-01-31T15:35:37Z</time>
      </trkpt>
      <trkpt lat="45.36377" lon="6.5448">
        <ele>2093.67</ele>
        <time>2014-01-31T15:35:41Z</time>
      </trkpt>
      <trkpt lat="45.36382" lon="6.54448">
        <ele>2091.71</ele>
        <time>2014-01-31T15:35:45Z</time>
      </trkpt>
      <trkpt lat="45.36385" lon="6.54419">
        <ele>2089.47</ele>
        <time>2014-01-31T15:35:48Z</time>
      </trkpt>
      <trkpt lat="45.36387" lon="6.54388">
        <ele>2083.43</ele>
        <time>2014-01-31T15:36:11Z</time>
      </trkpt>
      <trkpt lat="45.36386" lon="6.54356">
        <ele>2076.64</ele>
        <time>2014-01-31T15:36:17Z</time>
      </trkpt>
      <trkpt lat="45.36383" lon="6.54325">
        <ele>2070.73</ele>
        <time>2014-01-31T15:36:21Z</time>
      </trkpt>
      <trkpt lat="45.36382" lon="6.54299">
        <ele>2065.72</ele>
        <time>2014-01-31T15:36:25Z</time>
      </trkpt>
      <trkpt lat="45.36395" lon="6.54278">
        <ele>2061.66</ele>
        <time>2014-01-31T15:36:31Z</time>
      </trkpt>
      <trkpt lat="45.36376" lon="6.54266">
        <ele>2057.7</ele>
        <time>2014-01-31T15:36:38Z</time>
      </trkpt>
      <trkpt lat="45.36377" lon="6.54235">
        <ele>2050.96</ele>
        <time>2014-01-31T15:36:43Z</time>
      </trkpt>
      <trkpt lat="45.36382" lon="6.54197">
        <ele>2044.82</ele>
        <time>2014-01-31T15:36:46Z</time>
      </trkpt>
      <trkpt lat="45.36389" lon="6.54171">
        <ele>2040.59</ele>
        <time>2014-01-31T15:36:48Z</time>
      </trkpt>
      <trkpt lat="45.364" lon="6.5415">
        <ele>2038.35</ele>
        <time>2014-01-31T15:36:51Z</time>
      </trkpt>
      <trkpt lat="45.36416" lon="6.54128">
        <ele>2035.03</ele>
        <time>2014-01-31T15:36:55Z</time>
      </trkpt>
      <trkpt lat="45.36428" lon="6.54106">
        <ele>2030.76</ele>
        <time>2014-01-31T15:36:59Z</time>
      </trkpt>
      <trkpt lat="45.36441" lon="6.54085">
        <ele>2027.29</ele>
        <time>2014-01-31T15:37:03Z</time>
      </trkpt>
      <trkpt lat="45.36455" lon="6.54067">
        <ele>2023.68</ele>
        <time>2014-01-31T15:37:08Z</time>
      </trkpt>
      <trkpt lat="45.36473" lon="6.54052">
        <ele>2019.49</ele>
        <time>2014-01-31T15:37:12Z</time>
      </trkpt>
      <trkpt lat="45.36493" lon="6.54023">
        <ele>2015.25</ele>
        <time>2014-01-31T15:37:15Z</time>
      </trkpt>
      <trkpt lat="45.36506" lon="6.54001">
        <ele>2012.89</ele>
        <time>2014-01-31T15:37:17Z</time>
      </trkpt>
      <trkpt lat="45.36527" lon="6.53979">
        <ele>2010.38</ele>
        <time>2014-01-31T15:37:20Z</time>
      </trkpt>
      <trkpt lat="45.36548" lon="6.53968">
        <ele>2010.56</ele>
        <time>2014-01-31T15:37:23Z</time>
      </trkpt>
      <trkpt lat="45.36569" lon="6.53957">
        <ele>2008.5</ele>
        <time>2014-01-31T15:37:26Z</time>
      </trkpt>
      <trkpt lat="45.36589" lon="6.53946">
        <ele>2004.18</ele>
        <time>2014-01-31T15:37:29Z</time>
      </trkpt>
      <trkpt lat="45.36609" lon="6.53933">
        <ele>2003.36</ele>
        <time>2014-01-31T15:37:32Z</time>
      </trkpt>
      <trkpt lat="45.36625" lon="6.53912">
        <ele>2001.37</ele>
        <time>2014-01-31T15:37:35Z</time>
      </trkpt>
      <trkpt lat="45.36639" lon="6.53894">
        <ele>2001.35</ele>
        <time>2014-01-31T15:37:38Z</time>
      </trkpt>
      <trkpt lat="45.36654" lon="6.53877">
        <ele>1999.45</ele>
        <time>2014-01-31T15:37:41Z</time>
      </trkpt>
      <trkpt lat="45.36675" lon="6.53863">
        <ele>1997.02</ele>
        <time>2014-01-31T15:37:45Z</time>
      </trkpt>
      <trkpt lat="45.36696" lon="6.53856">
        <ele>1993.77</ele>
        <time>2014-01-31T15:37:49Z</time>
      </trkpt>
      <trkpt lat="45.36718" lon="6.53854">
        <ele>1996.81</ele>
        <time>2014-01-31T15:37:53Z</time>
      </trkpt>
      <trkpt lat="45.36736" lon="6.53854">
        <ele>1995.08</ele>
        <time>2014-01-31T15:37:56Z</time>
      </trkpt>
      <trkpt lat="45.36754" lon="6.53855">
        <ele>1992.73</ele>
        <time>2014-01-31T15:37:59Z</time>
      </trkpt>
      <trkpt lat="45.36773" lon="6.53859">
        <ele>1992.6</ele>
        <time>2014-01-31T15:38:02Z</time>
      </trkpt>
      <trkpt lat="45.36795" lon="6.53862">
        <ele>1991.49</ele>
        <time>2014-01-31T15:38:05Z</time>
      </trkpt>
      <trkpt lat="45.3682" lon="6.53864">
        <ele>1989.56</ele>
        <time>2014-01-31T15:38:08Z</time>
      </trkpt>
      <trkpt lat="45.36847" lon="6.53868">
        <ele>1987.41</ele>
        <time>2014-01-31T15:38:11Z</time>
      </trkpt>
      <trkpt lat="45.3687" lon="6.53859">
        <ele>1983.45</ele>
        <time>2014-01-31T15:38:14Z</time>
      </trkpt>
      <trkpt lat="45.36893" lon="6.5385">
        <ele>1980.04</ele>
        <time>2014-01-31T15:38:17Z</time>
      </trkpt>
      <trkpt lat="45.36898" lon="6.53825">
        <ele>1974.97</ele>
        <time>2014-01-31T15:38:51Z</time>
      </trkpt>
      <trkpt lat="45.36913" lon="6.53804">
        <ele>1970.31</ele>
        <time>2014-01-31T15:38:55Z</time>
      </trkpt>
      <trkpt lat="45.36924" lon="6.53777">
        <ele>1964.92</ele>
        <time>2014-01-31T15:38:59Z</time>
      </trkpt>
      <trkpt lat="45.36936" lon="6.53756">
        <ele>1962.88</ele>
        <time>2014-01-31T15:39:02Z</time>
      </trkpt>
      <trkpt lat="45.36947" lon="6.53734">
        <ele>1960.13</ele>
        <time>2014-01-31T15:39:05Z</time>
      </trkpt>
      <trkpt lat="45.36953" lon="6.53697">
        <ele>1949.98</ele>
        <time>2014-01-31T15:39:08Z</time>
      </trkpt>
      <trkpt lat="45.3696" lon="6.5367">
        <ele>1942.91</ele>
        <time>2014-01-31T15:39:10Z</time>
      </trkpt>
      <trkpt lat="45.36969" lon="6.5364">
        <ele>1936.95</ele>
        <time>2014-01-31T15:39:12Z</time>
      </trkpt>
      <trkpt lat="45.36969" lon="6.53606">
        <ele>1933.1</ele>
        <time>2014-01-31T15:39:14Z</time>
      </trkpt>
      <trkpt lat="45.36976" lon="6.53581">
        <ele>1929.1</ele>
        <time>2014-01-31T15:39:16Z</time>
      </trkpt>
      <trkpt lat="45.36988" lon="6.53558">
        <ele>1923.69</ele>
        <time>2014-01-31T15:39:19Z</time>
      </trkpt>
      <trkpt lat="45.36982" lon="6.53529">
        <ele>1918.59</ele>
        <time>2014-01-31T15:39:22Z</time>
      </trkpt>
      <trkpt lat="45.36973" lon="6.53506">
        <ele>1915.86</ele>
        <time>2014-01-31T15:39:24Z</time>
      </trkpt>
      <trkpt lat="45.36973" lon="6.53478">
        <ele>1914.82</ele>
        <time>2014-01-31T15:39:26Z</time>
      </trkpt>
      <trkpt lat="45.36995" lon="6.53452">
        <ele>1910.39</ele>
        <time>2014-01-31T15:39:28Z</time>
      </trkpt>
      <trkpt lat="45.37014" lon="6.53425">
        <ele>1906.64</ele>
        <time>2014-01-31T15:39:30Z</time>
      </trkpt>
      <trkpt lat="45.3703" lon="6.53398">
        <ele>1902.93</ele>
        <time>2014-01-31T15:39:32Z</time>
      </trkpt>
      <trkpt lat="45.37044" lon="6.53374">
        <ele>1900.18</ele>
        <time>2014-01-31T15:39:34Z</time>
      </trkpt>
      <trkpt lat="45.37057" lon="6.53355">
        <ele>1896.47</ele>
        <time>2014-01-31T15:39:36Z</time>
      </trkpt>
      <trkpt lat="45.37072" lon="6.53327">
        <ele>1891.32</ele>
        <time>2014-01-31T15:39:39Z</time>
      </trkpt>
      <trkpt lat="45.37083" lon="6.53295">
        <ele>1888.08</ele>
        <time>2014-01-31T15:39:42Z</time>
      </trkpt>
      <trkpt lat="45.37094" lon="6.53272">
        <ele>1883.17</ele>
        <time>2014-01-31T15:39:44Z</time>
      </trkpt>
      <trkpt lat="45.37097" lon="6.53244">
        <ele>1879.27</ele>
        <time>2014-01-31T15:39:46Z</time>
      </trkpt>
      <trkpt lat="45.37093" lon="6.53215">
        <ele>1873.23</ele>
        <time>2014-01-31T15:39:48Z</time>
      </trkpt>
      <trkpt lat="45.37081" lon="6.53189">
        <ele>1868.47</ele>
        <time>2014-01-31T15:39:50Z</time>
      </trkpt>
      <trkpt lat="45.37068" lon="6.5317">
        <ele>1868.21</ele>
        <time>2014-01-31T15:39:52Z</time>
      </trkpt>
      <trkpt lat="45.37055" lon="6.53146">
        <ele>1866.73</ele>
        <time>2014-01-31T15:39:54Z</time>
      </trkpt>
      <trkpt lat="45.37041" lon="6.53117">
        <ele>1866.05</ele>
        <time>2014-01-31T15:39:57Z</time>
      </trkpt>
      <trkpt lat="45.37059" lon="6.53094">
        <ele>1851.47</ele>
        <time>2014-01-31T15:40:00Z</time>
      </trkpt>
      <trkpt lat="45.37084" lon="6.53104">
        <ele>1850.42</ele>
        <time>2014-01-31T15:40:02Z</time>
      </trkpt>
      <trkpt lat="45.37109" lon="6.5312">
        <ele>1845.92</ele>
        <time>2014-01-31T15:40:04Z</time>
      </trkpt>
      <trkpt lat="45.37136" lon="6.53127">
        <ele>1840.49</ele>
        <time>2014-01-31T15:40:06Z</time>
      </trkpt>
      <trkpt lat="45.37163" lon="6.53113">
        <ele>1831.05</ele>
        <time>2014-01-31T15:40:08Z</time>
      </trkpt>
      <trkpt lat="45.3719" lon="6.53093">
        <ele>1821.07</ele>
        <time>2014-01-31T15:40:10Z</time>
      </trkpt>
      <trkpt lat="45.37215" lon="6.53069">
        <ele>1816.4</ele>
        <time>2014-01-31T15:40:12Z</time>
      </trkpt>
      <trkpt lat="45.37234" lon="6.5305">
        <ele>1814.25</ele>
        <time>2014-01-31T15:40:14Z</time>
      </trkpt>
      <trkpt lat="45.37247" lon="6.53028">
        <ele>1811.98</ele>
        <time>2014-01-31T15:40:16Z</time>
      </trkpt>
      <trkpt lat="45.37258" lon="6.52993">
        <ele>1807.28</ele>
        <time>2014-01-31T15:40:18Z</time>
      </trkpt>
      <trkpt lat="45.37272" lon="6.52959">
        <ele>1801.94</ele>
        <time>2014-01-31T15:40:20Z</time>
      </trkpt>
      <trkpt lat="45.37285" lon="6.52933">
        <ele>1799.67</ele>
        <time>2014-01-31T15:40:22Z</time>
      </trkpt>
      <trkpt lat="45.37295" lon="6.52908">
        <ele>1798.58</ele>
        <time>2014-01-31T15:40:24Z</time>
      </trkpt>
      <trkpt lat="45.37306" lon="6.52885">
        <ele>1797.6</ele>
        <time>2014-01-31T15:40:27Z</time>
      </trkpt>
      <trkpt lat="45.373" lon="6.52854">
        <ele>1793.95</ele>
        <time>2014-01-31T15:40:51Z</time>
      </trkpt>
      <trkpt lat="45.37299" lon="6.52822">
        <ele>1792</ele>
        <time>2014-01-31T15:40:54Z</time>
      </trkpt>
      <trkpt lat="45.37298" lon="6.52787">
        <ele>1790.48</ele>
        <time>2014-01-31T15:40:57Z</time>
      </trkpt>
      <trkpt lat="45.37298" lon="6.52755">
        <ele>1788.54</ele>
        <time>2014-01-31T15:41:00Z</time>
      </trkpt>
      <trkpt lat="45.37296" lon="6.52728">
        <ele>1783.42</ele>
        <time>2014-01-31T15:41:03Z</time>
      </trkpt>
      <trkpt lat="45.37293" lon="6.52692">
        <ele>1778.46</ele>
        <time>2014-01-31T15:41:06Z</time>
      </trkpt>
      <trkpt lat="45.37288" lon="6.52666">
        <ele>1776.09</ele>
        <time>2014-01-31T15:41:08Z</time>
      </trkpt>
      <trkpt lat="45.37282" lon="6.52637">
        <ele>1773.34</ele>
        <time>2014-01-31T15:41:10Z</time>
      </trkpt>
      <trkpt lat="45.37277" lon="6.52605">
        <ele>1770.56</ele>
        <time>2014-01-31T15:41:12Z</time>
      </trkpt>
      <trkpt lat="45.37272" lon="6.52577">
        <ele>1768.84</ele>
        <time>2014-01-31T15:41:14Z</time>
      </trkpt>
      <trkpt lat="45.37273" lon="6.52541">
        <ele>1766.4</ele>
        <time>2014-01-31T15:41:17Z</time>
      </trkpt>
      <trkpt lat="45.37281" lon="6.5251">
        <ele>1764.26</ele>
        <time>2014-01-31T15:41:20Z</time>
      </trkpt>
      <trkpt lat="45.37295" lon="6.52484">
        <ele>1761.87</ele>
        <time>2014-01-31T15:41:23Z</time>
      </trkpt>
      <trkpt lat="45.37308" lon="6.52462">
        <ele>1758.15</ele>
        <time>2014-01-31T15:41:26Z</time>
      </trkpt>
      <trkpt lat="45.37321" lon="6.52442">
        <ele>1757.46</ele>
        <time>2014-01-31T15:41:29Z</time>
      </trkpt>
      <trkpt lat="45.37334" lon="6.52422">
        <ele>1758.46</ele>
        <time>2014-01-31T15:41:32Z</time>
      </trkpt>
      <trkpt lat="45.37349" lon="6.52399">
        <ele>1756.69</ele>
        <time>2014-01-31T15:41:35Z</time>
      </trkpt>
      <trkpt lat="45.3737" lon="6.52377">
        <ele>1754.57</ele>
        <time>2014-01-31T15:41:38Z</time>
      </trkpt>
      <trkpt lat="45.37387" lon="6.52369">
        <ele>1755.12</ele>
        <time>2014-01-31T15:41:40Z</time>
      </trkpt>
      <trkpt lat="45.37408" lon="6.52366">
        <ele>1756.4</ele>
        <time>2014-01-31T15:41:42Z</time>
      </trkpt>
      <trkpt lat="45.37432" lon="6.5236">
        <ele>1751.04</ele>
        <time>2014-01-31T15:41:44Z</time>
      </trkpt>
      <trkpt lat="45.37452" lon="6.5235">
        <ele>1745.84</ele>
        <time>2014-01-31T15:41:46Z</time>
      </trkpt>
      <trkpt lat="45.37473" lon="6.52339">
        <ele>1742.99</ele>
        <time>2014-01-31T15:41:48Z</time>
      </trkpt>
      <trkpt lat="45.37493" lon="6.52324">
        <ele>1737.61</ele>
        <time>2014-01-31T15:41:50Z</time>
      </trkpt>
      <trkpt lat="45.3751" lon="6.52302">
        <ele>1732.9</ele>
        <time>2014-01-31T15:41:52Z</time>
      </trkpt>
      <trkpt lat="45.37528" lon="6.52281">
        <ele>1726.74</ele>
        <time>2014-01-31T15:41:54Z</time>
      </trkpt>
      <trkpt lat="45.37542" lon="6.52256">
        <ele>1724.12</ele>
        <time>2014-01-31T15:41:56Z</time>
      </trkpt>
      <trkpt lat="45.37553" lon="6.52229">
        <ele>1720.75</ele>
        <time>2014-01-31T15:41:58Z</time>
      </trkpt>
      <trkpt lat="45.37705" lon="6.50384">
        <ele>1419.8</ele>
        <time>2014-01-31T15:48:51Z</time>
      </trkpt>
      <trkpt lat="45.3772" lon="6.50415">
        <ele>1422.91</ele>
        <time>2014-01-31T15:51:09Z</time>
      </trkpt>
      <trkpt lat="45.37737" lon="6.50429">
        <ele>1422.25</ele>
        <time>2014-01-31T15:51:22Z</time>
      </trkpt>
      <trkpt lat="45.37755" lon="6.50434">
        <ele>1420.66</ele>
        <time>2014-01-31T15:52:24Z</time>
      </trkpt>
      <trkpt lat="45.37769" lon="6.50418">
        <ele>1417.81</ele>
        <time>2014-01-31T15:52:37Z</time>
      </trkpt>
      <trkpt lat="45.37787" lon="6.50418">
        <ele>1416.46</ele>
        <time>2014-01-31T15:52:49Z</time>
      </trkpt>
      <trkpt lat="45.3779" lon="6.50391">
        <ele>1413.87</ele>
        <time>2014-01-31T15:53:35Z</time>
      </trkpt>
      <trkpt lat="45.378" lon="6.50369">
        <ele>1410.47</ele>
        <time>2014-01-31T15:54:20Z</time>
      </trkpt>
      <trkpt lat="45.37818" lon="6.50377">
        <ele>1408.98</ele>
        <time>2014-01-31T15:54:28Z</time>
      </trkpt>
      <trkpt lat="45.37833" lon="6.5039">
        <ele>1408.16</ele>
        <time>2014-01-31T15:54:38Z</time>
      </trkpt>
      <trkpt lat="45.37851" lon="6.50396">
        <ele>1404.84</ele>
        <time>2014-01-31T15:54:49Z</time>
      </trkpt>
      <trkpt lat="45.37866" lon="6.50411">
        <ele>1403.22</ele>
        <time>2014-01-31T15:55:04Z</time>
      </trkpt>
      <trkpt lat="45.3788" lon="6.50428">
        <ele>1402.55</ele>
        <time>2014-01-31T15:55:20Z</time>
      </trkpt>
      <trkpt lat="45.37895" lon="6.50444">
        <ele>1401.54</ele>
        <time>2014-01-31T15:55:34Z</time>
      </trkpt>
      <trkpt lat="45.37923" lon="6.50462">
        <ele>1397.18</ele>
        <time>2014-01-31T15:57:23Z</time>
      </trkpt>
      <trkpt lat="45.3794" lon="6.50454">
        <ele>1391.77</ele>
        <time>2014-01-31T15:57:33Z</time>
      </trkpt>
      <trkpt lat="45.37957" lon="6.50468">
        <ele>1390.75</ele>
        <time>2014-01-31T15:57:51Z</time>
      </trkpt>
      <trkpt lat="45.37975" lon="6.50459">
        <ele>1386.72</ele>
        <time>2014-01-31T15:58:11Z</time>
      </trkpt>
      <trkpt lat="45.37994" lon="6.50452">
        <ele>1384.18</ele>
        <time>2014-01-31T15:58:24Z</time>
      </trkpt>
      <trkpt lat="45.38009" lon="6.50437">
        <ele>1381.37</ele>
        <time>2014-01-31T15:58:41Z</time>
      </trkpt>
      <trkpt lat="45.3802" lon="6.5038">
        <ele>1374.24</ele>
        <time>2014-01-31T16:04:30Z</time>
      </trkpt>
      <trkpt lat="45.38007" lon="6.50417">
        <ele>1380.11</ele>
        <time>2014-01-31T16:05:13Z</time>
      </trkpt>
      <trkpt lat="45.37996" lon="6.50438">
        <ele>1382.95</ele>
        <time>2014-01-31T16:07:02Z</time>
      </trkpt>
      <trkpt lat="45.37978" lon="6.50448">
        <ele>1385.58</ele>
        <time>2014-01-31T16:07:16Z</time>
      </trkpt>
      <trkpt lat="45.37962" lon="6.50461">
        <ele>1388.89</ele>
        <time>2014-01-31T16:07:35Z</time>
      </trkpt>
      <trkpt lat="45.37945" lon="6.50452">
        <ele>1390.39</ele>
        <time>2014-01-31T16:07:54Z</time>
      </trkpt>
      <trkpt lat="45.37925" lon="6.50446">
        <ele>1394</ele>
        <time>2014-01-31T16:08:12Z</time>
      </trkpt>
      <trkpt lat="45.37909" lon="6.50435">
        <ele>1396.51</ele>
        <time>2014-01-31T16:08:24Z</time>
      </trkpt>
      <trkpt lat="45.37892" lon="6.50422">
        <ele>1399.03</ele>
        <time>2014-01-31T16:08:38Z</time>
      </trkpt>
      <trkpt lat="45.37874" lon="6.50413">
        <ele>1401.71</ele>
        <time>2014-01-31T16:08:59Z</time>
      </trkpt>
      <trkpt lat="45.37862" lon="6.50391">
        <ele>1402.12</ele>
        <time>2014-01-31T16:09:10Z</time>
      </trkpt>
      <trkpt lat="45.37846" lon="6.50377">
        <ele>1403.76</ele>
        <time>2014-01-31T16:09:22Z</time>
      </trkpt>
      <trkpt lat="45.37829" lon="6.50367">
        <ele>1406.18</ele>
        <time>2014-01-31T16:09:39Z</time>
      </trkpt>
      <trkpt lat="45.37812" lon="6.50359">
        <ele>1407.76</ele>
        <time>2014-01-31T16:09:53Z</time>
      </trkpt>
      <trkpt lat="45.37806" lon="6.50383">
        <ele>1411.36</ele>
        <time>2014-01-31T16:11:09Z</time>
      </trkpt>
      <trkpt lat="45.37772" lon="6.50392">
        <ele>1415.42</ele>
        <time>2014-01-31T16:11:44Z</time>
      </trkpt>
      <trkpt lat="45.3776" lon="6.50414">
        <ele>1418.05</ele>
        <time>2014-01-31T16:12:02Z</time>
      </trkpt>
      <trkpt lat="45.37765" lon="6.50441">
        <ele>1421.03</ele>
        <time>2014-01-31T16:12:33Z</time>
      </trkpt>
      <trkpt lat="45.37748" lon="6.50454">
        <ele>1423.32</ele>
        <time>2014-01-31T16:12:49Z</time>
      </trkpt>
    </trkseg>
  </trk>
</gpx>